<?xml version="1.0" encoding="UTF-8" standalone="no" ?>
<gpx xmlns="http://www.topografix.com/GPX/1/1" xmlns:xsi="http://www.w3.org/2001/XMLSchema-instance" xsi:schemaLocation="http://www.topografix.com/GPX/1/1 http://www.topografix.com/GPX/1/1/gpx.xsd" version="1.1" creator="VisuGPX - https://www.visugpx.com">
  <metadata>
    <name>55- VTT trace de St-Médard</name>
    <desc><![CDATA[Trace de St-Médard]]></desc>
  </metadata>
  <trk>
    <name><![CDATA[55- VTT trace de St-Médard]]></name>
    <trkseg>
      <trkpt lat="49.7538" lon="5.29839">
        <ele>382.60000610352</ele>
        <time>2022-08-21T07:53:20.000Z</time>
      </trkpt>
      <trkpt lat="49.75374" lon="5.29841">
        <ele>386.20001220703</ele>
        <time>2022-08-21T07:54:24.000Z</time>
      </trkpt>
      <trkpt lat="49.75372" lon="5.29836">
        <ele>386.79998779297</ele>
        <time>2022-08-21T07:54:26.000Z</time>
      </trkpt>
      <trkpt lat="49.7537" lon="5.29831">
        <ele>387</ele>
        <time>2022-08-21T07:54:28.000Z</time>
      </trkpt>
      <trkpt lat="49.75369" lon="5.29819">
        <ele>385.79998779297</ele>
        <time>2022-08-21T07:54:31.000Z</time>
      </trkpt>
      <trkpt lat="49.75375" lon="5.29802">
        <ele>381</ele>
        <time>2022-08-21T07:54:35.000Z</time>
      </trkpt>
      <trkpt lat="49.7539" lon="5.29777">
        <ele>375.60000610352</ele>
        <time>2022-08-21T07:54:42.000Z</time>
      </trkpt>
      <trkpt lat="49.75404" lon="5.29748">
        <ele>376</ele>
        <time>2022-08-21T07:54:50.000Z</time>
      </trkpt>
      <trkpt lat="49.75409" lon="5.29729">
        <ele>377</ele>
        <time>2022-08-21T07:54:56.000Z</time>
      </trkpt>
      <trkpt lat="49.75407" lon="5.29725">
        <ele>377.20001220703</ele>
        <time>2022-08-21T07:54:58.000Z</time>
      </trkpt>
      <trkpt lat="49.75405" lon="5.29715">
        <ele>377.79998779297</ele>
        <time>2022-08-21T07:55:02.000Z</time>
      </trkpt>
      <trkpt lat="49.75405" lon="5.29714">
        <ele>378</ele>
        <time>2022-08-21T07:55:03.000Z</time>
      </trkpt>
      <trkpt lat="49.75403" lon="5.29711">
        <ele>378.20001220703</ele>
        <time>2022-08-21T07:55:06.000Z</time>
      </trkpt>
      <trkpt lat="49.75399" lon="5.29708">
        <ele>378.20001220703</ele>
        <time>2022-08-21T07:55:09.000Z</time>
      </trkpt>
      <trkpt lat="49.75389" lon="5.29702">
        <ele>377.60000610352</ele>
        <time>2022-08-21T07:55:28.000Z</time>
      </trkpt>
      <trkpt lat="49.75382" lon="5.29696">
        <ele>377.20001220703</ele>
        <time>2022-08-21T07:55:31.000Z</time>
      </trkpt>
      <trkpt lat="49.75365" lon="5.2968">
        <ele>376</ele>
        <time>2022-08-21T07:55:35.000Z</time>
      </trkpt>
      <trkpt lat="49.75361" lon="5.29677">
        <ele>375.39999389648</ele>
        <time>2022-08-21T07:55:36.000Z</time>
      </trkpt>
      <trkpt lat="49.75348" lon="5.29668">
        <ele>373.79998779297</ele>
        <time>2022-08-21T07:55:39.000Z</time>
      </trkpt>
      <trkpt lat="49.75337" lon="5.2966">
        <ele>372.60000610352</ele>
        <time>2022-08-21T07:55:41.000Z</time>
      </trkpt>
      <trkpt lat="49.75316" lon="5.2965">
        <ele>370.79998779297</ele>
        <time>2022-08-21T07:55:44.000Z</time>
      </trkpt>
      <trkpt lat="49.75301" lon="5.29643">
        <ele>370.20001220703</ele>
        <time>2022-08-21T07:55:46.000Z</time>
      </trkpt>
      <trkpt lat="49.75294" lon="5.29639">
        <ele>370.20001220703</ele>
        <time>2022-08-21T07:55:47.000Z</time>
      </trkpt>
      <trkpt lat="49.75274" lon="5.29628">
        <ele>371</ele>
        <time>2022-08-21T07:55:50.000Z</time>
      </trkpt>
      <trkpt lat="49.75254" lon="5.29621">
        <ele>372.20001220703</ele>
        <time>2022-08-21T07:55:53.000Z</time>
      </trkpt>
      <trkpt lat="49.75221" lon="5.29619">
        <ele>370.60000610352</ele>
        <time>2022-08-21T07:55:58.000Z</time>
      </trkpt>
      <trkpt lat="49.75214" lon="5.2962">
        <ele>370</ele>
        <time>2022-08-21T07:55:59.000Z</time>
      </trkpt>
      <trkpt lat="49.75186" lon="5.29619">
        <ele>370</ele>
        <time>2022-08-21T07:56:03.000Z</time>
      </trkpt>
      <trkpt lat="49.75165" lon="5.29619">
        <ele>370.60000610352</ele>
        <time>2022-08-21T07:56:06.000Z</time>
      </trkpt>
      <trkpt lat="49.75153" lon="5.29619">
        <ele>370.60000610352</ele>
        <time>2022-08-21T07:56:08.000Z</time>
      </trkpt>
      <trkpt lat="49.75118" lon="5.2962">
        <ele>370.39999389648</ele>
        <time>2022-08-21T07:56:14.000Z</time>
      </trkpt>
      <trkpt lat="49.75066" lon="5.29622">
        <ele>374.20001220703</ele>
        <time>2022-08-21T07:56:24.000Z</time>
      </trkpt>
      <trkpt lat="49.75007" lon="5.29622">
        <ele>373</ele>
        <time>2022-08-21T07:56:35.000Z</time>
      </trkpt>
      <trkpt lat="49.74955" lon="5.29622">
        <ele>369.79998779297</ele>
        <time>2022-08-21T07:56:44.000Z</time>
      </trkpt>
      <trkpt lat="49.74948" lon="5.29622">
        <ele>369.39999389648</ele>
        <time>2022-08-21T07:56:45.000Z</time>
      </trkpt>
      <trkpt lat="49.74922" lon="5.29622">
        <ele>367.79998779297</ele>
        <time>2022-08-21T07:56:49.000Z</time>
      </trkpt>
      <trkpt lat="49.74902" lon="5.29622">
        <ele>367.60000610352</ele>
        <time>2022-08-21T07:56:52.000Z</time>
      </trkpt>
      <trkpt lat="49.74896" lon="5.29622">
        <ele>367.79998779297</ele>
        <time>2022-08-21T07:56:53.000Z</time>
      </trkpt>
      <trkpt lat="49.74878" lon="5.29619">
        <ele>366.79998779297</ele>
        <time>2022-08-21T07:56:56.000Z</time>
      </trkpt>
      <trkpt lat="49.74868" lon="5.29609">
        <ele>365.39999389648</ele>
        <time>2022-08-21T07:56:58.000Z</time>
      </trkpt>
      <trkpt lat="49.74858" lon="5.29589">
        <ele>365</ele>
        <time>2022-08-21T07:57:01.000Z</time>
      </trkpt>
      <trkpt lat="49.74855" lon="5.29582">
        <ele>365</ele>
        <time>2022-08-21T07:57:02.000Z</time>
      </trkpt>
      <trkpt lat="49.7485" lon="5.29566">
        <ele>365.79998779297</ele>
        <time>2022-08-21T07:57:04.000Z</time>
      </trkpt>
      <trkpt lat="49.74843" lon="5.29541">
        <ele>368.39999389648</ele>
        <time>2022-08-21T07:57:07.000Z</time>
      </trkpt>
      <trkpt lat="49.74826" lon="5.29484">
        <ele>375</ele>
        <time>2022-08-21T07:57:15.000Z</time>
      </trkpt>
      <trkpt lat="49.74817" lon="5.2946">
        <ele>377.39999389648</ele>
        <time>2022-08-21T07:57:19.000Z</time>
      </trkpt>
      <trkpt lat="49.74811" lon="5.2945">
        <ele>378.20001220703</ele>
        <time>2022-08-21T07:57:21.000Z</time>
      </trkpt>
      <trkpt lat="49.74792" lon="5.29434">
        <ele>380.39999389648</ele>
        <time>2022-08-21T07:57:26.000Z</time>
      </trkpt>
      <trkpt lat="49.7478" lon="5.2943">
        <ele>381</ele>
        <time>2022-08-21T07:57:29.000Z</time>
      </trkpt>
      <trkpt lat="49.74771" lon="5.29429">
        <ele>381</ele>
        <time>2022-08-21T07:57:32.000Z</time>
      </trkpt>
      <trkpt lat="49.74766" lon="5.29431">
        <ele>380.39999389648</ele>
        <time>2022-08-21T07:57:35.000Z</time>
      </trkpt>
      <trkpt lat="49.74761" lon="5.2943">
        <ele>380.39999389648</ele>
        <time>2022-08-21T07:57:37.000Z</time>
      </trkpt>
      <trkpt lat="49.74748" lon="5.29427">
        <ele>380.20001220703</ele>
        <time>2022-08-21T07:57:42.000Z</time>
      </trkpt>
      <trkpt lat="49.74737" lon="5.29424">
        <ele>379.79998779297</ele>
        <time>2022-08-21T07:57:48.000Z</time>
      </trkpt>
      <trkpt lat="49.74717" lon="5.29416">
        <ele>377.79998779297</ele>
        <time>2022-08-21T07:57:54.000Z</time>
      </trkpt>
      <trkpt lat="49.74689" lon="5.29411">
        <ele>375.39999389648</ele>
        <time>2022-08-21T07:58:02.000Z</time>
      </trkpt>
      <trkpt lat="49.74664" lon="5.29422">
        <ele>376.79998779297</ele>
        <time>2022-08-21T07:58:09.000Z</time>
      </trkpt>
      <trkpt lat="49.74661" lon="5.29424">
        <ele>377.20001220703</ele>
        <time>2022-08-21T07:58:10.000Z</time>
      </trkpt>
      <trkpt lat="49.74647" lon="5.29432">
        <ele>376.39999389648</ele>
        <time>2022-08-21T07:58:15.000Z</time>
      </trkpt>
      <trkpt lat="49.7463" lon="5.29447">
        <ele>377.60000610352</ele>
        <time>2022-08-21T07:58:21.000Z</time>
      </trkpt>
      <trkpt lat="49.74619" lon="5.29459">
        <ele>375.79998779297</ele>
        <time>2022-08-21T07:58:24.000Z</time>
      </trkpt>
      <trkpt lat="49.74611" lon="5.29472">
        <ele>374</ele>
        <time>2022-08-21T07:58:26.000Z</time>
      </trkpt>
      <trkpt lat="49.74606" lon="5.29483">
        <ele>372.60000610352</ele>
        <time>2022-08-21T07:58:28.000Z</time>
      </trkpt>
      <trkpt lat="49.74602" lon="5.29496">
        <ele>369</ele>
        <time>2022-08-21T07:58:30.000Z</time>
      </trkpt>
      <trkpt lat="49.74598" lon="5.29505">
        <ele>368.39999389648</ele>
        <time>2022-08-21T07:58:31.000Z</time>
      </trkpt>
      <trkpt lat="49.74593" lon="5.29523">
        <ele>363.39999389648</ele>
        <time>2022-08-21T07:58:33.000Z</time>
      </trkpt>
      <trkpt lat="49.74588" lon="5.29547">
        <ele>361.79998779297</ele>
        <time>2022-08-21T07:58:36.000Z</time>
      </trkpt>
      <trkpt lat="49.74583" lon="5.29565">
        <ele>361</ele>
        <time>2022-08-21T07:58:38.000Z</time>
      </trkpt>
      <trkpt lat="49.74578" lon="5.29575">
        <ele>360.60000610352</ele>
        <time>2022-08-21T07:58:39.000Z</time>
      </trkpt>
      <trkpt lat="49.74567" lon="5.29595">
        <ele>360.60000610352</ele>
        <time>2022-08-21T07:58:42.000Z</time>
      </trkpt>
      <trkpt lat="49.74561" lon="5.29602">
        <ele>360</ele>
        <time>2022-08-21T07:58:43.000Z</time>
      </trkpt>
      <trkpt lat="49.74555" lon="5.2961">
        <ele>360.39999389648</ele>
        <time>2022-08-21T07:58:44.000Z</time>
      </trkpt>
      <trkpt lat="49.74551" lon="5.29615">
        <ele>360.79998779297</ele>
        <time>2022-08-21T07:58:45.000Z</time>
      </trkpt>
      <trkpt lat="49.74547" lon="5.29622">
        <ele>360.79998779297</ele>
        <time>2022-08-21T07:58:46.000Z</time>
      </trkpt>
      <trkpt lat="49.74538" lon="5.29634">
        <ele>359.39999389648</ele>
        <time>2022-08-21T07:58:48.000Z</time>
      </trkpt>
      <trkpt lat="49.74534" lon="5.29641">
        <ele>359</ele>
        <time>2022-08-21T07:58:49.000Z</time>
      </trkpt>
      <trkpt lat="49.74528" lon="5.29646">
        <ele>359</ele>
        <time>2022-08-21T07:58:50.000Z</time>
      </trkpt>
      <trkpt lat="49.74518" lon="5.29655">
        <ele>358.20001220703</ele>
        <time>2022-08-21T07:58:52.000Z</time>
      </trkpt>
      <trkpt lat="49.74508" lon="5.29662">
        <ele>357.20001220703</ele>
        <time>2022-08-21T07:58:54.000Z</time>
      </trkpt>
      <trkpt lat="49.74497" lon="5.29671">
        <ele>358.39999389648</ele>
        <time>2022-08-21T07:58:56.000Z</time>
      </trkpt>
      <trkpt lat="49.74478" lon="5.29684">
        <ele>358.79998779297</ele>
        <time>2022-08-21T07:58:59.000Z</time>
      </trkpt>
      <trkpt lat="49.74443" lon="5.29713">
        <ele>361.79998779297</ele>
        <time>2022-08-21T07:59:04.000Z</time>
      </trkpt>
      <trkpt lat="49.74436" lon="5.29717">
        <ele>362.20001220703</ele>
        <time>2022-08-21T07:59:05.000Z</time>
      </trkpt>
      <trkpt lat="49.74425" lon="5.29721">
        <ele>363.60000610352</ele>
        <time>2022-08-21T07:59:06.000Z</time>
      </trkpt>
      <trkpt lat="49.74417" lon="5.29723">
        <ele>364.20001220703</ele>
        <time>2022-08-21T07:59:07.000Z</time>
      </trkpt>
      <trkpt lat="49.74393" lon="5.29734">
        <ele>365.79998779297</ele>
        <time>2022-08-21T07:59:10.000Z</time>
      </trkpt>
      <trkpt lat="49.74353" lon="5.29731">
        <ele>366</ele>
        <time>2022-08-21T07:59:16.000Z</time>
      </trkpt>
      <trkpt lat="49.74341" lon="5.2973">
        <ele>366</ele>
        <time>2022-08-21T07:59:18.000Z</time>
      </trkpt>
      <trkpt lat="49.74315" lon="5.29728">
        <ele>366.39999389648</ele>
        <time>2022-08-21T07:59:22.000Z</time>
      </trkpt>
      <trkpt lat="49.74302" lon="5.29728">
        <ele>366.79998779297</ele>
        <time>2022-08-21T07:59:24.000Z</time>
      </trkpt>
      <trkpt lat="49.74273" lon="5.29731">
        <ele>368.39999389648</ele>
        <time>2022-08-21T07:59:29.000Z</time>
      </trkpt>
      <trkpt lat="49.74267" lon="5.29734">
        <ele>368.20001220703</ele>
        <time>2022-08-21T07:59:30.000Z</time>
      </trkpt>
      <trkpt lat="49.74253" lon="5.29743">
        <ele>367</ele>
        <time>2022-08-21T07:59:33.000Z</time>
      </trkpt>
      <trkpt lat="49.74249" lon="5.29747">
        <ele>367.20001220703</ele>
        <time>2022-08-21T07:59:34.000Z</time>
      </trkpt>
      <trkpt lat="49.74247" lon="5.29752">
        <ele>366.79998779297</ele>
        <time>2022-08-21T07:59:35.000Z</time>
      </trkpt>
      <trkpt lat="49.74228" lon="5.29785">
        <ele>363.79998779297</ele>
        <time>2022-08-21T07:59:41.000Z</time>
      </trkpt>
      <trkpt lat="49.74225" lon="5.29793">
        <ele>363.60000610352</ele>
        <time>2022-08-21T07:59:42.000Z</time>
      </trkpt>
      <trkpt lat="49.74218" lon="5.29807">
        <ele>363.39999389648</ele>
        <time>2022-08-21T07:59:44.000Z</time>
      </trkpt>
      <trkpt lat="49.742" lon="5.29837">
        <ele>363.60000610352</ele>
        <time>2022-08-21T07:59:48.000Z</time>
      </trkpt>
      <trkpt lat="49.74188" lon="5.29861">
        <ele>364</ele>
        <time>2022-08-21T07:59:51.000Z</time>
      </trkpt>
      <trkpt lat="49.7417" lon="5.29889">
        <ele>362.20001220703</ele>
        <time>2022-08-21T07:59:55.000Z</time>
      </trkpt>
      <trkpt lat="49.74156" lon="5.2991">
        <ele>360.20001220703</ele>
        <time>2022-08-21T07:59:58.000Z</time>
      </trkpt>
      <trkpt lat="49.74138" lon="5.29934">
        <ele>357.39999389648</ele>
        <time>2022-08-21T08:00:02.000Z</time>
      </trkpt>
      <trkpt lat="49.74134" lon="5.29939">
        <ele>356.39999389648</ele>
        <time>2022-08-21T08:00:03.000Z</time>
      </trkpt>
      <trkpt lat="49.74106" lon="5.29965">
        <ele>354.79998779297</ele>
        <time>2022-08-21T08:00:09.000Z</time>
      </trkpt>
      <trkpt lat="49.74096" lon="5.29971">
        <ele>354.39999389648</ele>
        <time>2022-08-21T08:00:11.000Z</time>
      </trkpt>
      <trkpt lat="49.74081" lon="5.2997">
        <ele>353.39999389648</ele>
        <time>2022-08-21T08:00:14.000Z</time>
      </trkpt>
      <trkpt lat="49.74067" lon="5.29964">
        <ele>352.60000610352</ele>
        <time>2022-08-21T08:00:17.000Z</time>
      </trkpt>
      <trkpt lat="49.74055" lon="5.29959">
        <ele>352.39999389648</ele>
        <time>2022-08-21T08:00:20.000Z</time>
      </trkpt>
      <trkpt lat="49.74033" lon="5.29942">
        <ele>352.39999389648</ele>
        <time>2022-08-21T08:00:27.000Z</time>
      </trkpt>
      <trkpt lat="49.74022" lon="5.29933">
        <ele>352</ele>
        <time>2022-08-21T08:00:32.000Z</time>
      </trkpt>
      <trkpt lat="49.7402" lon="5.29932">
        <ele>352</ele>
        <time>2022-08-21T08:00:33.000Z</time>
      </trkpt>
      <trkpt lat="49.74016" lon="5.29926">
        <ele>352.20001220703</ele>
        <time>2022-08-21T08:00:36.000Z</time>
      </trkpt>
      <trkpt lat="49.74013" lon="5.29923">
        <ele>352.20001220703</ele>
        <time>2022-08-21T08:00:38.000Z</time>
      </trkpt>
      <trkpt lat="49.74011" lon="5.2992">
        <ele>352.20001220703</ele>
        <time>2022-08-21T08:00:39.000Z</time>
      </trkpt>
      <trkpt lat="49.74006" lon="5.29914">
        <ele>352.60000610352</ele>
        <time>2022-08-21T08:00:42.000Z</time>
      </trkpt>
      <trkpt lat="49.74" lon="5.29907">
        <ele>353.39999389648</ele>
        <time>2022-08-21T08:00:46.000Z</time>
      </trkpt>
      <trkpt lat="49.73998" lon="5.29904">
        <ele>353.79998779297</ele>
        <time>2022-08-21T08:00:47.000Z</time>
      </trkpt>
      <trkpt lat="49.7399" lon="5.29893">
        <ele>355</ele>
        <time>2022-08-21T08:00:51.000Z</time>
      </trkpt>
      <trkpt lat="49.73988" lon="5.2989">
        <ele>355.39999389648</ele>
        <time>2022-08-21T08:00:52.000Z</time>
      </trkpt>
      <trkpt lat="49.73982" lon="5.29884">
        <ele>356</ele>
        <time>2022-08-21T08:00:55.000Z</time>
      </trkpt>
      <trkpt lat="49.7398" lon="5.29882">
        <ele>356.39999389648</ele>
        <time>2022-08-21T08:00:56.000Z</time>
      </trkpt>
      <trkpt lat="49.73975" lon="5.29874">
        <ele>358</ele>
        <time>2022-08-21T08:00:59.000Z</time>
      </trkpt>
      <trkpt lat="49.73971" lon="5.29866">
        <ele>360</ele>
        <time>2022-08-21T08:01:02.000Z</time>
      </trkpt>
      <trkpt lat="49.73968" lon="5.29859">
        <ele>361.60000610352</ele>
        <time>2022-08-21T08:01:05.000Z</time>
      </trkpt>
      <trkpt lat="49.73966" lon="5.29853">
        <ele>363</ele>
        <time>2022-08-21T08:01:08.000Z</time>
      </trkpt>
      <trkpt lat="49.73965" lon="5.29851">
        <ele>363.20001220703</ele>
        <time>2022-08-21T08:01:09.000Z</time>
      </trkpt>
      <trkpt lat="49.73959" lon="5.29841">
        <ele>365.39999389648</ele>
        <time>2022-08-21T08:01:15.000Z</time>
      </trkpt>
      <trkpt lat="49.73954" lon="5.29837">
        <ele>366.20001220703</ele>
        <time>2022-08-21T08:01:18.000Z</time>
      </trkpt>
      <trkpt lat="49.73943" lon="5.29831">
        <ele>368.60000610352</ele>
        <time>2022-08-21T08:01:22.000Z</time>
      </trkpt>
      <trkpt lat="49.73935" lon="5.29825">
        <ele>370.79998779297</ele>
        <time>2022-08-21T08:01:25.000Z</time>
      </trkpt>
      <trkpt lat="49.73933" lon="5.29823">
        <ele>371.39999389648</ele>
        <time>2022-08-21T08:01:26.000Z</time>
      </trkpt>
      <trkpt lat="49.73925" lon="5.2982">
        <ele>373.20001220703</ele>
        <time>2022-08-21T08:01:29.000Z</time>
      </trkpt>
      <trkpt lat="49.73921" lon="5.29817">
        <ele>374.60000610352</ele>
        <time>2022-08-21T08:01:31.000Z</time>
      </trkpt>
      <trkpt lat="49.73919" lon="5.29815">
        <ele>375.39999389648</ele>
        <time>2022-08-21T08:01:32.000Z</time>
      </trkpt>
      <trkpt lat="49.73912" lon="5.29812">
        <ele>377.20001220703</ele>
        <time>2022-08-21T08:01:35.000Z</time>
      </trkpt>
      <trkpt lat="49.73907" lon="5.2981">
        <ele>378.79998779297</ele>
        <time>2022-08-21T08:01:37.000Z</time>
      </trkpt>
      <trkpt lat="49.73905" lon="5.2981">
        <ele>379.20001220703</ele>
        <time>2022-08-21T08:01:38.000Z</time>
      </trkpt>
      <trkpt lat="49.73899" lon="5.29806">
        <ele>381.20001220703</ele>
        <time>2022-08-21T08:01:41.000Z</time>
      </trkpt>
      <trkpt lat="49.73892" lon="5.29803">
        <ele>382.60000610352</ele>
        <time>2022-08-21T08:01:44.000Z</time>
      </trkpt>
      <trkpt lat="49.73891" lon="5.29802">
        <ele>383</ele>
        <time>2022-08-21T08:01:45.000Z</time>
      </trkpt>
      <trkpt lat="49.73884" lon="5.29799">
        <ele>383.79998779297</ele>
        <time>2022-08-21T08:01:48.000Z</time>
      </trkpt>
      <trkpt lat="49.73881" lon="5.29798">
        <ele>384.20001220703</ele>
        <time>2022-08-21T08:01:50.000Z</time>
      </trkpt>
      <trkpt lat="49.73876" lon="5.29795">
        <ele>385</ele>
        <time>2022-08-21T08:01:53.000Z</time>
      </trkpt>
      <trkpt lat="49.73868" lon="5.2979">
        <ele>386</ele>
        <time>2022-08-21T08:01:57.000Z</time>
      </trkpt>
      <trkpt lat="49.73859" lon="5.29785">
        <ele>386.79998779297</ele>
        <time>2022-08-21T08:02:01.000Z</time>
      </trkpt>
      <trkpt lat="49.73855" lon="5.29783">
        <ele>387.20001220703</ele>
        <time>2022-08-21T08:02:03.000Z</time>
      </trkpt>
      <trkpt lat="49.73851" lon="5.29783">
        <ele>387.39999389648</ele>
        <time>2022-08-21T08:02:05.000Z</time>
      </trkpt>
      <trkpt lat="49.73846" lon="5.29777">
        <ele>388.20001220703</ele>
        <time>2022-08-21T08:02:09.000Z</time>
      </trkpt>
      <trkpt lat="49.73849" lon="5.2977">
        <ele>388.79998779297</ele>
        <time>2022-08-21T08:02:12.000Z</time>
      </trkpt>
      <trkpt lat="49.73858" lon="5.29763">
        <ele>389</ele>
        <time>2022-08-21T08:02:16.000Z</time>
      </trkpt>
      <trkpt lat="49.73861" lon="5.29762">
        <ele>389</ele>
        <time>2022-08-21T08:02:17.000Z</time>
      </trkpt>
      <trkpt lat="49.73872" lon="5.29766">
        <ele>388.20001220703</ele>
        <time>2022-08-21T08:02:22.000Z</time>
      </trkpt>
      <trkpt lat="49.73884" lon="5.29768">
        <ele>387.20001220703</ele>
        <time>2022-08-21T08:02:28.000Z</time>
      </trkpt>
      <trkpt lat="49.73889" lon="5.29768">
        <ele>386.79998779297</ele>
        <time>2022-08-21T08:02:30.000Z</time>
      </trkpt>
      <trkpt lat="49.73897" lon="5.29767">
        <ele>386.60000610352</ele>
        <time>2022-08-21T08:02:34.000Z</time>
      </trkpt>
      <trkpt lat="49.73908" lon="5.29762">
        <ele>385.60000610352</ele>
        <time>2022-08-21T08:02:41.000Z</time>
      </trkpt>
      <trkpt lat="49.73909" lon="5.29761">
        <ele>385.60000610352</ele>
        <time>2022-08-21T08:02:42.000Z</time>
      </trkpt>
      <trkpt lat="49.7391" lon="5.29761">
        <ele>385.60000610352</ele>
        <time>2022-08-21T08:03:04.000Z</time>
      </trkpt>
      <trkpt lat="49.73906" lon="5.29763">
        <ele>385.79998779297</ele>
        <time>2022-08-21T08:03:06.000Z</time>
      </trkpt>
      <trkpt lat="49.73895" lon="5.29768">
        <ele>386.60000610352</ele>
        <time>2022-08-21T08:03:11.000Z</time>
      </trkpt>
      <trkpt lat="49.73893" lon="5.29769">
        <ele>386.60000610352</ele>
        <time>2022-08-21T08:03:12.000Z</time>
      </trkpt>
      <trkpt lat="49.73879" lon="5.29764">
        <ele>387.79998779297</ele>
        <time>2022-08-21T08:03:18.000Z</time>
      </trkpt>
      <trkpt lat="49.73863" lon="5.2976">
        <ele>389</ele>
        <time>2022-08-21T08:03:25.000Z</time>
      </trkpt>
      <trkpt lat="49.73852" lon="5.29763">
        <ele>389.20001220703</ele>
        <time>2022-08-21T08:03:31.000Z</time>
      </trkpt>
      <trkpt lat="49.7385" lon="5.29761">
        <ele>389.39999389648</ele>
        <time>2022-08-21T08:03:32.000Z</time>
      </trkpt>
      <trkpt lat="49.73848" lon="5.29757">
        <ele>389.79998779297</ele>
        <time>2022-08-21T08:03:35.000Z</time>
      </trkpt>
      <trkpt lat="49.7384" lon="5.29754">
        <ele>390.20001220703</ele>
        <time>2022-08-21T08:03:44.000Z</time>
      </trkpt>
      <trkpt lat="49.73836" lon="5.29753">
        <ele>390.20001220703</ele>
        <time>2022-08-21T08:03:46.000Z</time>
      </trkpt>
      <trkpt lat="49.73826" lon="5.29748">
        <ele>390.20001220703</ele>
        <time>2022-08-21T08:03:52.000Z</time>
      </trkpt>
      <trkpt lat="49.73825" lon="5.29746">
        <ele>390.39999389648</ele>
        <time>2022-08-21T08:03:53.000Z</time>
      </trkpt>
      <trkpt lat="49.73822" lon="5.29742">
        <ele>390.60000610352</ele>
        <time>2022-08-21T08:03:55.000Z</time>
      </trkpt>
      <trkpt lat="49.73822" lon="5.29736">
        <ele>391</ele>
        <time>2022-08-21T08:03:58.000Z</time>
      </trkpt>
      <trkpt lat="49.73825" lon="5.29724">
        <ele>391.79998779297</ele>
        <time>2022-08-21T08:04:03.000Z</time>
      </trkpt>
      <trkpt lat="49.73826" lon="5.29722">
        <ele>391.79998779297</ele>
        <time>2022-08-21T08:04:04.000Z</time>
      </trkpt>
      <trkpt lat="49.73826" lon="5.29715">
        <ele>392</ele>
        <time>2022-08-21T08:04:07.000Z</time>
      </trkpt>
      <trkpt lat="49.73829" lon="5.29705">
        <ele>392.39999389648</ele>
        <time>2022-08-21T08:04:11.000Z</time>
      </trkpt>
      <trkpt lat="49.73832" lon="5.29699">
        <ele>393</ele>
        <time>2022-08-21T08:04:13.000Z</time>
      </trkpt>
      <trkpt lat="49.73836" lon="5.29684">
        <ele>394.20001220703</ele>
        <time>2022-08-21T08:04:18.000Z</time>
      </trkpt>
      <trkpt lat="49.73837" lon="5.29682">
        <ele>394.20001220703</ele>
        <time>2022-08-21T08:04:19.000Z</time>
      </trkpt>
      <trkpt lat="49.73841" lon="5.29667">
        <ele>394.79998779297</ele>
        <time>2022-08-21T08:04:24.000Z</time>
      </trkpt>
      <trkpt lat="49.73842" lon="5.29664">
        <ele>394.79998779297</ele>
        <time>2022-08-21T08:04:25.000Z</time>
      </trkpt>
      <trkpt lat="49.73843" lon="5.29641">
        <ele>395</ele>
        <time>2022-08-21T08:04:31.000Z</time>
      </trkpt>
      <trkpt lat="49.73843" lon="5.29637">
        <ele>394.79998779297</ele>
        <time>2022-08-21T08:04:32.000Z</time>
      </trkpt>
      <trkpt lat="49.73845" lon="5.29612">
        <ele>394</ele>
        <time>2022-08-21T08:04:38.000Z</time>
      </trkpt>
      <trkpt lat="49.73847" lon="5.29605">
        <ele>393.79998779297</ele>
        <time>2022-08-21T08:04:40.000Z</time>
      </trkpt>
      <trkpt lat="49.73853" lon="5.2959">
        <ele>393</ele>
        <time>2022-08-21T08:04:45.000Z</time>
      </trkpt>
      <trkpt lat="49.73854" lon="5.29583">
        <ele>392.79998779297</ele>
        <time>2022-08-21T08:04:47.000Z</time>
      </trkpt>
      <trkpt lat="49.73856" lon="5.29574">
        <ele>392.39999389648</ele>
        <time>2022-08-21T08:04:50.000Z</time>
      </trkpt>
      <trkpt lat="49.73861" lon="5.29558">
        <ele>392.20001220703</ele>
        <time>2022-08-21T08:04:54.000Z</time>
      </trkpt>
      <trkpt lat="49.7387" lon="5.29533">
        <ele>391.39999389648</ele>
        <time>2022-08-21T08:05:01.000Z</time>
      </trkpt>
      <trkpt lat="49.7388" lon="5.2951">
        <ele>390.60000610352</ele>
        <time>2022-08-21T08:05:08.000Z</time>
      </trkpt>
      <trkpt lat="49.73888" lon="5.2949">
        <ele>389.60000610352</ele>
        <time>2022-08-21T08:05:13.000Z</time>
      </trkpt>
      <trkpt lat="49.73895" lon="5.29469">
        <ele>389</ele>
        <time>2022-08-21T08:05:18.000Z</time>
      </trkpt>
      <trkpt lat="49.73907" lon="5.29442">
        <ele>391</ele>
        <time>2022-08-21T08:05:24.000Z</time>
      </trkpt>
      <trkpt lat="49.73915" lon="5.29405">
        <ele>394.39999389648</ele>
        <time>2022-08-21T08:05:31.000Z</time>
      </trkpt>
      <trkpt lat="49.73919" lon="5.29383">
        <ele>396</ele>
        <time>2022-08-21T08:05:35.000Z</time>
      </trkpt>
      <trkpt lat="49.7392" lon="5.29375">
        <ele>396.60000610352</ele>
        <time>2022-08-21T08:05:36.000Z</time>
      </trkpt>
      <trkpt lat="49.73927" lon="5.29341">
        <ele>398.20001220703</ele>
        <time>2022-08-21T08:05:42.000Z</time>
      </trkpt>
      <trkpt lat="49.73938" lon="5.29309">
        <ele>397.79998779297</ele>
        <time>2022-08-21T08:05:49.000Z</time>
      </trkpt>
      <trkpt lat="49.73947" lon="5.29274">
        <ele>396.20001220703</ele>
        <time>2022-08-21T08:05:55.000Z</time>
      </trkpt>
      <trkpt lat="49.73955" lon="5.29248">
        <ele>394.60000610352</ele>
        <time>2022-08-21T08:06:01.000Z</time>
      </trkpt>
      <trkpt lat="49.73964" lon="5.29227">
        <ele>393.60000610352</ele>
        <time>2022-08-21T08:06:06.000Z</time>
      </trkpt>
      <trkpt lat="49.73975" lon="5.29198">
        <ele>394.60000610352</ele>
        <time>2022-08-21T08:06:12.000Z</time>
      </trkpt>
      <trkpt lat="49.73982" lon="5.29165">
        <ele>395.79998779297</ele>
        <time>2022-08-21T08:06:17.000Z</time>
      </trkpt>
      <trkpt lat="49.73992" lon="5.29138">
        <ele>395.39999389648</ele>
        <time>2022-08-21T08:06:22.000Z</time>
      </trkpt>
      <trkpt lat="49.73997" lon="5.29117">
        <ele>394.79998779297</ele>
        <time>2022-08-21T08:06:26.000Z</time>
      </trkpt>
      <trkpt lat="49.73999" lon="5.29105">
        <ele>394.20001220703</ele>
        <time>2022-08-21T08:06:28.000Z</time>
      </trkpt>
      <trkpt lat="49.74" lon="5.29099">
        <ele>394</ele>
        <time>2022-08-21T08:06:29.000Z</time>
      </trkpt>
      <trkpt lat="49.74003" lon="5.29081">
        <ele>394.20001220703</ele>
        <time>2022-08-21T08:06:33.000Z</time>
      </trkpt>
      <trkpt lat="49.74009" lon="5.2906">
        <ele>393</ele>
        <time>2022-08-21T08:06:38.000Z</time>
      </trkpt>
      <trkpt lat="49.74017" lon="5.29043">
        <ele>391.20001220703</ele>
        <time>2022-08-21T08:06:41.000Z</time>
      </trkpt>
      <trkpt lat="49.74021" lon="5.29034">
        <ele>390</ele>
        <time>2022-08-21T08:06:43.000Z</time>
      </trkpt>
      <trkpt lat="49.74022" lon="5.29029">
        <ele>389.79998779297</ele>
        <time>2022-08-21T08:06:44.000Z</time>
      </trkpt>
      <trkpt lat="49.74027" lon="5.29012">
        <ele>388.60000610352</ele>
        <time>2022-08-21T08:06:48.000Z</time>
      </trkpt>
      <trkpt lat="49.74029" lon="5.29007">
        <ele>388.20001220703</ele>
        <time>2022-08-21T08:06:49.000Z</time>
      </trkpt>
      <trkpt lat="49.74031" lon="5.28987">
        <ele>386.79998779297</ele>
        <time>2022-08-21T08:06:52.000Z</time>
      </trkpt>
      <trkpt lat="49.74033" lon="5.28975">
        <ele>387</ele>
        <time>2022-08-21T08:06:54.000Z</time>
      </trkpt>
      <trkpt lat="49.74028" lon="5.28946">
        <ele>385.79998779297</ele>
        <time>2022-08-21T08:06:59.000Z</time>
      </trkpt>
      <trkpt lat="49.74013" lon="5.28911">
        <ele>383.79998779297</ele>
        <time>2022-08-21T08:07:07.000Z</time>
      </trkpt>
      <trkpt lat="49.74009" lon="5.28902">
        <ele>384</ele>
        <time>2022-08-21T08:07:09.000Z</time>
      </trkpt>
      <trkpt lat="49.73999" lon="5.28879">
        <ele>384.60000610352</ele>
        <time>2022-08-21T08:07:15.000Z</time>
      </trkpt>
      <trkpt lat="49.7399" lon="5.2885">
        <ele>385.79998779297</ele>
        <time>2022-08-21T08:07:22.000Z</time>
      </trkpt>
      <trkpt lat="49.73984" lon="5.28832">
        <ele>387</ele>
        <time>2022-08-21T08:07:26.000Z</time>
      </trkpt>
      <trkpt lat="49.7398" lon="5.28817">
        <ele>387.79998779297</ele>
        <time>2022-08-21T08:07:29.000Z</time>
      </trkpt>
      <trkpt lat="49.73968" lon="5.28777">
        <ele>386.60000610352</ele>
        <time>2022-08-21T08:07:37.000Z</time>
      </trkpt>
      <trkpt lat="49.73957" lon="5.28733">
        <ele>385.79998779297</ele>
        <time>2022-08-21T08:07:45.000Z</time>
      </trkpt>
      <trkpt lat="49.73941" lon="5.28681">
        <ele>380.79998779297</ele>
        <time>2022-08-21T08:07:54.000Z</time>
      </trkpt>
      <trkpt lat="49.73939" lon="5.28674">
        <ele>380.20001220703</ele>
        <time>2022-08-21T08:07:55.000Z</time>
      </trkpt>
      <trkpt lat="49.73926" lon="5.2865">
        <ele>377.60000610352</ele>
        <time>2022-08-21T08:07:59.000Z</time>
      </trkpt>
      <trkpt lat="49.7392" lon="5.28637">
        <ele>376.60000610352</ele>
        <time>2022-08-21T08:08:01.000Z</time>
      </trkpt>
      <trkpt lat="49.73906" lon="5.28614">
        <ele>375.79998779297</ele>
        <time>2022-08-21T08:08:05.000Z</time>
      </trkpt>
      <trkpt lat="49.73898" lon="5.28603">
        <ele>375.39999389648</ele>
        <time>2022-08-21T08:08:07.000Z</time>
      </trkpt>
      <trkpt lat="49.73895" lon="5.28598">
        <ele>375.20001220703</ele>
        <time>2022-08-21T08:08:08.000Z</time>
      </trkpt>
      <trkpt lat="49.73885" lon="5.28585">
        <ele>374.20001220703</ele>
        <time>2022-08-21T08:08:11.000Z</time>
      </trkpt>
      <trkpt lat="49.7388" lon="5.28573">
        <ele>373.79998779297</ele>
        <time>2022-08-21T08:08:13.000Z</time>
      </trkpt>
      <trkpt lat="49.73873" lon="5.28557">
        <ele>373.39999389648</ele>
        <time>2022-08-21T08:08:16.000Z</time>
      </trkpt>
      <trkpt lat="49.73867" lon="5.28545">
        <ele>373.20001220703</ele>
        <time>2022-08-21T08:08:18.000Z</time>
      </trkpt>
      <trkpt lat="49.73863" lon="5.28538">
        <ele>373.20001220703</ele>
        <time>2022-08-21T08:08:19.000Z</time>
      </trkpt>
      <trkpt lat="49.7385" lon="5.28519">
        <ele>372.60000610352</ele>
        <time>2022-08-21T08:08:22.000Z</time>
      </trkpt>
      <trkpt lat="49.73837" lon="5.28498">
        <ele>371.60000610352</ele>
        <time>2022-08-21T08:08:25.000Z</time>
      </trkpt>
      <trkpt lat="49.7383" lon="5.28485">
        <ele>371.20001220703</ele>
        <time>2022-08-21T08:08:27.000Z</time>
      </trkpt>
      <trkpt lat="49.73818" lon="5.28467">
        <ele>371</ele>
        <time>2022-08-21T08:08:30.000Z</time>
      </trkpt>
      <trkpt lat="49.73814" lon="5.28461">
        <ele>370.79998779297</ele>
        <time>2022-08-21T08:08:31.000Z</time>
      </trkpt>
      <trkpt lat="49.7379" lon="5.28424">
        <ele>368.60000610352</ele>
        <time>2022-08-21T08:08:36.000Z</time>
      </trkpt>
      <trkpt lat="49.73787" lon="5.28416">
        <ele>368.20001220703</ele>
        <time>2022-08-21T08:08:37.000Z</time>
      </trkpt>
      <trkpt lat="49.73772" lon="5.28387">
        <ele>367.60000610352</ele>
        <time>2022-08-21T08:08:41.000Z</time>
      </trkpt>
      <trkpt lat="49.73765" lon="5.28373">
        <ele>367.39999389648</ele>
        <time>2022-08-21T08:08:43.000Z</time>
      </trkpt>
      <trkpt lat="49.73753" lon="5.28355">
        <ele>367</ele>
        <time>2022-08-21T08:08:46.000Z</time>
      </trkpt>
      <trkpt lat="49.73749" lon="5.2835">
        <ele>367</ele>
        <time>2022-08-21T08:08:47.000Z</time>
      </trkpt>
      <trkpt lat="49.73744" lon="5.28344">
        <ele>367</ele>
        <time>2022-08-21T08:08:48.000Z</time>
      </trkpt>
      <trkpt lat="49.73734" lon="5.28335">
        <ele>367</ele>
        <time>2022-08-21T08:08:50.000Z</time>
      </trkpt>
      <trkpt lat="49.73729" lon="5.28329">
        <ele>367</ele>
        <time>2022-08-21T08:08:51.000Z</time>
      </trkpt>
      <trkpt lat="49.73717" lon="5.28316">
        <ele>366.60000610352</ele>
        <time>2022-08-21T08:08:53.000Z</time>
      </trkpt>
      <trkpt lat="49.73701" lon="5.28293">
        <ele>366</ele>
        <time>2022-08-21T08:08:56.000Z</time>
      </trkpt>
      <trkpt lat="49.73696" lon="5.28286">
        <ele>365.39999389648</ele>
        <time>2022-08-21T08:08:57.000Z</time>
      </trkpt>
      <trkpt lat="49.7369" lon="5.2828">
        <ele>364.79998779297</ele>
        <time>2022-08-21T08:08:58.000Z</time>
      </trkpt>
      <trkpt lat="49.7367" lon="5.2827">
        <ele>363</ele>
        <time>2022-08-21T08:09:01.000Z</time>
      </trkpt>
      <trkpt lat="49.73663" lon="5.28267">
        <ele>362.79998779297</ele>
        <time>2022-08-21T08:09:02.000Z</time>
      </trkpt>
      <trkpt lat="49.73634" lon="5.28256">
        <ele>362.79998779297</ele>
        <time>2022-08-21T08:09:07.000Z</time>
      </trkpt>
      <trkpt lat="49.73608" lon="5.28249">
        <ele>362</ele>
        <time>2022-08-21T08:09:11.000Z</time>
      </trkpt>
      <trkpt lat="49.73594" lon="5.28249">
        <ele>360.39999389648</ele>
        <time>2022-08-21T08:09:13.000Z</time>
      </trkpt>
      <trkpt lat="49.73583" lon="5.2825">
        <ele>360.20001220703</ele>
        <time>2022-08-21T08:09:15.000Z</time>
      </trkpt>
      <trkpt lat="49.73562" lon="5.28256">
        <ele>360</ele>
        <time>2022-08-21T08:09:19.000Z</time>
      </trkpt>
      <trkpt lat="49.7355" lon="5.28259">
        <ele>360.79998779297</ele>
        <time>2022-08-21T08:09:22.000Z</time>
      </trkpt>
      <trkpt lat="49.73537" lon="5.28256">
        <ele>361.79998779297</ele>
        <time>2022-08-21T08:09:25.000Z</time>
      </trkpt>
      <trkpt lat="49.73529" lon="5.2825">
        <ele>362.39999389648</ele>
        <time>2022-08-21T08:09:27.000Z</time>
      </trkpt>
      <trkpt lat="49.73511" lon="5.28241">
        <ele>363.79998779297</ele>
        <time>2022-08-21T08:09:31.000Z</time>
      </trkpt>
      <trkpt lat="49.73493" lon="5.28234">
        <ele>363.60000610352</ele>
        <time>2022-08-21T08:09:35.000Z</time>
      </trkpt>
      <trkpt lat="49.73483" lon="5.2823">
        <ele>363.60000610352</ele>
        <time>2022-08-21T08:09:37.000Z</time>
      </trkpt>
      <trkpt lat="49.73461" lon="5.28219">
        <ele>363</ele>
        <time>2022-08-21T08:09:43.000Z</time>
      </trkpt>
      <trkpt lat="49.73457" lon="5.28218">
        <ele>363</ele>
        <time>2022-08-21T08:09:44.000Z</time>
      </trkpt>
      <trkpt lat="49.7344" lon="5.28216">
        <ele>362.60000610352</ele>
        <time>2022-08-21T08:09:48.000Z</time>
      </trkpt>
      <trkpt lat="49.73428" lon="5.2821">
        <ele>361.79998779297</ele>
        <time>2022-08-21T08:09:51.000Z</time>
      </trkpt>
      <trkpt lat="49.73419" lon="5.28204">
        <ele>361</ele>
        <time>2022-08-21T08:09:53.000Z</time>
      </trkpt>
      <trkpt lat="49.73406" lon="5.28193">
        <ele>359.79998779297</ele>
        <time>2022-08-21T08:09:57.000Z</time>
      </trkpt>
      <trkpt lat="49.73405" lon="5.28192">
        <ele>359.60000610352</ele>
        <time>2022-08-21T08:09:58.000Z</time>
      </trkpt>
      <trkpt lat="49.73399" lon="5.28183">
        <ele>358.79998779297</ele>
        <time>2022-08-21T08:10:02.000Z</time>
      </trkpt>
      <trkpt lat="49.73392" lon="5.28176">
        <ele>357.60000610352</ele>
        <time>2022-08-21T08:10:05.000Z</time>
      </trkpt>
      <trkpt lat="49.7339" lon="5.28173">
        <ele>356.79998779297</ele>
        <time>2022-08-21T08:10:06.000Z</time>
      </trkpt>
      <trkpt lat="49.73383" lon="5.28164">
        <ele>355</ele>
        <time>2022-08-21T08:10:09.000Z</time>
      </trkpt>
      <trkpt lat="49.73381" lon="5.2816">
        <ele>354.39999389648</ele>
        <time>2022-08-21T08:10:10.000Z</time>
      </trkpt>
      <trkpt lat="49.73378" lon="5.28156">
        <ele>353.39999389648</ele>
        <time>2022-08-21T08:10:11.000Z</time>
      </trkpt>
      <trkpt lat="49.73372" lon="5.28147">
        <ele>351.39999389648</ele>
        <time>2022-08-21T08:10:13.000Z</time>
      </trkpt>
      <trkpt lat="49.73365" lon="5.2814">
        <ele>349.39999389648</ele>
        <time>2022-08-21T08:10:15.000Z</time>
      </trkpt>
      <trkpt lat="49.73357" lon="5.28133">
        <ele>347.20001220703</ele>
        <time>2022-08-21T08:10:17.000Z</time>
      </trkpt>
      <trkpt lat="49.73346" lon="5.28125">
        <ele>344.39999389648</ele>
        <time>2022-08-21T08:10:19.000Z</time>
      </trkpt>
      <trkpt lat="49.7334" lon="5.28121">
        <ele>343</ele>
        <time>2022-08-21T08:10:20.000Z</time>
      </trkpt>
      <trkpt lat="49.73333" lon="5.28116">
        <ele>341.79998779297</ele>
        <time>2022-08-21T08:10:21.000Z</time>
      </trkpt>
      <trkpt lat="49.73326" lon="5.2811">
        <ele>340.39999389648</ele>
        <time>2022-08-21T08:10:22.000Z</time>
      </trkpt>
      <trkpt lat="49.73319" lon="5.28105">
        <ele>339</ele>
        <time>2022-08-21T08:10:23.000Z</time>
      </trkpt>
      <trkpt lat="49.73313" lon="5.28098">
        <ele>337.79998779297</ele>
        <time>2022-08-21T08:10:24.000Z</time>
      </trkpt>
      <trkpt lat="49.73309" lon="5.28091">
        <ele>336.60000610352</ele>
        <time>2022-08-21T08:10:25.000Z</time>
      </trkpt>
      <trkpt lat="49.73304" lon="5.28083">
        <ele>335.60000610352</ele>
        <time>2022-08-21T08:10:26.000Z</time>
      </trkpt>
      <trkpt lat="49.73302" lon="5.28068">
        <ele>334.20001220703</ele>
        <time>2022-08-21T08:10:28.000Z</time>
      </trkpt>
      <trkpt lat="49.73304" lon="5.28061">
        <ele>333.60000610352</ele>
        <time>2022-08-21T08:10:29.000Z</time>
      </trkpt>
      <trkpt lat="49.7331" lon="5.28046">
        <ele>332.60000610352</ele>
        <time>2022-08-21T08:10:32.000Z</time>
      </trkpt>
      <trkpt lat="49.7332" lon="5.28039">
        <ele>331.79998779297</ele>
        <time>2022-08-21T08:10:35.000Z</time>
      </trkpt>
      <trkpt lat="49.73324" lon="5.28037">
        <ele>331.60000610352</ele>
        <time>2022-08-21T08:10:36.000Z</time>
      </trkpt>
      <trkpt lat="49.73332" lon="5.28034">
        <ele>331.39999389648</ele>
        <time>2022-08-21T08:10:38.000Z</time>
      </trkpt>
      <trkpt lat="49.73336" lon="5.28035">
        <ele>331.39999389648</ele>
        <time>2022-08-21T08:10:39.000Z</time>
      </trkpt>
      <trkpt lat="49.73345" lon="5.28036">
        <ele>331.39999389648</ele>
        <time>2022-08-21T08:10:41.000Z</time>
      </trkpt>
      <trkpt lat="49.73362" lon="5.28033">
        <ele>330</ele>
        <time>2022-08-21T08:10:45.000Z</time>
      </trkpt>
      <trkpt lat="49.73365" lon="5.28031">
        <ele>329.60000610352</ele>
        <time>2022-08-21T08:10:46.000Z</time>
      </trkpt>
      <trkpt lat="49.73375" lon="5.28025">
        <ele>328.39999389648</ele>
        <time>2022-08-21T08:10:49.000Z</time>
      </trkpt>
      <trkpt lat="49.73382" lon="5.28018">
        <ele>326.60000610352</ele>
        <time>2022-08-21T08:10:51.000Z</time>
      </trkpt>
      <trkpt lat="49.73386" lon="5.28014">
        <ele>326.20001220703</ele>
        <time>2022-08-21T08:10:52.000Z</time>
      </trkpt>
      <trkpt lat="49.73391" lon="5.28001">
        <ele>323.60000610352</ele>
        <time>2022-08-21T08:10:54.000Z</time>
      </trkpt>
      <trkpt lat="49.73392" lon="5.27992">
        <ele>322.39999389648</ele>
        <time>2022-08-21T08:10:55.000Z</time>
      </trkpt>
      <trkpt lat="49.73397" lon="5.27966">
        <ele>319.79998779297</ele>
        <time>2022-08-21T08:10:58.000Z</time>
      </trkpt>
      <trkpt lat="49.73395" lon="5.27959">
        <ele>319</ele>
        <time>2022-08-21T08:10:59.000Z</time>
      </trkpt>
      <trkpt lat="49.73394" lon="5.27952">
        <ele>318</ele>
        <time>2022-08-21T08:11:00.000Z</time>
      </trkpt>
      <trkpt lat="49.73391" lon="5.27939">
        <ele>316.60000610352</ele>
        <time>2022-08-21T08:11:02.000Z</time>
      </trkpt>
      <trkpt lat="49.73384" lon="5.27926">
        <ele>314.20001220703</ele>
        <time>2022-08-21T08:11:04.000Z</time>
      </trkpt>
      <trkpt lat="49.73379" lon="5.27921">
        <ele>313.60000610352</ele>
        <time>2022-08-21T08:11:05.000Z</time>
      </trkpt>
      <trkpt lat="49.73376" lon="5.27917">
        <ele>313</ele>
        <time>2022-08-21T08:11:06.000Z</time>
      </trkpt>
      <trkpt lat="49.73372" lon="5.27909">
        <ele>311.60000610352</ele>
        <time>2022-08-21T08:11:07.000Z</time>
      </trkpt>
      <trkpt lat="49.73368" lon="5.27903">
        <ele>310</ele>
        <time>2022-08-21T08:11:08.000Z</time>
      </trkpt>
      <trkpt lat="49.73363" lon="5.27897">
        <ele>309.39999389648</ele>
        <time>2022-08-21T08:11:09.000Z</time>
      </trkpt>
      <trkpt lat="49.7336" lon="5.27891">
        <ele>308.60000610352</ele>
        <time>2022-08-21T08:11:10.000Z</time>
      </trkpt>
      <trkpt lat="49.73351" lon="5.27879">
        <ele>307</ele>
        <time>2022-08-21T08:11:12.000Z</time>
      </trkpt>
      <trkpt lat="49.73346" lon="5.27874">
        <ele>306.39999389648</ele>
        <time>2022-08-21T08:11:13.000Z</time>
      </trkpt>
      <trkpt lat="49.73341" lon="5.27868">
        <ele>305.60000610352</ele>
        <time>2022-08-21T08:11:14.000Z</time>
      </trkpt>
      <trkpt lat="49.73336" lon="5.27863">
        <ele>304.60000610352</ele>
        <time>2022-08-21T08:11:15.000Z</time>
      </trkpt>
      <trkpt lat="49.73333" lon="5.2786">
        <ele>304</ele>
        <time>2022-08-21T08:11:16.000Z</time>
      </trkpt>
      <trkpt lat="49.73326" lon="5.27854">
        <ele>302.79998779297</ele>
        <time>2022-08-21T08:11:18.000Z</time>
      </trkpt>
      <trkpt lat="49.73324" lon="5.2785">
        <ele>302.20001220703</ele>
        <time>2022-08-21T08:11:19.000Z</time>
      </trkpt>
      <trkpt lat="49.73322" lon="5.27847">
        <ele>301.60000610352</ele>
        <time>2022-08-21T08:11:20.000Z</time>
      </trkpt>
      <trkpt lat="49.73316" lon="5.27838">
        <ele>300</ele>
        <time>2022-08-21T08:11:22.000Z</time>
      </trkpt>
      <trkpt lat="49.73311" lon="5.27829">
        <ele>298.60000610352</ele>
        <time>2022-08-21T08:11:24.000Z</time>
      </trkpt>
      <trkpt lat="49.73308" lon="5.27824">
        <ele>297.79998779297</ele>
        <time>2022-08-21T08:11:26.000Z</time>
      </trkpt>
      <trkpt lat="49.73305" lon="5.27819">
        <ele>297.20001220703</ele>
        <time>2022-08-21T08:11:28.000Z</time>
      </trkpt>
      <trkpt lat="49.73304" lon="5.27816">
        <ele>296.79998779297</ele>
        <time>2022-08-21T08:11:29.000Z</time>
      </trkpt>
      <trkpt lat="49.73303" lon="5.27813">
        <ele>296.39999389648</ele>
        <time>2022-08-21T08:11:30.000Z</time>
      </trkpt>
      <trkpt lat="49.733" lon="5.27804">
        <ele>295.20001220703</ele>
        <time>2022-08-21T08:11:32.000Z</time>
      </trkpt>
      <trkpt lat="49.73297" lon="5.27798">
        <ele>294.60000610352</ele>
        <time>2022-08-21T08:11:33.000Z</time>
      </trkpt>
      <trkpt lat="49.73293" lon="5.27791">
        <ele>294.39999389648</ele>
        <time>2022-08-21T08:11:34.000Z</time>
      </trkpt>
      <trkpt lat="49.73288" lon="5.27783">
        <ele>294.39999389648</ele>
        <time>2022-08-21T08:11:36.000Z</time>
      </trkpt>
      <trkpt lat="49.73288" lon="5.2778">
        <ele>294.20001220703</ele>
        <time>2022-08-21T08:11:37.000Z</time>
      </trkpt>
      <trkpt lat="49.73288" lon="5.27778">
        <ele>294</ele>
        <time>2022-08-21T08:11:38.000Z</time>
      </trkpt>
      <trkpt lat="49.73288" lon="5.27777">
        <ele>294</ele>
        <time>2022-08-21T08:11:39.000Z</time>
      </trkpt>
      <trkpt lat="49.73285" lon="5.27758">
        <ele>294.39999389648</ele>
        <time>2022-08-21T08:14:14.000Z</time>
      </trkpt>
      <trkpt lat="49.73291" lon="5.27755">
        <ele>294.39999389648</ele>
        <time>2022-08-21T08:14:18.000Z</time>
      </trkpt>
      <trkpt lat="49.73294" lon="5.27757">
        <ele>294.20001220703</ele>
        <time>2022-08-21T08:14:22.000Z</time>
      </trkpt>
      <trkpt lat="49.733" lon="5.27761">
        <ele>293.79998779297</ele>
        <time>2022-08-21T08:14:25.000Z</time>
      </trkpt>
      <trkpt lat="49.73315" lon="5.27771">
        <ele>292.79998779297</ele>
        <time>2022-08-21T08:14:33.000Z</time>
      </trkpt>
      <trkpt lat="49.73327" lon="5.2778">
        <ele>291.60000610352</ele>
        <time>2022-08-21T08:14:38.000Z</time>
      </trkpt>
      <trkpt lat="49.73341" lon="5.27788">
        <ele>290.60000610352</ele>
        <time>2022-08-21T08:14:43.000Z</time>
      </trkpt>
      <trkpt lat="49.73356" lon="5.27799">
        <ele>291.60000610352</ele>
        <time>2022-08-21T08:14:49.000Z</time>
      </trkpt>
      <trkpt lat="49.73371" lon="5.27809">
        <ele>293</ele>
        <time>2022-08-21T08:14:55.000Z</time>
      </trkpt>
      <trkpt lat="49.73387" lon="5.27818">
        <ele>294</ele>
        <time>2022-08-21T08:15:01.000Z</time>
      </trkpt>
      <trkpt lat="49.73402" lon="5.2783">
        <ele>295.79998779297</ele>
        <time>2022-08-21T08:15:07.000Z</time>
      </trkpt>
      <trkpt lat="49.73417" lon="5.2784">
        <ele>297.60000610352</ele>
        <time>2022-08-21T08:15:13.000Z</time>
      </trkpt>
      <trkpt lat="49.73434" lon="5.27851">
        <ele>299</ele>
        <time>2022-08-21T08:15:19.000Z</time>
      </trkpt>
      <trkpt lat="49.73465" lon="5.27864">
        <ele>299.39999389648</ele>
        <time>2022-08-21T08:15:27.000Z</time>
      </trkpt>
      <trkpt lat="49.73486" lon="5.27872">
        <ele>298.60000610352</ele>
        <time>2022-08-21T08:15:34.000Z</time>
      </trkpt>
      <trkpt lat="49.73506" lon="5.27876">
        <ele>297.20001220703</ele>
        <time>2022-08-21T08:15:41.000Z</time>
      </trkpt>
      <trkpt lat="49.73529" lon="5.27879">
        <ele>297.60000610352</ele>
        <time>2022-08-21T08:15:48.000Z</time>
      </trkpt>
      <trkpt lat="49.73546" lon="5.27883">
        <ele>298.60000610352</ele>
        <time>2022-08-21T08:15:54.000Z</time>
      </trkpt>
      <trkpt lat="49.73566" lon="5.27887">
        <ele>299.60000610352</ele>
        <time>2022-08-21T08:16:00.000Z</time>
      </trkpt>
      <trkpt lat="49.73588" lon="5.27886">
        <ele>298.60000610352</ele>
        <time>2022-08-21T08:16:06.000Z</time>
      </trkpt>
      <trkpt lat="49.73623" lon="5.2788">
        <ele>299</ele>
        <time>2022-08-21T08:16:13.000Z</time>
      </trkpt>
      <trkpt lat="49.73642" lon="5.27865">
        <ele>301</ele>
        <time>2022-08-21T08:16:19.000Z</time>
      </trkpt>
      <trkpt lat="49.73657" lon="5.27852">
        <ele>303.20001220703</ele>
        <time>2022-08-21T08:16:27.000Z</time>
      </trkpt>
      <trkpt lat="49.73673" lon="5.27839">
        <ele>305.20001220703</ele>
        <time>2022-08-21T08:16:33.000Z</time>
      </trkpt>
      <trkpt lat="49.73705" lon="5.27809">
        <ele>304.39999389648</ele>
        <time>2022-08-21T08:16:40.000Z</time>
      </trkpt>
      <trkpt lat="49.73725" lon="5.27772">
        <ele>303</ele>
        <time>2022-08-21T08:16:48.000Z</time>
      </trkpt>
      <trkpt lat="49.73742" lon="5.2775">
        <ele>304.60000610352</ele>
        <time>2022-08-21T08:16:54.000Z</time>
      </trkpt>
      <trkpt lat="49.73744" lon="5.27747">
        <ele>304.39999389648</ele>
        <time>2022-08-21T08:16:55.000Z</time>
      </trkpt>
      <trkpt lat="49.73763" lon="5.27718">
        <ele>302.79998779297</ele>
        <time>2022-08-21T08:17:02.000Z</time>
      </trkpt>
      <trkpt lat="49.73778" lon="5.27685">
        <ele>300.20001220703</ele>
        <time>2022-08-21T08:17:08.000Z</time>
      </trkpt>
      <trkpt lat="49.7379" lon="5.27644">
        <ele>301.39999389648</ele>
        <time>2022-08-21T08:17:15.000Z</time>
      </trkpt>
      <trkpt lat="49.73799" lon="5.27606">
        <ele>302.79998779297</ele>
        <time>2022-08-21T08:17:22.000Z</time>
      </trkpt>
      <trkpt lat="49.73806" lon="5.27567">
        <ele>301</ele>
        <time>2022-08-21T08:17:29.000Z</time>
      </trkpt>
      <trkpt lat="49.73812" lon="5.27529">
        <ele>299.20001220703</ele>
        <time>2022-08-21T08:17:36.000Z</time>
      </trkpt>
      <trkpt lat="49.73817" lon="5.27499">
        <ele>298.39999389648</ele>
        <time>2022-08-21T08:17:42.000Z</time>
      </trkpt>
      <trkpt lat="49.73819" lon="5.27465">
        <ele>298.20001220703</ele>
        <time>2022-08-21T08:17:49.000Z</time>
      </trkpt>
      <trkpt lat="49.73818" lon="5.27436">
        <ele>299.20001220703</ele>
        <time>2022-08-21T08:17:55.000Z</time>
      </trkpt>
      <trkpt lat="49.73816" lon="5.2743">
        <ele>299.39999389648</ele>
        <time>2022-08-21T08:17:56.000Z</time>
      </trkpt>
      <trkpt lat="49.73809" lon="5.27404">
        <ele>300.39999389648</ele>
        <time>2022-08-21T08:18:00.000Z</time>
      </trkpt>
      <trkpt lat="49.73802" lon="5.27385">
        <ele>302</ele>
        <time>2022-08-21T08:18:03.000Z</time>
      </trkpt>
      <trkpt lat="49.73794" lon="5.27366">
        <ele>303</ele>
        <time>2022-08-21T08:18:06.000Z</time>
      </trkpt>
      <trkpt lat="49.73785" lon="5.27347">
        <ele>304.20001220703</ele>
        <time>2022-08-21T08:18:10.000Z</time>
      </trkpt>
      <trkpt lat="49.73782" lon="5.27344">
        <ele>304</ele>
        <time>2022-08-21T08:18:11.000Z</time>
      </trkpt>
      <trkpt lat="49.73765" lon="5.27319">
        <ele>304.39999389648</ele>
        <time>2022-08-21T08:18:17.000Z</time>
      </trkpt>
      <trkpt lat="49.73751" lon="5.27299">
        <ele>304.60000610352</ele>
        <time>2022-08-21T08:18:22.000Z</time>
      </trkpt>
      <trkpt lat="49.73743" lon="5.27289">
        <ele>305.20001220703</ele>
        <time>2022-08-21T08:18:27.000Z</time>
      </trkpt>
      <trkpt lat="49.73736" lon="5.27282">
        <ele>305.39999389648</ele>
        <time>2022-08-21T08:18:31.000Z</time>
      </trkpt>
      <trkpt lat="49.73734" lon="5.27279">
        <ele>305.60000610352</ele>
        <time>2022-08-21T08:18:32.000Z</time>
      </trkpt>
      <trkpt lat="49.73725" lon="5.27272">
        <ele>305.39999389648</ele>
        <time>2022-08-21T08:18:37.000Z</time>
      </trkpt>
      <trkpt lat="49.73722" lon="5.2727">
        <ele>305.20001220703</ele>
        <time>2022-08-21T08:18:39.000Z</time>
      </trkpt>
      <trkpt lat="49.73716" lon="5.27264">
        <ele>304.60000610352</ele>
        <time>2022-08-21T08:18:43.000Z</time>
      </trkpt>
      <trkpt lat="49.73711" lon="5.2726">
        <ele>304.39999389648</ele>
        <time>2022-08-21T08:18:46.000Z</time>
      </trkpt>
      <trkpt lat="49.73709" lon="5.27257">
        <ele>304.20001220703</ele>
        <time>2022-08-21T08:18:48.000Z</time>
      </trkpt>
      <trkpt lat="49.73702" lon="5.27249">
        <ele>303.79998779297</ele>
        <time>2022-08-21T08:18:53.000Z</time>
      </trkpt>
      <trkpt lat="49.737" lon="5.27247">
        <ele>303.60000610352</ele>
        <time>2022-08-21T08:18:54.000Z</time>
      </trkpt>
      <trkpt lat="49.73688" lon="5.27237">
        <ele>302.39999389648</ele>
        <time>2022-08-21T08:18:59.000Z</time>
      </trkpt>
      <trkpt lat="49.73683" lon="5.27232">
        <ele>302.20001220703</ele>
        <time>2022-08-21T08:19:01.000Z</time>
      </trkpt>
      <trkpt lat="49.73677" lon="5.27223">
        <ele>302.60000610352</ele>
        <time>2022-08-21T08:19:04.000Z</time>
      </trkpt>
      <trkpt lat="49.73676" lon="5.27221">
        <ele>302.60000610352</ele>
        <time>2022-08-21T08:19:05.000Z</time>
      </trkpt>
      <trkpt lat="49.7367" lon="5.27215">
        <ele>303.20001220703</ele>
        <time>2022-08-21T08:19:08.000Z</time>
      </trkpt>
      <trkpt lat="49.73666" lon="5.2721">
        <ele>304.20001220703</ele>
        <time>2022-08-21T08:19:10.000Z</time>
      </trkpt>
      <trkpt lat="49.73663" lon="5.27205">
        <ele>305.39999389648</ele>
        <time>2022-08-21T08:19:12.000Z</time>
      </trkpt>
      <trkpt lat="49.73656" lon="5.27197">
        <ele>307.20001220703</ele>
        <time>2022-08-21T08:19:16.000Z</time>
      </trkpt>
      <trkpt lat="49.73651" lon="5.27192">
        <ele>308.39999389648</ele>
        <time>2022-08-21T08:19:18.000Z</time>
      </trkpt>
      <trkpt lat="49.7365" lon="5.2719">
        <ele>308.79998779297</ele>
        <time>2022-08-21T08:19:19.000Z</time>
      </trkpt>
      <trkpt lat="49.73644" lon="5.27182">
        <ele>310.79998779297</ele>
        <time>2022-08-21T08:19:22.000Z</time>
      </trkpt>
      <trkpt lat="49.73638" lon="5.27171">
        <ele>312.79998779297</ele>
        <time>2022-08-21T08:19:26.000Z</time>
      </trkpt>
      <trkpt lat="49.73628" lon="5.27157">
        <ele>314.39999389648</ele>
        <time>2022-08-21T08:19:31.000Z</time>
      </trkpt>
      <trkpt lat="49.73624" lon="5.27152">
        <ele>314.39999389648</ele>
        <time>2022-08-21T08:19:33.000Z</time>
      </trkpt>
      <trkpt lat="49.73618" lon="5.27145">
        <ele>314.39999389648</ele>
        <time>2022-08-21T08:19:36.000Z</time>
      </trkpt>
      <trkpt lat="49.73614" lon="5.27141">
        <ele>314.39999389648</ele>
        <time>2022-08-21T08:19:38.000Z</time>
      </trkpt>
      <trkpt lat="49.73608" lon="5.27137">
        <ele>314</ele>
        <time>2022-08-21T08:19:41.000Z</time>
      </trkpt>
      <trkpt lat="49.73602" lon="5.27131">
        <ele>314</ele>
        <time>2022-08-21T08:19:44.000Z</time>
      </trkpt>
      <trkpt lat="49.73594" lon="5.27123">
        <ele>313.79998779297</ele>
        <time>2022-08-21T08:19:48.000Z</time>
      </trkpt>
      <trkpt lat="49.73587" lon="5.27118">
        <ele>313.79998779297</ele>
        <time>2022-08-21T08:19:51.000Z</time>
      </trkpt>
      <trkpt lat="49.73582" lon="5.27115">
        <ele>313.79998779297</ele>
        <time>2022-08-21T08:19:53.000Z</time>
      </trkpt>
      <trkpt lat="49.73573" lon="5.27109">
        <ele>313.79998779297</ele>
        <time>2022-08-21T08:19:57.000Z</time>
      </trkpt>
      <trkpt lat="49.73569" lon="5.27105">
        <ele>314</ele>
        <time>2022-08-21T08:19:59.000Z</time>
      </trkpt>
      <trkpt lat="49.73562" lon="5.27094">
        <ele>315.79998779297</ele>
        <time>2022-08-21T08:20:03.000Z</time>
      </trkpt>
      <trkpt lat="49.73561" lon="5.2709">
        <ele>316.39999389648</ele>
        <time>2022-08-21T08:20:04.000Z</time>
      </trkpt>
      <trkpt lat="49.73556" lon="5.27077">
        <ele>318.60000610352</ele>
        <time>2022-08-21T08:20:08.000Z</time>
      </trkpt>
      <trkpt lat="49.73555" lon="5.27073">
        <ele>319</ele>
        <time>2022-08-21T08:20:09.000Z</time>
      </trkpt>
      <trkpt lat="49.73548" lon="5.27061">
        <ele>320</ele>
        <time>2022-08-21T08:20:13.000Z</time>
      </trkpt>
      <trkpt lat="49.73545" lon="5.27056">
        <ele>320.39999389648</ele>
        <time>2022-08-21T08:20:15.000Z</time>
      </trkpt>
      <trkpt lat="49.73542" lon="5.27052">
        <ele>320.60000610352</ele>
        <time>2022-08-21T08:20:17.000Z</time>
      </trkpt>
      <trkpt lat="49.73535" lon="5.27043">
        <ele>320.79998779297</ele>
        <time>2022-08-21T08:20:21.000Z</time>
      </trkpt>
      <trkpt lat="49.73533" lon="5.27041">
        <ele>321</ele>
        <time>2022-08-21T08:20:22.000Z</time>
      </trkpt>
      <trkpt lat="49.73528" lon="5.27034">
        <ele>322</ele>
        <time>2022-08-21T08:20:25.000Z</time>
      </trkpt>
      <trkpt lat="49.73521" lon="5.27025">
        <ele>323.20001220703</ele>
        <time>2022-08-21T08:20:29.000Z</time>
      </trkpt>
      <trkpt lat="49.7352" lon="5.27023">
        <ele>323.39999389648</ele>
        <time>2022-08-21T08:20:30.000Z</time>
      </trkpt>
      <trkpt lat="49.73512" lon="5.27015">
        <ele>324.60000610352</ele>
        <time>2022-08-21T08:20:35.000Z</time>
      </trkpt>
      <trkpt lat="49.7351" lon="5.27013">
        <ele>325</ele>
        <time>2022-08-21T08:20:36.000Z</time>
      </trkpt>
      <trkpt lat="49.73504" lon="5.27006">
        <ele>326.20001220703</ele>
        <time>2022-08-21T08:20:39.000Z</time>
      </trkpt>
      <trkpt lat="49.73499" lon="5.27001">
        <ele>327</ele>
        <time>2022-08-21T08:21:16.000Z</time>
      </trkpt>
      <trkpt lat="49.73494" lon="5.26992">
        <ele>329</ele>
        <time>2022-08-21T08:21:19.000Z</time>
      </trkpt>
      <trkpt lat="49.73492" lon="5.26989">
        <ele>329.60000610352</ele>
        <time>2022-08-21T08:21:20.000Z</time>
      </trkpt>
      <trkpt lat="49.73489" lon="5.26985">
        <ele>330.60000610352</ele>
        <time>2022-08-21T08:21:22.000Z</time>
      </trkpt>
      <trkpt lat="49.73487" lon="5.26983">
        <ele>331</ele>
        <time>2022-08-21T08:21:23.000Z</time>
      </trkpt>
      <trkpt lat="49.73485" lon="5.2698">
        <ele>331.39999389648</ele>
        <time>2022-08-21T08:21:24.000Z</time>
      </trkpt>
      <trkpt lat="49.73476" lon="5.26973">
        <ele>332.39999389648</ele>
        <time>2022-08-21T08:21:28.000Z</time>
      </trkpt>
      <trkpt lat="49.73474" lon="5.26971">
        <ele>332.39999389648</ele>
        <time>2022-08-21T08:21:29.000Z</time>
      </trkpt>
      <trkpt lat="49.73471" lon="5.26968">
        <ele>332.39999389648</ele>
        <time>2022-08-21T08:21:31.000Z</time>
      </trkpt>
      <trkpt lat="49.73469" lon="5.26966">
        <ele>332.39999389648</ele>
        <time>2022-08-21T08:21:32.000Z</time>
      </trkpt>
      <trkpt lat="49.73464" lon="5.26959">
        <ele>333.20001220703</ele>
        <time>2022-08-21T08:21:34.000Z</time>
      </trkpt>
      <trkpt lat="49.73459" lon="5.26954">
        <ele>334</ele>
        <time>2022-08-21T08:21:36.000Z</time>
      </trkpt>
      <trkpt lat="49.73451" lon="5.26941">
        <ele>335.79998779297</ele>
        <time>2022-08-21T08:21:40.000Z</time>
      </trkpt>
      <trkpt lat="49.73446" lon="5.26935">
        <ele>337.39999389648</ele>
        <time>2022-08-21T08:21:42.000Z</time>
      </trkpt>
      <trkpt lat="49.73442" lon="5.26931">
        <ele>338.39999389648</ele>
        <time>2022-08-21T08:21:44.000Z</time>
      </trkpt>
      <trkpt lat="49.73436" lon="5.26925">
        <ele>339.60000610352</ele>
        <time>2022-08-21T08:21:47.000Z</time>
      </trkpt>
      <trkpt lat="49.73433" lon="5.26923">
        <ele>339.79998779297</ele>
        <time>2022-08-21T08:21:48.000Z</time>
      </trkpt>
      <trkpt lat="49.73423" lon="5.26918">
        <ele>340</ele>
        <time>2022-08-21T08:21:52.000Z</time>
      </trkpt>
      <trkpt lat="49.73417" lon="5.26914">
        <ele>340.60000610352</ele>
        <time>2022-08-21T08:21:55.000Z</time>
      </trkpt>
      <trkpt lat="49.73415" lon="5.26913">
        <ele>340.79998779297</ele>
        <time>2022-08-21T08:21:56.000Z</time>
      </trkpt>
      <trkpt lat="49.73408" lon="5.26906">
        <ele>342.20001220703</ele>
        <time>2022-08-21T08:22:00.000Z</time>
      </trkpt>
      <trkpt lat="49.73404" lon="5.26902">
        <ele>343</ele>
        <time>2022-08-21T08:22:02.000Z</time>
      </trkpt>
      <trkpt lat="49.734" lon="5.26897">
        <ele>344</ele>
        <time>2022-08-21T08:22:04.000Z</time>
      </trkpt>
      <trkpt lat="49.73393" lon="5.26889">
        <ele>345.60000610352</ele>
        <time>2022-08-21T08:22:08.000Z</time>
      </trkpt>
      <trkpt lat="49.73383" lon="5.2688">
        <ele>346.60000610352</ele>
        <time>2022-08-21T08:22:13.000Z</time>
      </trkpt>
      <trkpt lat="49.73376" lon="5.26874">
        <ele>346.79998779297</ele>
        <time>2022-08-21T08:22:16.000Z</time>
      </trkpt>
      <trkpt lat="49.73372" lon="5.2687">
        <ele>347</ele>
        <time>2022-08-21T08:22:18.000Z</time>
      </trkpt>
      <trkpt lat="49.73365" lon="5.26864">
        <ele>347</ele>
        <time>2022-08-21T08:22:22.000Z</time>
      </trkpt>
      <trkpt lat="49.73363" lon="5.26863">
        <ele>347.20001220703</ele>
        <time>2022-08-21T08:22:23.000Z</time>
      </trkpt>
      <trkpt lat="49.73356" lon="5.26857">
        <ele>347.60000610352</ele>
        <time>2022-08-21T08:22:26.000Z</time>
      </trkpt>
      <trkpt lat="49.73352" lon="5.26854">
        <ele>348</ele>
        <time>2022-08-21T08:22:28.000Z</time>
      </trkpt>
      <trkpt lat="49.7334" lon="5.26849">
        <ele>347.60000610352</ele>
        <time>2022-08-21T08:22:33.000Z</time>
      </trkpt>
      <trkpt lat="49.73327" lon="5.26841">
        <ele>349.79998779297</ele>
        <time>2022-08-21T08:22:39.000Z</time>
      </trkpt>
      <trkpt lat="49.73323" lon="5.26836">
        <ele>350.79998779297</ele>
        <time>2022-08-21T08:22:42.000Z</time>
      </trkpt>
      <trkpt lat="49.73315" lon="5.2683">
        <ele>352.39999389648</ele>
        <time>2022-08-21T08:22:46.000Z</time>
      </trkpt>
      <trkpt lat="49.73305" lon="5.2682">
        <ele>353.60000610352</ele>
        <time>2022-08-21T08:22:51.000Z</time>
      </trkpt>
      <trkpt lat="49.73303" lon="5.26818">
        <ele>353.60000610352</ele>
        <time>2022-08-21T08:22:52.000Z</time>
      </trkpt>
      <trkpt lat="49.73291" lon="5.2681">
        <ele>354.60000610352</ele>
        <time>2022-08-21T08:22:58.000Z</time>
      </trkpt>
      <trkpt lat="49.73288" lon="5.26808">
        <ele>354.79998779297</ele>
        <time>2022-08-21T08:22:59.000Z</time>
      </trkpt>
      <trkpt lat="49.73278" lon="5.26797">
        <ele>354.79998779297</ele>
        <time>2022-08-21T08:23:03.000Z</time>
      </trkpt>
      <trkpt lat="49.73271" lon="5.26774">
        <ele>352.79998779297</ele>
        <time>2022-08-21T08:23:09.000Z</time>
      </trkpt>
      <trkpt lat="49.73271" lon="5.26771">
        <ele>352.39999389648</ele>
        <time>2022-08-21T08:23:10.000Z</time>
      </trkpt>
      <trkpt lat="49.73273" lon="5.26768">
        <ele>352</ele>
        <time>2022-08-21T08:23:13.000Z</time>
      </trkpt>
      <trkpt lat="49.73274" lon="5.26768">
        <ele>352</ele>
        <time>2022-08-21T08:23:14.000Z</time>
      </trkpt>
      <trkpt lat="49.73289" lon="5.26769">
        <ele>351.60000610352</ele>
        <time>2022-08-21T08:23:20.000Z</time>
      </trkpt>
      <trkpt lat="49.73309" lon="5.26771">
        <ele>351</ele>
        <time>2022-08-21T08:23:26.000Z</time>
      </trkpt>
      <trkpt lat="49.73337" lon="5.26773">
        <ele>351</ele>
        <time>2022-08-21T08:23:34.000Z</time>
      </trkpt>
      <trkpt lat="49.73356" lon="5.26776">
        <ele>352</ele>
        <time>2022-08-21T08:23:39.000Z</time>
      </trkpt>
      <trkpt lat="49.73381" lon="5.26779">
        <ele>353.20001220703</ele>
        <time>2022-08-21T08:23:46.000Z</time>
      </trkpt>
      <trkpt lat="49.73388" lon="5.2678">
        <ele>353.79998779297</ele>
        <time>2022-08-21T08:23:48.000Z</time>
      </trkpt>
      <trkpt lat="49.73404" lon="5.26782">
        <ele>354.39999389648</ele>
        <time>2022-08-21T08:23:53.000Z</time>
      </trkpt>
      <trkpt lat="49.73427" lon="5.26784">
        <ele>355.20001220703</ele>
        <time>2022-08-21T08:23:59.000Z</time>
      </trkpt>
      <trkpt lat="49.73448" lon="5.26785">
        <ele>356.39999389648</ele>
        <time>2022-08-21T08:24:06.000Z</time>
      </trkpt>
      <trkpt lat="49.73459" lon="5.26786">
        <ele>356.79998779297</ele>
        <time>2022-08-21T08:24:10.000Z</time>
      </trkpt>
      <trkpt lat="49.73467" lon="5.26786">
        <ele>357</ele>
        <time>2022-08-21T08:24:13.000Z</time>
      </trkpt>
      <trkpt lat="49.73497" lon="5.26792">
        <ele>356.79998779297</ele>
        <time>2022-08-21T08:24:21.000Z</time>
      </trkpt>
      <trkpt lat="49.735" lon="5.26792">
        <ele>356.79998779297</ele>
        <time>2022-08-21T08:24:22.000Z</time>
      </trkpt>
      <trkpt lat="49.73526" lon="5.26796">
        <ele>357</ele>
        <time>2022-08-21T08:24:29.000Z</time>
      </trkpt>
      <trkpt lat="49.73533" lon="5.26797">
        <ele>357.20001220703</ele>
        <time>2022-08-21T08:24:31.000Z</time>
      </trkpt>
      <trkpt lat="49.73546" lon="5.26799">
        <ele>358.79998779297</ele>
        <time>2022-08-21T08:24:35.000Z</time>
      </trkpt>
      <trkpt lat="49.73563" lon="5.268">
        <ele>361</ele>
        <time>2022-08-21T08:24:40.000Z</time>
      </trkpt>
      <trkpt lat="49.73567" lon="5.26801">
        <ele>361.60000610352</ele>
        <time>2022-08-21T08:24:42.000Z</time>
      </trkpt>
      <trkpt lat="49.73579" lon="5.26799">
        <ele>362.79998779297</ele>
        <time>2022-08-21T08:24:48.000Z</time>
      </trkpt>
      <trkpt lat="49.7358" lon="5.26796">
        <ele>363</ele>
        <time>2022-08-21T08:24:49.000Z</time>
      </trkpt>
      <trkpt lat="49.73583" lon="5.26783">
        <ele>363.79998779297</ele>
        <time>2022-08-21T08:24:53.000Z</time>
      </trkpt>
      <trkpt lat="49.73583" lon="5.2676">
        <ele>365</ele>
        <time>2022-08-21T08:24:59.000Z</time>
      </trkpt>
      <trkpt lat="49.73584" lon="5.2673">
        <ele>365.79998779297</ele>
        <time>2022-08-21T08:25:06.000Z</time>
      </trkpt>
      <trkpt lat="49.73585" lon="5.26705">
        <ele>365.79998779297</ele>
        <time>2022-08-21T08:25:12.000Z</time>
      </trkpt>
      <trkpt lat="49.73584" lon="5.26688">
        <ele>365.20001220703</ele>
        <time>2022-08-21T08:25:16.000Z</time>
      </trkpt>
      <trkpt lat="49.73584" lon="5.2667">
        <ele>364.60000610352</ele>
        <time>2022-08-21T08:25:19.000Z</time>
      </trkpt>
      <trkpt lat="49.73584" lon="5.26657">
        <ele>364</ele>
        <time>2022-08-21T08:25:21.000Z</time>
      </trkpt>
      <trkpt lat="49.73582" lon="5.26626">
        <ele>362.20001220703</ele>
        <time>2022-08-21T08:25:25.000Z</time>
      </trkpt>
      <trkpt lat="49.73582" lon="5.26613">
        <ele>361.60000610352</ele>
        <time>2022-08-21T08:25:27.000Z</time>
      </trkpt>
      <trkpt lat="49.73582" lon="5.26608">
        <ele>361.39999389648</ele>
        <time>2022-08-21T08:25:28.000Z</time>
      </trkpt>
      <trkpt lat="49.73582" lon="5.26587">
        <ele>360.39999389648</ele>
        <time>2022-08-21T08:25:32.000Z</time>
      </trkpt>
      <trkpt lat="49.73582" lon="5.26566">
        <ele>359.20001220703</ele>
        <time>2022-08-21T08:25:36.000Z</time>
      </trkpt>
      <trkpt lat="49.73582" lon="5.26554">
        <ele>358.39999389648</ele>
        <time>2022-08-21T08:25:38.000Z</time>
      </trkpt>
      <trkpt lat="49.73582" lon="5.26543">
        <ele>357.39999389648</ele>
        <time>2022-08-21T08:25:40.000Z</time>
      </trkpt>
      <trkpt lat="49.73581" lon="5.2653">
        <ele>356.20001220703</ele>
        <time>2022-08-21T08:25:43.000Z</time>
      </trkpt>
      <trkpt lat="49.7358" lon="5.26526">
        <ele>356</ele>
        <time>2022-08-21T08:25:44.000Z</time>
      </trkpt>
      <trkpt lat="49.73579" lon="5.26514">
        <ele>354.79998779297</ele>
        <time>2022-08-21T08:25:47.000Z</time>
      </trkpt>
      <trkpt lat="49.73579" lon="5.26507">
        <ele>354</ele>
        <time>2022-08-21T08:25:49.000Z</time>
      </trkpt>
      <trkpt lat="49.73578" lon="5.26501">
        <ele>353.39999389648</ele>
        <time>2022-08-21T08:25:51.000Z</time>
      </trkpt>
      <trkpt lat="49.73577" lon="5.26489">
        <ele>351.79998779297</ele>
        <time>2022-08-21T08:25:54.000Z</time>
      </trkpt>
      <trkpt lat="49.73575" lon="5.26469">
        <ele>348.39999389648</ele>
        <time>2022-08-21T08:25:57.000Z</time>
      </trkpt>
      <trkpt lat="49.73572" lon="5.26453">
        <ele>345.39999389648</ele>
        <time>2022-08-21T08:25:59.000Z</time>
      </trkpt>
      <trkpt lat="49.7357" lon="5.26438">
        <ele>342.79998779297</ele>
        <time>2022-08-21T08:26:01.000Z</time>
      </trkpt>
      <trkpt lat="49.73568" lon="5.26422">
        <ele>340.39999389648</ele>
        <time>2022-08-21T08:26:03.000Z</time>
      </trkpt>
      <trkpt lat="49.73567" lon="5.26407">
        <ele>338.39999389648</ele>
        <time>2022-08-21T08:26:05.000Z</time>
      </trkpt>
      <trkpt lat="49.73567" lon="5.26399">
        <ele>338.20001220703</ele>
        <time>2022-08-21T08:26:06.000Z</time>
      </trkpt>
      <trkpt lat="49.73567" lon="5.26391">
        <ele>337.79998779297</ele>
        <time>2022-08-21T08:26:07.000Z</time>
      </trkpt>
      <trkpt lat="49.73567" lon="5.26375">
        <ele>337</ele>
        <time>2022-08-21T08:26:09.000Z</time>
      </trkpt>
      <trkpt lat="49.73569" lon="5.26359">
        <ele>336.39999389648</ele>
        <time>2022-08-21T08:26:11.000Z</time>
      </trkpt>
      <trkpt lat="49.7357" lon="5.26343">
        <ele>335.20001220703</ele>
        <time>2022-08-21T08:26:13.000Z</time>
      </trkpt>
      <trkpt lat="49.7357" lon="5.26336">
        <ele>334.60000610352</ele>
        <time>2022-08-21T08:26:14.000Z</time>
      </trkpt>
      <trkpt lat="49.73571" lon="5.2633">
        <ele>333.79998779297</ele>
        <time>2022-08-21T08:26:15.000Z</time>
      </trkpt>
      <trkpt lat="49.73571" lon="5.26321">
        <ele>332.79998779297</ele>
        <time>2022-08-21T08:26:16.000Z</time>
      </trkpt>
      <trkpt lat="49.73571" lon="5.26313">
        <ele>331.79998779297</ele>
        <time>2022-08-21T08:26:17.000Z</time>
      </trkpt>
      <trkpt lat="49.73572" lon="5.26305">
        <ele>330.60000610352</ele>
        <time>2022-08-21T08:26:18.000Z</time>
      </trkpt>
      <trkpt lat="49.73572" lon="5.26297">
        <ele>329.20001220703</ele>
        <time>2022-08-21T08:26:19.000Z</time>
      </trkpt>
      <trkpt lat="49.73572" lon="5.26289">
        <ele>327.39999389648</ele>
        <time>2022-08-21T08:26:20.000Z</time>
      </trkpt>
      <trkpt lat="49.73571" lon="5.2628">
        <ele>325.60000610352</ele>
        <time>2022-08-21T08:26:21.000Z</time>
      </trkpt>
      <trkpt lat="49.7357" lon="5.26272">
        <ele>324.60000610352</ele>
        <time>2022-08-21T08:26:22.000Z</time>
      </trkpt>
      <trkpt lat="49.73569" lon="5.26264">
        <ele>323</ele>
        <time>2022-08-21T08:26:23.000Z</time>
      </trkpt>
      <trkpt lat="49.73568" lon="5.26256">
        <ele>321.20001220703</ele>
        <time>2022-08-21T08:26:24.000Z</time>
      </trkpt>
      <trkpt lat="49.73566" lon="5.26247">
        <ele>319.60000610352</ele>
        <time>2022-08-21T08:26:25.000Z</time>
      </trkpt>
      <trkpt lat="49.73566" lon="5.26239">
        <ele>318</ele>
        <time>2022-08-21T08:26:26.000Z</time>
      </trkpt>
      <trkpt lat="49.73566" lon="5.26231">
        <ele>316.20001220703</ele>
        <time>2022-08-21T08:26:27.000Z</time>
      </trkpt>
      <trkpt lat="49.73566" lon="5.26222">
        <ele>314.20001220703</ele>
        <time>2022-08-21T08:26:28.000Z</time>
      </trkpt>
      <trkpt lat="49.73567" lon="5.26214">
        <ele>312.39999389648</ele>
        <time>2022-08-21T08:26:29.000Z</time>
      </trkpt>
      <trkpt lat="49.73568" lon="5.26207">
        <ele>310.39999389648</ele>
        <time>2022-08-21T08:26:30.000Z</time>
      </trkpt>
      <trkpt lat="49.73568" lon="5.26198">
        <ele>307.79998779297</ele>
        <time>2022-08-21T08:26:31.000Z</time>
      </trkpt>
      <trkpt lat="49.73568" lon="5.26189">
        <ele>305.39999389648</ele>
        <time>2022-08-21T08:26:32.000Z</time>
      </trkpt>
      <trkpt lat="49.7357" lon="5.26179">
        <ele>303.39999389648</ele>
        <time>2022-08-21T08:26:33.000Z</time>
      </trkpt>
      <trkpt lat="49.73572" lon="5.2617">
        <ele>301.79998779297</ele>
        <time>2022-08-21T08:26:34.000Z</time>
      </trkpt>
      <trkpt lat="49.73576" lon="5.26162">
        <ele>299.60000610352</ele>
        <time>2022-08-21T08:26:35.000Z</time>
      </trkpt>
      <trkpt lat="49.7358" lon="5.26156">
        <ele>297.79998779297</ele>
        <time>2022-08-21T08:26:36.000Z</time>
      </trkpt>
      <trkpt lat="49.73583" lon="5.2615">
        <ele>296.20001220703</ele>
        <time>2022-08-21T08:26:37.000Z</time>
      </trkpt>
      <trkpt lat="49.73586" lon="5.26146">
        <ele>295.20001220703</ele>
        <time>2022-08-21T08:26:38.000Z</time>
      </trkpt>
      <trkpt lat="49.73589" lon="5.26143">
        <ele>294.39999389648</ele>
        <time>2022-08-21T08:26:39.000Z</time>
      </trkpt>
      <trkpt lat="49.73592" lon="5.26141">
        <ele>293.79998779297</ele>
        <time>2022-08-21T08:26:40.000Z</time>
      </trkpt>
      <trkpt lat="49.73595" lon="5.26139">
        <ele>293.39999389648</ele>
        <time>2022-08-21T08:26:41.000Z</time>
      </trkpt>
      <trkpt lat="49.73602" lon="5.26136">
        <ele>292.79998779297</ele>
        <time>2022-08-21T08:26:43.000Z</time>
      </trkpt>
      <trkpt lat="49.73606" lon="5.26135">
        <ele>292.39999389648</ele>
        <time>2022-08-21T08:26:44.000Z</time>
      </trkpt>
      <trkpt lat="49.73622" lon="5.26126">
        <ele>291.39999389648</ele>
        <time>2022-08-21T08:26:49.000Z</time>
      </trkpt>
      <trkpt lat="49.73642" lon="5.26116">
        <ele>291.79998779297</ele>
        <time>2022-08-21T08:27:37.000Z</time>
      </trkpt>
      <trkpt lat="49.73651" lon="5.26111">
        <ele>292.79998779297</ele>
        <time>2022-08-21T08:27:38.000Z</time>
      </trkpt>
      <trkpt lat="49.73657" lon="5.26107">
        <ele>292.79998779297</ele>
        <time>2022-08-21T08:27:39.000Z</time>
      </trkpt>
      <trkpt lat="49.73665" lon="5.26099">
        <ele>292.60000610352</ele>
        <time>2022-08-21T08:27:41.000Z</time>
      </trkpt>
      <trkpt lat="49.73672" lon="5.2609">
        <ele>291.39999389648</ele>
        <time>2022-08-21T08:27:44.000Z</time>
      </trkpt>
      <trkpt lat="49.73674" lon="5.26087">
        <ele>291</ele>
        <time>2022-08-21T08:27:45.000Z</time>
      </trkpt>
      <trkpt lat="49.73677" lon="5.26083">
        <ele>290.39999389648</ele>
        <time>2022-08-21T08:27:47.000Z</time>
      </trkpt>
      <trkpt lat="49.7368" lon="5.26079">
        <ele>290</ele>
        <time>2022-08-21T08:27:48.000Z</time>
      </trkpt>
      <trkpt lat="49.73679" lon="5.26078">
        <ele>289.60000610352</ele>
        <time>2022-08-21T08:27:49.000Z</time>
      </trkpt>
      <trkpt lat="49.73679" lon="5.26076">
        <ele>289.20001220703</ele>
        <time>2022-08-21T08:27:50.000Z</time>
      </trkpt>
      <trkpt lat="49.73677" lon="5.26072">
        <ele>288.79998779297</ele>
        <time>2022-08-21T08:27:52.000Z</time>
      </trkpt>
      <trkpt lat="49.73676" lon="5.26071">
        <ele>288.79998779297</ele>
        <time>2022-08-21T08:27:53.000Z</time>
      </trkpt>
      <trkpt lat="49.73675" lon="5.26069">
        <ele>288.39999389648</ele>
        <time>2022-08-21T08:27:55.000Z</time>
      </trkpt>
      <trkpt lat="49.73674" lon="5.26067">
        <ele>288.39999389648</ele>
        <time>2022-08-21T08:27:56.000Z</time>
      </trkpt>
      <trkpt lat="49.73694" lon="5.26056">
        <ele>287.39999389648</ele>
        <time>2022-08-21T08:28:01.000Z</time>
      </trkpt>
      <trkpt lat="49.73703" lon="5.26053">
        <ele>286.79998779297</ele>
        <time>2022-08-21T08:28:02.000Z</time>
      </trkpt>
      <trkpt lat="49.73723" lon="5.26048">
        <ele>288.39999389648</ele>
        <time>2022-08-21T08:28:04.000Z</time>
      </trkpt>
      <trkpt lat="49.73756" lon="5.26034">
        <ele>292.20001220703</ele>
        <time>2022-08-21T08:28:09.000Z</time>
      </trkpt>
      <trkpt lat="49.73762" lon="5.26031">
        <ele>293.79998779297</ele>
        <time>2022-08-21T08:28:10.000Z</time>
      </trkpt>
      <trkpt lat="49.73779" lon="5.26021">
        <ele>296</ele>
        <time>2022-08-21T08:28:13.000Z</time>
      </trkpt>
      <trkpt lat="49.73818" lon="5.25992">
        <ele>292.60000610352</ele>
        <time>2022-08-21T08:28:21.000Z</time>
      </trkpt>
      <trkpt lat="49.73851" lon="5.25974">
        <ele>292</ele>
        <time>2022-08-21T08:28:27.000Z</time>
      </trkpt>
      <trkpt lat="49.73867" lon="5.25963">
        <ele>291.79998779297</ele>
        <time>2022-08-21T08:28:32.000Z</time>
      </trkpt>
      <trkpt lat="49.73894" lon="5.25939">
        <ele>293.20001220703</ele>
        <time>2022-08-21T08:28:38.000Z</time>
      </trkpt>
      <trkpt lat="49.73916" lon="5.25921">
        <ele>294.20001220703</ele>
        <time>2022-08-21T08:28:44.000Z</time>
      </trkpt>
      <trkpt lat="49.73932" lon="5.25909">
        <ele>293.79998779297</ele>
        <time>2022-08-21T08:28:49.000Z</time>
      </trkpt>
      <trkpt lat="49.73939" lon="5.25889">
        <ele>291.39999389648</ele>
        <time>2022-08-21T08:28:54.000Z</time>
      </trkpt>
      <trkpt lat="49.73941" lon="5.25873">
        <ele>290.60000610352</ele>
        <time>2022-08-21T08:28:59.000Z</time>
      </trkpt>
      <trkpt lat="49.73943" lon="5.25869">
        <ele>290.39999389648</ele>
        <time>2022-08-21T08:29:01.000Z</time>
      </trkpt>
      <trkpt lat="49.73944" lon="5.25864">
        <ele>290</ele>
        <time>2022-08-21T08:29:03.000Z</time>
      </trkpt>
      <trkpt lat="49.73955" lon="5.2585">
        <ele>289.20001220703</ele>
        <time>2022-08-21T08:29:15.000Z</time>
      </trkpt>
      <trkpt lat="49.7397" lon="5.25857">
        <ele>287.20001220703</ele>
        <time>2022-08-21T08:29:22.000Z</time>
      </trkpt>
      <trkpt lat="49.73987" lon="5.25872">
        <ele>287.60000610352</ele>
        <time>2022-08-21T08:29:25.000Z</time>
      </trkpt>
      <trkpt lat="49.74018" lon="5.25895">
        <ele>291.20001220703</ele>
        <time>2022-08-21T08:29:29.000Z</time>
      </trkpt>
      <trkpt lat="49.74033" lon="5.25905">
        <ele>294</ele>
        <time>2022-08-21T08:29:31.000Z</time>
      </trkpt>
      <trkpt lat="49.74039" lon="5.25908">
        <ele>294.79998779297</ele>
        <time>2022-08-21T08:29:32.000Z</time>
      </trkpt>
      <trkpt lat="49.74059" lon="5.25921">
        <ele>297.39999389648</ele>
        <time>2022-08-21T08:29:36.000Z</time>
      </trkpt>
      <trkpt lat="49.74081" lon="5.25941">
        <ele>296.79998779297</ele>
        <time>2022-08-21T08:29:40.000Z</time>
      </trkpt>
      <trkpt lat="49.74086" lon="5.25946">
        <ele>296.20001220703</ele>
        <time>2022-08-21T08:29:41.000Z</time>
      </trkpt>
      <trkpt lat="49.74092" lon="5.25952">
        <ele>295.79998779297</ele>
        <time>2022-08-21T08:29:43.000Z</time>
      </trkpt>
      <trkpt lat="49.74101" lon="5.2596">
        <ele>295.60000610352</ele>
        <time>2022-08-21T08:29:47.000Z</time>
      </trkpt>
      <trkpt lat="49.74105" lon="5.25963">
        <ele>295.39999389648</ele>
        <time>2022-08-21T08:29:48.000Z</time>
      </trkpt>
      <trkpt lat="49.74113" lon="5.25972">
        <ele>295.39999389648</ele>
        <time>2022-08-21T08:29:51.000Z</time>
      </trkpt>
      <trkpt lat="49.74124" lon="5.25983">
        <ele>295.39999389648</ele>
        <time>2022-08-21T08:29:54.000Z</time>
      </trkpt>
      <trkpt lat="49.7413" lon="5.2599">
        <ele>295.79998779297</ele>
        <time>2022-08-21T08:29:56.000Z</time>
      </trkpt>
      <trkpt lat="49.74142" lon="5.26006">
        <ele>296.60000610352</ele>
        <time>2022-08-21T08:30:01.000Z</time>
      </trkpt>
      <trkpt lat="49.74143" lon="5.26009">
        <ele>296.79998779297</ele>
        <time>2022-08-21T08:30:02.000Z</time>
      </trkpt>
      <trkpt lat="49.74148" lon="5.26016">
        <ele>297.20001220703</ele>
        <time>2022-08-21T08:30:05.000Z</time>
      </trkpt>
      <trkpt lat="49.74152" lon="5.26018">
        <ele>297</ele>
        <time>2022-08-21T08:30:08.000Z</time>
      </trkpt>
      <trkpt lat="49.74166" lon="5.26025">
        <ele>296</ele>
        <time>2022-08-21T08:30:14.000Z</time>
      </trkpt>
      <trkpt lat="49.74171" lon="5.26027">
        <ele>295.79998779297</ele>
        <time>2022-08-21T08:30:16.000Z</time>
      </trkpt>
      <trkpt lat="49.74175" lon="5.26027">
        <ele>295.39999389648</ele>
        <time>2022-08-21T08:30:17.000Z</time>
      </trkpt>
      <trkpt lat="49.74185" lon="5.26027">
        <ele>294</ele>
        <time>2022-08-21T08:30:19.000Z</time>
      </trkpt>
      <trkpt lat="49.74192" lon="5.26031">
        <ele>293.39999389648</ele>
        <time>2022-08-21T08:30:21.000Z</time>
      </trkpt>
      <trkpt lat="49.74211" lon="5.26035">
        <ele>291.79998779297</ele>
        <time>2022-08-21T08:30:24.000Z</time>
      </trkpt>
      <trkpt lat="49.74222" lon="5.26048">
        <ele>292.39999389648</ele>
        <time>2022-08-21T08:30:27.000Z</time>
      </trkpt>
      <trkpt lat="49.74243" lon="5.26058">
        <ele>293.79998779297</ele>
        <time>2022-08-21T08:30:31.000Z</time>
      </trkpt>
      <trkpt lat="49.7425" lon="5.26064">
        <ele>295</ele>
        <time>2022-08-21T08:30:33.000Z</time>
      </trkpt>
      <trkpt lat="49.74265" lon="5.26074">
        <ele>296</ele>
        <time>2022-08-21T08:30:38.000Z</time>
      </trkpt>
      <trkpt lat="49.74283" lon="5.26085">
        <ele>296.39999389648</ele>
        <time>2022-08-21T08:30:43.000Z</time>
      </trkpt>
      <trkpt lat="49.74302" lon="5.26089">
        <ele>298.60000610352</ele>
        <time>2022-08-21T08:30:47.000Z</time>
      </trkpt>
      <trkpt lat="49.74331" lon="5.2609">
        <ele>299</ele>
        <time>2022-08-21T08:30:53.000Z</time>
      </trkpt>
      <trkpt lat="49.74357" lon="5.2609">
        <ele>299.79998779297</ele>
        <time>2022-08-21T08:30:57.000Z</time>
      </trkpt>
      <trkpt lat="49.74369" lon="5.26088">
        <ele>299.39999389648</ele>
        <time>2022-08-21T08:30:59.000Z</time>
      </trkpt>
      <trkpt lat="49.74393" lon="5.2607">
        <ele>293.79998779297</ele>
        <time>2022-08-21T08:31:06.000Z</time>
      </trkpt>
      <trkpt lat="49.7442" lon="5.26052">
        <ele>293.39999389648</ele>
        <time>2022-08-21T08:31:12.000Z</time>
      </trkpt>
      <trkpt lat="49.74451" lon="5.26024">
        <ele>292.60000610352</ele>
        <time>2022-08-21T08:31:19.000Z</time>
      </trkpt>
      <trkpt lat="49.74466" lon="5.25999">
        <ele>291.60000610352</ele>
        <time>2022-08-21T08:31:25.000Z</time>
      </trkpt>
      <trkpt lat="49.74484" lon="5.25963">
        <ele>290.20001220703</ele>
        <time>2022-08-21T08:31:32.000Z</time>
      </trkpt>
      <trkpt lat="49.74504" lon="5.25924">
        <ele>289.79998779297</ele>
        <time>2022-08-21T08:31:40.000Z</time>
      </trkpt>
      <trkpt lat="49.74518" lon="5.25899">
        <ele>287.39999389648</ele>
        <time>2022-08-21T08:31:46.000Z</time>
      </trkpt>
      <trkpt lat="49.74535" lon="5.25874">
        <ele>286.20001220703</ele>
        <time>2022-08-21T08:31:53.000Z</time>
      </trkpt>
      <trkpt lat="49.74549" lon="5.25852">
        <ele>288.20001220703</ele>
        <time>2022-08-21T08:31:59.000Z</time>
      </trkpt>
      <trkpt lat="49.74561" lon="5.25826">
        <ele>288.79998779297</ele>
        <time>2022-08-21T08:32:05.000Z</time>
      </trkpt>
      <trkpt lat="49.74574" lon="5.25798">
        <ele>289</ele>
        <time>2022-08-21T08:32:11.000Z</time>
      </trkpt>
      <trkpt lat="49.74584" lon="5.25772">
        <ele>286.20001220703</ele>
        <time>2022-08-21T08:32:17.000Z</time>
      </trkpt>
      <trkpt lat="49.74602" lon="5.25739">
        <ele>287.79998779297</ele>
        <time>2022-08-21T08:32:23.000Z</time>
      </trkpt>
      <trkpt lat="49.74614" lon="5.2571">
        <ele>287</ele>
        <time>2022-08-21T08:32:29.000Z</time>
      </trkpt>
      <trkpt lat="49.74628" lon="5.2568">
        <ele>286.39999389648</ele>
        <time>2022-08-21T08:32:35.000Z</time>
      </trkpt>
      <trkpt lat="49.74638" lon="5.25661">
        <ele>285.79998779297</ele>
        <time>2022-08-21T08:32:40.000Z</time>
      </trkpt>
      <trkpt lat="49.74647" lon="5.25638">
        <ele>283.79998779297</ele>
        <time>2022-08-21T08:32:46.000Z</time>
      </trkpt>
      <trkpt lat="49.7466" lon="5.25611">
        <ele>283.79998779297</ele>
        <time>2022-08-21T08:32:52.000Z</time>
      </trkpt>
      <trkpt lat="49.74679" lon="5.25583">
        <ele>285.20001220703</ele>
        <time>2022-08-21T08:32:59.000Z</time>
      </trkpt>
      <trkpt lat="49.74694" lon="5.25563">
        <ele>288.20001220703</ele>
        <time>2022-08-21T08:33:05.000Z</time>
      </trkpt>
      <trkpt lat="49.74705" lon="5.2554">
        <ele>290</ele>
        <time>2022-08-21T08:33:10.000Z</time>
      </trkpt>
      <trkpt lat="49.74712" lon="5.25511">
        <ele>291.20001220703</ele>
        <time>2022-08-21T08:33:16.000Z</time>
      </trkpt>
      <trkpt lat="49.74716" lon="5.2549">
        <ele>291.79998779297</ele>
        <time>2022-08-21T08:33:21.000Z</time>
      </trkpt>
      <trkpt lat="49.74716" lon="5.25485">
        <ele>291.60000610352</ele>
        <time>2022-08-21T08:33:22.000Z</time>
      </trkpt>
      <trkpt lat="49.74716" lon="5.25471">
        <ele>292.20001220703</ele>
        <time>2022-08-21T08:33:25.000Z</time>
      </trkpt>
      <trkpt lat="49.74715" lon="5.25452">
        <ele>293</ele>
        <time>2022-08-21T08:33:29.000Z</time>
      </trkpt>
      <trkpt lat="49.74714" lon="5.25448">
        <ele>293</ele>
        <time>2022-08-21T08:33:30.000Z</time>
      </trkpt>
      <trkpt lat="49.74714" lon="5.25442">
        <ele>293</ele>
        <time>2022-08-21T08:33:31.000Z</time>
      </trkpt>
      <trkpt lat="49.7471" lon="5.25426">
        <ele>292.79998779297</ele>
        <time>2022-08-21T08:33:34.000Z</time>
      </trkpt>
      <trkpt lat="49.74709" lon="5.2542">
        <ele>292.60000610352</ele>
        <time>2022-08-21T08:33:35.000Z</time>
      </trkpt>
      <trkpt lat="49.747" lon="5.25396">
        <ele>292.20001220703</ele>
        <time>2022-08-21T08:33:39.000Z</time>
      </trkpt>
      <trkpt lat="49.74697" lon="5.25391">
        <ele>292</ele>
        <time>2022-08-21T08:33:40.000Z</time>
      </trkpt>
      <trkpt lat="49.74686" lon="5.25371">
        <ele>292.20001220703</ele>
        <time>2022-08-21T08:33:45.000Z</time>
      </trkpt>
      <trkpt lat="49.74671" lon="5.25341">
        <ele>292.39999389648</ele>
        <time>2022-08-21T08:33:53.000Z</time>
      </trkpt>
      <trkpt lat="49.7466" lon="5.25312">
        <ele>291.20001220703</ele>
        <time>2022-08-21T08:33:59.000Z</time>
      </trkpt>
      <trkpt lat="49.74656" lon="5.25289">
        <ele>290.60000610352</ele>
        <time>2022-08-21T08:34:05.000Z</time>
      </trkpt>
      <trkpt lat="49.74654" lon="5.25284">
        <ele>290.20001220703</ele>
        <time>2022-08-21T08:34:07.000Z</time>
      </trkpt>
      <trkpt lat="49.74652" lon="5.25276">
        <ele>289.60000610352</ele>
        <time>2022-08-21T08:34:09.000Z</time>
      </trkpt>
      <trkpt lat="49.74649" lon="5.25266">
        <ele>288.60000610352</ele>
        <time>2022-08-21T08:34:11.000Z</time>
      </trkpt>
      <trkpt lat="49.74639" lon="5.25241">
        <ele>286</ele>
        <time>2022-08-21T08:34:16.000Z</time>
      </trkpt>
      <trkpt lat="49.74633" lon="5.25223">
        <ele>285.39999389648</ele>
        <time>2022-08-21T08:34:21.000Z</time>
      </trkpt>
      <trkpt lat="49.74626" lon="5.25201">
        <ele>286</ele>
        <time>2022-08-21T08:34:27.000Z</time>
      </trkpt>
      <trkpt lat="49.74612" lon="5.25171">
        <ele>287.20001220703</ele>
        <time>2022-08-21T08:34:33.000Z</time>
      </trkpt>
      <trkpt lat="49.74599" lon="5.25143">
        <ele>287.60000610352</ele>
        <time>2022-08-21T08:34:39.000Z</time>
      </trkpt>
      <trkpt lat="49.74587" lon="5.25113">
        <ele>287.39999389648</ele>
        <time>2022-08-21T08:34:45.000Z</time>
      </trkpt>
      <trkpt lat="49.74581" lon="5.25084">
        <ele>287</ele>
        <time>2022-08-21T08:34:50.000Z</time>
      </trkpt>
      <trkpt lat="49.74576" lon="5.2504">
        <ele>284.20001220703</ele>
        <time>2022-08-21T08:34:57.000Z</time>
      </trkpt>
      <trkpt lat="49.74576" lon="5.25034">
        <ele>284</ele>
        <time>2022-08-21T08:34:58.000Z</time>
      </trkpt>
      <trkpt lat="49.74574" lon="5.25023">
        <ele>282.60000610352</ele>
        <time>2022-08-21T08:35:00.000Z</time>
      </trkpt>
      <trkpt lat="49.74574" lon="5.25017">
        <ele>282.20001220703</ele>
        <time>2022-08-21T08:35:01.000Z</time>
      </trkpt>
      <trkpt lat="49.74574" lon="5.25011">
        <ele>282</ele>
        <time>2022-08-21T08:35:02.000Z</time>
      </trkpt>
      <trkpt lat="49.74577" lon="5.24991">
        <ele>281.20001220703</ele>
        <time>2022-08-21T08:35:06.000Z</time>
      </trkpt>
      <trkpt lat="49.74586" lon="5.24975">
        <ele>281</ele>
        <time>2022-08-21T08:35:11.000Z</time>
      </trkpt>
      <trkpt lat="49.74593" lon="5.24969">
        <ele>280.60000610352</ele>
        <time>2022-08-21T08:35:16.000Z</time>
      </trkpt>
      <trkpt lat="49.74604" lon="5.24964">
        <ele>281</ele>
        <time>2022-08-21T08:35:23.000Z</time>
      </trkpt>
      <trkpt lat="49.7462" lon="5.24958">
        <ele>281.39999389648</ele>
        <time>2022-08-21T08:35:30.000Z</time>
      </trkpt>
      <trkpt lat="49.74638" lon="5.24955">
        <ele>283</ele>
        <time>2022-08-21T08:35:36.000Z</time>
      </trkpt>
      <trkpt lat="49.7464" lon="5.24955">
        <ele>283.20001220703</ele>
        <time>2022-08-21T08:35:37.000Z</time>
      </trkpt>
      <trkpt lat="49.74652" lon="5.24953">
        <ele>284.60000610352</ele>
        <time>2022-08-21T08:35:41.000Z</time>
      </trkpt>
      <trkpt lat="49.74668" lon="5.24955">
        <ele>287</ele>
        <time>2022-08-21T08:35:47.000Z</time>
      </trkpt>
      <trkpt lat="49.74685" lon="5.24955">
        <ele>287.79998779297</ele>
        <time>2022-08-21T08:35:50.000Z</time>
      </trkpt>
      <trkpt lat="49.74697" lon="5.24954">
        <ele>288</ele>
        <time>2022-08-21T08:35:52.000Z</time>
      </trkpt>
      <trkpt lat="49.74728" lon="5.24961">
        <ele>288.60000610352</ele>
        <time>2022-08-21T08:35:58.000Z</time>
      </trkpt>
      <trkpt lat="49.74761" lon="5.24981">
        <ele>290</ele>
        <time>2022-08-21T08:36:05.000Z</time>
      </trkpt>
      <trkpt lat="49.74787" lon="5.24997">
        <ele>288</ele>
        <time>2022-08-21T08:36:10.000Z</time>
      </trkpt>
      <trkpt lat="49.7481" lon="5.25019">
        <ele>286.20001220703</ele>
        <time>2022-08-21T08:36:16.000Z</time>
      </trkpt>
      <trkpt lat="49.74826" lon="5.25043">
        <ele>285.20001220703</ele>
        <time>2022-08-21T08:36:22.000Z</time>
      </trkpt>
      <trkpt lat="49.74839" lon="5.25066">
        <ele>284.39999389648</ele>
        <time>2022-08-21T08:36:27.000Z</time>
      </trkpt>
      <trkpt lat="49.74842" lon="5.25071">
        <ele>284.39999389648</ele>
        <time>2022-08-21T08:36:28.000Z</time>
      </trkpt>
      <trkpt lat="49.74855" lon="5.25103">
        <ele>285.20001220703</ele>
        <time>2022-08-21T08:36:34.000Z</time>
      </trkpt>
      <trkpt lat="49.74868" lon="5.25128">
        <ele>283.79998779297</ele>
        <time>2022-08-21T08:36:40.000Z</time>
      </trkpt>
      <trkpt lat="49.74881" lon="5.25154">
        <ele>285</ele>
        <time>2022-08-21T08:36:47.000Z</time>
      </trkpt>
      <trkpt lat="49.74891" lon="5.25176">
        <ele>287</ele>
        <time>2022-08-21T08:36:52.000Z</time>
      </trkpt>
      <trkpt lat="49.74905" lon="5.25207">
        <ele>289.20001220703</ele>
        <time>2022-08-21T08:36:59.000Z</time>
      </trkpt>
      <trkpt lat="49.74911" lon="5.25229">
        <ele>290</ele>
        <time>2022-08-21T08:37:04.000Z</time>
      </trkpt>
      <trkpt lat="49.74919" lon="5.25252">
        <ele>288.79998779297</ele>
        <time>2022-08-21T08:37:10.000Z</time>
      </trkpt>
      <trkpt lat="49.7493" lon="5.25275">
        <ele>286</ele>
        <time>2022-08-21T08:37:17.000Z</time>
      </trkpt>
      <trkpt lat="49.74937" lon="5.25296">
        <ele>284.60000610352</ele>
        <time>2022-08-21T08:37:22.000Z</time>
      </trkpt>
      <trkpt lat="49.74943" lon="5.25316">
        <ele>285.20001220703</ele>
        <time>2022-08-21T08:37:27.000Z</time>
      </trkpt>
      <trkpt lat="49.74946" lon="5.25326">
        <ele>285.60000610352</ele>
        <time>2022-08-21T08:37:30.000Z</time>
      </trkpt>
      <trkpt lat="49.74951" lon="5.2534">
        <ele>287</ele>
        <time>2022-08-21T08:37:34.000Z</time>
      </trkpt>
      <trkpt lat="49.74958" lon="5.2536">
        <ele>288.20001220703</ele>
        <time>2022-08-21T08:37:41.000Z</time>
      </trkpt>
      <trkpt lat="49.7496" lon="5.25367">
        <ele>288.60000610352</ele>
        <time>2022-08-21T08:37:44.000Z</time>
      </trkpt>
      <trkpt lat="49.7496" lon="5.25376">
        <ele>289.60000610352</ele>
        <time>2022-08-21T08:37:47.000Z</time>
      </trkpt>
      <trkpt lat="49.74959" lon="5.25382">
        <ele>290.20001220703</ele>
        <time>2022-08-21T08:37:49.000Z</time>
      </trkpt>
      <trkpt lat="49.74961" lon="5.25391">
        <ele>290.60000610352</ele>
        <time>2022-08-21T08:37:53.000Z</time>
      </trkpt>
      <trkpt lat="49.74961" lon="5.25394">
        <ele>291</ele>
        <time>2022-08-21T08:37:54.000Z</time>
      </trkpt>
      <trkpt lat="49.7496" lon="5.25403">
        <ele>292</ele>
        <time>2022-08-21T08:37:57.000Z</time>
      </trkpt>
      <trkpt lat="49.7496" lon="5.25412">
        <ele>293</ele>
        <time>2022-08-21T08:38:00.000Z</time>
      </trkpt>
      <trkpt lat="49.74959" lon="5.25418">
        <ele>293.60000610352</ele>
        <time>2022-08-21T08:38:02.000Z</time>
      </trkpt>
      <trkpt lat="49.74956" lon="5.25433">
        <ele>295.60000610352</ele>
        <time>2022-08-21T08:38:06.000Z</time>
      </trkpt>
      <trkpt lat="49.74955" lon="5.25437">
        <ele>296</ele>
        <time>2022-08-21T08:38:07.000Z</time>
      </trkpt>
      <trkpt lat="49.74954" lon="5.25449">
        <ele>297.60000610352</ele>
        <time>2022-08-21T08:38:11.000Z</time>
      </trkpt>
      <trkpt lat="49.74955" lon="5.25457">
        <ele>298</ele>
        <time>2022-08-21T08:38:13.000Z</time>
      </trkpt>
      <trkpt lat="49.74957" lon="5.25464">
        <ele>298.20001220703</ele>
        <time>2022-08-21T08:38:15.000Z</time>
      </trkpt>
      <trkpt lat="49.74959" lon="5.25477">
        <ele>299.60000610352</ele>
        <time>2022-08-21T08:38:18.000Z</time>
      </trkpt>
      <trkpt lat="49.74962" lon="5.25487">
        <ele>300.20001220703</ele>
        <time>2022-08-21T08:38:20.000Z</time>
      </trkpt>
      <trkpt lat="49.74966" lon="5.25502">
        <ele>300.79998779297</ele>
        <time>2022-08-21T08:38:23.000Z</time>
      </trkpt>
      <trkpt lat="49.74971" lon="5.25526">
        <ele>302.79998779297</ele>
        <time>2022-08-21T08:38:29.000Z</time>
      </trkpt>
      <trkpt lat="49.74974" lon="5.25532">
        <ele>303</ele>
        <time>2022-08-21T08:38:31.000Z</time>
      </trkpt>
      <trkpt lat="49.74974" lon="5.25546">
        <ele>305.20001220703</ele>
        <time>2022-08-21T08:38:35.000Z</time>
      </trkpt>
      <trkpt lat="49.74974" lon="5.25549">
        <ele>305.60000610352</ele>
        <time>2022-08-21T08:38:36.000Z</time>
      </trkpt>
      <trkpt lat="49.74976" lon="5.25565">
        <ele>306.79998779297</ele>
        <time>2022-08-21T08:38:40.000Z</time>
      </trkpt>
      <trkpt lat="49.74978" lon="5.25579">
        <ele>307.60000610352</ele>
        <time>2022-08-21T08:38:44.000Z</time>
      </trkpt>
      <trkpt lat="49.74979" lon="5.25586">
        <ele>308.79998779297</ele>
        <time>2022-08-21T08:38:46.000Z</time>
      </trkpt>
      <trkpt lat="49.74979" lon="5.2559">
        <ele>309.39999389648</ele>
        <time>2022-08-21T08:38:47.000Z</time>
      </trkpt>
      <trkpt lat="49.7498" lon="5.256">
        <ele>310.79998779297</ele>
        <time>2022-08-21T08:38:50.000Z</time>
      </trkpt>
      <trkpt lat="49.74981" lon="5.25606">
        <ele>311.79998779297</ele>
        <time>2022-08-21T08:38:52.000Z</time>
      </trkpt>
      <trkpt lat="49.74982" lon="5.25609">
        <ele>312.60000610352</ele>
        <time>2022-08-21T08:38:53.000Z</time>
      </trkpt>
      <trkpt lat="49.74984" lon="5.25615">
        <ele>313.60000610352</ele>
        <time>2022-08-21T08:38:55.000Z</time>
      </trkpt>
      <trkpt lat="49.74984" lon="5.25618">
        <ele>314.39999389648</ele>
        <time>2022-08-21T08:38:56.000Z</time>
      </trkpt>
      <trkpt lat="49.74985" lon="5.25624">
        <ele>316</ele>
        <time>2022-08-21T08:38:58.000Z</time>
      </trkpt>
      <trkpt lat="49.74985" lon="5.25627">
        <ele>317</ele>
        <time>2022-08-21T08:38:59.000Z</time>
      </trkpt>
      <trkpt lat="49.74987" lon="5.25637">
        <ele>318.79998779297</ele>
        <time>2022-08-21T08:39:02.000Z</time>
      </trkpt>
      <trkpt lat="49.74989" lon="5.25644">
        <ele>319.60000610352</ele>
        <time>2022-08-21T08:39:04.000Z</time>
      </trkpt>
      <trkpt lat="49.7499" lon="5.25648">
        <ele>320</ele>
        <time>2022-08-21T08:39:05.000Z</time>
      </trkpt>
      <trkpt lat="49.74992" lon="5.25654">
        <ele>320.79998779297</ele>
        <time>2022-08-21T08:39:07.000Z</time>
      </trkpt>
      <trkpt lat="49.74993" lon="5.2566">
        <ele>321.60000610352</ele>
        <time>2022-08-21T08:39:09.000Z</time>
      </trkpt>
      <trkpt lat="49.74993" lon="5.25662">
        <ele>321.79998779297</ele>
        <time>2022-08-21T08:39:10.000Z</time>
      </trkpt>
      <trkpt lat="49.74995" lon="5.25667">
        <ele>322.20001220703</ele>
        <time>2022-08-21T08:39:12.000Z</time>
      </trkpt>
      <trkpt lat="49.74999" lon="5.25677">
        <ele>322.60000610352</ele>
        <time>2022-08-21T08:39:15.000Z</time>
      </trkpt>
      <trkpt lat="49.75002" lon="5.25688">
        <ele>323.39999389648</ele>
        <time>2022-08-21T08:39:18.000Z</time>
      </trkpt>
      <trkpt lat="49.75005" lon="5.25695">
        <ele>324.60000610352</ele>
        <time>2022-08-21T08:39:20.000Z</time>
      </trkpt>
      <trkpt lat="49.75008" lon="5.25703">
        <ele>325.39999389648</ele>
        <time>2022-08-21T08:39:23.000Z</time>
      </trkpt>
      <trkpt lat="49.75008" lon="5.25705">
        <ele>325.79998779297</ele>
        <time>2022-08-21T08:39:24.000Z</time>
      </trkpt>
      <trkpt lat="49.75011" lon="5.25713">
        <ele>326.39999389648</ele>
        <time>2022-08-21T08:39:27.000Z</time>
      </trkpt>
      <trkpt lat="49.75015" lon="5.25721">
        <ele>326.79998779297</ele>
        <time>2022-08-21T08:39:30.000Z</time>
      </trkpt>
      <trkpt lat="49.75017" lon="5.25728">
        <ele>327.60000610352</ele>
        <time>2022-08-21T08:39:32.000Z</time>
      </trkpt>
      <trkpt lat="49.75021" lon="5.25737">
        <ele>328.20001220703</ele>
        <time>2022-08-21T08:39:35.000Z</time>
      </trkpt>
      <trkpt lat="49.75024" lon="5.25745">
        <ele>328.79998779297</ele>
        <time>2022-08-21T08:39:38.000Z</time>
      </trkpt>
      <trkpt lat="49.75028" lon="5.25754">
        <ele>328.79998779297</ele>
        <time>2022-08-21T08:39:41.000Z</time>
      </trkpt>
      <trkpt lat="49.75032" lon="5.25764">
        <ele>328.79998779297</ele>
        <time>2022-08-21T08:39:44.000Z</time>
      </trkpt>
      <trkpt lat="49.75034" lon="5.25771">
        <ele>329.20001220703</ele>
        <time>2022-08-21T08:39:46.000Z</time>
      </trkpt>
      <trkpt lat="49.75035" lon="5.25774">
        <ele>329.20001220703</ele>
        <time>2022-08-21T08:39:47.000Z</time>
      </trkpt>
      <trkpt lat="49.75039" lon="5.25784">
        <ele>329.20001220703</ele>
        <time>2022-08-21T08:39:50.000Z</time>
      </trkpt>
      <trkpt lat="49.75041" lon="5.25794">
        <ele>329.60000610352</ele>
        <time>2022-08-21T08:39:53.000Z</time>
      </trkpt>
      <trkpt lat="49.75042" lon="5.25797">
        <ele>329.79998779297</ele>
        <time>2022-08-21T08:39:54.000Z</time>
      </trkpt>
      <trkpt lat="49.75044" lon="5.25802">
        <ele>330</ele>
        <time>2022-08-21T08:39:56.000Z</time>
      </trkpt>
      <trkpt lat="49.75046" lon="5.25808">
        <ele>330</ele>
        <time>2022-08-21T08:39:59.000Z</time>
      </trkpt>
      <trkpt lat="49.75038" lon="5.25815">
        <ele>333</ele>
        <time>2022-08-21T08:43:47.000Z</time>
      </trkpt>
      <trkpt lat="49.75034" lon="5.25812">
        <ele>333.79998779297</ele>
        <time>2022-08-21T08:43:49.000Z</time>
      </trkpt>
      <trkpt lat="49.75031" lon="5.2581">
        <ele>335.39999389648</ele>
        <time>2022-08-21T08:43:51.000Z</time>
      </trkpt>
      <trkpt lat="49.75025" lon="5.25807">
        <ele>338.20001220703</ele>
        <time>2022-08-21T08:43:54.000Z</time>
      </trkpt>
      <trkpt lat="49.75021" lon="5.25804">
        <ele>339.79998779297</ele>
        <time>2022-08-21T08:43:56.000Z</time>
      </trkpt>
      <trkpt lat="49.75019" lon="5.25801">
        <ele>341</ele>
        <time>2022-08-21T08:43:58.000Z</time>
      </trkpt>
      <trkpt lat="49.75013" lon="5.25798">
        <ele>343.39999389648</ele>
        <time>2022-08-21T08:44:01.000Z</time>
      </trkpt>
      <trkpt lat="49.75007" lon="5.25792">
        <ele>345.79998779297</ele>
        <time>2022-08-21T08:44:04.000Z</time>
      </trkpt>
      <trkpt lat="49.75" lon="5.25787">
        <ele>348.60000610352</ele>
        <time>2022-08-21T08:44:07.000Z</time>
      </trkpt>
      <trkpt lat="49.74995" lon="5.25781">
        <ele>350.39999389648</ele>
        <time>2022-08-21T08:44:10.000Z</time>
      </trkpt>
      <trkpt lat="49.74988" lon="5.25777">
        <ele>353</ele>
        <time>2022-08-21T08:44:13.000Z</time>
      </trkpt>
      <trkpt lat="49.74987" lon="5.25775">
        <ele>353.60000610352</ele>
        <time>2022-08-21T08:44:14.000Z</time>
      </trkpt>
      <trkpt lat="49.74982" lon="5.25771">
        <ele>355.20001220703</ele>
        <time>2022-08-21T08:44:16.000Z</time>
      </trkpt>
      <trkpt lat="49.74976" lon="5.25765">
        <ele>356.79998779297</ele>
        <time>2022-08-21T08:44:19.000Z</time>
      </trkpt>
      <trkpt lat="49.74974" lon="5.25764">
        <ele>357.20001220703</ele>
        <time>2022-08-21T08:44:20.000Z</time>
      </trkpt>
      <trkpt lat="49.74965" lon="5.25758">
        <ele>359.20001220703</ele>
        <time>2022-08-21T08:44:24.000Z</time>
      </trkpt>
      <trkpt lat="49.74958" lon="5.25752">
        <ele>360.20001220703</ele>
        <time>2022-08-21T08:44:27.000Z</time>
      </trkpt>
      <trkpt lat="49.74952" lon="5.25745">
        <ele>361</ele>
        <time>2022-08-21T08:44:30.000Z</time>
      </trkpt>
      <trkpt lat="49.74947" lon="5.2574">
        <ele>361.39999389648</ele>
        <time>2022-08-21T08:44:33.000Z</time>
      </trkpt>
      <trkpt lat="49.74942" lon="5.25736">
        <ele>361.60000610352</ele>
        <time>2022-08-21T08:44:35.000Z</time>
      </trkpt>
      <trkpt lat="49.74938" lon="5.25733">
        <ele>361.79998779297</ele>
        <time>2022-08-21T08:44:37.000Z</time>
      </trkpt>
      <trkpt lat="49.74929" lon="5.25726">
        <ele>362.20001220703</ele>
        <time>2022-08-21T08:44:41.000Z</time>
      </trkpt>
      <trkpt lat="49.74927" lon="5.25724">
        <ele>362.20001220703</ele>
        <time>2022-08-21T08:44:42.000Z</time>
      </trkpt>
      <trkpt lat="49.7492" lon="5.2572">
        <ele>362.79998779297</ele>
        <time>2022-08-21T08:44:45.000Z</time>
      </trkpt>
      <trkpt lat="49.74913" lon="5.25715">
        <ele>362.79998779297</ele>
        <time>2022-08-21T08:44:48.000Z</time>
      </trkpt>
      <trkpt lat="49.74903" lon="5.25706">
        <ele>362</ele>
        <time>2022-08-21T08:44:52.000Z</time>
      </trkpt>
      <trkpt lat="49.74896" lon="5.257">
        <ele>361.60000610352</ele>
        <time>2022-08-21T08:44:55.000Z</time>
      </trkpt>
      <trkpt lat="49.74892" lon="5.25697">
        <ele>361.20001220703</ele>
        <time>2022-08-21T08:44:57.000Z</time>
      </trkpt>
      <trkpt lat="49.74888" lon="5.25694">
        <ele>361.20001220703</ele>
        <time>2022-08-21T08:44:59.000Z</time>
      </trkpt>
      <trkpt lat="49.74884" lon="5.2569">
        <ele>361</ele>
        <time>2022-08-21T08:45:01.000Z</time>
      </trkpt>
      <trkpt lat="49.74881" lon="5.25688">
        <ele>360.79998779297</ele>
        <time>2022-08-21T08:45:02.000Z</time>
      </trkpt>
      <trkpt lat="49.74879" lon="5.25687">
        <ele>361</ele>
        <time>2022-08-21T08:45:03.000Z</time>
      </trkpt>
      <trkpt lat="49.74875" lon="5.25684">
        <ele>361.39999389648</ele>
        <time>2022-08-21T08:45:05.000Z</time>
      </trkpt>
      <trkpt lat="49.74868" lon="5.25682">
        <ele>362.20001220703</ele>
        <time>2022-08-21T08:45:08.000Z</time>
      </trkpt>
      <trkpt lat="49.74866" lon="5.25682">
        <ele>362.20001220703</ele>
        <time>2022-08-21T08:45:09.000Z</time>
      </trkpt>
      <trkpt lat="49.74861" lon="5.25683">
        <ele>362.60000610352</ele>
        <time>2022-08-21T08:45:11.000Z</time>
      </trkpt>
      <trkpt lat="49.74854" lon="5.25684">
        <ele>363</ele>
        <time>2022-08-21T08:45:14.000Z</time>
      </trkpt>
      <trkpt lat="49.74852" lon="5.25686">
        <ele>363.39999389648</ele>
        <time>2022-08-21T08:45:15.000Z</time>
      </trkpt>
      <trkpt lat="49.74847" lon="5.2569">
        <ele>364.20001220703</ele>
        <time>2022-08-21T08:45:17.000Z</time>
      </trkpt>
      <trkpt lat="49.74842" lon="5.25699">
        <ele>365.79998779297</ele>
        <time>2022-08-21T08:45:20.000Z</time>
      </trkpt>
      <trkpt lat="49.74843" lon="5.25702">
        <ele>366.20001220703</ele>
        <time>2022-08-21T08:45:21.000Z</time>
      </trkpt>
      <trkpt lat="49.74844" lon="5.25714">
        <ele>367.79998779297</ele>
        <time>2022-08-21T08:45:24.000Z</time>
      </trkpt>
      <trkpt lat="49.74844" lon="5.25718">
        <ele>368.60000610352</ele>
        <time>2022-08-21T08:45:25.000Z</time>
      </trkpt>
      <trkpt lat="49.74844" lon="5.2574">
        <ele>371.79998779297</ele>
        <time>2022-08-21T08:45:31.000Z</time>
      </trkpt>
      <trkpt lat="49.74843" lon="5.25743">
        <ele>372.39999389648</ele>
        <time>2022-08-21T08:45:32.000Z</time>
      </trkpt>
      <trkpt lat="49.74842" lon="5.2576">
        <ele>374</ele>
        <time>2022-08-21T08:45:36.000Z</time>
      </trkpt>
      <trkpt lat="49.74841" lon="5.25772">
        <ele>375.20001220703</ele>
        <time>2022-08-21T08:45:39.000Z</time>
      </trkpt>
      <trkpt lat="49.74841" lon="5.25776">
        <ele>375.39999389648</ele>
        <time>2022-08-21T08:45:40.000Z</time>
      </trkpt>
      <trkpt lat="49.74839" lon="5.25787">
        <ele>376</ele>
        <time>2022-08-21T08:45:43.000Z</time>
      </trkpt>
      <trkpt lat="49.74838" lon="5.25799">
        <ele>376.60000610352</ele>
        <time>2022-08-21T08:45:46.000Z</time>
      </trkpt>
      <trkpt lat="49.74837" lon="5.25803">
        <ele>376.79998779297</ele>
        <time>2022-08-21T08:45:47.000Z</time>
      </trkpt>
      <trkpt lat="49.74835" lon="5.25819">
        <ele>377.39999389648</ele>
        <time>2022-08-21T08:45:51.000Z</time>
      </trkpt>
      <trkpt lat="49.74832" lon="5.2583">
        <ele>377.79998779297</ele>
        <time>2022-08-21T08:45:53.000Z</time>
      </trkpt>
      <trkpt lat="49.74828" lon="5.25848">
        <ele>378.39999389648</ele>
        <time>2022-08-21T08:45:56.000Z</time>
      </trkpt>
      <trkpt lat="49.74826" lon="5.2586">
        <ele>379</ele>
        <time>2022-08-21T08:45:58.000Z</time>
      </trkpt>
      <trkpt lat="49.74824" lon="5.2587">
        <ele>379.60000610352</ele>
        <time>2022-08-21T08:46:00.000Z</time>
      </trkpt>
      <trkpt lat="49.74819" lon="5.25887">
        <ele>380.79998779297</ele>
        <time>2022-08-21T08:46:03.000Z</time>
      </trkpt>
      <trkpt lat="49.74813" lon="5.25906">
        <ele>381.79998779297</ele>
        <time>2022-08-21T08:46:07.000Z</time>
      </trkpt>
      <trkpt lat="49.74811" lon="5.25919">
        <ele>382.60000610352</ele>
        <time>2022-08-21T08:46:10.000Z</time>
      </trkpt>
      <trkpt lat="49.74817" lon="5.25945">
        <ele>384.79998779297</ele>
        <time>2022-08-21T08:46:15.000Z</time>
      </trkpt>
      <trkpt lat="49.74819" lon="5.25973">
        <ele>386</ele>
        <time>2022-08-21T08:46:20.000Z</time>
      </trkpt>
      <trkpt lat="49.74819" lon="5.25978">
        <ele>386.39999389648</ele>
        <time>2022-08-21T08:46:21.000Z</time>
      </trkpt>
      <trkpt lat="49.74824" lon="5.25999">
        <ele>388.20001220703</ele>
        <time>2022-08-21T08:46:25.000Z</time>
      </trkpt>
      <trkpt lat="49.74822" lon="5.2603">
        <ele>390</ele>
        <time>2022-08-21T08:46:31.000Z</time>
      </trkpt>
      <trkpt lat="49.74819" lon="5.26047">
        <ele>391</ele>
        <time>2022-08-21T08:46:35.000Z</time>
      </trkpt>
      <trkpt lat="49.74818" lon="5.26051">
        <ele>391.39999389648</ele>
        <time>2022-08-21T08:46:36.000Z</time>
      </trkpt>
      <trkpt lat="49.74815" lon="5.26081">
        <ele>393.39999389648</ele>
        <time>2022-08-21T08:46:43.000Z</time>
      </trkpt>
      <trkpt lat="49.74809" lon="5.26107">
        <ele>394.79998779297</ele>
        <time>2022-08-21T08:46:50.000Z</time>
      </trkpt>
      <trkpt lat="49.74806" lon="5.26122">
        <ele>395.20001220703</ele>
        <time>2022-08-21T08:46:54.000Z</time>
      </trkpt>
      <trkpt lat="49.74803" lon="5.2613">
        <ele>395.79998779297</ele>
        <time>2022-08-21T08:46:56.000Z</time>
      </trkpt>
      <trkpt lat="49.74799" lon="5.26148">
        <ele>397.60000610352</ele>
        <time>2022-08-21T08:47:01.000Z</time>
      </trkpt>
      <trkpt lat="49.74798" lon="5.26153">
        <ele>398</ele>
        <time>2022-08-21T08:47:02.000Z</time>
      </trkpt>
      <trkpt lat="49.74798" lon="5.26169">
        <ele>399.20001220703</ele>
        <time>2022-08-21T08:47:06.000Z</time>
      </trkpt>
      <trkpt lat="49.748" lon="5.26177">
        <ele>399.79998779297</ele>
        <time>2022-08-21T08:47:08.000Z</time>
      </trkpt>
      <trkpt lat="49.74802" lon="5.26185">
        <ele>400.39999389648</ele>
        <time>2022-08-21T08:47:10.000Z</time>
      </trkpt>
      <trkpt lat="49.74803" lon="5.262">
        <ele>401.20001220703</ele>
        <time>2022-08-21T08:47:14.000Z</time>
      </trkpt>
      <trkpt lat="49.748" lon="5.26212">
        <ele>401.39999389648</ele>
        <time>2022-08-21T08:47:17.000Z</time>
      </trkpt>
      <trkpt lat="49.74799" lon="5.26229">
        <ele>401.60000610352</ele>
        <time>2022-08-21T08:47:21.000Z</time>
      </trkpt>
      <trkpt lat="49.74801" lon="5.26257">
        <ele>402</ele>
        <time>2022-08-21T08:47:26.000Z</time>
      </trkpt>
      <trkpt lat="49.74801" lon="5.26263">
        <ele>402</ele>
        <time>2022-08-21T08:47:27.000Z</time>
      </trkpt>
      <trkpt lat="49.74799" lon="5.26287">
        <ele>402.60000610352</ele>
        <time>2022-08-21T08:47:32.000Z</time>
      </trkpt>
      <trkpt lat="49.748" lon="5.26296">
        <ele>402.60000610352</ele>
        <time>2022-08-21T08:47:34.000Z</time>
      </trkpt>
      <trkpt lat="49.74801" lon="5.26307">
        <ele>402.79998779297</ele>
        <time>2022-08-21T08:47:37.000Z</time>
      </trkpt>
      <trkpt lat="49.74802" lon="5.26321">
        <ele>403.20001220703</ele>
        <time>2022-08-21T08:47:41.000Z</time>
      </trkpt>
      <trkpt lat="49.74804" lon="5.26332">
        <ele>403.60000610352</ele>
        <time>2022-08-21T08:47:44.000Z</time>
      </trkpt>
      <trkpt lat="49.74808" lon="5.26345">
        <ele>404.39999389648</ele>
        <time>2022-08-21T08:47:47.000Z</time>
      </trkpt>
      <trkpt lat="49.74812" lon="5.26369">
        <ele>405.39999389648</ele>
        <time>2022-08-21T08:47:52.000Z</time>
      </trkpt>
      <trkpt lat="49.74813" lon="5.26374">
        <ele>405.60000610352</ele>
        <time>2022-08-21T08:47:53.000Z</time>
      </trkpt>
      <trkpt lat="49.74821" lon="5.26403">
        <ele>406.39999389648</ele>
        <time>2022-08-21T08:47:59.000Z</time>
      </trkpt>
      <trkpt lat="49.74823" lon="5.26407">
        <ele>406.39999389648</ele>
        <time>2022-08-21T08:48:00.000Z</time>
      </trkpt>
      <trkpt lat="49.74832" lon="5.26438">
        <ele>408.39999389648</ele>
        <time>2022-08-21T08:48:06.000Z</time>
      </trkpt>
      <trkpt lat="49.74838" lon="5.26452">
        <ele>409.39999389648</ele>
        <time>2022-08-21T08:48:08.000Z</time>
      </trkpt>
      <trkpt lat="49.74849" lon="5.2648">
        <ele>410.39999389648</ele>
        <time>2022-08-21T08:48:13.000Z</time>
      </trkpt>
      <trkpt lat="49.74851" lon="5.26484">
        <ele>410.39999389648</ele>
        <time>2022-08-21T08:48:14.000Z</time>
      </trkpt>
      <trkpt lat="49.74862" lon="5.26503">
        <ele>410.79998779297</ele>
        <time>2022-08-21T08:48:19.000Z</time>
      </trkpt>
      <trkpt lat="49.74878" lon="5.26526">
        <ele>411.60000610352</ele>
        <time>2022-08-21T08:48:25.000Z</time>
      </trkpt>
      <trkpt lat="49.74881" lon="5.2653">
        <ele>411.60000610352</ele>
        <time>2022-08-21T08:48:26.000Z</time>
      </trkpt>
      <trkpt lat="49.7489" lon="5.26546">
        <ele>411.79998779297</ele>
        <time>2022-08-21T08:48:30.000Z</time>
      </trkpt>
      <trkpt lat="49.74894" lon="5.2655">
        <ele>411.79998779297</ele>
        <time>2022-08-21T08:48:32.000Z</time>
      </trkpt>
      <trkpt lat="49.74902" lon="5.26563">
        <ele>412</ele>
        <time>2022-08-21T08:48:36.000Z</time>
      </trkpt>
      <trkpt lat="49.74904" lon="5.26567">
        <ele>412</ele>
        <time>2022-08-21T08:48:37.000Z</time>
      </trkpt>
      <trkpt lat="49.74915" lon="5.26586">
        <ele>412.39999389648</ele>
        <time>2022-08-21T08:48:42.000Z</time>
      </trkpt>
      <trkpt lat="49.74928" lon="5.26603">
        <ele>413.39999389648</ele>
        <time>2022-08-21T08:48:47.000Z</time>
      </trkpt>
      <trkpt lat="49.74931" lon="5.26607">
        <ele>413.60000610352</ele>
        <time>2022-08-21T08:48:48.000Z</time>
      </trkpt>
      <trkpt lat="49.7494" lon="5.26624">
        <ele>414.79998779297</ele>
        <time>2022-08-21T08:48:52.000Z</time>
      </trkpt>
      <trkpt lat="49.74943" lon="5.26631">
        <ele>415</ele>
        <time>2022-08-21T08:48:54.000Z</time>
      </trkpt>
      <trkpt lat="49.74947" lon="5.26644">
        <ele>416</ele>
        <time>2022-08-21T08:48:57.000Z</time>
      </trkpt>
      <trkpt lat="49.74949" lon="5.26648">
        <ele>416.20001220703</ele>
        <time>2022-08-21T08:48:58.000Z</time>
      </trkpt>
      <trkpt lat="49.74959" lon="5.26674">
        <ele>418</ele>
        <time>2022-08-21T08:49:04.000Z</time>
      </trkpt>
      <trkpt lat="49.7497" lon="5.267">
        <ele>419.39999389648</ele>
        <time>2022-08-21T08:49:10.000Z</time>
      </trkpt>
      <trkpt lat="49.74971" lon="5.26705">
        <ele>419.39999389648</ele>
        <time>2022-08-21T08:49:11.000Z</time>
      </trkpt>
      <trkpt lat="49.74976" lon="5.26726">
        <ele>420.60000610352</ele>
        <time>2022-08-21T08:49:15.000Z</time>
      </trkpt>
      <trkpt lat="49.74978" lon="5.26732">
        <ele>421.20001220703</ele>
        <time>2022-08-21T08:49:16.000Z</time>
      </trkpt>
      <trkpt lat="49.74986" lon="5.2675">
        <ele>423.20001220703</ele>
        <time>2022-08-21T08:49:20.000Z</time>
      </trkpt>
      <trkpt lat="49.74988" lon="5.26754">
        <ele>423.79998779297</ele>
        <time>2022-08-21T08:49:21.000Z</time>
      </trkpt>
      <trkpt lat="49.74998" lon="5.26775">
        <ele>426.39999389648</ele>
        <time>2022-08-21T08:49:26.000Z</time>
      </trkpt>
      <trkpt lat="49.75" lon="5.26779">
        <ele>426.79998779297</ele>
        <time>2022-08-21T08:49:27.000Z</time>
      </trkpt>
      <trkpt lat="49.75008" lon="5.268">
        <ele>429</ele>
        <time>2022-08-21T08:49:32.000Z</time>
      </trkpt>
      <trkpt lat="49.75016" lon="5.2683">
        <ele>430</ele>
        <time>2022-08-21T08:49:38.000Z</time>
      </trkpt>
      <trkpt lat="49.75026" lon="5.26856">
        <ele>431.39999389648</ele>
        <time>2022-08-21T08:49:44.000Z</time>
      </trkpt>
      <trkpt lat="49.75035" lon="5.26887">
        <ele>432</ele>
        <time>2022-08-21T08:49:50.000Z</time>
      </trkpt>
      <trkpt lat="49.75048" lon="5.26921">
        <ele>432</ele>
        <time>2022-08-21T08:49:56.000Z</time>
      </trkpt>
      <trkpt lat="49.75054" lon="5.2695">
        <ele>432.39999389648</ele>
        <time>2022-08-21T08:50:01.000Z</time>
      </trkpt>
      <trkpt lat="49.75057" lon="5.26956">
        <ele>432.60000610352</ele>
        <time>2022-08-21T08:50:02.000Z</time>
      </trkpt>
      <trkpt lat="49.75063" lon="5.26977">
        <ele>432.60000610352</ele>
        <time>2022-08-21T08:50:06.000Z</time>
      </trkpt>
      <trkpt lat="49.75063" lon="5.26982">
        <ele>432.39999389648</ele>
        <time>2022-08-21T08:50:07.000Z</time>
      </trkpt>
      <trkpt lat="49.75066" lon="5.26996">
        <ele>432.20001220703</ele>
        <time>2022-08-21T08:50:11.000Z</time>
      </trkpt>
      <trkpt lat="49.75077" lon="5.27025">
        <ele>433.20001220703</ele>
        <time>2022-08-21T08:50:16.000Z</time>
      </trkpt>
      <trkpt lat="49.75079" lon="5.27033">
        <ele>433.39999389648</ele>
        <time>2022-08-21T08:50:18.000Z</time>
      </trkpt>
      <trkpt lat="49.75083" lon="5.27049">
        <ele>434</ele>
        <time>2022-08-21T08:50:21.000Z</time>
      </trkpt>
      <trkpt lat="49.75085" lon="5.27066">
        <ele>434.60000610352</ele>
        <time>2022-08-21T08:50:24.000Z</time>
      </trkpt>
      <trkpt lat="49.75086" lon="5.27083">
        <ele>435</ele>
        <time>2022-08-21T08:50:27.000Z</time>
      </trkpt>
      <trkpt lat="49.75087" lon="5.27097">
        <ele>435</ele>
        <time>2022-08-21T08:50:29.000Z</time>
      </trkpt>
      <trkpt lat="49.7509" lon="5.27116">
        <ele>434.60000610352</ele>
        <time>2022-08-21T08:50:32.000Z</time>
      </trkpt>
      <trkpt lat="49.75093" lon="5.27133">
        <ele>434.20001220703</ele>
        <time>2022-08-21T08:50:35.000Z</time>
      </trkpt>
      <trkpt lat="49.75095" lon="5.27142">
        <ele>434</ele>
        <time>2022-08-21T08:50:37.000Z</time>
      </trkpt>
      <trkpt lat="49.75104" lon="5.2717">
        <ele>434</ele>
        <time>2022-08-21T08:50:42.000Z</time>
      </trkpt>
      <trkpt lat="49.75111" lon="5.27197">
        <ele>434.79998779297</ele>
        <time>2022-08-21T08:50:47.000Z</time>
      </trkpt>
      <trkpt lat="49.75116" lon="5.27209">
        <ele>435.60000610352</ele>
        <time>2022-08-21T08:50:49.000Z</time>
      </trkpt>
      <trkpt lat="49.75123" lon="5.27236">
        <ele>435.20001220703</ele>
        <time>2022-08-21T08:50:54.000Z</time>
      </trkpt>
      <trkpt lat="49.75128" lon="5.27265">
        <ele>434.60000610352</ele>
        <time>2022-08-21T08:50:58.000Z</time>
      </trkpt>
      <trkpt lat="49.75131" lon="5.27278">
        <ele>434.39999389648</ele>
        <time>2022-08-21T08:51:00.000Z</time>
      </trkpt>
      <trkpt lat="49.75137" lon="5.2729">
        <ele>433.60000610352</ele>
        <time>2022-08-21T08:51:02.000Z</time>
      </trkpt>
      <trkpt lat="49.75144" lon="5.273">
        <ele>433</ele>
        <time>2022-08-21T08:51:04.000Z</time>
      </trkpt>
      <trkpt lat="49.75158" lon="5.27323">
        <ele>430.39999389648</ele>
        <time>2022-08-21T08:51:09.000Z</time>
      </trkpt>
      <trkpt lat="49.75166" lon="5.27327">
        <ele>429.60000610352</ele>
        <time>2022-08-21T08:51:11.000Z</time>
      </trkpt>
      <trkpt lat="49.75179" lon="5.27329">
        <ele>428.60000610352</ele>
        <time>2022-08-21T08:51:14.000Z</time>
      </trkpt>
      <trkpt lat="49.75192" lon="5.27339">
        <ele>427</ele>
        <time>2022-08-21T08:51:17.000Z</time>
      </trkpt>
      <trkpt lat="49.75196" lon="5.27346">
        <ele>426.20001220703</ele>
        <time>2022-08-21T08:51:18.000Z</time>
      </trkpt>
      <trkpt lat="49.75209" lon="5.27365">
        <ele>424.39999389648</ele>
        <time>2022-08-21T08:51:21.000Z</time>
      </trkpt>
      <trkpt lat="49.75224" lon="5.27383">
        <ele>423.20001220703</ele>
        <time>2022-08-21T08:51:24.000Z</time>
      </trkpt>
      <trkpt lat="49.75241" lon="5.27398">
        <ele>422.79998779297</ele>
        <time>2022-08-21T08:51:27.000Z</time>
      </trkpt>
      <trkpt lat="49.75254" lon="5.27406">
        <ele>423</ele>
        <time>2022-08-21T08:51:29.000Z</time>
      </trkpt>
      <trkpt lat="49.75261" lon="5.27409">
        <ele>423.20001220703</ele>
        <time>2022-08-21T08:51:30.000Z</time>
      </trkpt>
      <trkpt lat="49.75282" lon="5.27424">
        <ele>423.79998779297</ele>
        <time>2022-08-21T08:51:33.000Z</time>
      </trkpt>
      <trkpt lat="49.7529" lon="5.27451">
        <ele>424.39999389648</ele>
        <time>2022-08-21T08:51:36.000Z</time>
      </trkpt>
      <trkpt lat="49.75301" lon="5.27483">
        <ele>424.39999389648</ele>
        <time>2022-08-21T08:51:40.000Z</time>
      </trkpt>
      <trkpt lat="49.75309" lon="5.27497">
        <ele>424</ele>
        <time>2022-08-21T08:51:42.000Z</time>
      </trkpt>
      <trkpt lat="49.75321" lon="5.27518">
        <ele>422.20001220703</ele>
        <time>2022-08-21T08:51:45.000Z</time>
      </trkpt>
      <trkpt lat="49.75328" lon="5.27529">
        <ele>421</ele>
        <time>2022-08-21T08:51:47.000Z</time>
      </trkpt>
      <trkpt lat="49.75339" lon="5.27547">
        <ele>419.20001220703</ele>
        <time>2022-08-21T08:51:50.000Z</time>
      </trkpt>
      <trkpt lat="49.75352" lon="5.27574">
        <ele>418.20001220703</ele>
        <time>2022-08-21T08:51:55.000Z</time>
      </trkpt>
      <trkpt lat="49.75366" lon="5.27604">
        <ele>419</ele>
        <time>2022-08-21T08:52:01.000Z</time>
      </trkpt>
      <trkpt lat="49.7537" lon="5.27612">
        <ele>419.39999389648</ele>
        <time>2022-08-21T08:52:03.000Z</time>
      </trkpt>
      <trkpt lat="49.75373" lon="5.27617">
        <ele>419.60000610352</ele>
        <time>2022-08-21T08:52:06.000Z</time>
      </trkpt>
      <trkpt lat="49.75376" lon="5.27621">
        <ele>419.79998779297</ele>
        <time>2022-08-21T08:52:13.000Z</time>
      </trkpt>
      <trkpt lat="49.75381" lon="5.27631">
        <ele>420.39999389648</ele>
        <time>2022-08-21T08:52:16.000Z</time>
      </trkpt>
      <trkpt lat="49.75394" lon="5.2765">
        <ele>421</ele>
        <time>2022-08-21T08:52:20.000Z</time>
      </trkpt>
      <trkpt lat="49.75423" lon="5.27691">
        <ele>423</ele>
        <time>2022-08-21T08:52:27.000Z</time>
      </trkpt>
      <trkpt lat="49.75443" lon="5.27725">
        <ele>425.39999389648</ele>
        <time>2022-08-21T08:52:33.000Z</time>
      </trkpt>
      <trkpt lat="49.75453" lon="5.27754">
        <ele>427.79998779297</ele>
        <time>2022-08-21T08:52:38.000Z</time>
      </trkpt>
      <trkpt lat="49.75455" lon="5.27767">
        <ele>428.79998779297</ele>
        <time>2022-08-21T08:52:40.000Z</time>
      </trkpt>
      <trkpt lat="49.75455" lon="5.27774">
        <ele>429</ele>
        <time>2022-08-21T08:52:41.000Z</time>
      </trkpt>
      <trkpt lat="49.75454" lon="5.2778">
        <ele>429</ele>
        <time>2022-08-21T08:52:42.000Z</time>
      </trkpt>
      <trkpt lat="49.75453" lon="5.27796">
        <ele>429</ele>
        <time>2022-08-21T08:52:45.000Z</time>
      </trkpt>
      <trkpt lat="49.75456" lon="5.27815">
        <ele>429</ele>
        <time>2022-08-21T08:52:48.000Z</time>
      </trkpt>
      <trkpt lat="49.7546" lon="5.27848">
        <ele>428.20001220703</ele>
        <time>2022-08-21T08:52:53.000Z</time>
      </trkpt>
      <trkpt lat="49.75466" lon="5.27882">
        <ele>427.60000610352</ele>
        <time>2022-08-21T08:52:59.000Z</time>
      </trkpt>
      <trkpt lat="49.7547" lon="5.27908">
        <ele>427.39999389648</ele>
        <time>2022-08-21T08:53:04.000Z</time>
      </trkpt>
      <trkpt lat="49.7547" lon="5.27914">
        <ele>427.39999389648</ele>
        <time>2022-08-21T08:53:05.000Z</time>
      </trkpt>
      <trkpt lat="49.7547" lon="5.27942">
        <ele>428.39999389648</ele>
        <time>2022-08-21T08:53:10.000Z</time>
      </trkpt>
      <trkpt lat="49.75479" lon="5.27978">
        <ele>430.39999389648</ele>
        <time>2022-08-21T08:53:15.000Z</time>
      </trkpt>
      <trkpt lat="49.7548" lon="5.27985">
        <ele>430.60000610352</ele>
        <time>2022-08-21T08:53:16.000Z</time>
      </trkpt>
      <trkpt lat="49.75485" lon="5.28008">
        <ele>431.60000610352</ele>
        <time>2022-08-21T08:53:20.000Z</time>
      </trkpt>
      <trkpt lat="49.75487" lon="5.28036">
        <ele>432</ele>
        <time>2022-08-21T08:53:25.000Z</time>
      </trkpt>
      <trkpt lat="49.75487" lon="5.28061">
        <ele>431.39999389648</ele>
        <time>2022-08-21T08:53:30.000Z</time>
      </trkpt>
      <trkpt lat="49.75489" lon="5.28069">
        <ele>431.39999389648</ele>
        <time>2022-08-21T08:53:32.000Z</time>
      </trkpt>
      <trkpt lat="49.75496" lon="5.28087">
        <ele>431.79998779297</ele>
        <time>2022-08-21T08:53:35.000Z</time>
      </trkpt>
      <trkpt lat="49.75504" lon="5.28109">
        <ele>432.60000610352</ele>
        <time>2022-08-21T08:53:38.000Z</time>
      </trkpt>
      <trkpt lat="49.7551" lon="5.28125">
        <ele>433.20001220703</ele>
        <time>2022-08-21T08:53:40.000Z</time>
      </trkpt>
      <trkpt lat="49.75517" lon="5.28149">
        <ele>433.20001220703</ele>
        <time>2022-08-21T08:53:44.000Z</time>
      </trkpt>
      <trkpt lat="49.75522" lon="5.28159">
        <ele>433</ele>
        <time>2022-08-21T08:53:46.000Z</time>
      </trkpt>
      <trkpt lat="49.7553" lon="5.2818">
        <ele>433</ele>
        <time>2022-08-21T08:53:51.000Z</time>
      </trkpt>
      <trkpt lat="49.75536" lon="5.28195">
        <ele>432.60000610352</ele>
        <time>2022-08-21T09:12:06.000Z</time>
      </trkpt>
      <trkpt lat="49.75542" lon="5.28192">
        <ele>432.20001220703</ele>
        <time>2022-08-21T09:12:11.000Z</time>
      </trkpt>
      <trkpt lat="49.75551" lon="5.28182">
        <ele>431.39999389648</ele>
        <time>2022-08-21T09:12:18.000Z</time>
      </trkpt>
      <trkpt lat="49.75552" lon="5.2818">
        <ele>431.39999389648</ele>
        <time>2022-08-21T09:12:19.000Z</time>
      </trkpt>
      <trkpt lat="49.75559" lon="5.28168">
        <ele>431.20001220703</ele>
        <time>2022-08-21T09:12:24.000Z</time>
      </trkpt>
      <trkpt lat="49.75569" lon="5.28149">
        <ele>431.79998779297</ele>
        <time>2022-08-21T09:12:31.000Z</time>
      </trkpt>
      <trkpt lat="49.75582" lon="5.28129">
        <ele>431.39999389648</ele>
        <time>2022-08-21T09:12:37.000Z</time>
      </trkpt>
      <trkpt lat="49.75593" lon="5.28111">
        <ele>431.39999389648</ele>
        <time>2022-08-21T09:12:42.000Z</time>
      </trkpt>
      <trkpt lat="49.75596" lon="5.28105">
        <ele>431.60000610352</ele>
        <time>2022-08-21T09:12:44.000Z</time>
      </trkpt>
      <trkpt lat="49.75605" lon="5.28089">
        <ele>431</ele>
        <time>2022-08-21T09:12:48.000Z</time>
      </trkpt>
      <trkpt lat="49.75612" lon="5.2808">
        <ele>430.39999389648</ele>
        <time>2022-08-21T09:12:50.000Z</time>
      </trkpt>
      <trkpt lat="49.75614" lon="5.28073">
        <ele>430.20001220703</ele>
        <time>2022-08-21T09:12:51.000Z</time>
      </trkpt>
      <trkpt lat="49.75621" lon="5.28061">
        <ele>429.20001220703</ele>
        <time>2022-08-21T09:12:53.000Z</time>
      </trkpt>
      <trkpt lat="49.75627" lon="5.2805">
        <ele>428.60000610352</ele>
        <time>2022-08-21T09:12:55.000Z</time>
      </trkpt>
      <trkpt lat="49.7563" lon="5.28044">
        <ele>428.60000610352</ele>
        <time>2022-08-21T09:12:56.000Z</time>
      </trkpt>
      <trkpt lat="49.75636" lon="5.28032">
        <ele>428.39999389648</ele>
        <time>2022-08-21T09:12:58.000Z</time>
      </trkpt>
      <trkpt lat="49.75642" lon="5.28019">
        <ele>428.20001220703</ele>
        <time>2022-08-21T09:13:00.000Z</time>
      </trkpt>
      <trkpt lat="49.75649" lon="5.27999">
        <ele>427.79998779297</ele>
        <time>2022-08-21T09:13:03.000Z</time>
      </trkpt>
      <trkpt lat="49.75652" lon="5.27992">
        <ele>427.79998779297</ele>
        <time>2022-08-21T09:13:04.000Z</time>
      </trkpt>
      <trkpt lat="49.75658" lon="5.27979">
        <ele>428.20001220703</ele>
        <time>2022-08-21T09:13:06.000Z</time>
      </trkpt>
      <trkpt lat="49.75664" lon="5.27958">
        <ele>427.60000610352</ele>
        <time>2022-08-21T09:13:09.000Z</time>
      </trkpt>
      <trkpt lat="49.75666" lon="5.27951">
        <ele>427.39999389648</ele>
        <time>2022-08-21T09:13:10.000Z</time>
      </trkpt>
      <trkpt lat="49.75669" lon="5.27936">
        <ele>426.39999389648</ele>
        <time>2022-08-21T09:13:12.000Z</time>
      </trkpt>
      <trkpt lat="49.75673" lon="5.27923">
        <ele>426</ele>
        <time>2022-08-21T09:13:14.000Z</time>
      </trkpt>
      <trkpt lat="49.75675" lon="5.27917">
        <ele>426</ele>
        <time>2022-08-21T09:13:15.000Z</time>
      </trkpt>
      <trkpt lat="49.75678" lon="5.27913">
        <ele>425.39999389648</ele>
        <time>2022-08-21T09:13:16.000Z</time>
      </trkpt>
      <trkpt lat="49.75686" lon="5.27902">
        <ele>424.20001220703</ele>
        <time>2022-08-21T09:13:18.000Z</time>
      </trkpt>
      <trkpt lat="49.7569" lon="5.27896">
        <ele>423.60000610352</ele>
        <time>2022-08-21T09:13:19.000Z</time>
      </trkpt>
      <trkpt lat="49.75693" lon="5.27891">
        <ele>423.20001220703</ele>
        <time>2022-08-21T09:13:20.000Z</time>
      </trkpt>
      <trkpt lat="49.75697" lon="5.27886">
        <ele>422.60000610352</ele>
        <time>2022-08-21T09:13:21.000Z</time>
      </trkpt>
      <trkpt lat="49.75702" lon="5.27875">
        <ele>421.60000610352</ele>
        <time>2022-08-21T09:13:23.000Z</time>
      </trkpt>
      <trkpt lat="49.75706" lon="5.27861">
        <ele>420.39999389648</ele>
        <time>2022-08-21T09:13:25.000Z</time>
      </trkpt>
      <trkpt lat="49.75708" lon="5.27854">
        <ele>419.60000610352</ele>
        <time>2022-08-21T09:13:26.000Z</time>
      </trkpt>
      <trkpt lat="49.75718" lon="5.27837">
        <ele>416.39999389648</ele>
        <time>2022-08-21T09:13:29.000Z</time>
      </trkpt>
      <trkpt lat="49.75723" lon="5.27832">
        <ele>415.39999389648</ele>
        <time>2022-08-21T09:13:30.000Z</time>
      </trkpt>
      <trkpt lat="49.75727" lon="5.27828">
        <ele>414.39999389648</ele>
        <time>2022-08-21T09:13:31.000Z</time>
      </trkpt>
      <trkpt lat="49.75736" lon="5.27822">
        <ele>412.79998779297</ele>
        <time>2022-08-21T09:13:33.000Z</time>
      </trkpt>
      <trkpt lat="49.75742" lon="5.27815">
        <ele>411.60000610352</ele>
        <time>2022-08-21T09:13:35.000Z</time>
      </trkpt>
      <trkpt lat="49.75745" lon="5.2781">
        <ele>411.39999389648</ele>
        <time>2022-08-21T09:13:36.000Z</time>
      </trkpt>
      <trkpt lat="49.75754" lon="5.27796">
        <ele>410.39999389648</ele>
        <time>2022-08-21T09:13:39.000Z</time>
      </trkpt>
      <trkpt lat="49.7576" lon="5.27785">
        <ele>410.20001220703</ele>
        <time>2022-08-21T09:13:41.000Z</time>
      </trkpt>
      <trkpt lat="49.75763" lon="5.27779">
        <ele>410.20001220703</ele>
        <time>2022-08-21T09:13:42.000Z</time>
      </trkpt>
      <trkpt lat="49.75774" lon="5.27761">
        <ele>408.60000610352</ele>
        <time>2022-08-21T09:13:45.000Z</time>
      </trkpt>
      <trkpt lat="49.75777" lon="5.27756">
        <ele>408.39999389648</ele>
        <time>2022-08-21T09:13:46.000Z</time>
      </trkpt>
      <trkpt lat="49.75781" lon="5.2775">
        <ele>408.20001220703</ele>
        <time>2022-08-21T09:13:47.000Z</time>
      </trkpt>
      <trkpt lat="49.75792" lon="5.27735">
        <ele>407.79998779297</ele>
        <time>2022-08-21T09:13:50.000Z</time>
      </trkpt>
      <trkpt lat="49.758" lon="5.27727">
        <ele>407.39999389648</ele>
        <time>2022-08-21T09:13:52.000Z</time>
      </trkpt>
      <trkpt lat="49.75807" lon="5.27719">
        <ele>406.60000610352</ele>
        <time>2022-08-21T09:13:54.000Z</time>
      </trkpt>
      <trkpt lat="49.75823" lon="5.277">
        <ele>405.39999389648</ele>
        <time>2022-08-21T09:13:59.000Z</time>
      </trkpt>
      <trkpt lat="49.7583" lon="5.27693">
        <ele>404.60000610352</ele>
        <time>2022-08-21T09:14:01.000Z</time>
      </trkpt>
      <trkpt lat="49.75842" lon="5.27682">
        <ele>402.79998779297</ele>
        <time>2022-08-21T09:14:05.000Z</time>
      </trkpt>
      <trkpt lat="49.7585" lon="5.27672">
        <ele>401.60000610352</ele>
        <time>2022-08-21T09:14:08.000Z</time>
      </trkpt>
      <trkpt lat="49.75854" lon="5.27665">
        <ele>401.20001220703</ele>
        <time>2022-08-21T09:14:10.000Z</time>
      </trkpt>
      <trkpt lat="49.75855" lon="5.27661">
        <ele>400.79998779297</ele>
        <time>2022-08-21T09:14:11.000Z</time>
      </trkpt>
      <trkpt lat="49.75857" lon="5.27646">
        <ele>400.39999389648</ele>
        <time>2022-08-21T09:14:14.000Z</time>
      </trkpt>
      <trkpt lat="49.75856" lon="5.27641">
        <ele>400.20001220703</ele>
        <time>2022-08-21T09:14:15.000Z</time>
      </trkpt>
      <trkpt lat="49.75851" lon="5.2762">
        <ele>399.79998779297</ele>
        <time>2022-08-21T09:14:19.000Z</time>
      </trkpt>
      <trkpt lat="49.75843" lon="5.27606">
        <ele>400.20001220703</ele>
        <time>2022-08-21T09:14:23.000Z</time>
      </trkpt>
      <trkpt lat="49.7584" lon="5.27597">
        <ele>400.39999389648</ele>
        <time>2022-08-21T09:14:25.000Z</time>
      </trkpt>
      <trkpt lat="49.75836" lon="5.27589">
        <ele>400.20001220703</ele>
        <time>2022-08-21T09:14:27.000Z</time>
      </trkpt>
      <trkpt lat="49.7583" lon="5.27571">
        <ele>400.20001220703</ele>
        <time>2022-08-21T09:14:31.000Z</time>
      </trkpt>
      <trkpt lat="49.7583" lon="5.27555">
        <ele>398</ele>
        <time>2022-08-21T09:14:35.000Z</time>
      </trkpt>
      <trkpt lat="49.75831" lon="5.27551">
        <ele>397.20001220703</ele>
        <time>2022-08-21T09:14:36.000Z</time>
      </trkpt>
      <trkpt lat="49.75835" lon="5.27543">
        <ele>396.20001220703</ele>
        <time>2022-08-21T09:14:39.000Z</time>
      </trkpt>
      <trkpt lat="49.75839" lon="5.27537">
        <ele>394.20001220703</ele>
        <time>2022-08-21T09:14:42.000Z</time>
      </trkpt>
      <trkpt lat="49.75841" lon="5.27535">
        <ele>393.39999389648</ele>
        <time>2022-08-21T09:14:43.000Z</time>
      </trkpt>
      <trkpt lat="49.75851" lon="5.27528">
        <ele>390.79998779297</ele>
        <time>2022-08-21T09:14:46.000Z</time>
      </trkpt>
      <trkpt lat="49.75854" lon="5.27525">
        <ele>390</ele>
        <time>2022-08-21T09:14:47.000Z</time>
      </trkpt>
      <trkpt lat="49.75861" lon="5.27517">
        <ele>388.20001220703</ele>
        <time>2022-08-21T09:14:50.000Z</time>
      </trkpt>
      <trkpt lat="49.75863" lon="5.27515">
        <ele>387.60000610352</ele>
        <time>2022-08-21T09:14:51.000Z</time>
      </trkpt>
      <trkpt lat="49.75869" lon="5.2751">
        <ele>385.39999389648</ele>
        <time>2022-08-21T09:14:53.000Z</time>
      </trkpt>
      <trkpt lat="49.75872" lon="5.27504">
        <ele>384.60000610352</ele>
        <time>2022-08-21T09:14:54.000Z</time>
      </trkpt>
      <trkpt lat="49.75874" lon="5.27484">
        <ele>383.79998779297</ele>
        <time>2022-08-21T09:14:56.000Z</time>
      </trkpt>
      <trkpt lat="49.75876" lon="5.27464">
        <ele>382.79998779297</ele>
        <time>2022-08-21T09:14:58.000Z</time>
      </trkpt>
      <trkpt lat="49.75878" lon="5.27454">
        <ele>382.20001220703</ele>
        <time>2022-08-21T09:14:59.000Z</time>
      </trkpt>
      <trkpt lat="49.75881" lon="5.27433">
        <ele>379.79998779297</ele>
        <time>2022-08-21T09:15:01.000Z</time>
      </trkpt>
      <trkpt lat="49.75882" lon="5.27422">
        <ele>378.39999389648</ele>
        <time>2022-08-21T09:15:02.000Z</time>
      </trkpt>
      <trkpt lat="49.75883" lon="5.2741">
        <ele>377.79998779297</ele>
        <time>2022-08-21T09:15:03.000Z</time>
      </trkpt>
      <trkpt lat="49.75883" lon="5.27389">
        <ele>376</ele>
        <time>2022-08-21T09:15:05.000Z</time>
      </trkpt>
      <trkpt lat="49.75884" lon="5.27367">
        <ele>375</ele>
        <time>2022-08-21T09:15:07.000Z</time>
      </trkpt>
      <trkpt lat="49.75886" lon="5.27344">
        <ele>372</ele>
        <time>2022-08-21T09:15:09.000Z</time>
      </trkpt>
      <trkpt lat="49.75887" lon="5.27333">
        <ele>371.60000610352</ele>
        <time>2022-08-21T09:15:10.000Z</time>
      </trkpt>
      <trkpt lat="49.75888" lon="5.27322">
        <ele>370.79998779297</ele>
        <time>2022-08-21T09:15:11.000Z</time>
      </trkpt>
      <trkpt lat="49.75889" lon="5.27312">
        <ele>369.20001220703</ele>
        <time>2022-08-21T09:15:12.000Z</time>
      </trkpt>
      <trkpt lat="49.75889" lon="5.27301">
        <ele>367.60000610352</ele>
        <time>2022-08-21T09:15:13.000Z</time>
      </trkpt>
      <trkpt lat="49.75888" lon="5.27281">
        <ele>366.39999389648</ele>
        <time>2022-08-21T09:15:15.000Z</time>
      </trkpt>
      <trkpt lat="49.75885" lon="5.27263">
        <ele>366.20001220703</ele>
        <time>2022-08-21T09:15:17.000Z</time>
      </trkpt>
      <trkpt lat="49.75881" lon="5.27244">
        <ele>366.20001220703</ele>
        <time>2022-08-21T09:15:19.000Z</time>
      </trkpt>
      <trkpt lat="49.75878" lon="5.27236">
        <ele>365.79998779297</ele>
        <time>2022-08-21T09:15:20.000Z</time>
      </trkpt>
      <trkpt lat="49.75875" lon="5.27226">
        <ele>365.60000610352</ele>
        <time>2022-08-21T09:15:21.000Z</time>
      </trkpt>
      <trkpt lat="49.75869" lon="5.27208">
        <ele>365.79998779297</ele>
        <time>2022-08-21T09:15:23.000Z</time>
      </trkpt>
      <trkpt lat="49.75862" lon="5.2719">
        <ele>366.39999389648</ele>
        <time>2022-08-21T09:15:25.000Z</time>
      </trkpt>
      <trkpt lat="49.75855" lon="5.27171">
        <ele>364.79998779297</ele>
        <time>2022-08-21T09:15:27.000Z</time>
      </trkpt>
      <trkpt lat="49.75849" lon="5.27154">
        <ele>363.39999389648</ele>
        <time>2022-08-21T09:15:29.000Z</time>
      </trkpt>
      <trkpt lat="49.75843" lon="5.27138">
        <ele>362</ele>
        <time>2022-08-21T09:15:31.000Z</time>
      </trkpt>
      <trkpt lat="49.7584" lon="5.27131">
        <ele>361.79998779297</ele>
        <time>2022-08-21T09:15:32.000Z</time>
      </trkpt>
      <trkpt lat="49.75838" lon="5.27125">
        <ele>360.60000610352</ele>
        <time>2022-08-21T09:15:33.000Z</time>
      </trkpt>
      <trkpt lat="49.75833" lon="5.27113">
        <ele>358.39999389648</ele>
        <time>2022-08-21T09:15:35.000Z</time>
      </trkpt>
      <trkpt lat="49.75826" lon="5.27095">
        <ele>354.79998779297</ele>
        <time>2022-08-21T09:15:38.000Z</time>
      </trkpt>
      <trkpt lat="49.75823" lon="5.27089">
        <ele>353.60000610352</ele>
        <time>2022-08-21T09:15:39.000Z</time>
      </trkpt>
      <trkpt lat="49.75818" lon="5.2708">
        <ele>351.79998779297</ele>
        <time>2022-08-21T09:15:41.000Z</time>
      </trkpt>
      <trkpt lat="49.7581" lon="5.27071">
        <ele>350.20001220703</ele>
        <time>2022-08-21T09:15:44.000Z</time>
      </trkpt>
      <trkpt lat="49.75806" lon="5.27067">
        <ele>348.79998779297</ele>
        <time>2022-08-21T09:15:46.000Z</time>
      </trkpt>
      <trkpt lat="49.75804" lon="5.27065">
        <ele>348.39999389648</ele>
        <time>2022-08-21T09:15:47.000Z</time>
      </trkpt>
      <trkpt lat="49.758" lon="5.27063">
        <ele>347.79998779297</ele>
        <time>2022-08-21T09:15:49.000Z</time>
      </trkpt>
      <trkpt lat="49.75797" lon="5.27061">
        <ele>347.60000610352</ele>
        <time>2022-08-21T09:15:50.000Z</time>
      </trkpt>
      <trkpt lat="49.75787" lon="5.27054">
        <ele>345.60000610352</ele>
        <time>2022-08-21T09:15:54.000Z</time>
      </trkpt>
      <trkpt lat="49.75784" lon="5.27051">
        <ele>345</ele>
        <time>2022-08-21T09:15:55.000Z</time>
      </trkpt>
      <trkpt lat="49.75776" lon="5.27044">
        <ele>343</ele>
        <time>2022-08-21T09:15:57.000Z</time>
      </trkpt>
      <trkpt lat="49.75768" lon="5.27038">
        <ele>342.20001220703</ele>
        <time>2022-08-21T09:15:59.000Z</time>
      </trkpt>
      <trkpt lat="49.75763" lon="5.27037">
        <ele>342.39999389648</ele>
        <time>2022-08-21T09:16:00.000Z</time>
      </trkpt>
      <trkpt lat="49.75759" lon="5.27037">
        <ele>342.79998779297</ele>
        <time>2022-08-21T09:16:01.000Z</time>
      </trkpt>
      <trkpt lat="49.75753" lon="5.27035">
        <ele>343.20001220703</ele>
        <time>2022-08-21T09:16:02.000Z</time>
      </trkpt>
      <trkpt lat="49.75747" lon="5.27032">
        <ele>343</ele>
        <time>2022-08-21T09:16:03.000Z</time>
      </trkpt>
      <trkpt lat="49.75734" lon="5.27021">
        <ele>341.20001220703</ele>
        <time>2022-08-21T09:16:05.000Z</time>
      </trkpt>
      <trkpt lat="49.75724" lon="5.27007">
        <ele>338</ele>
        <time>2022-08-21T09:16:07.000Z</time>
      </trkpt>
      <trkpt lat="49.75714" lon="5.26995">
        <ele>335.60000610352</ele>
        <time>2022-08-21T09:16:09.000Z</time>
      </trkpt>
      <trkpt lat="49.75703" lon="5.26984">
        <ele>335.39999389648</ele>
        <time>2022-08-21T09:16:11.000Z</time>
      </trkpt>
      <trkpt lat="49.75698" lon="5.26978">
        <ele>335.60000610352</ele>
        <time>2022-08-21T09:16:12.000Z</time>
      </trkpt>
      <trkpt lat="49.75692" lon="5.26972">
        <ele>336.20001220703</ele>
        <time>2022-08-21T09:16:13.000Z</time>
      </trkpt>
      <trkpt lat="49.75681" lon="5.2696">
        <ele>337</ele>
        <time>2022-08-21T09:16:15.000Z</time>
      </trkpt>
      <trkpt lat="49.7567" lon="5.26947">
        <ele>336.39999389648</ele>
        <time>2022-08-21T09:16:17.000Z</time>
      </trkpt>
      <trkpt lat="49.75659" lon="5.26937">
        <ele>334.60000610352</ele>
        <time>2022-08-21T09:16:19.000Z</time>
      </trkpt>
      <trkpt lat="49.75648" lon="5.26926">
        <ele>332.20001220703</ele>
        <time>2022-08-21T09:16:21.000Z</time>
      </trkpt>
      <trkpt lat="49.75636" lon="5.26916">
        <ele>330.60000610352</ele>
        <time>2022-08-21T09:16:23.000Z</time>
      </trkpt>
      <trkpt lat="49.7563" lon="5.2691">
        <ele>330</ele>
        <time>2022-08-21T09:16:24.000Z</time>
      </trkpt>
      <trkpt lat="49.75618" lon="5.26899">
        <ele>326.79998779297</ele>
        <time>2022-08-21T09:16:26.000Z</time>
      </trkpt>
      <trkpt lat="49.75605" lon="5.26888">
        <ele>324.39999389648</ele>
        <time>2022-08-21T09:16:28.000Z</time>
      </trkpt>
      <trkpt lat="49.75593" lon="5.26876">
        <ele>322.39999389648</ele>
        <time>2022-08-21T09:16:30.000Z</time>
      </trkpt>
      <trkpt lat="49.75586" lon="5.2687">
        <ele>321.20001220703</ele>
        <time>2022-08-21T09:16:31.000Z</time>
      </trkpt>
      <trkpt lat="49.75579" lon="5.26864">
        <ele>320.20001220703</ele>
        <time>2022-08-21T09:16:32.000Z</time>
      </trkpt>
      <trkpt lat="49.75566" lon="5.26852">
        <ele>317.79998779297</ele>
        <time>2022-08-21T09:16:34.000Z</time>
      </trkpt>
      <trkpt lat="49.75559" lon="5.26844">
        <ele>316.39999389648</ele>
        <time>2022-08-21T09:16:35.000Z</time>
      </trkpt>
      <trkpt lat="49.75546" lon="5.2683">
        <ele>313.20001220703</ele>
        <time>2022-08-21T09:16:37.000Z</time>
      </trkpt>
      <trkpt lat="49.75534" lon="5.26815">
        <ele>311.39999389648</ele>
        <time>2022-08-21T09:16:39.000Z</time>
      </trkpt>
      <trkpt lat="49.75528" lon="5.26808">
        <ele>310.79998779297</ele>
        <time>2022-08-21T09:16:40.000Z</time>
      </trkpt>
      <trkpt lat="49.75522" lon="5.26802">
        <ele>310.20001220703</ele>
        <time>2022-08-21T09:16:41.000Z</time>
      </trkpt>
      <trkpt lat="49.75511" lon="5.26796">
        <ele>310.39999389648</ele>
        <time>2022-08-21T09:16:43.000Z</time>
      </trkpt>
      <trkpt lat="49.75506" lon="5.26794">
        <ele>310.39999389648</ele>
        <time>2022-08-21T09:16:44.000Z</time>
      </trkpt>
      <trkpt lat="49.75501" lon="5.26792">
        <ele>310.39999389648</ele>
        <time>2022-08-21T09:16:45.000Z</time>
      </trkpt>
      <trkpt lat="49.75494" lon="5.26787">
        <ele>310.39999389648</ele>
        <time>2022-08-21T09:16:47.000Z</time>
      </trkpt>
      <trkpt lat="49.75489" lon="5.26781">
        <ele>309.60000610352</ele>
        <time>2022-08-21T09:16:49.000Z</time>
      </trkpt>
      <trkpt lat="49.75486" lon="5.26777">
        <ele>309.39999389648</ele>
        <time>2022-08-21T09:16:50.000Z</time>
      </trkpt>
      <trkpt lat="49.75482" lon="5.26766">
        <ele>307.79998779297</ele>
        <time>2022-08-21T09:16:53.000Z</time>
      </trkpt>
      <trkpt lat="49.7548" lon="5.26763">
        <ele>307</ele>
        <time>2022-08-21T09:16:54.000Z</time>
      </trkpt>
      <trkpt lat="49.75477" lon="5.26759">
        <ele>306.39999389648</ele>
        <time>2022-08-21T09:16:55.000Z</time>
      </trkpt>
      <trkpt lat="49.75475" lon="5.26756">
        <ele>306</ele>
        <time>2022-08-21T09:16:56.000Z</time>
      </trkpt>
      <trkpt lat="49.7547" lon="5.2675">
        <ele>305.20001220703</ele>
        <time>2022-08-21T09:16:58.000Z</time>
      </trkpt>
      <trkpt lat="49.75468" lon="5.26748">
        <ele>304.60000610352</ele>
        <time>2022-08-21T09:16:59.000Z</time>
      </trkpt>
      <trkpt lat="49.75462" lon="5.26738">
        <ele>303</ele>
        <time>2022-08-21T09:17:02.000Z</time>
      </trkpt>
      <trkpt lat="49.7546" lon="5.26736">
        <ele>302.39999389648</ele>
        <time>2022-08-21T09:17:03.000Z</time>
      </trkpt>
      <trkpt lat="49.75458" lon="5.26733">
        <ele>301.79998779297</ele>
        <time>2022-08-21T09:17:04.000Z</time>
      </trkpt>
      <trkpt lat="49.75455" lon="5.26728">
        <ele>301</ele>
        <time>2022-08-21T09:17:06.000Z</time>
      </trkpt>
      <trkpt lat="49.75451" lon="5.26726">
        <ele>300.60000610352</ele>
        <time>2022-08-21T09:17:07.000Z</time>
      </trkpt>
      <trkpt lat="49.75447" lon="5.26724">
        <ele>301.20001220703</ele>
        <time>2022-08-21T09:17:08.000Z</time>
      </trkpt>
      <trkpt lat="49.75443" lon="5.26723">
        <ele>302</ele>
        <time>2022-08-21T09:17:09.000Z</time>
      </trkpt>
      <trkpt lat="49.75437" lon="5.26714">
        <ele>301</ele>
        <time>2022-08-21T09:17:10.000Z</time>
      </trkpt>
      <trkpt lat="49.7543" lon="5.26706">
        <ele>300.20001220703</ele>
        <time>2022-08-21T09:17:11.000Z</time>
      </trkpt>
      <trkpt lat="49.75423" lon="5.26697">
        <ele>299</ele>
        <time>2022-08-21T09:17:12.000Z</time>
      </trkpt>
      <trkpt lat="49.7541" lon="5.26681">
        <ele>295.20001220703</ele>
        <time>2022-08-21T09:17:14.000Z</time>
      </trkpt>
      <trkpt lat="49.75397" lon="5.26662">
        <ele>291.39999389648</ele>
        <time>2022-08-21T09:17:16.000Z</time>
      </trkpt>
      <trkpt lat="49.7539" lon="5.26654">
        <ele>290</ele>
        <time>2022-08-21T09:17:17.000Z</time>
      </trkpt>
      <trkpt lat="49.75384" lon="5.26646">
        <ele>288.79998779297</ele>
        <time>2022-08-21T09:17:18.000Z</time>
      </trkpt>
      <trkpt lat="49.75373" lon="5.26633">
        <ele>286.79998779297</ele>
        <time>2022-08-21T09:17:20.000Z</time>
      </trkpt>
      <trkpt lat="49.75362" lon="5.26624">
        <ele>285.79998779297</ele>
        <time>2022-08-21T09:17:22.000Z</time>
      </trkpt>
      <trkpt lat="49.7535" lon="5.26611">
        <ele>284.60000610352</ele>
        <time>2022-08-21T09:17:24.000Z</time>
      </trkpt>
      <trkpt lat="49.75335" lon="5.26596">
        <ele>284.20001220703</ele>
        <time>2022-08-21T09:17:27.000Z</time>
      </trkpt>
      <trkpt lat="49.75328" lon="5.2659">
        <ele>284.60000610352</ele>
        <time>2022-08-21T09:17:29.000Z</time>
      </trkpt>
      <trkpt lat="49.75326" lon="5.26583">
        <ele>284.39999389648</ele>
        <time>2022-08-21T09:17:31.000Z</time>
      </trkpt>
      <trkpt lat="49.75325" lon="5.2658">
        <ele>284</ele>
        <time>2022-08-21T09:17:32.000Z</time>
      </trkpt>
      <trkpt lat="49.75317" lon="5.26566">
        <ele>283.20001220703</ele>
        <time>2022-08-21T09:20:24.000Z</time>
      </trkpt>
      <trkpt lat="49.75318" lon="5.26565">
        <ele>283</ele>
        <time>2022-08-21T09:20:27.000Z</time>
      </trkpt>
      <trkpt lat="49.75323" lon="5.26571">
        <ele>283.20001220703</ele>
        <time>2022-08-21T09:20:32.000Z</time>
      </trkpt>
      <trkpt lat="49.75332" lon="5.26582">
        <ele>283</ele>
        <time>2022-08-21T09:20:37.000Z</time>
      </trkpt>
      <trkpt lat="49.75345" lon="5.26596">
        <ele>282.79998779297</ele>
        <time>2022-08-21T09:20:43.000Z</time>
      </trkpt>
      <trkpt lat="49.75365" lon="5.26613">
        <ele>283.60000610352</ele>
        <time>2022-08-21T09:20:50.000Z</time>
      </trkpt>
      <trkpt lat="49.75382" lon="5.26625">
        <ele>284.20001220703</ele>
        <time>2022-08-21T09:20:56.000Z</time>
      </trkpt>
      <trkpt lat="49.75401" lon="5.26644">
        <ele>286.60000610352</ele>
        <time>2022-08-21T09:21:02.000Z</time>
      </trkpt>
      <trkpt lat="49.75419" lon="5.26658">
        <ele>288.79998779297</ele>
        <time>2022-08-21T09:21:07.000Z</time>
      </trkpt>
      <trkpt lat="49.75425" lon="5.26663">
        <ele>289.39999389648</ele>
        <time>2022-08-21T09:21:09.000Z</time>
      </trkpt>
      <trkpt lat="49.75436" lon="5.2667">
        <ele>289</ele>
        <time>2022-08-21T09:21:12.000Z</time>
      </trkpt>
      <trkpt lat="49.75449" lon="5.26678">
        <ele>288.79998779297</ele>
        <time>2022-08-21T09:21:16.000Z</time>
      </trkpt>
      <trkpt lat="49.75453" lon="5.2668">
        <ele>288.60000610352</ele>
        <time>2022-08-21T09:21:17.000Z</time>
      </trkpt>
      <trkpt lat="49.75474" lon="5.26692">
        <ele>287.79998779297</ele>
        <time>2022-08-21T09:21:29.000Z</time>
      </trkpt>
      <trkpt lat="49.7548" lon="5.26696">
        <ele>287.79998779297</ele>
        <time>2022-08-21T09:21:31.000Z</time>
      </trkpt>
      <trkpt lat="49.75498" lon="5.26706">
        <ele>289.20001220703</ele>
        <time>2022-08-21T09:21:38.000Z</time>
      </trkpt>
      <trkpt lat="49.75514" lon="5.26715">
        <ele>290.60000610352</ele>
        <time>2022-08-21T09:21:44.000Z</time>
      </trkpt>
      <trkpt lat="49.75532" lon="5.26725">
        <ele>292.60000610352</ele>
        <time>2022-08-21T09:21:50.000Z</time>
      </trkpt>
      <trkpt lat="49.75553" lon="5.26737">
        <ele>290.79998779297</ele>
        <time>2022-08-21T09:21:57.000Z</time>
      </trkpt>
      <trkpt lat="49.75584" lon="5.26753">
        <ele>287.20001220703</ele>
        <time>2022-08-21T09:22:05.000Z</time>
      </trkpt>
      <trkpt lat="49.75612" lon="5.26767">
        <ele>286.79998779297</ele>
        <time>2022-08-21T09:22:12.000Z</time>
      </trkpt>
      <trkpt lat="49.75641" lon="5.26781">
        <ele>288.39999389648</ele>
        <time>2022-08-21T09:22:18.000Z</time>
      </trkpt>
      <trkpt lat="49.75663" lon="5.26791">
        <ele>287.20001220703</ele>
        <time>2022-08-21T09:22:24.000Z</time>
      </trkpt>
      <trkpt lat="49.7569" lon="5.26801">
        <ele>284</ele>
        <time>2022-08-21T09:22:31.000Z</time>
      </trkpt>
      <trkpt lat="49.75717" lon="5.26817">
        <ele>285.39999389648</ele>
        <time>2022-08-21T09:22:38.000Z</time>
      </trkpt>
      <trkpt lat="49.75739" lon="5.26832">
        <ele>288.20001220703</ele>
        <time>2022-08-21T09:22:45.000Z</time>
      </trkpt>
      <trkpt lat="49.75746" lon="5.2684">
        <ele>289.20001220703</ele>
        <time>2022-08-21T09:22:48.000Z</time>
      </trkpt>
      <trkpt lat="49.75749" lon="5.26845">
        <ele>290</ele>
        <time>2022-08-21T09:22:50.000Z</time>
      </trkpt>
      <trkpt lat="49.75752" lon="5.26848">
        <ele>290.20001220703</ele>
        <time>2022-08-21T09:22:51.000Z</time>
      </trkpt>
      <trkpt lat="49.75758" lon="5.26854">
        <ele>290.60000610352</ele>
        <time>2022-08-21T09:22:54.000Z</time>
      </trkpt>
      <trkpt lat="49.75768" lon="5.2686">
        <ele>290.39999389648</ele>
        <time>2022-08-21T09:22:57.000Z</time>
      </trkpt>
      <trkpt lat="49.7578" lon="5.26865">
        <ele>289.60000610352</ele>
        <time>2022-08-21T09:23:01.000Z</time>
      </trkpt>
      <trkpt lat="49.75788" lon="5.26868">
        <ele>289.39999389648</ele>
        <time>2022-08-21T09:23:04.000Z</time>
      </trkpt>
      <trkpt lat="49.7579" lon="5.2687">
        <ele>289.60000610352</ele>
        <time>2022-08-21T09:23:05.000Z</time>
      </trkpt>
      <trkpt lat="49.75799" lon="5.26876">
        <ele>290.79998779297</ele>
        <time>2022-08-21T09:23:09.000Z</time>
      </trkpt>
      <trkpt lat="49.75801" lon="5.26878">
        <ele>291.20001220703</ele>
        <time>2022-08-21T09:23:10.000Z</time>
      </trkpt>
      <trkpt lat="49.75814" lon="5.26887">
        <ele>293</ele>
        <time>2022-08-21T09:23:15.000Z</time>
      </trkpt>
      <trkpt lat="49.75839" lon="5.26905">
        <ele>296.20001220703</ele>
        <time>2022-08-21T09:23:21.000Z</time>
      </trkpt>
      <trkpt lat="49.75863" lon="5.26922">
        <ele>299</ele>
        <time>2022-08-21T09:23:27.000Z</time>
      </trkpt>
      <trkpt lat="49.75869" lon="5.26926">
        <ele>299.79998779297</ele>
        <time>2022-08-21T09:23:29.000Z</time>
      </trkpt>
      <trkpt lat="49.75881" lon="5.26932">
        <ele>299.60000610352</ele>
        <time>2022-08-21T09:23:33.000Z</time>
      </trkpt>
      <trkpt lat="49.75905" lon="5.26943">
        <ele>298</ele>
        <time>2022-08-21T09:23:39.000Z</time>
      </trkpt>
      <trkpt lat="49.7592" lon="5.26948">
        <ele>295.79998779297</ele>
        <time>2022-08-21T09:23:46.000Z</time>
      </trkpt>
      <trkpt lat="49.75929" lon="5.26958">
        <ele>296</ele>
        <time>2022-08-21T09:23:51.000Z</time>
      </trkpt>
      <trkpt lat="49.75933" lon="5.26974">
        <ele>297.60000610352</ele>
        <time>2022-08-21T09:23:57.000Z</time>
      </trkpt>
      <trkpt lat="49.75933" lon="5.26986">
        <ele>299.20001220703</ele>
        <time>2022-08-21T09:24:00.000Z</time>
      </trkpt>
      <trkpt lat="49.75934" lon="5.26995">
        <ele>300.39999389648</ele>
        <time>2022-08-21T09:24:03.000Z</time>
      </trkpt>
      <trkpt lat="49.75935" lon="5.26998">
        <ele>300.39999389648</ele>
        <time>2022-08-21T09:24:04.000Z</time>
      </trkpt>
      <trkpt lat="49.75939" lon="5.27009">
        <ele>301</ele>
        <time>2022-08-21T09:24:07.000Z</time>
      </trkpt>
      <trkpt lat="49.75943" lon="5.27018">
        <ele>302</ele>
        <time>2022-08-21T09:24:09.000Z</time>
      </trkpt>
      <trkpt lat="49.75945" lon="5.27026">
        <ele>302.79998779297</ele>
        <time>2022-08-21T09:24:11.000Z</time>
      </trkpt>
      <trkpt lat="49.75947" lon="5.27035">
        <ele>303.79998779297</ele>
        <time>2022-08-21T09:24:14.000Z</time>
      </trkpt>
      <trkpt lat="49.75947" lon="5.27038">
        <ele>304.20001220703</ele>
        <time>2022-08-21T09:24:15.000Z</time>
      </trkpt>
      <trkpt lat="49.75947" lon="5.27047">
        <ele>305.39999389648</ele>
        <time>2022-08-21T09:24:18.000Z</time>
      </trkpt>
      <trkpt lat="49.75946" lon="5.27058">
        <ele>307</ele>
        <time>2022-08-21T09:24:22.000Z</time>
      </trkpt>
      <trkpt lat="49.75947" lon="5.27062">
        <ele>307.60000610352</ele>
        <time>2022-08-21T09:24:23.000Z</time>
      </trkpt>
      <trkpt lat="49.75948" lon="5.27074">
        <ele>309.20001220703</ele>
        <time>2022-08-21T09:24:26.000Z</time>
      </trkpt>
      <trkpt lat="49.75948" lon="5.27084">
        <ele>311.20001220703</ele>
        <time>2022-08-21T09:24:30.000Z</time>
      </trkpt>
      <trkpt lat="49.75947" lon="5.27093">
        <ele>312.79998779297</ele>
        <time>2022-08-21T09:24:33.000Z</time>
      </trkpt>
      <trkpt lat="49.7595" lon="5.27109">
        <ele>314.79998779297</ele>
        <time>2022-08-21T09:24:37.000Z</time>
      </trkpt>
      <trkpt lat="49.7595" lon="5.27112">
        <ele>315.20001220703</ele>
        <time>2022-08-21T09:24:38.000Z</time>
      </trkpt>
      <trkpt lat="49.75955" lon="5.27127">
        <ele>316</ele>
        <time>2022-08-21T09:24:41.000Z</time>
      </trkpt>
      <trkpt lat="49.75959" lon="5.27143">
        <ele>317.39999389648</ele>
        <time>2022-08-21T09:24:44.000Z</time>
      </trkpt>
      <trkpt lat="49.75961" lon="5.27154">
        <ele>318.20001220703</ele>
        <time>2022-08-21T09:24:47.000Z</time>
      </trkpt>
      <trkpt lat="49.75961" lon="5.27163">
        <ele>319</ele>
        <time>2022-08-21T09:24:50.000Z</time>
      </trkpt>
      <trkpt lat="49.75962" lon="5.2717">
        <ele>319.79998779297</ele>
        <time>2022-08-21T09:24:52.000Z</time>
      </trkpt>
      <trkpt lat="49.75962" lon="5.27173">
        <ele>320</ele>
        <time>2022-08-21T09:24:53.000Z</time>
      </trkpt>
      <trkpt lat="49.75962" lon="5.27182">
        <ele>321</ele>
        <time>2022-08-21T09:24:56.000Z</time>
      </trkpt>
      <trkpt lat="49.7596" lon="5.27184">
        <ele>321.20001220703</ele>
        <time>2022-08-21T09:24:58.000Z</time>
      </trkpt>
      <trkpt lat="49.7596" lon="5.27186">
        <ele>321.39999389648</ele>
        <time>2022-08-21T09:24:59.000Z</time>
      </trkpt>
      <trkpt lat="49.75959" lon="5.27188">
        <ele>321.79998779297</ele>
        <time>2022-08-21T09:25:00.000Z</time>
      </trkpt>
      <trkpt lat="49.75958" lon="5.27189">
        <ele>321.79998779297</ele>
        <time>2022-08-21T09:25:01.000Z</time>
      </trkpt>
      <trkpt lat="49.75956" lon="5.27199">
        <ele>322.60000610352</ele>
        <time>2022-08-21T09:25:05.000Z</time>
      </trkpt>
      <trkpt lat="49.75956" lon="5.27208">
        <ele>323.20001220703</ele>
        <time>2022-08-21T09:25:08.000Z</time>
      </trkpt>
      <trkpt lat="49.75955" lon="5.27216">
        <ele>323.79998779297</ele>
        <time>2022-08-21T09:25:11.000Z</time>
      </trkpt>
      <trkpt lat="49.75954" lon="5.27219">
        <ele>324.39999389648</ele>
        <time>2022-08-21T09:25:12.000Z</time>
      </trkpt>
      <trkpt lat="49.75954" lon="5.27233">
        <ele>326.39999389648</ele>
        <time>2022-08-21T09:25:15.000Z</time>
      </trkpt>
      <trkpt lat="49.75954" lon="5.27243">
        <ele>327.79998779297</ele>
        <time>2022-08-21T09:25:17.000Z</time>
      </trkpt>
      <trkpt lat="49.75954" lon="5.27247">
        <ele>328.39999389648</ele>
        <time>2022-08-21T09:25:18.000Z</time>
      </trkpt>
      <trkpt lat="49.75953" lon="5.27259">
        <ele>330.20001220703</ele>
        <time>2022-08-21T09:25:21.000Z</time>
      </trkpt>
      <trkpt lat="49.75953" lon="5.27264">
        <ele>330.79998779297</ele>
        <time>2022-08-21T09:25:22.000Z</time>
      </trkpt>
      <trkpt lat="49.75953" lon="5.27274">
        <ele>332.39999389648</ele>
        <time>2022-08-21T09:25:25.000Z</time>
      </trkpt>
      <trkpt lat="49.75953" lon="5.27288">
        <ele>334.20001220703</ele>
        <time>2022-08-21T09:25:29.000Z</time>
      </trkpt>
      <trkpt lat="49.75952" lon="5.27295">
        <ele>335.39999389648</ele>
        <time>2022-08-21T09:25:32.000Z</time>
      </trkpt>
      <trkpt lat="49.7595" lon="5.273">
        <ele>336.60000610352</ele>
        <time>2022-08-21T09:25:35.000Z</time>
      </trkpt>
      <trkpt lat="49.75947" lon="5.27343">
        <ele>343</ele>
        <time>2022-08-21T09:25:47.000Z</time>
      </trkpt>
      <trkpt lat="49.75947" lon="5.27354">
        <ele>344.79998779297</ele>
        <time>2022-08-21T09:25:49.000Z</time>
      </trkpt>
      <trkpt lat="49.75947" lon="5.27359">
        <ele>345.60000610352</ele>
        <time>2022-08-21T09:25:50.000Z</time>
      </trkpt>
      <trkpt lat="49.75947" lon="5.27371">
        <ele>347.60000610352</ele>
        <time>2022-08-21T09:25:53.000Z</time>
      </trkpt>
      <trkpt lat="49.75946" lon="5.27382">
        <ele>349.60000610352</ele>
        <time>2022-08-21T09:25:57.000Z</time>
      </trkpt>
      <trkpt lat="49.75945" lon="5.27387">
        <ele>350.20001220703</ele>
        <time>2022-08-21T09:25:59.000Z</time>
      </trkpt>
      <trkpt lat="49.75945" lon="5.27393">
        <ele>350.79998779297</ele>
        <time>2022-08-21T09:26:01.000Z</time>
      </trkpt>
      <trkpt lat="49.75944" lon="5.27406">
        <ele>352.60000610352</ele>
        <time>2022-08-21T09:26:05.000Z</time>
      </trkpt>
      <trkpt lat="49.75943" lon="5.2741">
        <ele>353.20001220703</ele>
        <time>2022-08-21T09:26:06.000Z</time>
      </trkpt>
      <trkpt lat="49.75941" lon="5.27427">
        <ele>356.20001220703</ele>
        <time>2022-08-21T09:26:11.000Z</time>
      </trkpt>
      <trkpt lat="49.75939" lon="5.27436">
        <ele>357.79998779297</ele>
        <time>2022-08-21T09:26:15.000Z</time>
      </trkpt>
      <trkpt lat="49.75938" lon="5.27438">
        <ele>358.20001220703</ele>
        <time>2022-08-21T09:26:16.000Z</time>
      </trkpt>
      <trkpt lat="49.75936" lon="5.27442">
        <ele>359.39999389648</ele>
        <time>2022-08-21T09:26:18.000Z</time>
      </trkpt>
      <trkpt lat="49.75934" lon="5.27446">
        <ele>360.39999389648</ele>
        <time>2022-08-21T09:26:20.000Z</time>
      </trkpt>
      <trkpt lat="49.75934" lon="5.27448">
        <ele>360.79998779297</ele>
        <time>2022-08-21T09:26:21.000Z</time>
      </trkpt>
      <trkpt lat="49.75931" lon="5.27452">
        <ele>362</ele>
        <time>2022-08-21T09:26:24.000Z</time>
      </trkpt>
      <trkpt lat="49.75931" lon="5.2746">
        <ele>362.20001220703</ele>
        <time>2022-08-21T09:26:28.000Z</time>
      </trkpt>
      <trkpt lat="49.75931" lon="5.27469">
        <ele>362.60000610352</ele>
        <time>2022-08-21T09:26:31.000Z</time>
      </trkpt>
      <trkpt lat="49.7593" lon="5.27483">
        <ele>363.60000610352</ele>
        <time>2022-08-21T09:26:38.000Z</time>
      </trkpt>
      <trkpt lat="49.75932" lon="5.27494">
        <ele>363.20001220703</ele>
        <time>2022-08-21T09:26:41.000Z</time>
      </trkpt>
      <trkpt lat="49.75933" lon="5.27501">
        <ele>363.39999389648</ele>
        <time>2022-08-21T09:26:43.000Z</time>
      </trkpt>
      <trkpt lat="49.75933" lon="5.27506">
        <ele>363.60000610352</ele>
        <time>2022-08-21T09:26:44.000Z</time>
      </trkpt>
      <trkpt lat="49.75934" lon="5.27511">
        <ele>363.39999389648</ele>
        <time>2022-08-21T09:26:45.000Z</time>
      </trkpt>
      <trkpt lat="49.75934" lon="5.27519">
        <ele>364</ele>
        <time>2022-08-21T09:26:47.000Z</time>
      </trkpt>
      <trkpt lat="49.7594" lon="5.27538">
        <ele>361</ele>
        <time>2022-08-21T09:26:50.000Z</time>
      </trkpt>
      <trkpt lat="49.75942" lon="5.27543">
        <ele>360.20001220703</ele>
        <time>2022-08-21T09:26:51.000Z</time>
      </trkpt>
      <trkpt lat="49.75947" lon="5.27561">
        <ele>359.39999389648</ele>
        <time>2022-08-21T09:26:54.000Z</time>
      </trkpt>
      <trkpt lat="49.75953" lon="5.27574">
        <ele>359.20001220703</ele>
        <time>2022-08-21T09:26:59.000Z</time>
      </trkpt>
      <trkpt lat="49.75957" lon="5.27583">
        <ele>360.20001220703</ele>
        <time>2022-08-21T09:27:02.000Z</time>
      </trkpt>
      <trkpt lat="49.75961" lon="5.27591">
        <ele>361.20001220703</ele>
        <time>2022-08-21T09:27:05.000Z</time>
      </trkpt>
      <trkpt lat="49.75968" lon="5.27596">
        <ele>361.20001220703</ele>
        <time>2022-08-21T09:27:09.000Z</time>
      </trkpt>
      <trkpt lat="49.75989" lon="5.27616">
        <ele>363.39999389648</ele>
        <time>2022-08-21T09:27:19.000Z</time>
      </trkpt>
      <trkpt lat="49.75996" lon="5.27623">
        <ele>365</ele>
        <time>2022-08-21T09:27:23.000Z</time>
      </trkpt>
      <trkpt lat="49.76045" lon="5.27648">
        <ele>371.79998779297</ele>
        <time>2022-08-21T09:27:46.000Z</time>
      </trkpt>
      <trkpt lat="49.76053" lon="5.27651">
        <ele>373</ele>
        <time>2022-08-21T09:27:48.000Z</time>
      </trkpt>
      <trkpt lat="49.76065" lon="5.27654">
        <ele>374.39999389648</ele>
        <time>2022-08-21T09:27:51.000Z</time>
      </trkpt>
      <trkpt lat="49.76076" lon="5.27658">
        <ele>375.20001220703</ele>
        <time>2022-08-21T09:27:55.000Z</time>
      </trkpt>
      <trkpt lat="49.76078" lon="5.27658">
        <ele>375.39999389648</ele>
        <time>2022-08-21T09:27:56.000Z</time>
      </trkpt>
      <trkpt lat="49.76087" lon="5.27661">
        <ele>376</ele>
        <time>2022-08-21T09:28:01.000Z</time>
      </trkpt>
      <trkpt lat="49.76091" lon="5.27663">
        <ele>376.39999389648</ele>
        <time>2022-08-21T09:28:03.000Z</time>
      </trkpt>
      <trkpt lat="49.76096" lon="5.27665">
        <ele>376.60000610352</ele>
        <time>2022-08-21T09:28:06.000Z</time>
      </trkpt>
      <trkpt lat="49.76101" lon="5.27668">
        <ele>377.20001220703</ele>
        <time>2022-08-21T09:28:09.000Z</time>
      </trkpt>
      <trkpt lat="49.76105" lon="5.2767">
        <ele>377.79998779297</ele>
        <time>2022-08-21T09:28:11.000Z</time>
      </trkpt>
      <trkpt lat="49.76113" lon="5.27678">
        <ele>378.79998779297</ele>
        <time>2022-08-21T09:28:15.000Z</time>
      </trkpt>
      <trkpt lat="49.76118" lon="5.27682">
        <ele>379.60000610352</ele>
        <time>2022-08-21T09:28:17.000Z</time>
      </trkpt>
      <trkpt lat="49.76123" lon="5.27686">
        <ele>379.79998779297</ele>
        <time>2022-08-21T09:28:19.000Z</time>
      </trkpt>
      <trkpt lat="49.76139" lon="5.27699">
        <ele>380.79998779297</ele>
        <time>2022-08-21T09:28:24.000Z</time>
      </trkpt>
      <trkpt lat="49.76159" lon="5.27721">
        <ele>383.39999389648</ele>
        <time>2022-08-21T09:28:30.000Z</time>
      </trkpt>
      <trkpt lat="49.76165" lon="5.2773">
        <ele>384.79998779297</ele>
        <time>2022-08-21T09:28:33.000Z</time>
      </trkpt>
      <trkpt lat="49.76173" lon="5.27743">
        <ele>387</ele>
        <time>2022-08-21T09:28:37.000Z</time>
      </trkpt>
      <trkpt lat="49.76196" lon="5.27771">
        <ele>385.39999389648</ele>
        <time>2022-08-21T09:28:45.000Z</time>
      </trkpt>
      <trkpt lat="49.76201" lon="5.2778">
        <ele>385.60000610352</ele>
        <time>2022-08-21T09:28:48.000Z</time>
      </trkpt>
      <trkpt lat="49.76203" lon="5.2779">
        <ele>387.20001220703</ele>
        <time>2022-08-21T09:28:51.000Z</time>
      </trkpt>
      <trkpt lat="49.76206" lon="5.27803">
        <ele>388.60000610352</ele>
        <time>2022-08-21T09:28:55.000Z</time>
      </trkpt>
      <trkpt lat="49.76209" lon="5.2781">
        <ele>389.20001220703</ele>
        <time>2022-08-21T09:28:57.000Z</time>
      </trkpt>
      <trkpt lat="49.76212" lon="5.27818">
        <ele>390.20001220703</ele>
        <time>2022-08-21T09:28:59.000Z</time>
      </trkpt>
      <trkpt lat="49.76221" lon="5.27836">
        <ele>390.39999389648</ele>
        <time>2022-08-21T09:29:03.000Z</time>
      </trkpt>
      <trkpt lat="49.76223" lon="5.27839">
        <ele>390.20001220703</ele>
        <time>2022-08-21T09:29:04.000Z</time>
      </trkpt>
      <trkpt lat="49.76234" lon="5.27854">
        <ele>389.20001220703</ele>
        <time>2022-08-21T09:29:08.000Z</time>
      </trkpt>
      <trkpt lat="49.76255" lon="5.27872">
        <ele>386.60000610352</ele>
        <time>2022-08-21T09:29:16.000Z</time>
      </trkpt>
      <trkpt lat="49.76274" lon="5.27888">
        <ele>386.39999389648</ele>
        <time>2022-08-21T09:29:23.000Z</time>
      </trkpt>
      <trkpt lat="49.76284" lon="5.279">
        <ele>387</ele>
        <time>2022-08-21T09:29:27.000Z</time>
      </trkpt>
      <trkpt lat="49.76295" lon="5.27912">
        <ele>387.79998779297</ele>
        <time>2022-08-21T09:29:31.000Z</time>
      </trkpt>
      <trkpt lat="49.76307" lon="5.27926">
        <ele>389.39999389648</ele>
        <time>2022-08-21T09:29:36.000Z</time>
      </trkpt>
      <trkpt lat="49.76312" lon="5.27931">
        <ele>390</ele>
        <time>2022-08-21T09:29:38.000Z</time>
      </trkpt>
      <trkpt lat="49.76327" lon="5.27948">
        <ele>391.79998779297</ele>
        <time>2022-08-21T09:29:43.000Z</time>
      </trkpt>
      <trkpt lat="49.7634" lon="5.27964">
        <ele>393.79998779297</ele>
        <time>2022-08-21T09:29:48.000Z</time>
      </trkpt>
      <trkpt lat="49.76343" lon="5.27967">
        <ele>394</ele>
        <time>2022-08-21T09:29:49.000Z</time>
      </trkpt>
      <trkpt lat="49.76346" lon="5.2797">
        <ele>394.20001220703</ele>
        <time>2022-08-21T09:29:50.000Z</time>
      </trkpt>
      <trkpt lat="49.76352" lon="5.27979">
        <ele>395</ele>
        <time>2022-08-21T09:29:53.000Z</time>
      </trkpt>
      <trkpt lat="49.76355" lon="5.27985">
        <ele>395.79998779297</ele>
        <time>2022-08-21T09:29:55.000Z</time>
      </trkpt>
      <trkpt lat="49.76357" lon="5.2799">
        <ele>396.39999389648</ele>
        <time>2022-08-21T09:29:57.000Z</time>
      </trkpt>
      <trkpt lat="49.76361" lon="5.28001">
        <ele>397</ele>
        <time>2022-08-21T09:30:01.000Z</time>
      </trkpt>
      <trkpt lat="49.76365" lon="5.28011">
        <ele>397.60000610352</ele>
        <time>2022-08-21T09:30:04.000Z</time>
      </trkpt>
      <trkpt lat="49.7637" lon="5.28032">
        <ele>399</ele>
        <time>2022-08-21T09:30:09.000Z</time>
      </trkpt>
      <trkpt lat="49.76374" lon="5.28055">
        <ele>400.79998779297</ele>
        <time>2022-08-21T09:30:14.000Z</time>
      </trkpt>
      <trkpt lat="49.76375" lon="5.28061">
        <ele>401.20001220703</ele>
        <time>2022-08-21T09:30:15.000Z</time>
      </trkpt>
      <trkpt lat="49.76377" lon="5.28083">
        <ele>403.20001220703</ele>
        <time>2022-08-21T09:30:20.000Z</time>
      </trkpt>
      <trkpt lat="49.76377" lon="5.28089">
        <ele>403.79998779297</ele>
        <time>2022-08-21T09:30:22.000Z</time>
      </trkpt>
      <trkpt lat="49.76381" lon="5.28107">
        <ele>405</ele>
        <time>2022-08-21T09:30:26.000Z</time>
      </trkpt>
      <trkpt lat="49.76382" lon="5.28112">
        <ele>405</ele>
        <time>2022-08-21T09:30:27.000Z</time>
      </trkpt>
      <trkpt lat="49.76386" lon="5.28126">
        <ele>405.20001220703</ele>
        <time>2022-08-21T09:30:30.000Z</time>
      </trkpt>
      <trkpt lat="49.76388" lon="5.28131">
        <ele>405.20001220703</ele>
        <time>2022-08-21T09:30:31.000Z</time>
      </trkpt>
      <trkpt lat="49.76393" lon="5.28144">
        <ele>404.79998779297</ele>
        <time>2022-08-21T09:30:34.000Z</time>
      </trkpt>
      <trkpt lat="49.76396" lon="5.2815">
        <ele>404.60000610352</ele>
        <time>2022-08-21T09:30:35.000Z</time>
      </trkpt>
      <trkpt lat="49.76402" lon="5.2817">
        <ele>405.20001220703</ele>
        <time>2022-08-21T09:30:41.000Z</time>
      </trkpt>
      <trkpt lat="49.7641" lon="5.28205">
        <ele>406.20001220703</ele>
        <time>2022-08-21T09:30:54.000Z</time>
      </trkpt>
      <trkpt lat="49.76415" lon="5.28222">
        <ele>406.39999389648</ele>
        <time>2022-08-21T09:30:58.000Z</time>
      </trkpt>
      <trkpt lat="49.76417" lon="5.28227">
        <ele>406.60000610352</ele>
        <time>2022-08-21T09:30:59.000Z</time>
      </trkpt>
      <trkpt lat="49.76421" lon="5.28248">
        <ele>407.79998779297</ele>
        <time>2022-08-21T09:31:02.000Z</time>
      </trkpt>
      <trkpt lat="49.76423" lon="5.2826">
        <ele>408.79998779297</ele>
        <time>2022-08-21T09:31:04.000Z</time>
      </trkpt>
      <trkpt lat="49.76425" lon="5.2827">
        <ele>409.79998779297</ele>
        <time>2022-08-21T09:31:06.000Z</time>
      </trkpt>
      <trkpt lat="49.76428" lon="5.28284">
        <ele>411.20001220703</ele>
        <time>2022-08-21T09:31:09.000Z</time>
      </trkpt>
      <trkpt lat="49.76432" lon="5.28298">
        <ele>412.60000610352</ele>
        <time>2022-08-21T09:31:12.000Z</time>
      </trkpt>
      <trkpt lat="49.76433" lon="5.28302">
        <ele>412.79998779297</ele>
        <time>2022-08-21T09:31:13.000Z</time>
      </trkpt>
      <trkpt lat="49.76435" lon="5.28311">
        <ele>413.39999389648</ele>
        <time>2022-08-21T09:31:16.000Z</time>
      </trkpt>
      <trkpt lat="49.76439" lon="5.28325">
        <ele>414</ele>
        <time>2022-08-21T09:31:19.000Z</time>
      </trkpt>
      <trkpt lat="49.76442" lon="5.28337">
        <ele>414</ele>
        <time>2022-08-21T09:31:22.000Z</time>
      </trkpt>
      <trkpt lat="49.76445" lon="5.28345">
        <ele>414</ele>
        <time>2022-08-21T09:31:24.000Z</time>
      </trkpt>
      <trkpt lat="49.76446" lon="5.2835">
        <ele>414</ele>
        <time>2022-08-21T09:31:25.000Z</time>
      </trkpt>
      <trkpt lat="49.7645" lon="5.28358">
        <ele>414</ele>
        <time>2022-08-21T09:31:29.000Z</time>
      </trkpt>
      <trkpt lat="49.76451" lon="5.28359">
        <ele>414</ele>
        <time>2022-08-21T09:31:30.000Z</time>
      </trkpt>
      <trkpt lat="49.76455" lon="5.28361">
        <ele>414.20001220703</ele>
        <time>2022-08-21T09:31:32.000Z</time>
      </trkpt>
      <trkpt lat="49.76465" lon="5.28362">
        <ele>414.39999389648</ele>
        <time>2022-08-21T09:31:36.000Z</time>
      </trkpt>
      <trkpt lat="49.76479" lon="5.28365">
        <ele>415</ele>
        <time>2022-08-21T09:31:43.000Z</time>
      </trkpt>
      <trkpt lat="49.76497" lon="5.28376">
        <ele>415.60000610352</ele>
        <time>2022-08-21T09:31:49.000Z</time>
      </trkpt>
      <trkpt lat="49.7652" lon="5.28394">
        <ele>416.39999389648</ele>
        <time>2022-08-21T09:31:56.000Z</time>
      </trkpt>
      <trkpt lat="49.76538" lon="5.28411">
        <ele>417</ele>
        <time>2022-08-21T09:32:01.000Z</time>
      </trkpt>
      <trkpt lat="49.76544" lon="5.28417">
        <ele>417</ele>
        <time>2022-08-21T09:32:03.000Z</time>
      </trkpt>
      <trkpt lat="49.76559" lon="5.28432">
        <ele>417</ele>
        <time>2022-08-21T09:32:08.000Z</time>
      </trkpt>
      <trkpt lat="49.76573" lon="5.28448">
        <ele>417</ele>
        <time>2022-08-21T09:32:13.000Z</time>
      </trkpt>
      <trkpt lat="49.76583" lon="5.28457">
        <ele>417</ele>
        <time>2022-08-21T09:32:16.000Z</time>
      </trkpt>
      <trkpt lat="49.76596" lon="5.28467">
        <ele>417.20001220703</ele>
        <time>2022-08-21T09:32:20.000Z</time>
      </trkpt>
      <trkpt lat="49.76599" lon="5.28469">
        <ele>417.20001220703</ele>
        <time>2022-08-21T09:32:21.000Z</time>
      </trkpt>
      <trkpt lat="49.76616" lon="5.28482">
        <ele>417.39999389648</ele>
        <time>2022-08-21T09:32:26.000Z</time>
      </trkpt>
      <trkpt lat="49.7662" lon="5.28486">
        <ele>417.39999389648</ele>
        <time>2022-08-21T09:32:28.000Z</time>
      </trkpt>
      <trkpt lat="49.76625" lon="5.28487">
        <ele>417.39999389648</ele>
        <time>2022-08-21T09:32:30.000Z</time>
      </trkpt>
      <trkpt lat="49.76627" lon="5.28486">
        <ele>417.60000610352</ele>
        <time>2022-08-21T09:32:31.000Z</time>
      </trkpt>
      <trkpt lat="49.76631" lon="5.28483">
        <ele>417.79998779297</ele>
        <time>2022-08-21T09:32:33.000Z</time>
      </trkpt>
      <trkpt lat="49.76632" lon="5.28481">
        <ele>418</ele>
        <time>2022-08-21T09:32:34.000Z</time>
      </trkpt>
      <trkpt lat="49.76635" lon="5.28472">
        <ele>418</ele>
        <time>2022-08-21T09:32:38.000Z</time>
      </trkpt>
      <trkpt lat="49.76636" lon="5.28469">
        <ele>418</ele>
        <time>2022-08-21T09:32:39.000Z</time>
      </trkpt>
      <trkpt lat="49.76641" lon="5.28449">
        <ele>418.60000610352</ele>
        <time>2022-08-21T09:32:45.000Z</time>
      </trkpt>
      <trkpt lat="49.76644" lon="5.28419">
        <ele>419.79998779297</ele>
        <time>2022-08-21T09:32:51.000Z</time>
      </trkpt>
      <trkpt lat="49.76646" lon="5.28397">
        <ele>420.39999389648</ele>
        <time>2022-08-21T09:32:56.000Z</time>
      </trkpt>
      <trkpt lat="49.76648" lon="5.28376">
        <ele>421</ele>
        <time>2022-08-21T09:33:00.000Z</time>
      </trkpt>
      <trkpt lat="49.7665" lon="5.28365">
        <ele>421.20001220703</ele>
        <time>2022-08-21T09:33:02.000Z</time>
      </trkpt>
      <trkpt lat="49.76652" lon="5.28341">
        <ele>420.20001220703</ele>
        <time>2022-08-21T09:33:06.000Z</time>
      </trkpt>
      <trkpt lat="49.76653" lon="5.28324">
        <ele>419.39999389648</ele>
        <time>2022-08-21T09:33:08.000Z</time>
      </trkpt>
      <trkpt lat="49.76656" lon="5.28306">
        <ele>418.20001220703</ele>
        <time>2022-08-21T09:33:10.000Z</time>
      </trkpt>
      <trkpt lat="49.76661" lon="5.28274">
        <ele>415.20001220703</ele>
        <time>2022-08-21T09:33:13.000Z</time>
      </trkpt>
      <trkpt lat="49.76666" lon="5.2825">
        <ele>413</ele>
        <time>2022-08-21T09:33:15.000Z</time>
      </trkpt>
      <trkpt lat="49.76675" lon="5.28225">
        <ele>410.60000610352</ele>
        <time>2022-08-21T09:33:17.000Z</time>
      </trkpt>
      <trkpt lat="49.76684" lon="5.282">
        <ele>408.20001220703</ele>
        <time>2022-08-21T09:33:19.000Z</time>
      </trkpt>
      <trkpt lat="49.76692" lon="5.28176">
        <ele>408.20001220703</ele>
        <time>2022-08-21T09:33:21.000Z</time>
      </trkpt>
      <trkpt lat="49.76697" lon="5.28159">
        <ele>408.60000610352</ele>
        <time>2022-08-21T09:33:23.000Z</time>
      </trkpt>
      <trkpt lat="49.76708" lon="5.28127">
        <ele>410</ele>
        <time>2022-08-21T09:33:28.000Z</time>
      </trkpt>
      <trkpt lat="49.76708" lon="5.28111">
        <ele>410.39999389648</ele>
        <time>2022-08-21T09:33:32.000Z</time>
      </trkpt>
      <trkpt lat="49.76706" lon="5.28108">
        <ele>410.20001220703</ele>
        <time>2022-08-21T09:33:33.000Z</time>
      </trkpt>
      <trkpt lat="49.76696" lon="5.28099">
        <ele>409.60000610352</ele>
        <time>2022-08-21T09:33:36.000Z</time>
      </trkpt>
      <trkpt lat="49.76683" lon="5.28087">
        <ele>408.60000610352</ele>
        <time>2022-08-21T09:33:39.000Z</time>
      </trkpt>
      <trkpt lat="49.76674" lon="5.28081">
        <ele>408</ele>
        <time>2022-08-21T09:33:41.000Z</time>
      </trkpt>
      <trkpt lat="49.76656" lon="5.28069">
        <ele>406.60000610352</ele>
        <time>2022-08-21T09:33:45.000Z</time>
      </trkpt>
      <trkpt lat="49.76651" lon="5.28065">
        <ele>406.39999389648</ele>
        <time>2022-08-21T09:33:46.000Z</time>
      </trkpt>
      <trkpt lat="49.76646" lon="5.28062">
        <ele>406</ele>
        <time>2022-08-21T09:33:47.000Z</time>
      </trkpt>
      <trkpt lat="49.76641" lon="5.2806">
        <ele>405.79998779297</ele>
        <time>2022-08-21T09:33:48.000Z</time>
      </trkpt>
      <trkpt lat="49.76621" lon="5.28054">
        <ele>404.79998779297</ele>
        <time>2022-08-21T09:33:52.000Z</time>
      </trkpt>
      <trkpt lat="49.7661" lon="5.28052">
        <ele>404.20001220703</ele>
        <time>2022-08-21T09:33:54.000Z</time>
      </trkpt>
      <trkpt lat="49.76589" lon="5.28045">
        <ele>403.20001220703</ele>
        <time>2022-08-21T09:33:58.000Z</time>
      </trkpt>
      <trkpt lat="49.76583" lon="5.28044">
        <ele>403</ele>
        <time>2022-08-21T09:33:59.000Z</time>
      </trkpt>
      <trkpt lat="49.76571" lon="5.28039">
        <ele>402.60000610352</ele>
        <time>2022-08-21T09:34:01.000Z</time>
      </trkpt>
      <trkpt lat="49.76548" lon="5.2803">
        <ele>401</ele>
        <time>2022-08-21T09:34:05.000Z</time>
      </trkpt>
      <trkpt lat="49.76541" lon="5.28027">
        <ele>400.39999389648</ele>
        <time>2022-08-21T09:34:06.000Z</time>
      </trkpt>
      <trkpt lat="49.7652" lon="5.28019">
        <ele>398.60000610352</ele>
        <time>2022-08-21T09:34:09.000Z</time>
      </trkpt>
      <trkpt lat="49.76499" lon="5.2801">
        <ele>397.20001220703</ele>
        <time>2022-08-21T09:34:12.000Z</time>
      </trkpt>
      <trkpt lat="49.76485" lon="5.28008">
        <ele>396.39999389648</ele>
        <time>2022-08-21T09:34:14.000Z</time>
      </trkpt>
      <trkpt lat="49.76472" lon="5.28002">
        <ele>396.39999389648</ele>
        <time>2022-08-21T09:34:16.000Z</time>
      </trkpt>
      <trkpt lat="49.76465" lon="5.27999">
        <ele>396.60000610352</ele>
        <time>2022-08-21T09:34:17.000Z</time>
      </trkpt>
      <trkpt lat="49.76453" lon="5.2799">
        <ele>397.20001220703</ele>
        <time>2022-08-21T09:34:19.000Z</time>
      </trkpt>
      <trkpt lat="49.76444" lon="5.2798">
        <ele>397.20001220703</ele>
        <time>2022-08-21T09:34:21.000Z</time>
      </trkpt>
      <trkpt lat="49.76432" lon="5.27959">
        <ele>396.60000610352</ele>
        <time>2022-08-21T09:34:24.000Z</time>
      </trkpt>
      <trkpt lat="49.76421" lon="5.27936">
        <ele>394.60000610352</ele>
        <time>2022-08-21T09:34:27.000Z</time>
      </trkpt>
      <trkpt lat="49.76415" lon="5.27927">
        <ele>393.60000610352</ele>
        <time>2022-08-21T09:34:28.000Z</time>
      </trkpt>
      <trkpt lat="49.7641" lon="5.27919">
        <ele>392.79998779297</ele>
        <time>2022-08-21T09:34:29.000Z</time>
      </trkpt>
      <trkpt lat="49.76394" lon="5.27904">
        <ele>390.60000610352</ele>
        <time>2022-08-21T09:34:31.000Z</time>
      </trkpt>
      <trkpt lat="49.76365" lon="5.27888">
        <ele>388</ele>
        <time>2022-08-21T09:34:34.000Z</time>
      </trkpt>
      <trkpt lat="49.76356" lon="5.27885">
        <ele>387.60000610352</ele>
        <time>2022-08-21T09:34:35.000Z</time>
      </trkpt>
      <trkpt lat="49.7634" lon="5.27879">
        <ele>387</ele>
        <time>2022-08-21T09:34:37.000Z</time>
      </trkpt>
      <trkpt lat="49.76319" lon="5.27868">
        <ele>386.79998779297</ele>
        <time>2022-08-21T09:34:40.000Z</time>
      </trkpt>
      <trkpt lat="49.76306" lon="5.2786">
        <ele>386.39999389648</ele>
        <time>2022-08-21T09:34:42.000Z</time>
      </trkpt>
      <trkpt lat="49.76286" lon="5.27847">
        <ele>385.60000610352</ele>
        <time>2022-08-21T09:34:45.000Z</time>
      </trkpt>
      <trkpt lat="49.76275" lon="5.27836">
        <ele>386</ele>
        <time>2022-08-21T09:34:47.000Z</time>
      </trkpt>
      <trkpt lat="49.76263" lon="5.27819">
        <ele>386.60000610352</ele>
        <time>2022-08-21T09:34:49.000Z</time>
      </trkpt>
      <trkpt lat="49.76258" lon="5.2781">
        <ele>386.60000610352</ele>
        <time>2022-08-21T09:34:50.000Z</time>
      </trkpt>
      <trkpt lat="49.76246" lon="5.27792">
        <ele>386.39999389648</ele>
        <time>2022-08-21T09:34:52.000Z</time>
      </trkpt>
      <trkpt lat="49.7624" lon="5.27782">
        <ele>385.79998779297</ele>
        <time>2022-08-21T09:34:53.000Z</time>
      </trkpt>
      <trkpt lat="49.76235" lon="5.27772">
        <ele>385.79998779297</ele>
        <time>2022-08-21T09:34:54.000Z</time>
      </trkpt>
      <trkpt lat="49.76229" lon="5.27762">
        <ele>385.39999389648</ele>
        <time>2022-08-21T09:34:55.000Z</time>
      </trkpt>
      <trkpt lat="49.76219" lon="5.27741">
        <ele>384.79998779297</ele>
        <time>2022-08-21T09:34:57.000Z</time>
      </trkpt>
      <trkpt lat="49.76206" lon="5.2771">
        <ele>382.60000610352</ele>
        <time>2022-08-21T09:35:00.000Z</time>
      </trkpt>
      <trkpt lat="49.76195" lon="5.27688">
        <ele>381.60000610352</ele>
        <time>2022-08-21T09:35:02.000Z</time>
      </trkpt>
      <trkpt lat="49.76189" lon="5.27678">
        <ele>381</ele>
        <time>2022-08-21T09:35:03.000Z</time>
      </trkpt>
      <trkpt lat="49.76182" lon="5.27669">
        <ele>380.60000610352</ele>
        <time>2022-08-21T09:35:04.000Z</time>
      </trkpt>
      <trkpt lat="49.7616" lon="5.27648">
        <ele>379.39999389648</ele>
        <time>2022-08-21T09:35:07.000Z</time>
      </trkpt>
      <trkpt lat="49.76151" lon="5.27643">
        <ele>379</ele>
        <time>2022-08-21T09:35:08.000Z</time>
      </trkpt>
      <trkpt lat="49.76135" lon="5.27634">
        <ele>378.60000610352</ele>
        <time>2022-08-21T09:35:10.000Z</time>
      </trkpt>
      <trkpt lat="49.76127" lon="5.27632">
        <ele>378.39999389648</ele>
        <time>2022-08-21T09:35:11.000Z</time>
      </trkpt>
      <trkpt lat="49.76118" lon="5.2763">
        <ele>378</ele>
        <time>2022-08-21T09:35:12.000Z</time>
      </trkpt>
      <trkpt lat="49.76109" lon="5.2763">
        <ele>377.39999389648</ele>
        <time>2022-08-21T09:35:13.000Z</time>
      </trkpt>
      <trkpt lat="49.76092" lon="5.27632">
        <ele>376</ele>
        <time>2022-08-21T09:35:15.000Z</time>
      </trkpt>
      <trkpt lat="49.76073" lon="5.27635">
        <ele>373.39999389648</ele>
        <time>2022-08-21T09:35:17.000Z</time>
      </trkpt>
      <trkpt lat="49.76056" lon="5.27637">
        <ele>371.79998779297</ele>
        <time>2022-08-21T09:35:19.000Z</time>
      </trkpt>
      <trkpt lat="49.76049" lon="5.27637">
        <ele>371</ele>
        <time>2022-08-21T09:35:20.000Z</time>
      </trkpt>
      <trkpt lat="49.7604" lon="5.27633">
        <ele>369.60000610352</ele>
        <time>2022-08-21T09:35:21.000Z</time>
      </trkpt>
      <trkpt lat="49.76026" lon="5.27617">
        <ele>366.79998779297</ele>
        <time>2022-08-21T09:35:23.000Z</time>
      </trkpt>
      <trkpt lat="49.76016" lon="5.27596">
        <ele>363.60000610352</ele>
        <time>2022-08-21T09:35:25.000Z</time>
      </trkpt>
      <trkpt lat="49.76013" lon="5.27585">
        <ele>361.79998779297</ele>
        <time>2022-08-21T09:35:26.000Z</time>
      </trkpt>
      <trkpt lat="49.76011" lon="5.27572">
        <ele>360.39999389648</ele>
        <time>2022-08-21T09:35:27.000Z</time>
      </trkpt>
      <trkpt lat="49.7601" lon="5.27559">
        <ele>358.60000610352</ele>
        <time>2022-08-21T09:35:28.000Z</time>
      </trkpt>
      <trkpt lat="49.76009" lon="5.27544">
        <ele>357.20001220703</ele>
        <time>2022-08-21T09:35:29.000Z</time>
      </trkpt>
      <trkpt lat="49.76008" lon="5.27512">
        <ele>355.20001220703</ele>
        <time>2022-08-21T09:35:31.000Z</time>
      </trkpt>
      <trkpt lat="49.7601" lon="5.27482">
        <ele>354.20001220703</ele>
        <time>2022-08-21T09:35:33.000Z</time>
      </trkpt>
      <trkpt lat="49.76014" lon="5.27451">
        <ele>352.60000610352</ele>
        <time>2022-08-21T09:35:35.000Z</time>
      </trkpt>
      <trkpt lat="49.76019" lon="5.27421">
        <ele>352</ele>
        <time>2022-08-21T09:35:37.000Z</time>
      </trkpt>
      <trkpt lat="49.76024" lon="5.2739">
        <ele>350.79998779297</ele>
        <time>2022-08-21T09:35:39.000Z</time>
      </trkpt>
      <trkpt lat="49.76029" lon="5.27362">
        <ele>348.39999389648</ele>
        <time>2022-08-21T09:35:41.000Z</time>
      </trkpt>
      <trkpt lat="49.76037" lon="5.27335">
        <ele>346</ele>
        <time>2022-08-21T09:35:43.000Z</time>
      </trkpt>
      <trkpt lat="49.76042" lon="5.27321">
        <ele>345.79998779297</ele>
        <time>2022-08-21T09:35:44.000Z</time>
      </trkpt>
      <trkpt lat="49.76047" lon="5.27309">
        <ele>345.60000610352</ele>
        <time>2022-08-21T09:35:45.000Z</time>
      </trkpt>
      <trkpt lat="49.76057" lon="5.27286">
        <ele>344.60000610352</ele>
        <time>2022-08-21T09:35:47.000Z</time>
      </trkpt>
      <trkpt lat="49.76065" lon="5.27266">
        <ele>344</ele>
        <time>2022-08-21T09:35:49.000Z</time>
      </trkpt>
      <trkpt lat="49.76069" lon="5.27246">
        <ele>342</ele>
        <time>2022-08-21T09:35:51.000Z</time>
      </trkpt>
      <trkpt lat="49.76068" lon="5.27238">
        <ele>340.60000610352</ele>
        <time>2022-08-21T09:35:52.000Z</time>
      </trkpt>
      <trkpt lat="49.76067" lon="5.27218">
        <ele>337</ele>
        <time>2022-08-21T09:35:55.000Z</time>
      </trkpt>
      <trkpt lat="49.76066" lon="5.27211">
        <ele>335.79998779297</ele>
        <time>2022-08-21T09:35:56.000Z</time>
      </trkpt>
      <trkpt lat="49.76064" lon="5.27204">
        <ele>334.79998779297</ele>
        <time>2022-08-21T09:35:57.000Z</time>
      </trkpt>
      <trkpt lat="49.76063" lon="5.27189">
        <ele>333</ele>
        <time>2022-08-21T09:35:59.000Z</time>
      </trkpt>
      <trkpt lat="49.76065" lon="5.27172">
        <ele>332.39999389648</ele>
        <time>2022-08-21T09:36:01.000Z</time>
      </trkpt>
      <trkpt lat="49.76072" lon="5.27151">
        <ele>332.39999389648</ele>
        <time>2022-08-21T09:36:04.000Z</time>
      </trkpt>
      <trkpt lat="49.76075" lon="5.27146">
        <ele>333</ele>
        <time>2022-08-21T09:36:05.000Z</time>
      </trkpt>
      <trkpt lat="49.76079" lon="5.2714">
        <ele>333</ele>
        <time>2022-08-21T09:36:06.000Z</time>
      </trkpt>
      <trkpt lat="49.76084" lon="5.27136">
        <ele>333.20001220703</ele>
        <time>2022-08-21T09:36:07.000Z</time>
      </trkpt>
      <trkpt lat="49.76098" lon="5.27127">
        <ele>334.79998779297</ele>
        <time>2022-08-21T09:36:10.000Z</time>
      </trkpt>
      <trkpt lat="49.76113" lon="5.2712">
        <ele>336</ele>
        <time>2022-08-21T09:36:13.000Z</time>
      </trkpt>
      <trkpt lat="49.76128" lon="5.27111">
        <ele>334.79998779297</ele>
        <time>2022-08-21T09:36:16.000Z</time>
      </trkpt>
      <trkpt lat="49.76137" lon="5.27106">
        <ele>333.79998779297</ele>
        <time>2022-08-21T09:36:18.000Z</time>
      </trkpt>
      <trkpt lat="49.76142" lon="5.27105">
        <ele>333.60000610352</ele>
        <time>2022-08-21T09:36:19.000Z</time>
      </trkpt>
      <trkpt lat="49.76146" lon="5.27104">
        <ele>333.60000610352</ele>
        <time>2022-08-21T09:36:20.000Z</time>
      </trkpt>
      <trkpt lat="49.7615" lon="5.27103">
        <ele>333</ele>
        <time>2022-08-21T09:36:21.000Z</time>
      </trkpt>
      <trkpt lat="49.76155" lon="5.27104">
        <ele>332.60000610352</ele>
        <time>2022-08-21T09:36:22.000Z</time>
      </trkpt>
      <trkpt lat="49.76168" lon="5.27103">
        <ele>331</ele>
        <time>2022-08-21T09:36:25.000Z</time>
      </trkpt>
      <trkpt lat="49.76177" lon="5.27102">
        <ele>330</ele>
        <time>2022-08-21T09:36:27.000Z</time>
      </trkpt>
      <trkpt lat="49.76182" lon="5.27101">
        <ele>329.60000610352</ele>
        <time>2022-08-21T09:36:28.000Z</time>
      </trkpt>
      <trkpt lat="49.76191" lon="5.27099">
        <ele>329</ele>
        <time>2022-08-21T09:36:30.000Z</time>
      </trkpt>
      <trkpt lat="49.76196" lon="5.27098">
        <ele>328.79998779297</ele>
        <time>2022-08-21T09:36:31.000Z</time>
      </trkpt>
      <trkpt lat="49.76205" lon="5.27096">
        <ele>329</ele>
        <time>2022-08-21T09:36:33.000Z</time>
      </trkpt>
      <trkpt lat="49.7621" lon="5.27095">
        <ele>329.60000610352</ele>
        <time>2022-08-21T09:36:34.000Z</time>
      </trkpt>
      <trkpt lat="49.76227" lon="5.27093">
        <ele>330</ele>
        <time>2022-08-21T09:36:37.000Z</time>
      </trkpt>
      <trkpt lat="49.7624" lon="5.27092">
        <ele>328.60000610352</ele>
        <time>2022-08-21T09:36:39.000Z</time>
      </trkpt>
      <trkpt lat="49.76254" lon="5.27088">
        <ele>326.20001220703</ele>
        <time>2022-08-21T09:36:41.000Z</time>
      </trkpt>
      <trkpt lat="49.76271" lon="5.27082">
        <ele>322.20001220703</ele>
        <time>2022-08-21T09:36:43.000Z</time>
      </trkpt>
      <trkpt lat="49.7629" lon="5.2707">
        <ele>316.79998779297</ele>
        <time>2022-08-21T09:36:45.000Z</time>
      </trkpt>
      <trkpt lat="49.7631" lon="5.27059">
        <ele>314</ele>
        <time>2022-08-21T09:36:47.000Z</time>
      </trkpt>
      <trkpt lat="49.76332" lon="5.27049">
        <ele>313.20001220703</ele>
        <time>2022-08-21T09:36:49.000Z</time>
      </trkpt>
      <trkpt lat="49.76355" lon="5.2704">
        <ele>313</ele>
        <time>2022-08-21T09:36:51.000Z</time>
      </trkpt>
      <trkpt lat="49.76366" lon="5.27034">
        <ele>312</ele>
        <time>2022-08-21T09:36:52.000Z</time>
      </trkpt>
      <trkpt lat="49.76378" lon="5.27027">
        <ele>309.60000610352</ele>
        <time>2022-08-21T09:36:53.000Z</time>
      </trkpt>
      <trkpt lat="49.76399" lon="5.27015">
        <ele>304.60000610352</ele>
        <time>2022-08-21T09:36:55.000Z</time>
      </trkpt>
      <trkpt lat="49.76418" lon="5.26999">
        <ele>302.79998779297</ele>
        <time>2022-08-21T09:36:57.000Z</time>
      </trkpt>
      <trkpt lat="49.76435" lon="5.2698">
        <ele>301.20001220703</ele>
        <time>2022-08-21T09:36:59.000Z</time>
      </trkpt>
      <trkpt lat="49.76453" lon="5.2696">
        <ele>299.20001220703</ele>
        <time>2022-08-21T09:37:01.000Z</time>
      </trkpt>
      <trkpt lat="49.76469" lon="5.26942">
        <ele>296.39999389648</ele>
        <time>2022-08-21T09:37:03.000Z</time>
      </trkpt>
      <trkpt lat="49.76479" lon="5.26934">
        <ele>295.79998779297</ele>
        <time>2022-08-21T09:37:04.000Z</time>
      </trkpt>
      <trkpt lat="49.7649" lon="5.26927">
        <ele>296</ele>
        <time>2022-08-21T09:37:05.000Z</time>
      </trkpt>
      <trkpt lat="49.76509" lon="5.2691">
        <ele>295.79998779297</ele>
        <time>2022-08-21T09:37:07.000Z</time>
      </trkpt>
      <trkpt lat="49.76528" lon="5.26889">
        <ele>296.39999389648</ele>
        <time>2022-08-21T09:37:09.000Z</time>
      </trkpt>
      <trkpt lat="49.76536" lon="5.26877">
        <ele>296.20001220703</ele>
        <time>2022-08-21T09:37:10.000Z</time>
      </trkpt>
      <trkpt lat="49.76544" lon="5.26864">
        <ele>296</ele>
        <time>2022-08-21T09:37:11.000Z</time>
      </trkpt>
      <trkpt lat="49.76558" lon="5.26839">
        <ele>293.60000610352</ele>
        <time>2022-08-21T09:37:13.000Z</time>
      </trkpt>
      <trkpt lat="49.76569" lon="5.26813">
        <ele>292.20001220703</ele>
        <time>2022-08-21T09:37:15.000Z</time>
      </trkpt>
      <trkpt lat="49.7658" lon="5.26786">
        <ele>290</ele>
        <time>2022-08-21T09:37:17.000Z</time>
      </trkpt>
      <trkpt lat="49.76589" lon="5.26758">
        <ele>287</ele>
        <time>2022-08-21T09:37:19.000Z</time>
      </trkpt>
      <trkpt lat="49.7659" lon="5.26744">
        <ele>286</ele>
        <time>2022-08-21T09:37:20.000Z</time>
      </trkpt>
      <trkpt lat="49.7659" lon="5.2673">
        <ele>284.79998779297</ele>
        <time>2022-08-21T09:37:21.000Z</time>
      </trkpt>
      <trkpt lat="49.76591" lon="5.26703">
        <ele>283.60000610352</ele>
        <time>2022-08-21T09:37:23.000Z</time>
      </trkpt>
      <trkpt lat="49.76592" lon="5.26689">
        <ele>283.39999389648</ele>
        <time>2022-08-21T09:37:24.000Z</time>
      </trkpt>
      <trkpt lat="49.76595" lon="5.26659">
        <ele>283.60000610352</ele>
        <time>2022-08-21T09:37:26.000Z</time>
      </trkpt>
      <trkpt lat="49.76596" lon="5.26643">
        <ele>282.60000610352</ele>
        <time>2022-08-21T09:37:27.000Z</time>
      </trkpt>
      <trkpt lat="49.76596" lon="5.26628">
        <ele>281.79998779297</ele>
        <time>2022-08-21T09:37:28.000Z</time>
      </trkpt>
      <trkpt lat="49.76595" lon="5.26596">
        <ele>280.60000610352</ele>
        <time>2022-08-21T09:37:30.000Z</time>
      </trkpt>
      <trkpt lat="49.76593" lon="5.26566">
        <ele>278.60000610352</ele>
        <time>2022-08-21T09:37:32.000Z</time>
      </trkpt>
      <trkpt lat="49.76592" lon="5.26552">
        <ele>277.60000610352</ele>
        <time>2022-08-21T09:37:33.000Z</time>
      </trkpt>
      <trkpt lat="49.7659" lon="5.26538">
        <ele>276.60000610352</ele>
        <time>2022-08-21T09:37:34.000Z</time>
      </trkpt>
      <trkpt lat="49.76589" lon="5.26507">
        <ele>275.60000610352</ele>
        <time>2022-08-21T09:37:36.000Z</time>
      </trkpt>
      <trkpt lat="49.76585" lon="5.2648">
        <ele>275.79998779297</ele>
        <time>2022-08-21T09:37:38.000Z</time>
      </trkpt>
      <trkpt lat="49.76583" lon="5.26468">
        <ele>275.79998779297</ele>
        <time>2022-08-21T09:37:39.000Z</time>
      </trkpt>
      <trkpt lat="49.76581" lon="5.26456">
        <ele>276.60000610352</ele>
        <time>2022-08-21T09:37:40.000Z</time>
      </trkpt>
      <trkpt lat="49.76578" lon="5.26448">
        <ele>277.39999389648</ele>
        <time>2022-08-21T09:37:41.000Z</time>
      </trkpt>
      <trkpt lat="49.76575" lon="5.26439">
        <ele>278.39999389648</ele>
        <time>2022-08-21T09:37:42.000Z</time>
      </trkpt>
      <trkpt lat="49.76572" lon="5.26431">
        <ele>278.60000610352</ele>
        <time>2022-08-21T09:37:43.000Z</time>
      </trkpt>
      <trkpt lat="49.76569" lon="5.26422">
        <ele>279</ele>
        <time>2022-08-21T09:37:44.000Z</time>
      </trkpt>
      <trkpt lat="49.76563" lon="5.26397">
        <ele>280</ele>
        <time>2022-08-21T09:37:47.000Z</time>
      </trkpt>
      <trkpt lat="49.76561" lon="5.26382">
        <ele>280.60000610352</ele>
        <time>2022-08-21T09:37:49.000Z</time>
      </trkpt>
      <trkpt lat="49.76558" lon="5.26368">
        <ele>280.60000610352</ele>
        <time>2022-08-21T09:37:51.000Z</time>
      </trkpt>
      <trkpt lat="49.76551" lon="5.26334">
        <ele>279.79998779297</ele>
        <time>2022-08-21T09:37:56.000Z</time>
      </trkpt>
      <trkpt lat="49.76542" lon="5.263">
        <ele>280.39999389648</ele>
        <time>2022-08-21T09:38:02.000Z</time>
      </trkpt>
      <trkpt lat="49.76538" lon="5.26291">
        <ele>280.39999389648</ele>
        <time>2022-08-21T09:38:04.000Z</time>
      </trkpt>
      <trkpt lat="49.76534" lon="5.26282">
        <ele>280</ele>
        <time>2022-08-21T09:38:06.000Z</time>
      </trkpt>
      <trkpt lat="49.7652" lon="5.26255">
        <ele>278.20001220703</ele>
        <time>2022-08-21T09:38:12.000Z</time>
      </trkpt>
      <trkpt lat="49.76507" lon="5.26232">
        <ele>276.79998779297</ele>
        <time>2022-08-21T09:38:17.000Z</time>
      </trkpt>
      <trkpt lat="49.76492" lon="5.26202">
        <ele>276.39999389648</ele>
        <time>2022-08-21T09:38:22.000Z</time>
      </trkpt>
      <trkpt lat="49.76482" lon="5.26176">
        <ele>276.20001220703</ele>
        <time>2022-08-21T09:38:26.000Z</time>
      </trkpt>
      <trkpt lat="49.76476" lon="5.26165">
        <ele>276.39999389648</ele>
        <time>2022-08-21T09:38:28.000Z</time>
      </trkpt>
      <trkpt lat="49.7646" lon="5.26131">
        <ele>277</ele>
        <time>2022-08-21T09:38:35.000Z</time>
      </trkpt>
      <trkpt lat="49.7645" lon="5.26101">
        <ele>276</ele>
        <time>2022-08-21T09:38:42.000Z</time>
      </trkpt>
      <trkpt lat="49.76445" lon="5.26074">
        <ele>276.39999389648</ele>
        <time>2022-08-21T09:38:49.000Z</time>
      </trkpt>
      <trkpt lat="49.7644" lon="5.26048">
        <ele>275.79998779297</ele>
        <time>2022-08-21T09:39:13.000Z</time>
      </trkpt>
      <trkpt lat="49.76438" lon="5.2604">
        <ele>275.60000610352</ele>
        <time>2022-08-21T09:39:14.000Z</time>
      </trkpt>
      <trkpt lat="49.7643" lon="5.26002">
        <ele>274.20001220703</ele>
        <time>2022-08-21T09:39:19.000Z</time>
      </trkpt>
      <trkpt lat="49.76425" lon="5.25966">
        <ele>274.20001220703</ele>
        <time>2022-08-21T09:39:24.000Z</time>
      </trkpt>
      <trkpt lat="49.76419" lon="5.25911">
        <ele>278.39999389648</ele>
        <time>2022-08-21T09:39:30.000Z</time>
      </trkpt>
      <trkpt lat="49.7641" lon="5.25837">
        <ele>277.60000610352</ele>
        <time>2022-08-21T09:39:38.000Z</time>
      </trkpt>
      <trkpt lat="49.76411" lon="5.25809">
        <ele>276.79998779297</ele>
        <time>2022-08-21T09:39:43.000Z</time>
      </trkpt>
      <trkpt lat="49.76417" lon="5.25776">
        <ele>277.79998779297</ele>
        <time>2022-08-21T09:39:49.000Z</time>
      </trkpt>
      <trkpt lat="49.76422" lon="5.25748">
        <ele>278.60000610352</ele>
        <time>2022-08-21T09:39:54.000Z</time>
      </trkpt>
      <trkpt lat="49.7643" lon="5.2571">
        <ele>279.39999389648</ele>
        <time>2022-08-21T09:40:00.000Z</time>
      </trkpt>
      <trkpt lat="49.76444" lon="5.25671">
        <ele>279.79998779297</ele>
        <time>2022-08-21T09:40:07.000Z</time>
      </trkpt>
      <trkpt lat="49.76458" lon="5.25647">
        <ele>280</ele>
        <time>2022-08-21T09:40:12.000Z</time>
      </trkpt>
      <trkpt lat="49.76461" lon="5.25643">
        <ele>280.20001220703</ele>
        <time>2022-08-21T09:40:13.000Z</time>
      </trkpt>
      <trkpt lat="49.76473" lon="5.25623">
        <ele>279.79998779297</ele>
        <time>2022-08-21T09:40:17.000Z</time>
      </trkpt>
      <trkpt lat="49.76481" lon="5.25611">
        <ele>280.39999389648</ele>
        <time>2022-08-21T09:40:20.000Z</time>
      </trkpt>
      <trkpt lat="49.76488" lon="5.25595">
        <ele>280</ele>
        <time>2022-08-21T09:40:24.000Z</time>
      </trkpt>
      <trkpt lat="49.76501" lon="5.25569">
        <ele>279.20001220703</ele>
        <time>2022-08-21T09:40:31.000Z</time>
      </trkpt>
      <trkpt lat="49.76526" lon="5.25553">
        <ele>278.39999389648</ele>
        <time>2022-08-21T09:40:38.000Z</time>
      </trkpt>
      <trkpt lat="49.76548" lon="5.25541">
        <ele>278.39999389648</ele>
        <time>2022-08-21T09:40:43.000Z</time>
      </trkpt>
      <trkpt lat="49.76577" lon="5.25534">
        <ele>279.39999389648</ele>
        <time>2022-08-21T09:40:49.000Z</time>
      </trkpt>
      <trkpt lat="49.76614" lon="5.2553">
        <ele>284.60000610352</ele>
        <time>2022-08-21T09:40:54.000Z</time>
      </trkpt>
      <trkpt lat="49.76621" lon="5.25529">
        <ele>285.60000610352</ele>
        <time>2022-08-21T09:40:55.000Z</time>
      </trkpt>
      <trkpt lat="49.76626" lon="5.25529">
        <ele>286.60000610352</ele>
        <time>2022-08-21T09:40:56.000Z</time>
      </trkpt>
      <trkpt lat="49.76639" lon="5.25525">
        <ele>287.79998779297</ele>
        <time>2022-08-21T09:40:58.000Z</time>
      </trkpt>
      <trkpt lat="49.76651" lon="5.2552">
        <ele>288.79998779297</ele>
        <time>2022-08-21T09:41:00.000Z</time>
      </trkpt>
      <trkpt lat="49.76661" lon="5.25514">
        <ele>288.79998779297</ele>
        <time>2022-08-21T09:41:02.000Z</time>
      </trkpt>
      <trkpt lat="49.76695" lon="5.25491">
        <ele>288.60000610352</ele>
        <time>2022-08-21T09:41:09.000Z</time>
      </trkpt>
      <trkpt lat="49.76699" lon="5.25488">
        <ele>288.60000610352</ele>
        <time>2022-08-21T09:41:10.000Z</time>
      </trkpt>
      <trkpt lat="49.76722" lon="5.25467">
        <ele>288.60000610352</ele>
        <time>2022-08-21T09:41:16.000Z</time>
      </trkpt>
      <trkpt lat="49.76726" lon="5.25462">
        <ele>288.39999389648</ele>
        <time>2022-08-21T09:41:17.000Z</time>
      </trkpt>
      <trkpt lat="49.76741" lon="5.25449">
        <ele>287.39999389648</ele>
        <time>2022-08-21T09:41:21.000Z</time>
      </trkpt>
      <trkpt lat="49.76757" lon="5.25426">
        <ele>284.39999389648</ele>
        <time>2022-08-21T09:41:26.000Z</time>
      </trkpt>
      <trkpt lat="49.7676" lon="5.25411">
        <ele>281.79998779297</ele>
        <time>2022-08-21T09:41:28.000Z</time>
      </trkpt>
      <trkpt lat="49.7677" lon="5.25388">
        <ele>281.39999389648</ele>
        <time>2022-08-21T09:41:33.000Z</time>
      </trkpt>
      <trkpt lat="49.76772" lon="5.25385">
        <ele>281.20001220703</ele>
        <time>2022-08-21T09:41:34.000Z</time>
      </trkpt>
      <trkpt lat="49.7678" lon="5.25382">
        <ele>282</ele>
        <time>2022-08-21T09:41:38.000Z</time>
      </trkpt>
      <trkpt lat="49.76795" lon="5.25378">
        <ele>284</ele>
        <time>2022-08-21T09:41:45.000Z</time>
      </trkpt>
      <trkpt lat="49.76813" lon="5.25374">
        <ele>285.60000610352</ele>
        <time>2022-08-21T09:41:52.000Z</time>
      </trkpt>
      <trkpt lat="49.76824" lon="5.25368">
        <ele>285.39999389648</ele>
        <time>2022-08-21T09:42:11.000Z</time>
      </trkpt>
      <trkpt lat="49.76822" lon="5.25367">
        <ele>285</ele>
        <time>2022-08-21T09:42:13.000Z</time>
      </trkpt>
      <trkpt lat="49.76805" lon="5.25366">
        <ele>283.39999389648</ele>
        <time>2022-08-21T09:42:21.000Z</time>
      </trkpt>
      <trkpt lat="49.7679" lon="5.25368">
        <ele>282.20001220703</ele>
        <time>2022-08-21T09:42:28.000Z</time>
      </trkpt>
      <trkpt lat="49.76777" lon="5.25368">
        <ele>280</ele>
        <time>2022-08-21T09:42:34.000Z</time>
      </trkpt>
      <trkpt lat="49.76762" lon="5.2537">
        <ele>277.39999389648</ele>
        <time>2022-08-21T09:42:42.000Z</time>
      </trkpt>
      <trkpt lat="49.76758" lon="5.25363">
        <ele>276</ele>
        <time>2022-08-21T09:42:51.000Z</time>
      </trkpt>
      <trkpt lat="49.7676" lon="5.25359">
        <ele>276</ele>
        <time>2022-08-21T09:42:52.000Z</time>
      </trkpt>
      <trkpt lat="49.76764" lon="5.25345">
        <ele>275.60000610352</ele>
        <time>2022-08-21T09:42:57.000Z</time>
      </trkpt>
      <trkpt lat="49.76765" lon="5.25342">
        <ele>275.60000610352</ele>
        <time>2022-08-21T09:42:58.000Z</time>
      </trkpt>
      <trkpt lat="49.76771" lon="5.25333">
        <ele>275.79998779297</ele>
        <time>2022-08-21T09:43:01.000Z</time>
      </trkpt>
      <trkpt lat="49.76774" lon="5.25328">
        <ele>275.60000610352</ele>
        <time>2022-08-21T09:43:02.000Z</time>
      </trkpt>
      <trkpt lat="49.76777" lon="5.25321">
        <ele>275.39999389648</ele>
        <time>2022-08-21T09:43:04.000Z</time>
      </trkpt>
      <trkpt lat="49.76778" lon="5.25317">
        <ele>275.20001220703</ele>
        <time>2022-08-21T09:43:06.000Z</time>
      </trkpt>
      <trkpt lat="49.76783" lon="5.25281">
        <ele>273.20001220703</ele>
        <time>2022-08-21T09:45:11.000Z</time>
      </trkpt>
      <trkpt lat="49.76784" lon="5.25274">
        <ele>273</ele>
        <time>2022-08-21T09:45:13.000Z</time>
      </trkpt>
      <trkpt lat="49.76785" lon="5.25272">
        <ele>273</ele>
        <time>2022-08-21T09:45:14.000Z</time>
      </trkpt>
      <trkpt lat="49.76786" lon="5.25266">
        <ele>272.79998779297</ele>
        <time>2022-08-21T09:45:16.000Z</time>
      </trkpt>
      <trkpt lat="49.76789" lon="5.25253">
        <ele>272.20001220703</ele>
        <time>2022-08-21T09:45:19.000Z</time>
      </trkpt>
      <trkpt lat="49.76795" lon="5.25227">
        <ele>271.60000610352</ele>
        <time>2022-08-21T09:45:25.000Z</time>
      </trkpt>
      <trkpt lat="49.76796" lon="5.25222">
        <ele>271.39999389648</ele>
        <time>2022-08-21T09:45:26.000Z</time>
      </trkpt>
      <trkpt lat="49.76802" lon="5.25199">
        <ele>271.39999389648</ele>
        <time>2022-08-21T09:45:31.000Z</time>
      </trkpt>
      <trkpt lat="49.76806" lon="5.25177">
        <ele>271.60000610352</ele>
        <time>2022-08-21T09:45:37.000Z</time>
      </trkpt>
      <trkpt lat="49.76807" lon="5.2517">
        <ele>272.20001220703</ele>
        <time>2022-08-21T09:45:39.000Z</time>
      </trkpt>
      <trkpt lat="49.76808" lon="5.25158">
        <ele>272.79998779297</ele>
        <time>2022-08-21T09:45:42.000Z</time>
      </trkpt>
      <trkpt lat="49.76809" lon="5.25154">
        <ele>272.79998779297</ele>
        <time>2022-08-21T09:45:43.000Z</time>
      </trkpt>
      <trkpt lat="49.76816" lon="5.25131">
        <ele>275</ele>
        <time>2022-08-21T09:45:49.000Z</time>
      </trkpt>
      <trkpt lat="49.7682" lon="5.25109">
        <ele>275.60000610352</ele>
        <time>2022-08-21T09:45:54.000Z</time>
      </trkpt>
      <trkpt lat="49.76823" lon="5.25089">
        <ele>276</ele>
        <time>2022-08-21T09:45:59.000Z</time>
      </trkpt>
      <trkpt lat="49.76824" lon="5.25068">
        <ele>275.39999389648</ele>
        <time>2022-08-21T09:46:05.000Z</time>
      </trkpt>
      <trkpt lat="49.76825" lon="5.25065">
        <ele>275.60000610352</ele>
        <time>2022-08-21T09:46:06.000Z</time>
      </trkpt>
      <trkpt lat="49.76819" lon="5.24945">
        <ele>273.20001220703</ele>
        <time>2022-08-21T09:47:37.000Z</time>
      </trkpt>
      <trkpt lat="49.76819" lon="5.24942">
        <ele>273.20001220703</ele>
        <time>2022-08-21T09:47:38.000Z</time>
      </trkpt>
      <trkpt lat="49.76819" lon="5.24926">
        <ele>272.39999389648</ele>
        <time>2022-08-21T09:47:43.000Z</time>
      </trkpt>
      <trkpt lat="49.7682" lon="5.24917">
        <ele>272.20001220703</ele>
        <time>2022-08-21T09:47:45.000Z</time>
      </trkpt>
      <trkpt lat="49.7682" lon="5.24913">
        <ele>272.20001220703</ele>
        <time>2022-08-21T09:47:46.000Z</time>
      </trkpt>
      <trkpt lat="49.7682" lon="5.24909">
        <ele>272</ele>
        <time>2022-08-21T09:47:47.000Z</time>
      </trkpt>
      <trkpt lat="49.76822" lon="5.24894">
        <ele>271.79998779297</ele>
        <time>2022-08-21T09:47:51.000Z</time>
      </trkpt>
      <trkpt lat="49.76824" lon="5.24889">
        <ele>272</ele>
        <time>2022-08-21T09:47:53.000Z</time>
      </trkpt>
      <trkpt lat="49.76828" lon="5.24877">
        <ele>272.60000610352</ele>
        <time>2022-08-21T09:47:57.000Z</time>
      </trkpt>
      <trkpt lat="49.76831" lon="5.2487">
        <ele>273.20001220703</ele>
        <time>2022-08-21T09:47:59.000Z</time>
      </trkpt>
      <trkpt lat="49.76837" lon="5.24852">
        <ele>273.39999389648</ele>
        <time>2022-08-21T09:48:04.000Z</time>
      </trkpt>
      <trkpt lat="49.76843" lon="5.24833">
        <ele>274.60000610352</ele>
        <time>2022-08-21T09:48:10.000Z</time>
      </trkpt>
      <trkpt lat="49.7685" lon="5.24809">
        <ele>276.60000610352</ele>
        <time>2022-08-21T09:48:16.000Z</time>
      </trkpt>
      <trkpt lat="49.76862" lon="5.24783">
        <ele>277.79998779297</ele>
        <time>2022-08-21T09:48:22.000Z</time>
      </trkpt>
      <trkpt lat="49.76876" lon="5.24764">
        <ele>278.39999389648</ele>
        <time>2022-08-21T09:48:27.000Z</time>
      </trkpt>
      <trkpt lat="49.7689" lon="5.24746">
        <ele>278.60000610352</ele>
        <time>2022-08-21T09:48:33.000Z</time>
      </trkpt>
      <trkpt lat="49.76911" lon="5.2475">
        <ele>279.20001220703</ele>
        <time>2022-08-21T09:48:40.000Z</time>
      </trkpt>
      <trkpt lat="49.76914" lon="5.24752">
        <ele>279.20001220703</ele>
        <time>2022-08-21T09:48:41.000Z</time>
      </trkpt>
      <trkpt lat="49.7693" lon="5.24761">
        <ele>280</ele>
        <time>2022-08-21T09:48:46.000Z</time>
      </trkpt>
      <trkpt lat="49.76948" lon="5.24773">
        <ele>281.20001220703</ele>
        <time>2022-08-21T09:48:52.000Z</time>
      </trkpt>
      <trkpt lat="49.76975" lon="5.24791">
        <ele>282.60000610352</ele>
        <time>2022-08-21T09:48:59.000Z</time>
      </trkpt>
      <trkpt lat="49.76994" lon="5.24801">
        <ele>281.79998779297</ele>
        <time>2022-08-21T09:49:04.000Z</time>
      </trkpt>
      <trkpt lat="49.77024" lon="5.24817">
        <ele>282</ele>
        <time>2022-08-21T09:49:11.000Z</time>
      </trkpt>
      <trkpt lat="49.77034" lon="5.2482">
        <ele>281.79998779297</ele>
        <time>2022-08-21T09:49:13.000Z</time>
      </trkpt>
      <trkpt lat="49.77055" lon="5.24826">
        <ele>282.79998779297</ele>
        <time>2022-08-21T09:49:16.000Z</time>
      </trkpt>
      <trkpt lat="49.77061" lon="5.24827">
        <ele>283</ele>
        <time>2022-08-21T09:49:17.000Z</time>
      </trkpt>
      <trkpt lat="49.77066" lon="5.24828">
        <ele>283.39999389648</ele>
        <time>2022-08-21T09:49:18.000Z</time>
      </trkpt>
      <trkpt lat="49.77094" lon="5.24837">
        <ele>286.39999389648</ele>
        <time>2022-08-21T09:49:22.000Z</time>
      </trkpt>
      <trkpt lat="49.77103" lon="5.24839">
        <ele>287.60000610352</ele>
        <time>2022-08-21T09:49:24.000Z</time>
      </trkpt>
      <trkpt lat="49.77134" lon="5.24845">
        <ele>293.39999389648</ele>
        <time>2022-08-21T09:49:29.000Z</time>
      </trkpt>
      <trkpt lat="49.77157" lon="5.24837">
        <ele>295.79998779297</ele>
        <time>2022-08-21T09:49:34.000Z</time>
      </trkpt>
      <trkpt lat="49.77162" lon="5.24834">
        <ele>295.79998779297</ele>
        <time>2022-08-21T09:49:35.000Z</time>
      </trkpt>
      <trkpt lat="49.77173" lon="5.24825">
        <ele>295.39999389648</ele>
        <time>2022-08-21T09:49:38.000Z</time>
      </trkpt>
      <trkpt lat="49.77184" lon="5.24813">
        <ele>296.39999389648</ele>
        <time>2022-08-21T09:49:41.000Z</time>
      </trkpt>
      <trkpt lat="49.77188" lon="5.24808">
        <ele>296.39999389648</ele>
        <time>2022-08-21T09:49:42.000Z</time>
      </trkpt>
      <trkpt lat="49.77197" lon="5.24785">
        <ele>293.60000610352</ele>
        <time>2022-08-21T09:49:46.000Z</time>
      </trkpt>
      <trkpt lat="49.77202" lon="5.24754">
        <ele>286.79998779297</ele>
        <time>2022-08-21T09:49:51.000Z</time>
      </trkpt>
      <trkpt lat="49.77209" lon="5.24738">
        <ele>285.60000610352</ele>
        <time>2022-08-21T09:49:55.000Z</time>
      </trkpt>
      <trkpt lat="49.77215" lon="5.24726">
        <ele>286.39999389648</ele>
        <time>2022-08-21T09:49:59.000Z</time>
      </trkpt>
      <trkpt lat="49.77216" lon="5.24722">
        <ele>285.39999389648</ele>
        <time>2022-08-21T09:50:00.000Z</time>
      </trkpt>
      <trkpt lat="49.77217" lon="5.24718">
        <ele>284.79998779297</ele>
        <time>2022-08-21T09:50:01.000Z</time>
      </trkpt>
      <trkpt lat="49.77217" lon="5.24714">
        <ele>284</ele>
        <time>2022-08-21T09:50:02.000Z</time>
      </trkpt>
      <trkpt lat="49.7722" lon="5.24689">
        <ele>281</ele>
        <time>2022-08-21T09:50:06.000Z</time>
      </trkpt>
      <trkpt lat="49.77227" lon="5.24663">
        <ele>280</ele>
        <time>2022-08-21T09:50:10.000Z</time>
      </trkpt>
      <trkpt lat="49.77228" lon="5.24656">
        <ele>279.39999389648</ele>
        <time>2022-08-21T09:50:11.000Z</time>
      </trkpt>
      <trkpt lat="49.77229" lon="5.24649">
        <ele>278.79998779297</ele>
        <time>2022-08-21T09:50:12.000Z</time>
      </trkpt>
      <trkpt lat="49.77232" lon="5.24635">
        <ele>278.39999389648</ele>
        <time>2022-08-21T09:50:14.000Z</time>
      </trkpt>
      <trkpt lat="49.77234" lon="5.24622">
        <ele>277.20001220703</ele>
        <time>2022-08-21T09:50:16.000Z</time>
      </trkpt>
      <trkpt lat="49.77234" lon="5.24616">
        <ele>276.60000610352</ele>
        <time>2022-08-21T09:50:17.000Z</time>
      </trkpt>
      <trkpt lat="49.7724" lon="5.24595">
        <ele>275.20001220703</ele>
        <time>2022-08-21T09:50:20.000Z</time>
      </trkpt>
      <trkpt lat="49.77241" lon="5.24589">
        <ele>274.79998779297</ele>
        <time>2022-08-21T09:50:21.000Z</time>
      </trkpt>
      <trkpt lat="49.77246" lon="5.24565">
        <ele>274.20001220703</ele>
        <time>2022-08-21T09:50:25.000Z</time>
      </trkpt>
      <trkpt lat="49.77247" lon="5.24557">
        <ele>275.60000610352</ele>
        <time>2022-08-21T09:50:27.000Z</time>
      </trkpt>
      <trkpt lat="49.77248" lon="5.24546">
        <ele>277.39999389648</ele>
        <time>2022-08-21T09:50:30.000Z</time>
      </trkpt>
      <trkpt lat="49.77246" lon="5.24532">
        <ele>279.20001220703</ele>
        <time>2022-08-21T09:51:02.000Z</time>
      </trkpt>
      <trkpt lat="49.77246" lon="5.24526">
        <ele>280.39999389648</ele>
        <time>2022-08-21T09:51:03.000Z</time>
      </trkpt>
      <trkpt lat="49.77245" lon="5.245">
        <ele>283.79998779297</ele>
        <time>2022-08-21T09:51:10.000Z</time>
      </trkpt>
      <trkpt lat="49.77249" lon="5.24475">
        <ele>286.39999389648</ele>
        <time>2022-08-21T09:51:16.000Z</time>
      </trkpt>
      <trkpt lat="49.7725" lon="5.24459">
        <ele>286.39999389648</ele>
        <time>2022-08-21T09:51:20.000Z</time>
      </trkpt>
      <trkpt lat="49.77251" lon="5.24449">
        <ele>286.39999389648</ele>
        <time>2022-08-21T09:51:22.000Z</time>
      </trkpt>
      <trkpt lat="49.77251" lon="5.24437">
        <ele>285.79998779297</ele>
        <time>2022-08-21T09:51:24.000Z</time>
      </trkpt>
      <trkpt lat="49.77244" lon="5.24399">
        <ele>283.20001220703</ele>
        <time>2022-08-21T09:51:30.000Z</time>
      </trkpt>
      <trkpt lat="49.77243" lon="5.24393">
        <ele>282.60000610352</ele>
        <time>2022-08-21T09:51:31.000Z</time>
      </trkpt>
      <trkpt lat="49.77234" lon="5.24363">
        <ele>278.79998779297</ele>
        <time>2022-08-21T09:51:36.000Z</time>
      </trkpt>
      <trkpt lat="49.77224" lon="5.24319">
        <ele>274.79998779297</ele>
        <time>2022-08-21T09:51:43.000Z</time>
      </trkpt>
      <trkpt lat="49.77217" lon="5.24277">
        <ele>271.60000610352</ele>
        <time>2022-08-21T09:51:50.000Z</time>
      </trkpt>
      <trkpt lat="49.77213" lon="5.24232">
        <ele>272.39999389648</ele>
        <time>2022-08-21T09:51:57.000Z</time>
      </trkpt>
      <trkpt lat="49.77211" lon="5.24186">
        <ele>274.79998779297</ele>
        <time>2022-08-21T09:52:04.000Z</time>
      </trkpt>
      <trkpt lat="49.77206" lon="5.24139">
        <ele>275.20001220703</ele>
        <time>2022-08-21T09:52:11.000Z</time>
      </trkpt>
      <trkpt lat="49.77204" lon="5.24119">
        <ele>274.39999389648</ele>
        <time>2022-08-21T09:52:14.000Z</time>
      </trkpt>
      <trkpt lat="49.77202" lon="5.24104">
        <ele>273</ele>
        <time>2022-08-21T09:52:16.000Z</time>
      </trkpt>
      <trkpt lat="49.7719" lon="5.24047">
        <ele>272</ele>
        <time>2022-08-21T09:52:23.000Z</time>
      </trkpt>
      <trkpt lat="49.77174" lon="5.23993">
        <ele>275</ele>
        <time>2022-08-21T09:52:31.000Z</time>
      </trkpt>
      <trkpt lat="49.77163" lon="5.23955">
        <ele>278.39999389648</ele>
        <time>2022-08-21T09:52:37.000Z</time>
      </trkpt>
      <trkpt lat="49.77156" lon="5.23929">
        <ele>279.20001220703</ele>
        <time>2022-08-21T09:52:41.000Z</time>
      </trkpt>
      <trkpt lat="49.77151" lon="5.23914">
        <ele>279</ele>
        <time>2022-08-21T09:52:44.000Z</time>
      </trkpt>
      <trkpt lat="49.77137" lon="5.23885">
        <ele>279.79998779297</ele>
        <time>2022-08-21T09:52:50.000Z</time>
      </trkpt>
      <trkpt lat="49.77112" lon="5.23843">
        <ele>278.20001220703</ele>
        <time>2022-08-21T09:52:57.000Z</time>
      </trkpt>
      <trkpt lat="49.77082" lon="5.23794">
        <ele>276.79998779297</ele>
        <time>2022-08-21T09:53:05.000Z</time>
      </trkpt>
      <trkpt lat="49.77056" lon="5.23757">
        <ele>275.79998779297</ele>
        <time>2022-08-21T09:53:12.000Z</time>
      </trkpt>
      <trkpt lat="49.7705" lon="5.23747">
        <ele>275.79998779297</ele>
        <time>2022-08-21T09:53:14.000Z</time>
      </trkpt>
      <trkpt lat="49.77035" lon="5.23727">
        <ele>275.79998779297</ele>
        <time>2022-08-21T09:53:18.000Z</time>
      </trkpt>
      <trkpt lat="49.77016" lon="5.237">
        <ele>274.20001220703</ele>
        <time>2022-08-21T09:53:24.000Z</time>
      </trkpt>
      <trkpt lat="49.77007" lon="5.23688">
        <ele>272.79998779297</ele>
        <time>2022-08-21T09:53:28.000Z</time>
      </trkpt>
      <trkpt lat="49.77004" lon="5.23685">
        <ele>272.20001220703</ele>
        <time>2022-08-21T09:53:29.000Z</time>
      </trkpt>
      <trkpt lat="49.76996" lon="5.23676">
        <ele>270.20001220703</ele>
        <time>2022-08-21T09:53:32.000Z</time>
      </trkpt>
      <trkpt lat="49.76985" lon="5.23662">
        <ele>267.39999389648</ele>
        <time>2022-08-21T09:53:36.000Z</time>
      </trkpt>
      <trkpt lat="49.76982" lon="5.23659">
        <ele>266.60000610352</ele>
        <time>2022-08-21T09:53:37.000Z</time>
      </trkpt>
      <trkpt lat="49.76972" lon="5.23648">
        <ele>265.39999389648</ele>
        <time>2022-08-21T09:53:41.000Z</time>
      </trkpt>
      <trkpt lat="49.76967" lon="5.23643">
        <ele>265.20001220703</ele>
        <time>2022-08-21T09:53:43.000Z</time>
      </trkpt>
      <trkpt lat="49.76963" lon="5.23639">
        <ele>264.79998779297</ele>
        <time>2022-08-21T09:53:45.000Z</time>
      </trkpt>
      <trkpt lat="49.76958" lon="5.23634">
        <ele>264.39999389648</ele>
        <time>2022-08-21T09:53:49.000Z</time>
      </trkpt>
      <trkpt lat="49.76956" lon="5.23633">
        <ele>264.20001220703</ele>
        <time>2022-08-21T09:53:50.000Z</time>
      </trkpt>
      <trkpt lat="49.76953" lon="5.23633">
        <ele>264</ele>
        <time>2022-08-21T09:53:51.000Z</time>
      </trkpt>
      <trkpt lat="49.7695" lon="5.23634">
        <ele>264</ele>
        <time>2022-08-21T09:53:52.000Z</time>
      </trkpt>
      <trkpt lat="49.7694" lon="5.23646">
        <ele>264</ele>
        <time>2022-08-21T09:53:55.000Z</time>
      </trkpt>
      <trkpt lat="49.76937" lon="5.23651">
        <ele>264</ele>
        <time>2022-08-21T09:53:56.000Z</time>
      </trkpt>
      <trkpt lat="49.76916" lon="5.23692">
        <ele>265.20001220703</ele>
        <time>2022-08-21T09:54:04.000Z</time>
      </trkpt>
      <trkpt lat="49.76911" lon="5.23702">
        <ele>266.39999389648</ele>
        <time>2022-08-21T09:54:06.000Z</time>
      </trkpt>
      <trkpt lat="49.76898" lon="5.23732">
        <ele>272.39999389648</ele>
        <time>2022-08-21T09:54:11.000Z</time>
      </trkpt>
      <trkpt lat="49.76896" lon="5.2374">
        <ele>273.79998779297</ele>
        <time>2022-08-21T09:54:12.000Z</time>
      </trkpt>
      <trkpt lat="49.76892" lon="5.23778">
        <ele>278.20001220703</ele>
        <time>2022-08-21T09:54:17.000Z</time>
      </trkpt>
      <trkpt lat="49.76892" lon="5.23785">
        <ele>278.79998779297</ele>
        <time>2022-08-21T09:54:18.000Z</time>
      </trkpt>
      <trkpt lat="49.76896" lon="5.23828">
        <ele>281.39999389648</ele>
        <time>2022-08-21T09:54:24.000Z</time>
      </trkpt>
      <trkpt lat="49.76898" lon="5.23849">
        <ele>282.20001220703</ele>
        <time>2022-08-21T09:54:27.000Z</time>
      </trkpt>
      <trkpt lat="49.76902" lon="5.23885">
        <ele>285.39999389648</ele>
        <time>2022-08-21T09:54:32.000Z</time>
      </trkpt>
      <trkpt lat="49.76905" lon="5.23917">
        <ele>286</ele>
        <time>2022-08-21T09:54:37.000Z</time>
      </trkpt>
      <trkpt lat="49.76907" lon="5.23934">
        <ele>287.20001220703</ele>
        <time>2022-08-21T09:54:40.000Z</time>
      </trkpt>
      <trkpt lat="49.76907" lon="5.2394">
        <ele>287.60000610352</ele>
        <time>2022-08-21T09:54:41.000Z</time>
      </trkpt>
      <trkpt lat="49.76908" lon="5.23965">
        <ele>288.20001220703</ele>
        <time>2022-08-21T09:54:46.000Z</time>
      </trkpt>
      <trkpt lat="49.76907" lon="5.2397">
        <ele>288.79998779297</ele>
        <time>2022-08-21T09:54:47.000Z</time>
      </trkpt>
      <trkpt lat="49.76905" lon="5.23978">
        <ele>290</ele>
        <time>2022-08-21T09:54:49.000Z</time>
      </trkpt>
      <trkpt lat="49.769" lon="5.23987">
        <ele>291</ele>
        <time>2022-08-21T09:54:52.000Z</time>
      </trkpt>
      <trkpt lat="49.76897" lon="5.23997">
        <ele>292.20001220703</ele>
        <time>2022-08-21T09:54:55.000Z</time>
      </trkpt>
      <trkpt lat="49.76893" lon="5.24006">
        <ele>293.60000610352</ele>
        <time>2022-08-21T09:54:58.000Z</time>
      </trkpt>
      <trkpt lat="49.76889" lon="5.24014">
        <ele>295.39999389648</ele>
        <time>2022-08-21T09:55:01.000Z</time>
      </trkpt>
      <trkpt lat="49.76885" lon="5.24019">
        <ele>296</ele>
        <time>2022-08-21T09:55:03.000Z</time>
      </trkpt>
      <trkpt lat="49.76881" lon="5.24026">
        <ele>297</ele>
        <time>2022-08-21T09:55:06.000Z</time>
      </trkpt>
      <trkpt lat="49.76876" lon="5.24034">
        <ele>298.39999389648</ele>
        <time>2022-08-21T09:55:09.000Z</time>
      </trkpt>
      <trkpt lat="49.76871" lon="5.24039">
        <ele>299.39999389648</ele>
        <time>2022-08-21T09:55:12.000Z</time>
      </trkpt>
      <trkpt lat="49.76867" lon="5.24044">
        <ele>300</ele>
        <time>2022-08-21T09:55:15.000Z</time>
      </trkpt>
      <trkpt lat="49.76866" lon="5.24045">
        <ele>300.20001220703</ele>
        <time>2022-08-21T09:55:16.000Z</time>
      </trkpt>
      <trkpt lat="49.76862" lon="5.2405">
        <ele>300.39999389648</ele>
        <time>2022-08-21T09:55:18.000Z</time>
      </trkpt>
      <trkpt lat="49.76857" lon="5.24056">
        <ele>300.79998779297</ele>
        <time>2022-08-21T09:55:21.000Z</time>
      </trkpt>
      <trkpt lat="49.76853" lon="5.24063">
        <ele>301.20001220703</ele>
        <time>2022-08-21T09:55:24.000Z</time>
      </trkpt>
      <trkpt lat="49.76848" lon="5.24071">
        <ele>302</ele>
        <time>2022-08-21T09:55:27.000Z</time>
      </trkpt>
      <trkpt lat="49.76843" lon="5.2408">
        <ele>302.60000610352</ele>
        <time>2022-08-21T09:55:30.000Z</time>
      </trkpt>
      <trkpt lat="49.76841" lon="5.24083">
        <ele>302.79998779297</ele>
        <time>2022-08-21T09:55:31.000Z</time>
      </trkpt>
      <trkpt lat="49.76835" lon="5.2409">
        <ele>303.20001220703</ele>
        <time>2022-08-21T09:55:34.000Z</time>
      </trkpt>
      <trkpt lat="49.76826" lon="5.24102">
        <ele>303.60000610352</ele>
        <time>2022-08-21T09:55:38.000Z</time>
      </trkpt>
      <trkpt lat="49.76825" lon="5.24106">
        <ele>303.60000610352</ele>
        <time>2022-08-21T09:55:39.000Z</time>
      </trkpt>
      <trkpt lat="49.76824" lon="5.24118">
        <ele>303.20001220703</ele>
        <time>2022-08-21T09:55:43.000Z</time>
      </trkpt>
      <trkpt lat="49.76825" lon="5.24123">
        <ele>303</ele>
        <time>2022-08-21T09:55:45.000Z</time>
      </trkpt>
      <trkpt lat="49.76826" lon="5.24129">
        <ele>302.60000610352</ele>
        <time>2022-08-21T09:55:47.000Z</time>
      </trkpt>
      <trkpt lat="49.76829" lon="5.24131">
        <ele>302.39999389648</ele>
        <time>2022-08-21T09:55:49.000Z</time>
      </trkpt>
      <trkpt lat="49.76832" lon="5.24131">
        <ele>302</ele>
        <time>2022-08-21T09:55:51.000Z</time>
      </trkpt>
      <trkpt lat="49.76838" lon="5.2413">
        <ele>301.39999389648</ele>
        <time>2022-08-21T09:55:55.000Z</time>
      </trkpt>
      <trkpt lat="49.76841" lon="5.24129">
        <ele>301.20001220703</ele>
        <time>2022-08-21T09:55:56.000Z</time>
      </trkpt>
      <trkpt lat="49.76855" lon="5.24121">
        <ele>299.79998779297</ele>
        <time>2022-08-21T09:56:02.000Z</time>
      </trkpt>
      <trkpt lat="49.76871" lon="5.24108">
        <ele>298.60000610352</ele>
        <time>2022-08-21T09:56:08.000Z</time>
      </trkpt>
      <trkpt lat="49.7688" lon="5.24103">
        <ele>297.39999389648</ele>
        <time>2022-08-21T09:56:10.000Z</time>
      </trkpt>
      <trkpt lat="49.76897" lon="5.24093">
        <ele>295.20001220703</ele>
        <time>2022-08-21T09:56:14.000Z</time>
      </trkpt>
      <trkpt lat="49.76927" lon="5.24074">
        <ele>292.60000610352</ele>
        <time>2022-08-21T09:56:21.000Z</time>
      </trkpt>
      <trkpt lat="49.76952" lon="5.24054">
        <ele>290</ele>
        <time>2022-08-21T09:56:28.000Z</time>
      </trkpt>
      <trkpt lat="49.7698" lon="5.24033">
        <ele>288.39999389648</ele>
        <time>2022-08-21T09:56:35.000Z</time>
      </trkpt>
      <trkpt lat="49.77" lon="5.2402">
        <ele>289.39999389648</ele>
        <time>2022-08-21T09:56:40.000Z</time>
      </trkpt>
      <trkpt lat="49.7703" lon="5.23998">
        <ele>288.39999389648</ele>
        <time>2022-08-21T09:56:47.000Z</time>
      </trkpt>
      <trkpt lat="49.77059" lon="5.23978">
        <ele>281.79998779297</ele>
        <time>2022-08-21T09:56:54.000Z</time>
      </trkpt>
      <trkpt lat="49.7709" lon="5.23955">
        <ele>272.79998779297</ele>
        <time>2022-08-21T09:57:02.000Z</time>
      </trkpt>
      <trkpt lat="49.77128" lon="5.23928">
        <ele>273.39999389648</ele>
        <time>2022-08-21T09:57:12.000Z</time>
      </trkpt>
      <trkpt lat="49.77167" lon="5.239">
        <ele>286.60000610352</ele>
        <time>2022-08-21T09:57:22.000Z</time>
      </trkpt>
      <trkpt lat="49.77191" lon="5.23881">
        <ele>297.60000610352</ele>
        <time>2022-08-21T09:57:29.000Z</time>
      </trkpt>
      <trkpt lat="49.77214" lon="5.23865">
        <ele>307</ele>
        <time>2022-08-21T09:57:36.000Z</time>
      </trkpt>
      <trkpt lat="49.77233" lon="5.23852">
        <ele>309.20001220703</ele>
        <time>2022-08-21T09:57:43.000Z</time>
      </trkpt>
      <trkpt lat="49.77256" lon="5.2384">
        <ele>310.39999389648</ele>
        <time>2022-08-21T09:57:49.000Z</time>
      </trkpt>
      <trkpt lat="49.77283" lon="5.23826">
        <ele>308.20001220703</ele>
        <time>2022-08-21T09:57:56.000Z</time>
      </trkpt>
      <trkpt lat="49.77295" lon="5.2382">
        <ele>307.20001220703</ele>
        <time>2022-08-21T09:57:59.000Z</time>
      </trkpt>
      <trkpt lat="49.77315" lon="5.23813">
        <ele>306.60000610352</ele>
        <time>2022-08-21T09:58:04.000Z</time>
      </trkpt>
      <trkpt lat="49.7734" lon="5.23802">
        <ele>306.20001220703</ele>
        <time>2022-08-21T09:58:10.000Z</time>
      </trkpt>
      <trkpt lat="49.77365" lon="5.23787">
        <ele>304.60000610352</ele>
        <time>2022-08-21T09:58:16.000Z</time>
      </trkpt>
      <trkpt lat="49.77369" lon="5.23785">
        <ele>304</ele>
        <time>2022-08-21T09:58:17.000Z</time>
      </trkpt>
      <trkpt lat="49.77394" lon="5.23778">
        <ele>301</ele>
        <time>2022-08-21T09:58:23.000Z</time>
      </trkpt>
      <trkpt lat="49.77415" lon="5.23776">
        <ele>299.79998779297</ele>
        <time>2022-08-21T09:58:28.000Z</time>
      </trkpt>
      <trkpt lat="49.77426" lon="5.23774">
        <ele>299.20001220703</ele>
        <time>2022-08-21T09:58:31.000Z</time>
      </trkpt>
      <trkpt lat="49.7744" lon="5.23769">
        <ele>298.79998779297</ele>
        <time>2022-08-21T09:58:35.000Z</time>
      </trkpt>
      <trkpt lat="49.77457" lon="5.23764">
        <ele>298.60000610352</ele>
        <time>2022-08-21T09:58:40.000Z</time>
      </trkpt>
      <trkpt lat="49.77477" lon="5.23754">
        <ele>299.60000610352</ele>
        <time>2022-08-21T09:58:46.000Z</time>
      </trkpt>
      <trkpt lat="49.775" lon="5.23749">
        <ele>300.79998779297</ele>
        <time>2022-08-21T09:58:52.000Z</time>
      </trkpt>
      <trkpt lat="49.7752" lon="5.23745">
        <ele>301</ele>
        <time>2022-08-21T09:58:57.000Z</time>
      </trkpt>
      <trkpt lat="49.77544" lon="5.23741">
        <ele>301</ele>
        <time>2022-08-21T09:59:03.000Z</time>
      </trkpt>
      <trkpt lat="49.77579" lon="5.23729">
        <ele>300.39999389648</ele>
        <time>2022-08-21T09:59:10.000Z</time>
      </trkpt>
      <trkpt lat="49.77615" lon="5.23716">
        <ele>300.20001220703</ele>
        <time>2022-08-21T09:59:18.000Z</time>
      </trkpt>
      <trkpt lat="49.77639" lon="5.23705">
        <ele>300.20001220703</ele>
        <time>2022-08-21T09:59:25.000Z</time>
      </trkpt>
      <trkpt lat="49.7765" lon="5.237">
        <ele>299.20001220703</ele>
        <time>2022-08-21T09:59:28.000Z</time>
      </trkpt>
      <trkpt lat="49.77663" lon="5.23695">
        <ele>298.39999389648</ele>
        <time>2022-08-21T09:59:31.000Z</time>
      </trkpt>
      <trkpt lat="49.7771" lon="5.23676">
        <ele>298.60000610352</ele>
        <time>2022-08-21T09:59:42.000Z</time>
      </trkpt>
      <trkpt lat="49.77726" lon="5.2368">
        <ele>299.20001220703</ele>
        <time>2022-08-21T09:59:47.000Z</time>
      </trkpt>
      <trkpt lat="49.77739" lon="5.23695">
        <ele>299</ele>
        <time>2022-08-21T09:59:52.000Z</time>
      </trkpt>
      <trkpt lat="49.77753" lon="5.23691">
        <ele>299</ele>
        <time>2022-08-21T09:59:56.000Z</time>
      </trkpt>
      <trkpt lat="49.77768" lon="5.23675">
        <ele>300.20001220703</ele>
        <time>2022-08-21T10:00:01.000Z</time>
      </trkpt>
      <trkpt lat="49.77789" lon="5.23664">
        <ele>300.79998779297</ele>
        <time>2022-08-21T10:00:07.000Z</time>
      </trkpt>
      <trkpt lat="49.77812" lon="5.23653">
        <ele>300</ele>
        <time>2022-08-21T10:00:13.000Z</time>
      </trkpt>
      <trkpt lat="49.77819" lon="5.23649">
        <ele>300</ele>
        <time>2022-08-21T10:00:15.000Z</time>
      </trkpt>
      <trkpt lat="49.77826" lon="5.23646">
        <ele>300</ele>
        <time>2022-08-21T10:00:17.000Z</time>
      </trkpt>
      <trkpt lat="49.7784" lon="5.23637">
        <ele>300</ele>
        <time>2022-08-21T10:00:22.000Z</time>
      </trkpt>
      <trkpt lat="49.77856" lon="5.23629">
        <ele>302.20001220703</ele>
        <time>2022-08-21T10:00:27.000Z</time>
      </trkpt>
      <trkpt lat="49.77862" lon="5.23625">
        <ele>303.39999389648</ele>
        <time>2022-08-21T10:00:29.000Z</time>
      </trkpt>
      <trkpt lat="49.77871" lon="5.23616">
        <ele>304.79998779297</ele>
        <time>2022-08-21T10:00:32.000Z</time>
      </trkpt>
      <trkpt lat="49.77885" lon="5.23601">
        <ele>306.20001220703</ele>
        <time>2022-08-21T10:00:37.000Z</time>
      </trkpt>
      <trkpt lat="49.77899" lon="5.23586">
        <ele>307.79998779297</ele>
        <time>2022-08-21T10:00:42.000Z</time>
      </trkpt>
      <trkpt lat="49.77909" lon="5.23576">
        <ele>308.39999389648</ele>
        <time>2022-08-21T10:00:46.000Z</time>
      </trkpt>
      <trkpt lat="49.77914" lon="5.23571">
        <ele>308.79998779297</ele>
        <time>2022-08-21T10:00:48.000Z</time>
      </trkpt>
      <trkpt lat="49.77929" lon="5.23554">
        <ele>310.20001220703</ele>
        <time>2022-08-21T10:00:54.000Z</time>
      </trkpt>
      <trkpt lat="49.77931" lon="5.23552">
        <ele>310.39999389648</ele>
        <time>2022-08-21T10:00:55.000Z</time>
      </trkpt>
      <trkpt lat="49.77936" lon="5.23549">
        <ele>310.79998779297</ele>
        <time>2022-08-21T10:00:57.000Z</time>
      </trkpt>
      <trkpt lat="49.77941" lon="5.23549">
        <ele>311.20001220703</ele>
        <time>2022-08-21T10:00:59.000Z</time>
      </trkpt>
      <trkpt lat="49.77947" lon="5.23546">
        <ele>311.60000610352</ele>
        <time>2022-08-21T10:01:02.000Z</time>
      </trkpt>
      <trkpt lat="49.77973" lon="5.23524">
        <ele>311.79998779297</ele>
        <time>2022-08-21T10:02:36.000Z</time>
      </trkpt>
      <trkpt lat="49.77978" lon="5.23523">
        <ele>312</ele>
        <time>2022-08-21T10:02:39.000Z</time>
      </trkpt>
      <trkpt lat="49.77987" lon="5.2352">
        <ele>312</ele>
        <time>2022-08-21T10:02:48.000Z</time>
      </trkpt>
      <trkpt lat="49.77995" lon="5.23522">
        <ele>312</ele>
        <time>2022-08-21T10:02:57.000Z</time>
      </trkpt>
      <trkpt lat="49.78001" lon="5.23526">
        <ele>312.20001220703</ele>
        <time>2022-08-21T10:03:06.000Z</time>
      </trkpt>
      <trkpt lat="49.78007" lon="5.23532">
        <ele>312.39999389648</ele>
        <time>2022-08-21T10:03:15.000Z</time>
      </trkpt>
      <trkpt lat="49.78011" lon="5.23541">
        <ele>312.79998779297</ele>
        <time>2022-08-21T10:03:24.000Z</time>
      </trkpt>
      <trkpt lat="49.78011" lon="5.23542">
        <ele>312.79998779297</ele>
        <time>2022-08-21T10:03:25.000Z</time>
      </trkpt>
      <trkpt lat="49.78056" lon="5.23665">
        <ele>308.79998779297</ele>
        <time>2022-08-21T10:05:39.000Z</time>
      </trkpt>
      <trkpt lat="49.78058" lon="5.23671">
        <ele>308.79998779297</ele>
        <time>2022-08-21T10:05:42.000Z</time>
      </trkpt>
      <trkpt lat="49.78061" lon="5.23684">
        <ele>309</ele>
        <time>2022-08-21T10:05:50.000Z</time>
      </trkpt>
      <trkpt lat="49.78066" lon="5.23699">
        <ele>309</ele>
        <time>2022-08-21T10:06:00.000Z</time>
      </trkpt>
      <trkpt lat="49.78071" lon="5.23712">
        <ele>309</ele>
        <time>2022-08-21T10:06:09.000Z</time>
      </trkpt>
      <trkpt lat="49.78073" lon="5.23722">
        <ele>309.20001220703</ele>
        <time>2022-08-21T10:06:16.000Z</time>
      </trkpt>
      <trkpt lat="49.7808" lon="5.23729">
        <ele>309.39999389648</ele>
        <time>2022-08-21T10:06:24.000Z</time>
      </trkpt>
      <trkpt lat="49.78083" lon="5.23736">
        <ele>309.79998779297</ele>
        <time>2022-08-21T10:06:29.000Z</time>
      </trkpt>
      <trkpt lat="49.78083" lon="5.23738">
        <ele>309.79998779297</ele>
        <time>2022-08-21T10:06:31.000Z</time>
      </trkpt>
      <trkpt lat="49.78087" lon="5.23751">
        <ele>310</ele>
        <time>2022-08-21T10:06:40.000Z</time>
      </trkpt>
      <trkpt lat="49.78092" lon="5.23761">
        <ele>310</ele>
        <time>2022-08-21T10:06:49.000Z</time>
      </trkpt>
      <trkpt lat="49.78096" lon="5.23765">
        <ele>309.79998779297</ele>
        <time>2022-08-21T10:06:56.000Z</time>
      </trkpt>
      <trkpt lat="49.78104" lon="5.23765">
        <ele>309.60000610352</ele>
        <time>2022-08-21T10:07:03.000Z</time>
      </trkpt>
      <trkpt lat="49.7811" lon="5.23793">
        <ele>309.39999389648</ele>
        <time>2022-08-21T11:43:03.000Z</time>
      </trkpt>
      <trkpt lat="49.78109" lon="5.23796">
        <ele>309.39999389648</ele>
        <time>2022-08-21T11:43:04.000Z</time>
      </trkpt>
      <trkpt lat="49.78109" lon="5.23812">
        <ele>309.79998779297</ele>
        <time>2022-08-21T11:43:09.000Z</time>
      </trkpt>
      <trkpt lat="49.78111" lon="5.2383">
        <ele>310.39999389648</ele>
        <time>2022-08-21T11:43:15.000Z</time>
      </trkpt>
      <trkpt lat="49.78112" lon="5.23852">
        <ele>311.20001220703</ele>
        <time>2022-08-21T11:43:21.000Z</time>
      </trkpt>
      <trkpt lat="49.78113" lon="5.23884">
        <ele>312.60000610352</ele>
        <time>2022-08-21T11:43:30.000Z</time>
      </trkpt>
      <trkpt lat="49.78113" lon="5.23887">
        <ele>312.60000610352</ele>
        <time>2022-08-21T11:43:31.000Z</time>
      </trkpt>
      <trkpt lat="49.78115" lon="5.23908">
        <ele>313.20001220703</ele>
        <time>2022-08-21T11:43:37.000Z</time>
      </trkpt>
      <trkpt lat="49.78113" lon="5.23915">
        <ele>313.60000610352</ele>
        <time>2022-08-21T11:43:39.000Z</time>
      </trkpt>
      <trkpt lat="49.78109" lon="5.2392">
        <ele>314</ele>
        <time>2022-08-21T11:43:41.000Z</time>
      </trkpt>
      <trkpt lat="49.78104" lon="5.23928">
        <ele>314.79998779297</ele>
        <time>2022-08-21T11:43:44.000Z</time>
      </trkpt>
      <trkpt lat="49.78098" lon="5.23941">
        <ele>315.60000610352</ele>
        <time>2022-08-21T11:43:48.000Z</time>
      </trkpt>
      <trkpt lat="49.78088" lon="5.2396">
        <ele>316.20001220703</ele>
        <time>2022-08-21T11:43:54.000Z</time>
      </trkpt>
      <trkpt lat="49.78084" lon="5.23968">
        <ele>316.60000610352</ele>
        <time>2022-08-21T11:43:56.000Z</time>
      </trkpt>
      <trkpt lat="49.78074" lon="5.23993">
        <ele>318.20001220703</ele>
        <time>2022-08-21T11:44:02.000Z</time>
      </trkpt>
      <trkpt lat="49.78073" lon="5.23997">
        <ele>318.79998779297</ele>
        <time>2022-08-21T11:44:03.000Z</time>
      </trkpt>
      <trkpt lat="49.78067" lon="5.24015">
        <ele>320.39999389648</ele>
        <time>2022-08-21T11:44:07.000Z</time>
      </trkpt>
      <trkpt lat="49.78059" lon="5.24028">
        <ele>322</ele>
        <time>2022-08-21T11:44:11.000Z</time>
      </trkpt>
      <trkpt lat="49.78057" lon="5.24032">
        <ele>322.39999389648</ele>
        <time>2022-08-21T11:44:12.000Z</time>
      </trkpt>
      <trkpt lat="49.7805" lon="5.24049">
        <ele>323.60000610352</ele>
        <time>2022-08-21T11:44:17.000Z</time>
      </trkpt>
      <trkpt lat="49.78048" lon="5.24053">
        <ele>324</ele>
        <time>2022-08-21T11:44:18.000Z</time>
      </trkpt>
      <trkpt lat="49.78042" lon="5.24066">
        <ele>324.60000610352</ele>
        <time>2022-08-21T11:44:22.000Z</time>
      </trkpt>
      <trkpt lat="49.78037" lon="5.24079">
        <ele>324.60000610352</ele>
        <time>2022-08-21T11:44:26.000Z</time>
      </trkpt>
      <trkpt lat="49.78036" lon="5.24082">
        <ele>324.60000610352</ele>
        <time>2022-08-21T11:44:27.000Z</time>
      </trkpt>
      <trkpt lat="49.78026" lon="5.24104">
        <ele>326.39999389648</ele>
        <time>2022-08-21T11:44:34.000Z</time>
      </trkpt>
      <trkpt lat="49.78025" lon="5.24107">
        <ele>326.60000610352</ele>
        <time>2022-08-21T11:44:35.000Z</time>
      </trkpt>
      <trkpt lat="49.78019" lon="5.24121">
        <ele>328</ele>
        <time>2022-08-21T11:44:40.000Z</time>
      </trkpt>
      <trkpt lat="49.78015" lon="5.24132">
        <ele>328.79998779297</ele>
        <time>2022-08-21T11:44:44.000Z</time>
      </trkpt>
      <trkpt lat="49.78012" lon="5.24139">
        <ele>329.60000610352</ele>
        <time>2022-08-21T11:44:46.000Z</time>
      </trkpt>
      <trkpt lat="49.78011" lon="5.24142">
        <ele>330</ele>
        <time>2022-08-21T11:44:47.000Z</time>
      </trkpt>
      <trkpt lat="49.78004" lon="5.24156">
        <ele>331.20001220703</ele>
        <time>2022-08-21T11:44:52.000Z</time>
      </trkpt>
      <trkpt lat="49.78003" lon="5.24159">
        <ele>331.39999389648</ele>
        <time>2022-08-21T11:44:53.000Z</time>
      </trkpt>
      <trkpt lat="49.77996" lon="5.24176">
        <ele>333.79998779297</ele>
        <time>2022-08-21T11:44:59.000Z</time>
      </trkpt>
      <trkpt lat="49.77995" lon="5.24179">
        <ele>334</ele>
        <time>2022-08-21T11:45:00.000Z</time>
      </trkpt>
      <trkpt lat="49.77989" lon="5.24192">
        <ele>335</ele>
        <time>2022-08-21T11:45:05.000Z</time>
      </trkpt>
      <trkpt lat="49.77989" lon="5.24194">
        <ele>335.20001220703</ele>
        <time>2022-08-21T11:45:06.000Z</time>
      </trkpt>
      <trkpt lat="49.77982" lon="5.24205">
        <ele>336.39999389648</ele>
        <time>2022-08-21T11:45:11.000Z</time>
      </trkpt>
      <trkpt lat="49.7798" lon="5.24208">
        <ele>336.60000610352</ele>
        <time>2022-08-21T11:45:12.000Z</time>
      </trkpt>
      <trkpt lat="49.77976" lon="5.24215">
        <ele>337.39999389648</ele>
        <time>2022-08-21T11:45:15.000Z</time>
      </trkpt>
      <trkpt lat="49.77974" lon="5.24218">
        <ele>337.60000610352</ele>
        <time>2022-08-21T11:45:16.000Z</time>
      </trkpt>
      <trkpt lat="49.77971" lon="5.24226">
        <ele>338.20001220703</ele>
        <time>2022-08-21T11:45:19.000Z</time>
      </trkpt>
      <trkpt lat="49.77968" lon="5.2423">
        <ele>338.39999389648</ele>
        <time>2022-08-21T11:45:21.000Z</time>
      </trkpt>
      <trkpt lat="49.77963" lon="5.24239">
        <ele>339</ele>
        <time>2022-08-21T11:45:25.000Z</time>
      </trkpt>
      <trkpt lat="49.7796" lon="5.24244">
        <ele>339.20001220703</ele>
        <time>2022-08-21T11:45:27.000Z</time>
      </trkpt>
      <trkpt lat="49.77952" lon="5.24261">
        <ele>339.20001220703</ele>
        <time>2022-08-21T11:45:33.000Z</time>
      </trkpt>
      <trkpt lat="49.77946" lon="5.24278">
        <ele>340</ele>
        <time>2022-08-21T11:45:38.000Z</time>
      </trkpt>
      <trkpt lat="49.77938" lon="5.24294">
        <ele>341</ele>
        <time>2022-08-21T11:45:43.000Z</time>
      </trkpt>
      <trkpt lat="49.77928" lon="5.24312">
        <ele>342</ele>
        <time>2022-08-21T11:45:49.000Z</time>
      </trkpt>
      <trkpt lat="49.77926" lon="5.24315">
        <ele>342</ele>
        <time>2022-08-21T11:45:50.000Z</time>
      </trkpt>
      <trkpt lat="49.77916" lon="5.24333">
        <ele>342.79998779297</ele>
        <time>2022-08-21T11:45:56.000Z</time>
      </trkpt>
      <trkpt lat="49.77914" lon="5.24336">
        <ele>343</ele>
        <time>2022-08-21T11:45:57.000Z</time>
      </trkpt>
      <trkpt lat="49.77908" lon="5.24346">
        <ele>343.39999389648</ele>
        <time>2022-08-21T11:46:01.000Z</time>
      </trkpt>
      <trkpt lat="49.77903" lon="5.24356">
        <ele>344</ele>
        <time>2022-08-21T11:46:05.000Z</time>
      </trkpt>
      <trkpt lat="49.77893" lon="5.24375">
        <ele>344</ele>
        <time>2022-08-21T11:46:12.000Z</time>
      </trkpt>
      <trkpt lat="49.77886" lon="5.24386">
        <ele>345</ele>
        <time>2022-08-21T11:46:16.000Z</time>
      </trkpt>
      <trkpt lat="49.77883" lon="5.24392">
        <ele>345.39999389648</ele>
        <time>2022-08-21T11:46:18.000Z</time>
      </trkpt>
      <trkpt lat="49.77874" lon="5.24405">
        <ele>347.39999389648</ele>
        <time>2022-08-21T11:46:23.000Z</time>
      </trkpt>
      <trkpt lat="49.77871" lon="5.2441">
        <ele>348.39999389648</ele>
        <time>2022-08-21T11:46:25.000Z</time>
      </trkpt>
      <trkpt lat="49.77867" lon="5.24419">
        <ele>350.20001220703</ele>
        <time>2022-08-21T11:46:28.000Z</time>
      </trkpt>
      <trkpt lat="49.77856" lon="5.24436">
        <ele>354.20001220703</ele>
        <time>2022-08-21T11:46:34.000Z</time>
      </trkpt>
      <trkpt lat="49.77849" lon="5.24451">
        <ele>357.20001220703</ele>
        <time>2022-08-21T11:46:39.000Z</time>
      </trkpt>
      <trkpt lat="49.77844" lon="5.24459">
        <ele>358.20001220703</ele>
        <time>2022-08-21T11:46:42.000Z</time>
      </trkpt>
      <trkpt lat="49.77841" lon="5.24464">
        <ele>358.79998779297</ele>
        <time>2022-08-21T11:46:44.000Z</time>
      </trkpt>
      <trkpt lat="49.77835" lon="5.24474">
        <ele>359.79998779297</ele>
        <time>2022-08-21T11:46:48.000Z</time>
      </trkpt>
      <trkpt lat="49.77827" lon="5.24484">
        <ele>361.20001220703</ele>
        <time>2022-08-21T11:46:52.000Z</time>
      </trkpt>
      <trkpt lat="49.77826" lon="5.24486">
        <ele>361.60000610352</ele>
        <time>2022-08-21T11:46:53.000Z</time>
      </trkpt>
      <trkpt lat="49.77818" lon="5.24499">
        <ele>364</ele>
        <time>2022-08-21T11:46:58.000Z</time>
      </trkpt>
      <trkpt lat="49.77813" lon="5.24508">
        <ele>364.60000610352</ele>
        <time>2022-08-21T11:47:01.000Z</time>
      </trkpt>
      <trkpt lat="49.77811" lon="5.24515">
        <ele>365</ele>
        <time>2022-08-21T11:47:03.000Z</time>
      </trkpt>
      <trkpt lat="49.77804" lon="5.24531">
        <ele>366.60000610352</ele>
        <time>2022-08-21T11:47:08.000Z</time>
      </trkpt>
      <trkpt lat="49.77802" lon="5.24538">
        <ele>367</ele>
        <time>2022-08-21T11:47:10.000Z</time>
      </trkpt>
      <trkpt lat="49.77798" lon="5.24553">
        <ele>368.39999389648</ele>
        <time>2022-08-21T11:47:14.000Z</time>
      </trkpt>
      <trkpt lat="49.77792" lon="5.24571">
        <ele>367.79998779297</ele>
        <time>2022-08-21T11:47:19.000Z</time>
      </trkpt>
      <trkpt lat="49.77786" lon="5.24594">
        <ele>365.39999389648</ele>
        <time>2022-08-21T11:47:25.000Z</time>
      </trkpt>
      <trkpt lat="49.77784" lon="5.24602">
        <ele>364.39999389648</ele>
        <time>2022-08-21T11:47:27.000Z</time>
      </trkpt>
      <trkpt lat="49.77781" lon="5.24614">
        <ele>363.39999389648</ele>
        <time>2022-08-21T11:47:31.000Z</time>
      </trkpt>
      <trkpt lat="49.77778" lon="5.24621">
        <ele>363</ele>
        <time>2022-08-21T11:47:33.000Z</time>
      </trkpt>
      <trkpt lat="49.77772" lon="5.24636">
        <ele>361.79998779297</ele>
        <time>2022-08-21T11:47:37.000Z</time>
      </trkpt>
      <trkpt lat="49.77767" lon="5.24651">
        <ele>361.60000610352</ele>
        <time>2022-08-21T11:47:41.000Z</time>
      </trkpt>
      <trkpt lat="49.77766" lon="5.24655">
        <ele>361.79998779297</ele>
        <time>2022-08-21T11:47:42.000Z</time>
      </trkpt>
      <trkpt lat="49.77759" lon="5.24675">
        <ele>362.60000610352</ele>
        <time>2022-08-21T11:47:47.000Z</time>
      </trkpt>
      <trkpt lat="49.77755" lon="5.24691">
        <ele>363.39999389648</ele>
        <time>2022-08-21T11:47:51.000Z</time>
      </trkpt>
      <trkpt lat="49.77754" lon="5.24695">
        <ele>363.60000610352</ele>
        <time>2022-08-21T11:47:52.000Z</time>
      </trkpt>
      <trkpt lat="49.77748" lon="5.24715">
        <ele>365.39999389648</ele>
        <time>2022-08-21T11:47:57.000Z</time>
      </trkpt>
      <trkpt lat="49.77743" lon="5.24734">
        <ele>367.20001220703</ele>
        <time>2022-08-21T11:48:02.000Z</time>
      </trkpt>
      <trkpt lat="49.77744" lon="5.24758">
        <ele>368.60000610352</ele>
        <time>2022-08-21T11:48:08.000Z</time>
      </trkpt>
      <trkpt lat="49.77747" lon="5.24764">
        <ele>368.39999389648</ele>
        <time>2022-08-21T11:48:10.000Z</time>
      </trkpt>
      <trkpt lat="49.77756" lon="5.24776">
        <ele>368.79998779297</ele>
        <time>2022-08-21T11:48:14.000Z</time>
      </trkpt>
      <trkpt lat="49.77771" lon="5.24793">
        <ele>370.79998779297</ele>
        <time>2022-08-21T11:48:20.000Z</time>
      </trkpt>
      <trkpt lat="49.77773" lon="5.24796">
        <ele>371.20001220703</ele>
        <time>2022-08-21T11:48:21.000Z</time>
      </trkpt>
      <trkpt lat="49.77785" lon="5.24812">
        <ele>372.39999389648</ele>
        <time>2022-08-21T11:48:26.000Z</time>
      </trkpt>
      <trkpt lat="49.77791" lon="5.24821">
        <ele>373</ele>
        <time>2022-08-21T11:48:29.000Z</time>
      </trkpt>
      <trkpt lat="49.77794" lon="5.24825">
        <ele>373.20001220703</ele>
        <time>2022-08-21T11:48:30.000Z</time>
      </trkpt>
      <trkpt lat="49.77805" lon="5.24843">
        <ele>372.60000610352</ele>
        <time>2022-08-21T11:48:35.000Z</time>
      </trkpt>
      <trkpt lat="49.77814" lon="5.24857">
        <ele>372</ele>
        <time>2022-08-21T11:48:39.000Z</time>
      </trkpt>
      <trkpt lat="49.77816" lon="5.24861">
        <ele>371.79998779297</ele>
        <time>2022-08-21T11:48:40.000Z</time>
      </trkpt>
      <trkpt lat="49.77829" lon="5.24879">
        <ele>371.39999389648</ele>
        <time>2022-08-21T11:48:45.000Z</time>
      </trkpt>
      <trkpt lat="49.77841" lon="5.24896">
        <ele>371.39999389648</ele>
        <time>2022-08-21T11:48:50.000Z</time>
      </trkpt>
      <trkpt lat="49.77844" lon="5.24899">
        <ele>371.79998779297</ele>
        <time>2022-08-21T11:48:51.000Z</time>
      </trkpt>
      <trkpt lat="49.77858" lon="5.24912">
        <ele>372.60000610352</ele>
        <time>2022-08-21T11:48:57.000Z</time>
      </trkpt>
      <trkpt lat="49.77863" lon="5.24916">
        <ele>373</ele>
        <time>2022-08-21T11:48:59.000Z</time>
      </trkpt>
      <trkpt lat="49.77869" lon="5.24921">
        <ele>373.39999389648</ele>
        <time>2022-08-21T11:49:01.000Z</time>
      </trkpt>
      <trkpt lat="49.7788" lon="5.24931">
        <ele>375</ele>
        <time>2022-08-21T11:49:05.000Z</time>
      </trkpt>
      <trkpt lat="49.77891" lon="5.24941">
        <ele>376.39999389648</ele>
        <time>2022-08-21T11:49:09.000Z</time>
      </trkpt>
      <trkpt lat="49.77894" lon="5.24943">
        <ele>376.60000610352</ele>
        <time>2022-08-21T11:49:10.000Z</time>
      </trkpt>
      <trkpt lat="49.77902" lon="5.2495">
        <ele>378</ele>
        <time>2022-08-21T11:49:13.000Z</time>
      </trkpt>
      <trkpt lat="49.77911" lon="5.24957">
        <ele>379.60000610352</ele>
        <time>2022-08-21T11:49:16.000Z</time>
      </trkpt>
      <trkpt lat="49.77922" lon="5.24968">
        <ele>381.79998779297</ele>
        <time>2022-08-21T11:49:20.000Z</time>
      </trkpt>
      <trkpt lat="49.77925" lon="5.24971">
        <ele>382.60000610352</ele>
        <time>2022-08-21T11:49:21.000Z</time>
      </trkpt>
      <trkpt lat="49.77936" lon="5.2498">
        <ele>385</ele>
        <time>2022-08-21T11:49:25.000Z</time>
      </trkpt>
      <trkpt lat="49.7795" lon="5.24991">
        <ele>387.60000610352</ele>
        <time>2022-08-21T11:49:30.000Z</time>
      </trkpt>
      <trkpt lat="49.77957" lon="5.24992">
        <ele>388.39999389648</ele>
        <time>2022-08-21T11:49:32.000Z</time>
      </trkpt>
      <trkpt lat="49.77968" lon="5.24993">
        <ele>389.79998779297</ele>
        <time>2022-08-21T11:49:35.000Z</time>
      </trkpt>
      <trkpt lat="49.77996" lon="5.2499">
        <ele>389.60000610352</ele>
        <time>2022-08-21T11:49:41.000Z</time>
      </trkpt>
      <trkpt lat="49.78026" lon="5.24982">
        <ele>385.79998779297</ele>
        <time>2022-08-21T11:49:46.000Z</time>
      </trkpt>
      <trkpt lat="49.78047" lon="5.24974">
        <ele>384.60000610352</ele>
        <time>2022-08-21T11:49:49.000Z</time>
      </trkpt>
      <trkpt lat="49.78062" lon="5.2497">
        <ele>384</ele>
        <time>2022-08-21T11:49:51.000Z</time>
      </trkpt>
      <trkpt lat="49.7807" lon="5.24969">
        <ele>384.39999389648</ele>
        <time>2022-08-21T11:49:52.000Z</time>
      </trkpt>
      <trkpt lat="49.78077" lon="5.24968">
        <ele>384.79998779297</ele>
        <time>2022-08-21T11:49:53.000Z</time>
      </trkpt>
      <trkpt lat="49.781" lon="5.24969">
        <ele>386.20001220703</ele>
        <time>2022-08-21T11:49:56.000Z</time>
      </trkpt>
      <trkpt lat="49.78107" lon="5.24969">
        <ele>386.79998779297</ele>
        <time>2022-08-21T11:49:57.000Z</time>
      </trkpt>
      <trkpt lat="49.7812" lon="5.24967">
        <ele>387.79998779297</ele>
        <time>2022-08-21T11:49:59.000Z</time>
      </trkpt>
      <trkpt lat="49.7813" lon="5.24963">
        <ele>388</ele>
        <time>2022-08-21T11:50:01.000Z</time>
      </trkpt>
      <trkpt lat="49.78149" lon="5.24952">
        <ele>388.79998779297</ele>
        <time>2022-08-21T11:50:06.000Z</time>
      </trkpt>
      <trkpt lat="49.78152" lon="5.2495">
        <ele>389</ele>
        <time>2022-08-21T11:50:07.000Z</time>
      </trkpt>
      <trkpt lat="49.7817" lon="5.24936">
        <ele>390.20001220703</ele>
        <time>2022-08-21T11:50:12.000Z</time>
      </trkpt>
      <trkpt lat="49.78173" lon="5.24933">
        <ele>390.39999389648</ele>
        <time>2022-08-21T11:50:13.000Z</time>
      </trkpt>
      <trkpt lat="49.78176" lon="5.24931">
        <ele>390.39999389648</ele>
        <time>2022-08-21T11:50:14.000Z</time>
      </trkpt>
      <trkpt lat="49.78193" lon="5.24918">
        <ele>390.39999389648</ele>
        <time>2022-08-21T11:50:19.000Z</time>
      </trkpt>
      <trkpt lat="49.78197" lon="5.24913">
        <ele>390.20001220703</ele>
        <time>2022-08-21T11:50:20.000Z</time>
      </trkpt>
      <trkpt lat="49.78201" lon="5.24908">
        <ele>390.20001220703</ele>
        <time>2022-08-21T11:50:21.000Z</time>
      </trkpt>
      <trkpt lat="49.78225" lon="5.24875">
        <ele>390.79998779297</ele>
        <time>2022-08-21T11:50:26.000Z</time>
      </trkpt>
      <trkpt lat="49.78237" lon="5.24862">
        <ele>390</ele>
        <time>2022-08-21T11:50:28.000Z</time>
      </trkpt>
      <trkpt lat="49.78254" lon="5.24847">
        <ele>388.60000610352</ele>
        <time>2022-08-21T11:50:31.000Z</time>
      </trkpt>
      <trkpt lat="49.78259" lon="5.24843">
        <ele>388</ele>
        <time>2022-08-21T11:50:32.000Z</time>
      </trkpt>
      <trkpt lat="49.78285" lon="5.24827">
        <ele>386</ele>
        <time>2022-08-21T11:50:38.000Z</time>
      </trkpt>
      <trkpt lat="49.78293" lon="5.24824">
        <ele>385.39999389648</ele>
        <time>2022-08-21T11:50:40.000Z</time>
      </trkpt>
      <trkpt lat="49.78305" lon="5.2482">
        <ele>384.39999389648</ele>
        <time>2022-08-21T11:50:43.000Z</time>
      </trkpt>
      <trkpt lat="49.7831" lon="5.24819">
        <ele>384.20001220703</ele>
        <time>2022-08-21T11:50:44.000Z</time>
      </trkpt>
      <trkpt lat="49.78333" lon="5.24812">
        <ele>383.60000610352</ele>
        <time>2022-08-21T11:50:48.000Z</time>
      </trkpt>
      <trkpt lat="49.78345" lon="5.24811">
        <ele>383.60000610352</ele>
        <time>2022-08-21T11:50:50.000Z</time>
      </trkpt>
      <trkpt lat="49.78372" lon="5.24809">
        <ele>385.20001220703</ele>
        <time>2022-08-21T11:50:55.000Z</time>
      </trkpt>
      <trkpt lat="49.78412" lon="5.24819">
        <ele>390.39999389648</ele>
        <time>2022-08-21T11:51:01.000Z</time>
      </trkpt>
      <trkpt lat="49.78428" lon="5.24851">
        <ele>391.60000610352</ele>
        <time>2022-08-21T11:51:04.000Z</time>
      </trkpt>
      <trkpt lat="49.7843" lon="5.24878">
        <ele>390.79998779297</ele>
        <time>2022-08-21T11:51:06.000Z</time>
      </trkpt>
      <trkpt lat="49.78429" lon="5.2489">
        <ele>390.60000610352</ele>
        <time>2022-08-21T11:51:07.000Z</time>
      </trkpt>
      <trkpt lat="49.78428" lon="5.24901">
        <ele>390.39999389648</ele>
        <time>2022-08-21T11:51:08.000Z</time>
      </trkpt>
      <trkpt lat="49.78429" lon="5.24916">
        <ele>390.79998779297</ele>
        <time>2022-08-21T11:51:10.000Z</time>
      </trkpt>
      <trkpt lat="49.78431" lon="5.2492">
        <ele>391.20001220703</ele>
        <time>2022-08-21T11:51:11.000Z</time>
      </trkpt>
      <trkpt lat="49.78435" lon="5.24929">
        <ele>392.20001220703</ele>
        <time>2022-08-21T11:51:14.000Z</time>
      </trkpt>
      <trkpt lat="49.78438" lon="5.24934">
        <ele>392.79998779297</ele>
        <time>2022-08-21T11:51:16.000Z</time>
      </trkpt>
      <trkpt lat="49.78441" lon="5.24941">
        <ele>393.39999389648</ele>
        <time>2022-08-21T11:51:18.000Z</time>
      </trkpt>
      <trkpt lat="49.78442" lon="5.24946">
        <ele>393.79998779297</ele>
        <time>2022-08-21T11:51:19.000Z</time>
      </trkpt>
      <trkpt lat="49.78443" lon="5.24955">
        <ele>394.60000610352</ele>
        <time>2022-08-21T11:51:21.000Z</time>
      </trkpt>
      <trkpt lat="49.78446" lon="5.24969">
        <ele>396</ele>
        <time>2022-08-21T11:51:24.000Z</time>
      </trkpt>
      <trkpt lat="49.78447" lon="5.24978">
        <ele>396.79998779297</ele>
        <time>2022-08-21T11:51:26.000Z</time>
      </trkpt>
      <trkpt lat="49.78448" lon="5.24983">
        <ele>397.20001220703</ele>
        <time>2022-08-21T11:51:27.000Z</time>
      </trkpt>
      <trkpt lat="49.78451" lon="5.25002">
        <ele>398.20001220703</ele>
        <time>2022-08-21T11:51:31.000Z</time>
      </trkpt>
      <trkpt lat="49.78454" lon="5.25016">
        <ele>398.79998779297</ele>
        <time>2022-08-21T11:51:34.000Z</time>
      </trkpt>
      <trkpt lat="49.78457" lon="5.2503">
        <ele>398.60000610352</ele>
        <time>2022-08-21T11:51:37.000Z</time>
      </trkpt>
      <trkpt lat="49.78458" lon="5.25035">
        <ele>398.60000610352</ele>
        <time>2022-08-21T11:51:38.000Z</time>
      </trkpt>
      <trkpt lat="49.78462" lon="5.25042">
        <ele>398.20001220703</ele>
        <time>2022-08-21T11:51:40.000Z</time>
      </trkpt>
      <trkpt lat="49.78468" lon="5.25053">
        <ele>397.79998779297</ele>
        <time>2022-08-21T11:51:43.000Z</time>
      </trkpt>
      <trkpt lat="49.78471" lon="5.25055">
        <ele>397.60000610352</ele>
        <time>2022-08-21T11:51:44.000Z</time>
      </trkpt>
      <trkpt lat="49.7848" lon="5.25061">
        <ele>397</ele>
        <time>2022-08-21T11:51:47.000Z</time>
      </trkpt>
      <trkpt lat="49.78486" lon="5.25062">
        <ele>396.60000610352</ele>
        <time>2022-08-21T11:51:49.000Z</time>
      </trkpt>
      <trkpt lat="49.78492" lon="5.25063">
        <ele>396.20001220703</ele>
        <time>2022-08-21T11:51:51.000Z</time>
      </trkpt>
      <trkpt lat="49.78505" lon="5.2506">
        <ele>394.79998779297</ele>
        <time>2022-08-21T11:51:55.000Z</time>
      </trkpt>
      <trkpt lat="49.78507" lon="5.25059">
        <ele>394.39999389648</ele>
        <time>2022-08-21T11:51:56.000Z</time>
      </trkpt>
      <trkpt lat="49.78517" lon="5.25053">
        <ele>394.60000610352</ele>
        <time>2022-08-21T11:52:00.000Z</time>
      </trkpt>
      <trkpt lat="49.78522" lon="5.25048">
        <ele>394.39999389648</ele>
        <time>2022-08-21T11:52:02.000Z</time>
      </trkpt>
      <trkpt lat="49.78527" lon="5.25041">
        <ele>394.39999389648</ele>
        <time>2022-08-21T11:52:04.000Z</time>
      </trkpt>
      <trkpt lat="49.78538" lon="5.25024">
        <ele>395.39999389648</ele>
        <time>2022-08-21T11:52:09.000Z</time>
      </trkpt>
      <trkpt lat="49.7854" lon="5.25021">
        <ele>395.79998779297</ele>
        <time>2022-08-21T11:52:10.000Z</time>
      </trkpt>
      <trkpt lat="49.78546" lon="5.25012">
        <ele>397</ele>
        <time>2022-08-21T11:52:13.000Z</time>
      </trkpt>
      <trkpt lat="49.78554" lon="5.25">
        <ele>398.60000610352</ele>
        <time>2022-08-21T11:52:17.000Z</time>
      </trkpt>
      <trkpt lat="49.78555" lon="5.24998">
        <ele>399</ele>
        <time>2022-08-21T11:52:18.000Z</time>
      </trkpt>
      <trkpt lat="49.7856" lon="5.2499">
        <ele>400.20001220703</ele>
        <time>2022-08-21T11:52:21.000Z</time>
      </trkpt>
      <trkpt lat="49.78561" lon="5.24986">
        <ele>400.39999389648</ele>
        <time>2022-08-21T11:52:22.000Z</time>
      </trkpt>
      <trkpt lat="49.78559" lon="5.24964">
        <ele>400</ele>
        <time>2022-08-21T11:52:25.000Z</time>
      </trkpt>
      <trkpt lat="49.78552" lon="5.24926">
        <ele>398.60000610352</ele>
        <time>2022-08-21T11:52:31.000Z</time>
      </trkpt>
      <trkpt lat="49.78548" lon="5.24901">
        <ele>397.79998779297</ele>
        <time>2022-08-21T11:52:35.000Z</time>
      </trkpt>
      <trkpt lat="49.78546" lon="5.24888">
        <ele>397.39999389648</ele>
        <time>2022-08-21T11:52:38.000Z</time>
      </trkpt>
      <trkpt lat="49.78544" lon="5.24883">
        <ele>396.79998779297</ele>
        <time>2022-08-21T11:52:40.000Z</time>
      </trkpt>
      <trkpt lat="49.78542" lon="5.24885">
        <ele>396.20001220703</ele>
        <time>2022-08-21T11:52:42.000Z</time>
      </trkpt>
      <trkpt lat="49.78543" lon="5.24894">
        <ele>396.60000610352</ele>
        <time>2022-08-21T11:52:47.000Z</time>
      </trkpt>
      <trkpt lat="49.78544" lon="5.24896">
        <ele>396.60000610352</ele>
        <time>2022-08-21T11:52:48.000Z</time>
      </trkpt>
      <trkpt lat="49.78546" lon="5.24908">
        <ele>397.20001220703</ele>
        <time>2022-08-21T11:53:46.000Z</time>
      </trkpt>
      <trkpt lat="49.78546" lon="5.24911">
        <ele>397.20001220703</ele>
        <time>2022-08-21T11:53:47.000Z</time>
      </trkpt>
      <trkpt lat="49.78549" lon="5.24926">
        <ele>397.79998779297</ele>
        <time>2022-08-21T11:53:51.000Z</time>
      </trkpt>
      <trkpt lat="49.78551" lon="5.24939">
        <ele>398.20001220703</ele>
        <time>2022-08-21T11:53:54.000Z</time>
      </trkpt>
      <trkpt lat="49.78554" lon="5.24958">
        <ele>399</ele>
        <time>2022-08-21T11:53:58.000Z</time>
      </trkpt>
      <trkpt lat="49.78558" lon="5.24979">
        <ele>400</ele>
        <time>2022-08-21T11:54:03.000Z</time>
      </trkpt>
      <trkpt lat="49.78562" lon="5.24995">
        <ele>400.79998779297</ele>
        <time>2022-08-21T11:54:06.000Z</time>
      </trkpt>
      <trkpt lat="49.78576" lon="5.25023">
        <ele>401.79998779297</ele>
        <time>2022-08-21T11:54:13.000Z</time>
      </trkpt>
      <trkpt lat="49.78578" lon="5.25026">
        <ele>401.79998779297</ele>
        <time>2022-08-21T11:54:14.000Z</time>
      </trkpt>
      <trkpt lat="49.78595" lon="5.25049">
        <ele>403.39999389648</ele>
        <time>2022-08-21T11:54:21.000Z</time>
      </trkpt>
      <trkpt lat="49.78612" lon="5.25066">
        <ele>404</ele>
        <time>2022-08-21T11:54:27.000Z</time>
      </trkpt>
      <trkpt lat="49.78615" lon="5.25069">
        <ele>404</ele>
        <time>2022-08-21T11:54:28.000Z</time>
      </trkpt>
      <trkpt lat="49.78638" lon="5.25093">
        <ele>403</ele>
        <time>2022-08-21T11:54:36.000Z</time>
      </trkpt>
      <trkpt lat="49.7865" lon="5.25106">
        <ele>402.20001220703</ele>
        <time>2022-08-21T11:54:40.000Z</time>
      </trkpt>
      <trkpt lat="49.78668" lon="5.25124">
        <ele>402.20001220703</ele>
        <time>2022-08-21T11:54:46.000Z</time>
      </trkpt>
      <trkpt lat="49.7868" lon="5.25136">
        <ele>402.60000610352</ele>
        <time>2022-08-21T11:54:50.000Z</time>
      </trkpt>
      <trkpt lat="49.78699" lon="5.25156">
        <ele>404.79998779297</ele>
        <time>2022-08-21T11:54:56.000Z</time>
      </trkpt>
      <trkpt lat="49.78709" lon="5.25165">
        <ele>405.39999389648</ele>
        <time>2022-08-21T11:54:59.000Z</time>
      </trkpt>
      <trkpt lat="49.78728" lon="5.25186">
        <ele>406.79998779297</ele>
        <time>2022-08-21T11:55:05.000Z</time>
      </trkpt>
      <trkpt lat="49.78738" lon="5.25197">
        <ele>407.39999389648</ele>
        <time>2022-08-21T11:55:08.000Z</time>
      </trkpt>
      <trkpt lat="49.78747" lon="5.25205">
        <ele>407.60000610352</ele>
        <time>2022-08-21T11:55:11.000Z</time>
      </trkpt>
      <trkpt lat="49.78762" lon="5.25221">
        <ele>408</ele>
        <time>2022-08-21T11:55:16.000Z</time>
      </trkpt>
      <trkpt lat="49.78768" lon="5.25224">
        <ele>408</ele>
        <time>2022-08-21T11:55:18.000Z</time>
      </trkpt>
      <trkpt lat="49.7878" lon="5.25212">
        <ele>408.60000610352</ele>
        <time>2022-08-21T11:55:22.000Z</time>
      </trkpt>
      <trkpt lat="49.78786" lon="5.25187">
        <ele>408</ele>
        <time>2022-08-21T11:55:26.000Z</time>
      </trkpt>
      <trkpt lat="49.78788" lon="5.25181">
        <ele>408.20001220703</ele>
        <time>2022-08-21T11:55:27.000Z</time>
      </trkpt>
      <trkpt lat="49.78795" lon="5.25145">
        <ele>408.20001220703</ele>
        <time>2022-08-21T11:55:32.000Z</time>
      </trkpt>
      <trkpt lat="49.78797" lon="5.25137">
        <ele>407.79998779297</ele>
        <time>2022-08-21T11:55:33.000Z</time>
      </trkpt>
      <trkpt lat="49.78806" lon="5.25087">
        <ele>406.20001220703</ele>
        <time>2022-08-21T11:55:39.000Z</time>
      </trkpt>
      <trkpt lat="49.78807" lon="5.25079">
        <ele>405.79998779297</ele>
        <time>2022-08-21T11:55:40.000Z</time>
      </trkpt>
      <trkpt lat="49.78817" lon="5.25021">
        <ele>404</ele>
        <time>2022-08-21T11:55:47.000Z</time>
      </trkpt>
      <trkpt lat="49.78819" lon="5.25012">
        <ele>403.60000610352</ele>
        <time>2022-08-21T11:55:48.000Z</time>
      </trkpt>
      <trkpt lat="49.78827" lon="5.24959">
        <ele>403.79998779297</ele>
        <time>2022-08-21T11:55:54.000Z</time>
      </trkpt>
      <trkpt lat="49.78831" lon="5.24942">
        <ele>404</ele>
        <time>2022-08-21T11:55:56.000Z</time>
      </trkpt>
      <trkpt lat="49.78839" lon="5.24899">
        <ele>404</ele>
        <time>2022-08-21T11:56:01.000Z</time>
      </trkpt>
      <trkpt lat="49.78844" lon="5.24871">
        <ele>403.60000610352</ele>
        <time>2022-08-21T11:56:04.000Z</time>
      </trkpt>
      <trkpt lat="49.7885" lon="5.24836">
        <ele>402.60000610352</ele>
        <time>2022-08-21T11:56:08.000Z</time>
      </trkpt>
      <trkpt lat="49.78855" lon="5.24807">
        <ele>402.60000610352</ele>
        <time>2022-08-21T11:56:11.000Z</time>
      </trkpt>
      <trkpt lat="49.78863" lon="5.24756">
        <ele>402.60000610352</ele>
        <time>2022-08-21T11:56:16.000Z</time>
      </trkpt>
      <trkpt lat="49.78865" lon="5.24746">
        <ele>402.20001220703</ele>
        <time>2022-08-21T11:56:17.000Z</time>
      </trkpt>
      <trkpt lat="49.78874" lon="5.24719">
        <ele>400.79998779297</ele>
        <time>2022-08-21T11:56:20.000Z</time>
      </trkpt>
      <trkpt lat="49.78879" lon="5.24711">
        <ele>400.60000610352</ele>
        <time>2022-08-21T11:56:21.000Z</time>
      </trkpt>
      <trkpt lat="49.78884" lon="5.24704">
        <ele>400.39999389648</ele>
        <time>2022-08-21T11:56:22.000Z</time>
      </trkpt>
      <trkpt lat="49.78896" lon="5.24691">
        <ele>399.20001220703</ele>
        <time>2022-08-21T11:56:24.000Z</time>
      </trkpt>
      <trkpt lat="49.78906" lon="5.2468">
        <ele>399</ele>
        <time>2022-08-21T11:56:26.000Z</time>
      </trkpt>
      <trkpt lat="49.78916" lon="5.2467">
        <ele>399</ele>
        <time>2022-08-21T11:56:28.000Z</time>
      </trkpt>
      <trkpt lat="49.7893" lon="5.24656">
        <ele>399</ele>
        <time>2022-08-21T11:56:31.000Z</time>
      </trkpt>
      <trkpt lat="49.78934" lon="5.24653">
        <ele>399</ele>
        <time>2022-08-21T11:56:32.000Z</time>
      </trkpt>
      <trkpt lat="49.7894" lon="5.24652">
        <ele>399</ele>
        <time>2022-08-21T11:56:35.000Z</time>
      </trkpt>
      <trkpt lat="49.78941" lon="5.24654">
        <ele>399</ele>
        <time>2022-08-21T11:56:36.000Z</time>
      </trkpt>
      <trkpt lat="49.78943" lon="5.24667">
        <ele>398.79998779297</ele>
        <time>2022-08-21T11:56:39.000Z</time>
      </trkpt>
      <trkpt lat="49.78943" lon="5.24686">
        <ele>398.39999389648</ele>
        <time>2022-08-21T11:56:42.000Z</time>
      </trkpt>
      <trkpt lat="49.78943" lon="5.24692">
        <ele>398.20001220703</ele>
        <time>2022-08-21T11:56:43.000Z</time>
      </trkpt>
      <trkpt lat="49.78943" lon="5.24707">
        <ele>397.60000610352</ele>
        <time>2022-08-21T11:56:45.000Z</time>
      </trkpt>
      <trkpt lat="49.7894" lon="5.24721">
        <ele>396.79998779297</ele>
        <time>2022-08-21T11:56:47.000Z</time>
      </trkpt>
      <trkpt lat="49.7894" lon="5.24732">
        <ele>395.79998779297</ele>
        <time>2022-08-21T11:56:49.000Z</time>
      </trkpt>
      <trkpt lat="49.78941" lon="5.24735">
        <ele>395.60000610352</ele>
        <time>2022-08-21T11:56:50.000Z</time>
      </trkpt>
      <trkpt lat="49.78942" lon="5.24737">
        <ele>395.20001220703</ele>
        <time>2022-08-21T11:56:51.000Z</time>
      </trkpt>
      <trkpt lat="49.78944" lon="5.24739">
        <ele>395</ele>
        <time>2022-08-21T11:56:52.000Z</time>
      </trkpt>
      <trkpt lat="49.78947" lon="5.24741">
        <ele>394.60000610352</ele>
        <time>2022-08-21T11:56:54.000Z</time>
      </trkpt>
      <trkpt lat="49.78954" lon="5.24748">
        <ele>392.79998779297</ele>
        <time>2022-08-21T11:56:58.000Z</time>
      </trkpt>
      <trkpt lat="49.78955" lon="5.2475">
        <ele>392.39999389648</ele>
        <time>2022-08-21T11:56:59.000Z</time>
      </trkpt>
      <trkpt lat="49.78957" lon="5.24753">
        <ele>391.79998779297</ele>
        <time>2022-08-21T11:57:01.000Z</time>
      </trkpt>
      <trkpt lat="49.78976" lon="5.24777">
        <ele>385.20001220703</ele>
        <time>2022-08-21T11:58:47.000Z</time>
      </trkpt>
      <trkpt lat="49.78977" lon="5.24775">
        <ele>385</ele>
        <time>2022-08-21T11:58:48.000Z</time>
      </trkpt>
      <trkpt lat="49.78994" lon="5.24762">
        <ele>381.79998779297</ele>
        <time>2022-08-21T11:58:59.000Z</time>
      </trkpt>
      <trkpt lat="49.79" lon="5.24757">
        <ele>380.60000610352</ele>
        <time>2022-08-21T11:59:01.000Z</time>
      </trkpt>
      <trkpt lat="49.79003" lon="5.24757">
        <ele>379.79998779297</ele>
        <time>2022-08-21T11:59:02.000Z</time>
      </trkpt>
      <trkpt lat="49.79007" lon="5.24758">
        <ele>378.60000610352</ele>
        <time>2022-08-21T11:59:03.000Z</time>
      </trkpt>
      <trkpt lat="49.79013" lon="5.24763">
        <ele>377</ele>
        <time>2022-08-21T11:59:05.000Z</time>
      </trkpt>
      <trkpt lat="49.79016" lon="5.24766">
        <ele>376.20001220703</ele>
        <time>2022-08-21T11:59:06.000Z</time>
      </trkpt>
      <trkpt lat="49.79019" lon="5.24768">
        <ele>375.39999389648</ele>
        <time>2022-08-21T11:59:07.000Z</time>
      </trkpt>
      <trkpt lat="49.79024" lon="5.24772">
        <ele>374.20001220703</ele>
        <time>2022-08-21T11:59:09.000Z</time>
      </trkpt>
      <trkpt lat="49.79026" lon="5.24774">
        <ele>374</ele>
        <time>2022-08-21T11:59:10.000Z</time>
      </trkpt>
      <trkpt lat="49.79028" lon="5.24776">
        <ele>373.79998779297</ele>
        <time>2022-08-21T11:59:11.000Z</time>
      </trkpt>
      <trkpt lat="49.79032" lon="5.24781">
        <ele>373.39999389648</ele>
        <time>2022-08-21T11:59:13.000Z</time>
      </trkpt>
      <trkpt lat="49.79037" lon="5.24781">
        <ele>372.60000610352</ele>
        <time>2022-08-21T11:59:15.000Z</time>
      </trkpt>
      <trkpt lat="49.7904" lon="5.2478">
        <ele>372.20001220703</ele>
        <time>2022-08-21T11:59:16.000Z</time>
      </trkpt>
      <trkpt lat="49.79046" lon="5.24769">
        <ele>371</ele>
        <time>2022-08-21T11:59:18.000Z</time>
      </trkpt>
      <trkpt lat="49.79048" lon="5.24764">
        <ele>371.20001220703</ele>
        <time>2022-08-21T11:59:19.000Z</time>
      </trkpt>
      <trkpt lat="49.7905" lon="5.24757">
        <ele>371.39999389648</ele>
        <time>2022-08-21T11:59:20.000Z</time>
      </trkpt>
      <trkpt lat="49.79061" lon="5.24747">
        <ele>368.60000610352</ele>
        <time>2022-08-21T11:59:23.000Z</time>
      </trkpt>
      <trkpt lat="49.79065" lon="5.24747">
        <ele>367.79998779297</ele>
        <time>2022-08-21T11:59:24.000Z</time>
      </trkpt>
      <trkpt lat="49.79072" lon="5.24753">
        <ele>366.79998779297</ele>
        <time>2022-08-21T11:59:26.000Z</time>
      </trkpt>
      <trkpt lat="49.79082" lon="5.24757">
        <ele>365.39999389648</ele>
        <time>2022-08-21T11:59:29.000Z</time>
      </trkpt>
      <trkpt lat="49.79086" lon="5.24758">
        <ele>364.79998779297</ele>
        <time>2022-08-21T11:59:30.000Z</time>
      </trkpt>
      <trkpt lat="49.79095" lon="5.24763">
        <ele>363.20001220703</ele>
        <time>2022-08-21T11:59:31.000Z</time>
      </trkpt>
      <trkpt lat="49.79101" lon="5.24764">
        <ele>361.79998779297</ele>
        <time>2022-08-21T11:59:32.000Z</time>
      </trkpt>
      <trkpt lat="49.79106" lon="5.24765">
        <ele>360.79998779297</ele>
        <time>2022-08-21T11:59:33.000Z</time>
      </trkpt>
      <trkpt lat="49.79111" lon="5.24764">
        <ele>359.60000610352</ele>
        <time>2022-08-21T11:59:34.000Z</time>
      </trkpt>
      <trkpt lat="49.79116" lon="5.24763">
        <ele>359</ele>
        <time>2022-08-21T11:59:35.000Z</time>
      </trkpt>
      <trkpt lat="49.7912" lon="5.24762">
        <ele>358.60000610352</ele>
        <time>2022-08-21T11:59:36.000Z</time>
      </trkpt>
      <trkpt lat="49.79124" lon="5.24761">
        <ele>358.20001220703</ele>
        <time>2022-08-21T11:59:37.000Z</time>
      </trkpt>
      <trkpt lat="49.79131" lon="5.24758">
        <ele>357.60000610352</ele>
        <time>2022-08-21T11:59:39.000Z</time>
      </trkpt>
      <trkpt lat="49.79134" lon="5.24757">
        <ele>357.39999389648</ele>
        <time>2022-08-21T11:59:40.000Z</time>
      </trkpt>
      <trkpt lat="49.7914" lon="5.24756">
        <ele>356</ele>
        <time>2022-08-21T11:59:42.000Z</time>
      </trkpt>
      <trkpt lat="49.79156" lon="5.24753">
        <ele>353.20001220703</ele>
        <time>2022-08-21T11:59:46.000Z</time>
      </trkpt>
      <trkpt lat="49.79159" lon="5.24753">
        <ele>352.60000610352</ele>
        <time>2022-08-21T11:59:47.000Z</time>
      </trkpt>
      <trkpt lat="49.79166" lon="5.24758">
        <ele>351.79998779297</ele>
        <time>2022-08-21T12:00:36.000Z</time>
      </trkpt>
      <trkpt lat="49.7916" lon="5.2476">
        <ele>352.60000610352</ele>
        <time>2022-08-21T12:00:38.000Z</time>
      </trkpt>
      <trkpt lat="49.79155" lon="5.24765">
        <ele>353.60000610352</ele>
        <time>2022-08-21T12:00:41.000Z</time>
      </trkpt>
      <trkpt lat="49.79151" lon="5.24769">
        <ele>354.39999389648</ele>
        <time>2022-08-21T12:00:44.000Z</time>
      </trkpt>
      <trkpt lat="49.79149" lon="5.24771">
        <ele>354.79998779297</ele>
        <time>2022-08-21T12:00:46.000Z</time>
      </trkpt>
      <trkpt lat="49.79142" lon="5.24778">
        <ele>356.20001220703</ele>
        <time>2022-08-21T12:00:51.000Z</time>
      </trkpt>
      <trkpt lat="49.79139" lon="5.24781">
        <ele>357</ele>
        <time>2022-08-21T12:00:53.000Z</time>
      </trkpt>
      <trkpt lat="49.79135" lon="5.24789">
        <ele>358.39999389648</ele>
        <time>2022-08-21T12:00:57.000Z</time>
      </trkpt>
      <trkpt lat="49.79134" lon="5.24792">
        <ele>358.79998779297</ele>
        <time>2022-08-21T12:00:58.000Z</time>
      </trkpt>
      <trkpt lat="49.79133" lon="5.24798">
        <ele>360</ele>
        <time>2022-08-21T12:01:00.000Z</time>
      </trkpt>
      <trkpt lat="49.7913" lon="5.24807">
        <ele>362.20001220703</ele>
        <time>2022-08-21T12:01:03.000Z</time>
      </trkpt>
      <trkpt lat="49.79129" lon="5.24813">
        <ele>363.39999389648</ele>
        <time>2022-08-21T12:01:05.000Z</time>
      </trkpt>
      <trkpt lat="49.79129" lon="5.24819">
        <ele>364.39999389648</ele>
        <time>2022-08-21T12:01:07.000Z</time>
      </trkpt>
      <trkpt lat="49.79128" lon="5.24832">
        <ele>366.60000610352</ele>
        <time>2022-08-21T12:01:11.000Z</time>
      </trkpt>
      <trkpt lat="49.79128" lon="5.24835">
        <ele>367.20001220703</ele>
        <time>2022-08-21T12:01:12.000Z</time>
      </trkpt>
      <trkpt lat="49.79127" lon="5.24841">
        <ele>368.20001220703</ele>
        <time>2022-08-21T12:01:14.000Z</time>
      </trkpt>
      <trkpt lat="49.79127" lon="5.24849">
        <ele>369.39999389648</ele>
        <time>2022-08-21T12:01:17.000Z</time>
      </trkpt>
      <trkpt lat="49.79127" lon="5.24854">
        <ele>370</ele>
        <time>2022-08-21T12:01:19.000Z</time>
      </trkpt>
      <trkpt lat="49.79126" lon="5.24856">
        <ele>370.39999389648</ele>
        <time>2022-08-21T12:01:20.000Z</time>
      </trkpt>
      <trkpt lat="49.79125" lon="5.24864">
        <ele>371.39999389648</ele>
        <time>2022-08-21T12:01:23.000Z</time>
      </trkpt>
      <trkpt lat="49.79125" lon="5.24875">
        <ele>373</ele>
        <time>2022-08-21T12:01:27.000Z</time>
      </trkpt>
      <trkpt lat="49.79125" lon="5.24878">
        <ele>373.39999389648</ele>
        <time>2022-08-21T12:01:28.000Z</time>
      </trkpt>
      <trkpt lat="49.79124" lon="5.24888">
        <ele>375</ele>
        <time>2022-08-21T12:01:31.000Z</time>
      </trkpt>
      <trkpt lat="49.79123" lon="5.24898">
        <ele>376.39999389648</ele>
        <time>2022-08-21T12:01:34.000Z</time>
      </trkpt>
      <trkpt lat="49.79123" lon="5.24902">
        <ele>377.20001220703</ele>
        <time>2022-08-21T12:01:35.000Z</time>
      </trkpt>
      <trkpt lat="49.79122" lon="5.24916">
        <ele>379.60000610352</ele>
        <time>2022-08-21T12:01:39.000Z</time>
      </trkpt>
      <trkpt lat="49.79119" lon="5.24922">
        <ele>380.60000610352</ele>
        <time>2022-08-21T12:01:41.000Z</time>
      </trkpt>
      <trkpt lat="49.79115" lon="5.24928">
        <ele>382.39999389648</ele>
        <time>2022-08-21T12:01:44.000Z</time>
      </trkpt>
      <trkpt lat="49.79109" lon="5.24935">
        <ele>383.79998779297</ele>
        <time>2022-08-21T12:01:47.000Z</time>
      </trkpt>
      <trkpt lat="49.79105" lon="5.24942">
        <ele>384.39999389648</ele>
        <time>2022-08-21T12:01:50.000Z</time>
      </trkpt>
      <trkpt lat="49.79103" lon="5.24947">
        <ele>385</ele>
        <time>2022-08-21T12:01:53.000Z</time>
      </trkpt>
      <trkpt lat="49.79102" lon="5.24949">
        <ele>385.39999389648</ele>
        <time>2022-08-21T12:01:54.000Z</time>
      </trkpt>
      <trkpt lat="49.79098" lon="5.24964">
        <ele>387.39999389648</ele>
        <time>2022-08-21T12:02:00.000Z</time>
      </trkpt>
      <trkpt lat="49.79098" lon="5.24968">
        <ele>388.20001220703</ele>
        <time>2022-08-21T12:02:02.000Z</time>
      </trkpt>
      <trkpt lat="49.79093" lon="5.24985">
        <ele>389.39999389648</ele>
        <time>2022-08-21T12:02:07.000Z</time>
      </trkpt>
      <trkpt lat="49.79089" lon="5.25001">
        <ele>390.79998779297</ele>
        <time>2022-08-21T12:02:13.000Z</time>
      </trkpt>
      <trkpt lat="49.79087" lon="5.25005">
        <ele>391.20001220703</ele>
        <time>2022-08-21T12:02:14.000Z</time>
      </trkpt>
      <trkpt lat="49.79083" lon="5.25014">
        <ele>392.20001220703</ele>
        <time>2022-08-21T12:02:17.000Z</time>
      </trkpt>
      <trkpt lat="49.79081" lon="5.25016">
        <ele>392.20001220703</ele>
        <time>2022-08-21T12:02:18.000Z</time>
      </trkpt>
      <trkpt lat="49.79078" lon="5.2502">
        <ele>392</ele>
        <time>2022-08-21T12:02:20.000Z</time>
      </trkpt>
      <trkpt lat="49.79074" lon="5.25022">
        <ele>392.20001220703</ele>
        <time>2022-08-21T12:02:22.000Z</time>
      </trkpt>
      <trkpt lat="49.79065" lon="5.25027">
        <ele>392.60000610352</ele>
        <time>2022-08-21T12:02:26.000Z</time>
      </trkpt>
      <trkpt lat="49.79062" lon="5.25028">
        <ele>393</ele>
        <time>2022-08-21T12:02:28.000Z</time>
      </trkpt>
      <trkpt lat="49.7906" lon="5.25028">
        <ele>393.39999389648</ele>
        <time>2022-08-21T12:02:29.000Z</time>
      </trkpt>
      <trkpt lat="49.79052" lon="5.2503">
        <ele>395.60000610352</ele>
        <time>2022-08-21T12:02:33.000Z</time>
      </trkpt>
      <trkpt lat="49.79048" lon="5.25029">
        <ele>396.39999389648</ele>
        <time>2022-08-21T12:02:35.000Z</time>
      </trkpt>
      <trkpt lat="49.79046" lon="5.25028">
        <ele>397</ele>
        <time>2022-08-21T12:02:37.000Z</time>
      </trkpt>
      <trkpt lat="49.79041" lon="5.25027">
        <ele>398</ele>
        <time>2022-08-21T12:02:40.000Z</time>
      </trkpt>
      <trkpt lat="49.79039" lon="5.25027">
        <ele>398.20001220703</ele>
        <time>2022-08-21T12:02:41.000Z</time>
      </trkpt>
      <trkpt lat="49.79038" lon="5.25027">
        <ele>398.39999389648</ele>
        <time>2022-08-21T12:02:42.000Z</time>
      </trkpt>
      <trkpt lat="49.79034" lon="5.25025">
        <ele>399</ele>
        <time>2022-08-21T12:02:45.000Z</time>
      </trkpt>
      <trkpt lat="49.79031" lon="5.25024">
        <ele>399.39999389648</ele>
        <time>2022-08-21T12:02:47.000Z</time>
      </trkpt>
      <trkpt lat="49.79029" lon="5.25023">
        <ele>399.79998779297</ele>
        <time>2022-08-21T12:02:48.000Z</time>
      </trkpt>
      <trkpt lat="49.79027" lon="5.25023">
        <ele>400</ele>
        <time>2022-08-21T12:02:49.000Z</time>
      </trkpt>
      <trkpt lat="49.7902" lon="5.25021">
        <ele>400.60000610352</ele>
        <time>2022-08-21T12:02:52.000Z</time>
      </trkpt>
      <trkpt lat="49.79016" lon="5.2502">
        <ele>401.20001220703</ele>
        <time>2022-08-21T12:02:54.000Z</time>
      </trkpt>
      <trkpt lat="49.7901" lon="5.25018">
        <ele>402</ele>
        <time>2022-08-21T12:02:57.000Z</time>
      </trkpt>
      <trkpt lat="49.79003" lon="5.25019">
        <ele>402.20001220703</ele>
        <time>2022-08-21T12:03:00.000Z</time>
      </trkpt>
      <trkpt lat="49.78995" lon="5.25021">
        <ele>403</ele>
        <time>2022-08-21T12:03:04.000Z</time>
      </trkpt>
      <trkpt lat="49.7899" lon="5.25023">
        <ele>403.39999389648</ele>
        <time>2022-08-21T12:03:07.000Z</time>
      </trkpt>
      <trkpt lat="49.78987" lon="5.25023">
        <ele>403.39999389648</ele>
        <time>2022-08-21T12:03:08.000Z</time>
      </trkpt>
      <trkpt lat="49.78975" lon="5.25023">
        <ele>404</ele>
        <time>2022-08-21T12:03:14.000Z</time>
      </trkpt>
      <trkpt lat="49.78973" lon="5.25024">
        <ele>404.20001220703</ele>
        <time>2022-08-21T12:03:15.000Z</time>
      </trkpt>
      <trkpt lat="49.78964" lon="5.2503">
        <ele>404.39999389648</ele>
        <time>2022-08-21T12:03:19.000Z</time>
      </trkpt>
      <trkpt lat="49.78962" lon="5.25033">
        <ele>404.39999389648</ele>
        <time>2022-08-21T12:03:20.000Z</time>
      </trkpt>
      <trkpt lat="49.7896" lon="5.25036">
        <ele>404.79998779297</ele>
        <time>2022-08-21T12:03:54.000Z</time>
      </trkpt>
      <trkpt lat="49.78959" lon="5.25039">
        <ele>405</ele>
        <time>2022-08-21T12:03:55.000Z</time>
      </trkpt>
      <trkpt lat="49.7895" lon="5.25064">
        <ele>406.60000610352</ele>
        <time>2022-08-21T12:04:02.000Z</time>
      </trkpt>
      <trkpt lat="49.78944" lon="5.25084">
        <ele>407.60000610352</ele>
        <time>2022-08-21T12:04:07.000Z</time>
      </trkpt>
      <trkpt lat="49.78942" lon="5.25092">
        <ele>408</ele>
        <time>2022-08-21T12:04:09.000Z</time>
      </trkpt>
      <trkpt lat="49.78932" lon="5.25124">
        <ele>409.39999389648</ele>
        <time>2022-08-21T12:04:17.000Z</time>
      </trkpt>
      <trkpt lat="49.78926" lon="5.25147">
        <ele>410</ele>
        <time>2022-08-21T12:04:23.000Z</time>
      </trkpt>
      <trkpt lat="49.78922" lon="5.25157">
        <ele>410.20001220703</ele>
        <time>2022-08-21T12:04:26.000Z</time>
      </trkpt>
      <trkpt lat="49.78919" lon="5.25168">
        <ele>411.20001220703</ele>
        <time>2022-08-21T12:04:29.000Z</time>
      </trkpt>
      <trkpt lat="49.78914" lon="5.25185">
        <ele>412.39999389648</ele>
        <time>2022-08-21T12:04:34.000Z</time>
      </trkpt>
      <trkpt lat="49.78913" lon="5.25188">
        <ele>412.39999389648</ele>
        <time>2022-08-21T12:04:35.000Z</time>
      </trkpt>
      <trkpt lat="49.78908" lon="5.25205">
        <ele>412.79998779297</ele>
        <time>2022-08-21T12:04:41.000Z</time>
      </trkpt>
      <trkpt lat="49.78902" lon="5.25223">
        <ele>413.79998779297</ele>
        <time>2022-08-21T12:04:47.000Z</time>
      </trkpt>
      <trkpt lat="49.789" lon="5.25229">
        <ele>413.79998779297</ele>
        <time>2022-08-21T12:04:49.000Z</time>
      </trkpt>
      <trkpt lat="49.78896" lon="5.25242">
        <ele>414</ele>
        <time>2022-08-21T12:04:53.000Z</time>
      </trkpt>
      <trkpt lat="49.7889" lon="5.25262">
        <ele>412.60000610352</ele>
        <time>2022-08-21T12:04:59.000Z</time>
      </trkpt>
      <trkpt lat="49.78885" lon="5.25275">
        <ele>411.79998779297</ele>
        <time>2022-08-21T12:05:03.000Z</time>
      </trkpt>
      <trkpt lat="49.78879" lon="5.2529">
        <ele>411</ele>
        <time>2022-08-21T12:05:07.000Z</time>
      </trkpt>
      <trkpt lat="49.78875" lon="5.25296">
        <ele>410.39999389648</ele>
        <time>2022-08-21T12:05:09.000Z</time>
      </trkpt>
      <trkpt lat="49.78869" lon="5.25305">
        <ele>409.79998779297</ele>
        <time>2022-08-21T12:05:12.000Z</time>
      </trkpt>
      <trkpt lat="49.78868" lon="5.25308">
        <ele>409.60000610352</ele>
        <time>2022-08-21T12:05:13.000Z</time>
      </trkpt>
      <trkpt lat="49.78862" lon="5.25323">
        <ele>408.79998779297</ele>
        <time>2022-08-21T12:05:18.000Z</time>
      </trkpt>
      <trkpt lat="49.78857" lon="5.25334">
        <ele>407.60000610352</ele>
        <time>2022-08-21T12:05:22.000Z</time>
      </trkpt>
      <trkpt lat="49.78851" lon="5.25345">
        <ele>407</ele>
        <time>2022-08-21T12:05:26.000Z</time>
      </trkpt>
      <trkpt lat="49.78843" lon="5.25356">
        <ele>407</ele>
        <time>2022-08-21T12:05:30.000Z</time>
      </trkpt>
      <trkpt lat="49.78835" lon="5.25364">
        <ele>406.79998779297</ele>
        <time>2022-08-21T12:05:35.000Z</time>
      </trkpt>
      <trkpt lat="49.78821" lon="5.25383">
        <ele>407</ele>
        <time>2022-08-21T12:05:41.000Z</time>
      </trkpt>
      <trkpt lat="49.788" lon="5.25414">
        <ele>406.60000610352</ele>
        <time>2022-08-21T12:05:47.000Z</time>
      </trkpt>
      <trkpt lat="49.78796" lon="5.2542">
        <ele>406.20001220703</ele>
        <time>2022-08-21T12:05:48.000Z</time>
      </trkpt>
      <trkpt lat="49.78783" lon="5.25437">
        <ele>405.20001220703</ele>
        <time>2022-08-21T12:05:51.000Z</time>
      </trkpt>
      <trkpt lat="49.78778" lon="5.25443">
        <ele>404.79998779297</ele>
        <time>2022-08-21T12:05:52.000Z</time>
      </trkpt>
      <trkpt lat="49.78773" lon="5.25449">
        <ele>404.20001220703</ele>
        <time>2022-08-21T12:05:53.000Z</time>
      </trkpt>
      <trkpt lat="49.78767" lon="5.25457">
        <ele>402.79998779297</ele>
        <time>2022-08-21T12:05:54.000Z</time>
      </trkpt>
      <trkpt lat="49.78759" lon="5.25468">
        <ele>400.60000610352</ele>
        <time>2022-08-21T12:05:55.000Z</time>
      </trkpt>
      <trkpt lat="49.78752" lon="5.25478">
        <ele>399</ele>
        <time>2022-08-21T12:05:56.000Z</time>
      </trkpt>
      <trkpt lat="49.78745" lon="5.25488">
        <ele>396.79998779297</ele>
        <time>2022-08-21T12:05:57.000Z</time>
      </trkpt>
      <trkpt lat="49.78739" lon="5.25496">
        <ele>394.79998779297</ele>
        <time>2022-08-21T12:05:58.000Z</time>
      </trkpt>
      <trkpt lat="49.78734" lon="5.25504">
        <ele>392.79998779297</ele>
        <time>2022-08-21T12:05:59.000Z</time>
      </trkpt>
      <trkpt lat="49.78725" lon="5.25517">
        <ele>389.79998779297</ele>
        <time>2022-08-21T12:06:01.000Z</time>
      </trkpt>
      <trkpt lat="49.78721" lon="5.25523">
        <ele>388</ele>
        <time>2022-08-21T12:06:02.000Z</time>
      </trkpt>
      <trkpt lat="49.78718" lon="5.25531">
        <ele>386.39999389648</ele>
        <time>2022-08-21T12:06:03.000Z</time>
      </trkpt>
      <trkpt lat="49.78721" lon="5.25545">
        <ele>383.79998779297</ele>
        <time>2022-08-21T12:06:05.000Z</time>
      </trkpt>
      <trkpt lat="49.78726" lon="5.2556">
        <ele>382.20001220703</ele>
        <time>2022-08-21T12:06:07.000Z</time>
      </trkpt>
      <trkpt lat="49.78728" lon="5.25569">
        <ele>381.60000610352</ele>
        <time>2022-08-21T12:06:08.000Z</time>
      </trkpt>
      <trkpt lat="49.78731" lon="5.25577">
        <ele>381</ele>
        <time>2022-08-21T12:06:09.000Z</time>
      </trkpt>
      <trkpt lat="49.78736" lon="5.25595">
        <ele>380.60000610352</ele>
        <time>2022-08-21T12:06:11.000Z</time>
      </trkpt>
      <trkpt lat="49.78738" lon="5.25607">
        <ele>380</ele>
        <time>2022-08-21T12:06:12.000Z</time>
      </trkpt>
      <trkpt lat="49.7874" lon="5.25619">
        <ele>379.20001220703</ele>
        <time>2022-08-21T12:06:13.000Z</time>
      </trkpt>
      <trkpt lat="49.78743" lon="5.2563">
        <ele>378.39999389648</ele>
        <time>2022-08-21T12:06:14.000Z</time>
      </trkpt>
      <trkpt lat="49.78744" lon="5.25643">
        <ele>377.79998779297</ele>
        <time>2022-08-21T12:06:15.000Z</time>
      </trkpt>
      <trkpt lat="49.78747" lon="5.25669">
        <ele>376</ele>
        <time>2022-08-21T12:06:17.000Z</time>
      </trkpt>
      <trkpt lat="49.7875" lon="5.25694">
        <ele>375.60000610352</ele>
        <time>2022-08-21T12:06:19.000Z</time>
      </trkpt>
      <trkpt lat="49.78751" lon="5.25705">
        <ele>375.79998779297</ele>
        <time>2022-08-21T12:06:20.000Z</time>
      </trkpt>
      <trkpt lat="49.78757" lon="5.25749">
        <ele>377.79998779297</ele>
        <time>2022-08-21T12:06:24.000Z</time>
      </trkpt>
      <trkpt lat="49.78759" lon="5.2577">
        <ele>379.20001220703</ele>
        <time>2022-08-21T12:06:26.000Z</time>
      </trkpt>
      <trkpt lat="49.78766" lon="5.2581">
        <ele>383.60000610352</ele>
        <time>2022-08-21T12:06:31.000Z</time>
      </trkpt>
      <trkpt lat="49.78771" lon="5.25839">
        <ele>386.39999389648</ele>
        <time>2022-08-21T12:06:36.000Z</time>
      </trkpt>
      <trkpt lat="49.78778" lon="5.25873">
        <ele>387.20001220703</ele>
        <time>2022-08-21T12:06:42.000Z</time>
      </trkpt>
      <trkpt lat="49.78787" lon="5.25905">
        <ele>387.39999389648</ele>
        <time>2022-08-21T12:06:47.000Z</time>
      </trkpt>
      <trkpt lat="49.78806" lon="5.25921">
        <ele>388.20001220703</ele>
        <time>2022-08-21T12:06:51.000Z</time>
      </trkpt>
      <trkpt lat="49.78812" lon="5.25925">
        <ele>388.60000610352</ele>
        <time>2022-08-21T12:06:52.000Z</time>
      </trkpt>
      <trkpt lat="49.78823" lon="5.25933">
        <ele>388.39999389648</ele>
        <time>2022-08-21T12:06:54.000Z</time>
      </trkpt>
      <trkpt lat="49.78834" lon="5.25943">
        <ele>387.39999389648</ele>
        <time>2022-08-21T12:06:56.000Z</time>
      </trkpt>
      <trkpt lat="49.78839" lon="5.25947">
        <ele>386.60000610352</ele>
        <time>2022-08-21T12:06:57.000Z</time>
      </trkpt>
      <trkpt lat="49.78853" lon="5.25962">
        <ele>384.60000610352</ele>
        <time>2022-08-21T12:07:01.000Z</time>
      </trkpt>
      <trkpt lat="49.78877" lon="5.25989">
        <ele>381.79998779297</ele>
        <time>2022-08-21T12:07:08.000Z</time>
      </trkpt>
      <trkpt lat="49.78884" lon="5.25995">
        <ele>381</ele>
        <time>2022-08-21T12:07:10.000Z</time>
      </trkpt>
      <trkpt lat="49.78892" lon="5.26002">
        <ele>380.39999389648</ele>
        <time>2022-08-21T12:07:13.000Z</time>
      </trkpt>
      <trkpt lat="49.78897" lon="5.26005">
        <ele>380.39999389648</ele>
        <time>2022-08-21T12:07:15.000Z</time>
      </trkpt>
      <trkpt lat="49.78907" lon="5.26009">
        <ele>381.79998779297</ele>
        <time>2022-08-21T12:07:19.000Z</time>
      </trkpt>
      <trkpt lat="49.78909" lon="5.2601">
        <ele>382.39999389648</ele>
        <time>2022-08-21T12:07:20.000Z</time>
      </trkpt>
      <trkpt lat="49.78914" lon="5.26012">
        <ele>383</ele>
        <time>2022-08-21T12:07:22.000Z</time>
      </trkpt>
      <trkpt lat="49.78922" lon="5.26015">
        <ele>384</ele>
        <time>2022-08-21T12:07:25.000Z</time>
      </trkpt>
      <trkpt lat="49.78929" lon="5.26018">
        <ele>384.79998779297</ele>
        <time>2022-08-21T12:07:28.000Z</time>
      </trkpt>
      <trkpt lat="49.78932" lon="5.26019">
        <ele>385</ele>
        <time>2022-08-21T12:07:29.000Z</time>
      </trkpt>
      <trkpt lat="49.78939" lon="5.2602">
        <ele>386</ele>
        <time>2022-08-21T12:07:32.000Z</time>
      </trkpt>
      <trkpt lat="49.78944" lon="5.26025">
        <ele>385.79998779297</ele>
        <time>2022-08-21T12:07:35.000Z</time>
      </trkpt>
      <trkpt lat="49.78945" lon="5.26027">
        <ele>385.39999389648</ele>
        <time>2022-08-21T12:07:36.000Z</time>
      </trkpt>
      <trkpt lat="49.78946" lon="5.26042">
        <ele>383.20001220703</ele>
        <time>2022-08-21T12:07:39.000Z</time>
      </trkpt>
      <trkpt lat="49.78949" lon="5.26052">
        <ele>381.60000610352</ele>
        <time>2022-08-21T12:07:41.000Z</time>
      </trkpt>
      <trkpt lat="49.78952" lon="5.26065">
        <ele>381.20001220703</ele>
        <time>2022-08-21T12:07:44.000Z</time>
      </trkpt>
      <trkpt lat="49.78954" lon="5.26076">
        <ele>380.20001220703</ele>
        <time>2022-08-21T12:07:46.000Z</time>
      </trkpt>
      <trkpt lat="49.78959" lon="5.26093">
        <ele>378.79998779297</ele>
        <time>2022-08-21T12:07:49.000Z</time>
      </trkpt>
      <trkpt lat="49.7896" lon="5.26099">
        <ele>378.39999389648</ele>
        <time>2022-08-21T12:07:50.000Z</time>
      </trkpt>
      <trkpt lat="49.78964" lon="5.26109">
        <ele>377.79998779297</ele>
        <time>2022-08-21T12:07:52.000Z</time>
      </trkpt>
      <trkpt lat="49.78963" lon="5.26122">
        <ele>377.39999389648</ele>
        <time>2022-08-21T12:07:54.000Z</time>
      </trkpt>
      <trkpt lat="49.78963" lon="5.26133">
        <ele>377.39999389648</ele>
        <time>2022-08-21T12:07:56.000Z</time>
      </trkpt>
      <trkpt lat="49.78962" lon="5.26139">
        <ele>376.79998779297</ele>
        <time>2022-08-21T12:07:58.000Z</time>
      </trkpt>
      <trkpt lat="49.78962" lon="5.26142">
        <ele>376.60000610352</ele>
        <time>2022-08-21T12:07:59.000Z</time>
      </trkpt>
      <trkpt lat="49.7896" lon="5.26148">
        <ele>376.79998779297</ele>
        <time>2022-08-21T12:08:01.000Z</time>
      </trkpt>
      <trkpt lat="49.78961" lon="5.26151">
        <ele>376.79998779297</ele>
        <time>2022-08-21T12:08:02.000Z</time>
      </trkpt>
      <trkpt lat="49.78962" lon="5.26159">
        <ele>376.60000610352</ele>
        <time>2022-08-21T12:08:04.000Z</time>
      </trkpt>
      <trkpt lat="49.78962" lon="5.26172">
        <ele>375.79998779297</ele>
        <time>2022-08-21T12:08:07.000Z</time>
      </trkpt>
      <trkpt lat="49.7896" lon="5.26183">
        <ele>374.60000610352</ele>
        <time>2022-08-21T12:08:09.000Z</time>
      </trkpt>
      <trkpt lat="49.78959" lon="5.26196">
        <ele>373</ele>
        <time>2022-08-21T12:08:11.000Z</time>
      </trkpt>
      <trkpt lat="49.7896" lon="5.26212">
        <ele>371</ele>
        <time>2022-08-21T12:08:14.000Z</time>
      </trkpt>
      <trkpt lat="49.78959" lon="5.26218">
        <ele>370.39999389648</ele>
        <time>2022-08-21T12:08:16.000Z</time>
      </trkpt>
      <trkpt lat="49.78958" lon="5.2622">
        <ele>370</ele>
        <time>2022-08-21T12:08:37.000Z</time>
      </trkpt>
      <trkpt lat="49.78952" lon="5.2623">
        <ele>368.79998779297</ele>
        <time>2022-08-21T12:08:39.000Z</time>
      </trkpt>
      <trkpt lat="49.78948" lon="5.26238">
        <ele>366.79998779297</ele>
        <time>2022-08-21T12:08:41.000Z</time>
      </trkpt>
      <trkpt lat="49.78943" lon="5.26242">
        <ele>365.20001220703</ele>
        <time>2022-08-21T12:08:43.000Z</time>
      </trkpt>
      <trkpt lat="49.78937" lon="5.26238">
        <ele>364.39999389648</ele>
        <time>2022-08-21T12:08:45.000Z</time>
      </trkpt>
      <trkpt lat="49.78932" lon="5.26234">
        <ele>364</ele>
        <time>2022-08-21T12:08:47.000Z</time>
      </trkpt>
      <trkpt lat="49.78929" lon="5.26227">
        <ele>364.20001220703</ele>
        <time>2022-08-21T12:08:49.000Z</time>
      </trkpt>
      <trkpt lat="49.78927" lon="5.26223">
        <ele>364.39999389648</ele>
        <time>2022-08-21T12:08:50.000Z</time>
      </trkpt>
      <trkpt lat="49.78922" lon="5.26212">
        <ele>364.79998779297</ele>
        <time>2022-08-21T12:08:53.000Z</time>
      </trkpt>
      <trkpt lat="49.78912" lon="5.26189">
        <ele>365.60000610352</ele>
        <time>2022-08-21T12:08:59.000Z</time>
      </trkpt>
      <trkpt lat="49.78906" lon="5.26173">
        <ele>367</ele>
        <time>2022-08-21T12:09:02.000Z</time>
      </trkpt>
      <trkpt lat="49.78899" lon="5.26158">
        <ele>367.79998779297</ele>
        <time>2022-08-21T12:09:05.000Z</time>
      </trkpt>
      <trkpt lat="49.78895" lon="5.26153">
        <ele>367.20001220703</ele>
        <time>2022-08-21T12:09:06.000Z</time>
      </trkpt>
      <trkpt lat="49.78886" lon="5.26137">
        <ele>365.39999389648</ele>
        <time>2022-08-21T12:09:09.000Z</time>
      </trkpt>
      <trkpt lat="49.78884" lon="5.26132">
        <ele>365</ele>
        <time>2022-08-21T12:09:10.000Z</time>
      </trkpt>
      <trkpt lat="49.78882" lon="5.26126">
        <ele>365</ele>
        <time>2022-08-21T12:09:12.000Z</time>
      </trkpt>
      <trkpt lat="49.78879" lon="5.26123">
        <ele>364.20001220703</ele>
        <time>2022-08-21T12:09:13.000Z</time>
      </trkpt>
      <trkpt lat="49.78876" lon="5.26122">
        <ele>363.20001220703</ele>
        <time>2022-08-21T12:09:14.000Z</time>
      </trkpt>
      <trkpt lat="49.78874" lon="5.26121">
        <ele>362.39999389648</ele>
        <time>2022-08-21T12:09:15.000Z</time>
      </trkpt>
      <trkpt lat="49.78871" lon="5.26122">
        <ele>361.20001220703</ele>
        <time>2022-08-21T12:09:17.000Z</time>
      </trkpt>
      <trkpt lat="49.7887" lon="5.26123">
        <ele>360.60000610352</ele>
        <time>2022-08-21T12:09:18.000Z</time>
      </trkpt>
      <trkpt lat="49.78869" lon="5.26127">
        <ele>359.79998779297</ele>
        <time>2022-08-21T12:09:20.000Z</time>
      </trkpt>
      <trkpt lat="49.78868" lon="5.26133">
        <ele>358.60000610352</ele>
        <time>2022-08-21T12:09:23.000Z</time>
      </trkpt>
      <trkpt lat="49.78869" lon="5.26134">
        <ele>358.60000610352</ele>
        <time>2022-08-21T12:09:24.000Z</time>
      </trkpt>
      <trkpt lat="49.7887" lon="5.26142">
        <ele>357.79998779297</ele>
        <time>2022-08-21T12:09:27.000Z</time>
      </trkpt>
      <trkpt lat="49.78871" lon="5.26148">
        <ele>357</ele>
        <time>2022-08-21T12:09:30.000Z</time>
      </trkpt>
      <trkpt lat="49.78871" lon="5.26159">
        <ele>355.20001220703</ele>
        <time>2022-08-21T12:09:44.000Z</time>
      </trkpt>
      <trkpt lat="49.78871" lon="5.26163">
        <ele>354.39999389648</ele>
        <time>2022-08-21T12:09:45.000Z</time>
      </trkpt>
      <trkpt lat="49.7887" lon="5.2617">
        <ele>352.60000610352</ele>
        <time>2022-08-21T12:09:47.000Z</time>
      </trkpt>
      <trkpt lat="49.78871" lon="5.26183">
        <ele>350.79998779297</ele>
        <time>2022-08-21T12:09:50.000Z</time>
      </trkpt>
      <trkpt lat="49.78873" lon="5.26189">
        <ele>350.60000610352</ele>
        <time>2022-08-21T12:09:51.000Z</time>
      </trkpt>
      <trkpt lat="49.78877" lon="5.26202">
        <ele>349.20001220703</ele>
        <time>2022-08-21T12:09:54.000Z</time>
      </trkpt>
      <trkpt lat="49.78878" lon="5.26207">
        <ele>348.60000610352</ele>
        <time>2022-08-21T12:09:55.000Z</time>
      </trkpt>
      <trkpt lat="49.78882" lon="5.26223">
        <ele>347.60000610352</ele>
        <time>2022-08-21T12:09:58.000Z</time>
      </trkpt>
      <trkpt lat="49.78885" lon="5.26233">
        <ele>347.39999389648</ele>
        <time>2022-08-21T12:10:00.000Z</time>
      </trkpt>
      <trkpt lat="49.78887" lon="5.26242">
        <ele>346.79998779297</ele>
        <time>2022-08-21T12:10:02.000Z</time>
      </trkpt>
      <trkpt lat="49.7889" lon="5.26264">
        <ele>344</ele>
        <time>2022-08-21T12:10:06.000Z</time>
      </trkpt>
      <trkpt lat="49.78892" lon="5.26285">
        <ele>341.20001220703</ele>
        <time>2022-08-21T12:10:09.000Z</time>
      </trkpt>
      <trkpt lat="49.78891" lon="5.263">
        <ele>338.39999389648</ele>
        <time>2022-08-21T12:10:11.000Z</time>
      </trkpt>
      <trkpt lat="49.78891" lon="5.26314">
        <ele>336</ele>
        <time>2022-08-21T12:10:13.000Z</time>
      </trkpt>
      <trkpt lat="49.7889" lon="5.26329">
        <ele>333.20001220703</ele>
        <time>2022-08-21T12:10:15.000Z</time>
      </trkpt>
      <trkpt lat="49.7889" lon="5.26343">
        <ele>330.39999389648</ele>
        <time>2022-08-21T12:10:17.000Z</time>
      </trkpt>
      <trkpt lat="49.7889" lon="5.26358">
        <ele>328.60000610352</ele>
        <time>2022-08-21T12:10:19.000Z</time>
      </trkpt>
      <trkpt lat="49.7889" lon="5.2637">
        <ele>327.20001220703</ele>
        <time>2022-08-21T12:10:21.000Z</time>
      </trkpt>
      <trkpt lat="49.7889" lon="5.26377">
        <ele>326.60000610352</ele>
        <time>2022-08-21T12:10:23.000Z</time>
      </trkpt>
      <trkpt lat="49.78886" lon="5.26379">
        <ele>325.20001220703</ele>
        <time>2022-08-21T12:10:30.000Z</time>
      </trkpt>
      <trkpt lat="49.78885" lon="5.26377">
        <ele>325</ele>
        <time>2022-08-21T12:10:31.000Z</time>
      </trkpt>
      <trkpt lat="49.78883" lon="5.26381">
        <ele>324.20001220703</ele>
        <time>2022-08-21T12:11:06.000Z</time>
      </trkpt>
      <trkpt lat="49.78883" lon="5.26386">
        <ele>323.60000610352</ele>
        <time>2022-08-21T12:11:07.000Z</time>
      </trkpt>
      <trkpt lat="49.78884" lon="5.26399">
        <ele>322.60000610352</ele>
        <time>2022-08-21T12:11:10.000Z</time>
      </trkpt>
      <trkpt lat="49.78884" lon="5.26406">
        <ele>322.20001220703</ele>
        <time>2022-08-21T12:11:12.000Z</time>
      </trkpt>
      <trkpt lat="49.78884" lon="5.26409">
        <ele>322.20001220703</ele>
        <time>2022-08-21T12:11:13.000Z</time>
      </trkpt>
      <trkpt lat="49.78884" lon="5.26412">
        <ele>322.20001220703</ele>
        <time>2022-08-21T12:11:14.000Z</time>
      </trkpt>
      <trkpt lat="49.7888" lon="5.26429">
        <ele>320</ele>
        <time>2022-08-21T12:11:48.000Z</time>
      </trkpt>
      <trkpt lat="49.78881" lon="5.26433">
        <ele>319.79998779297</ele>
        <time>2022-08-21T12:11:49.000Z</time>
      </trkpt>
      <trkpt lat="49.78879" lon="5.26438">
        <ele>319.39999389648</ele>
        <time>2022-08-21T12:11:51.000Z</time>
      </trkpt>
      <trkpt lat="49.78878" lon="5.2646">
        <ele>318.39999389648</ele>
        <time>2022-08-21T12:12:55.000Z</time>
      </trkpt>
      <trkpt lat="49.78878" lon="5.26461">
        <ele>318.39999389648</ele>
        <time>2022-08-21T12:12:56.000Z</time>
      </trkpt>
      <trkpt lat="49.78876" lon="5.26463">
        <ele>317.60000610352</ele>
        <time>2022-08-21T12:14:51.000Z</time>
      </trkpt>
      <trkpt lat="49.78875" lon="5.26462">
        <ele>317.39999389648</ele>
        <time>2022-08-21T12:14:52.000Z</time>
      </trkpt>
      <trkpt lat="49.78866" lon="5.26459">
        <ele>316</ele>
        <time>2022-08-21T12:14:57.000Z</time>
      </trkpt>
      <trkpt lat="49.78865" lon="5.26458">
        <ele>315.79998779297</ele>
        <time>2022-08-21T12:14:58.000Z</time>
      </trkpt>
      <trkpt lat="49.78863" lon="5.26448">
        <ele>316.20001220703</ele>
        <time>2022-08-21T12:15:01.000Z</time>
      </trkpt>
      <trkpt lat="49.78861" lon="5.26423">
        <ele>316.79998779297</ele>
        <time>2022-08-21T12:15:07.000Z</time>
      </trkpt>
      <trkpt lat="49.78856" lon="5.26394">
        <ele>316.20001220703</ele>
        <time>2022-08-21T12:15:14.000Z</time>
      </trkpt>
      <trkpt lat="49.7885" lon="5.26352">
        <ele>317.79998779297</ele>
        <time>2022-08-21T12:15:23.000Z</time>
      </trkpt>
      <trkpt lat="49.78846" lon="5.26321">
        <ele>318.79998779297</ele>
        <time>2022-08-21T12:15:29.000Z</time>
      </trkpt>
      <trkpt lat="49.78839" lon="5.2629">
        <ele>319.39999389648</ele>
        <time>2022-08-21T12:15:35.000Z</time>
      </trkpt>
      <trkpt lat="49.78828" lon="5.26261">
        <ele>319.60000610352</ele>
        <time>2022-08-21T12:15:41.000Z</time>
      </trkpt>
      <trkpt lat="49.78818" lon="5.26234">
        <ele>319</ele>
        <time>2022-08-21T12:15:47.000Z</time>
      </trkpt>
      <trkpt lat="49.78814" lon="5.26225">
        <ele>318.79998779297</ele>
        <time>2022-08-21T12:15:49.000Z</time>
      </trkpt>
      <trkpt lat="49.78808" lon="5.26209">
        <ele>320</ele>
        <time>2022-08-21T12:15:53.000Z</time>
      </trkpt>
      <trkpt lat="49.78794" lon="5.26185">
        <ele>320.79998779297</ele>
        <time>2022-08-21T12:15:59.000Z</time>
      </trkpt>
      <trkpt lat="49.78786" lon="5.2618">
        <ele>319.60000610352</ele>
        <time>2022-08-21T12:16:01.000Z</time>
      </trkpt>
      <trkpt lat="49.78771" lon="5.26171">
        <ele>320</ele>
        <time>2022-08-21T12:16:05.000Z</time>
      </trkpt>
      <trkpt lat="49.78744" lon="5.2616">
        <ele>322.20001220703</ele>
        <time>2022-08-21T12:16:11.000Z</time>
      </trkpt>
      <trkpt lat="49.78717" lon="5.26158">
        <ele>325.60000610352</ele>
        <time>2022-08-21T12:16:18.000Z</time>
      </trkpt>
      <trkpt lat="49.78708" lon="5.2616">
        <ele>326.20001220703</ele>
        <time>2022-08-21T12:16:20.000Z</time>
      </trkpt>
      <trkpt lat="49.787" lon="5.26162">
        <ele>326.39999389648</ele>
        <time>2022-08-21T12:16:22.000Z</time>
      </trkpt>
      <trkpt lat="49.78677" lon="5.26167">
        <ele>325.20001220703</ele>
        <time>2022-08-21T12:16:28.000Z</time>
      </trkpt>
      <trkpt lat="49.78673" lon="5.26166">
        <ele>325.20001220703</ele>
        <time>2022-08-21T12:16:29.000Z</time>
      </trkpt>
      <trkpt lat="49.78658" lon="5.26164">
        <ele>323.60000610352</ele>
        <time>2022-08-21T12:16:32.000Z</time>
      </trkpt>
      <trkpt lat="49.78653" lon="5.26164">
        <ele>323</ele>
        <time>2022-08-21T12:16:33.000Z</time>
      </trkpt>
      <trkpt lat="49.78624" lon="5.26158">
        <ele>320.20001220703</ele>
        <time>2022-08-21T12:16:39.000Z</time>
      </trkpt>
      <trkpt lat="49.78604" lon="5.26152">
        <ele>319.60000610352</ele>
        <time>2022-08-21T12:16:43.000Z</time>
      </trkpt>
      <trkpt lat="49.78591" lon="5.26147">
        <ele>319.60000610352</ele>
        <time>2022-08-21T12:16:46.000Z</time>
      </trkpt>
      <trkpt lat="49.78568" lon="5.26139">
        <ele>317.20001220703</ele>
        <time>2022-08-21T12:16:51.000Z</time>
      </trkpt>
      <trkpt lat="49.78559" lon="5.26136">
        <ele>316</ele>
        <time>2022-08-21T12:16:53.000Z</time>
      </trkpt>
      <trkpt lat="49.78554" lon="5.26134">
        <ele>315.20001220703</ele>
        <time>2022-08-21T12:16:54.000Z</time>
      </trkpt>
      <trkpt lat="49.78539" lon="5.26124">
        <ele>313.79998779297</ele>
        <time>2022-08-21T12:16:58.000Z</time>
      </trkpt>
      <trkpt lat="49.78529" lon="5.26103">
        <ele>315</ele>
        <time>2022-08-21T12:17:02.000Z</time>
      </trkpt>
      <trkpt lat="49.78528" lon="5.26095">
        <ele>315.79998779297</ele>
        <time>2022-08-21T12:17:03.000Z</time>
      </trkpt>
      <trkpt lat="49.78527" lon="5.26081">
        <ele>317</ele>
        <time>2022-08-21T12:17:05.000Z</time>
      </trkpt>
      <trkpt lat="49.78528" lon="5.26068">
        <ele>318.60000610352</ele>
        <time>2022-08-21T12:17:07.000Z</time>
      </trkpt>
      <trkpt lat="49.78527" lon="5.2606">
        <ele>319.60000610352</ele>
        <time>2022-08-21T12:17:08.000Z</time>
      </trkpt>
      <trkpt lat="49.78522" lon="5.26052">
        <ele>319</ele>
        <time>2022-08-21T12:17:10.000Z</time>
      </trkpt>
      <trkpt lat="49.78505" lon="5.26048">
        <ele>314.39999389648</ele>
        <time>2022-08-21T12:17:14.000Z</time>
      </trkpt>
      <trkpt lat="49.78499" lon="5.26047">
        <ele>313.20001220703</ele>
        <time>2022-08-21T12:17:15.000Z</time>
      </trkpt>
      <trkpt lat="49.78494" lon="5.26047">
        <ele>312</ele>
        <time>2022-08-21T12:17:16.000Z</time>
      </trkpt>
      <trkpt lat="49.78477" lon="5.26045">
        <ele>308.60000610352</ele>
        <time>2022-08-21T12:17:19.000Z</time>
      </trkpt>
      <trkpt lat="49.78466" lon="5.2604">
        <ele>307.79998779297</ele>
        <time>2022-08-21T12:17:21.000Z</time>
      </trkpt>
      <trkpt lat="49.78449" lon="5.2603">
        <ele>307.79998779297</ele>
        <time>2022-08-21T12:17:24.000Z</time>
      </trkpt>
      <trkpt lat="49.7843" lon="5.26017">
        <ele>308.79998779297</ele>
        <time>2022-08-21T12:17:27.000Z</time>
      </trkpt>
      <trkpt lat="49.78408" lon="5.26008">
        <ele>310.79998779297</ele>
        <time>2022-08-21T12:17:30.000Z</time>
      </trkpt>
      <trkpt lat="49.78392" lon="5.26003">
        <ele>312.20001220703</ele>
        <time>2022-08-21T12:17:32.000Z</time>
      </trkpt>
      <trkpt lat="49.78375" lon="5.25998">
        <ele>314.20001220703</ele>
        <time>2022-08-21T12:17:34.000Z</time>
      </trkpt>
      <trkpt lat="49.78357" lon="5.25995">
        <ele>315.60000610352</ele>
        <time>2022-08-21T12:17:36.000Z</time>
      </trkpt>
      <trkpt lat="49.7834" lon="5.2599">
        <ele>315.79998779297</ele>
        <time>2022-08-21T12:17:38.000Z</time>
      </trkpt>
      <trkpt lat="49.78322" lon="5.25984">
        <ele>311</ele>
        <time>2022-08-21T12:17:40.000Z</time>
      </trkpt>
      <trkpt lat="49.78313" lon="5.2598">
        <ele>308.79998779297</ele>
        <time>2022-08-21T12:17:41.000Z</time>
      </trkpt>
      <trkpt lat="49.78304" lon="5.25975">
        <ele>307.39999389648</ele>
        <time>2022-08-21T12:17:42.000Z</time>
      </trkpt>
      <trkpt lat="49.78288" lon="5.25966">
        <ele>304.39999389648</ele>
        <time>2022-08-21T12:17:44.000Z</time>
      </trkpt>
      <trkpt lat="49.78272" lon="5.25958">
        <ele>303.60000610352</ele>
        <time>2022-08-21T12:17:46.000Z</time>
      </trkpt>
      <trkpt lat="49.78265" lon="5.25954">
        <ele>303.39999389648</ele>
        <time>2022-08-21T12:17:47.000Z</time>
      </trkpt>
      <trkpt lat="49.78242" lon="5.25936">
        <ele>305.39999389648</ele>
        <time>2022-08-21T12:17:51.000Z</time>
      </trkpt>
      <trkpt lat="49.78227" lon="5.25921">
        <ele>308.39999389648</ele>
        <time>2022-08-21T12:17:55.000Z</time>
      </trkpt>
      <trkpt lat="49.7822" lon="5.25912">
        <ele>309.60000610352</ele>
        <time>2022-08-21T12:17:57.000Z</time>
      </trkpt>
      <trkpt lat="49.78208" lon="5.25894">
        <ele>311.79998779297</ele>
        <time>2022-08-21T12:18:01.000Z</time>
      </trkpt>
      <trkpt lat="49.78202" lon="5.25889">
        <ele>312.20001220703</ele>
        <time>2022-08-21T12:18:04.000Z</time>
      </trkpt>
      <trkpt lat="49.78201" lon="5.2589">
        <ele>312.20001220703</ele>
        <time>2022-08-21T12:18:05.000Z</time>
      </trkpt>
      <trkpt lat="49.78198" lon="5.25892">
        <ele>312</ele>
        <time>2022-08-21T12:18:15.000Z</time>
      </trkpt>
      <trkpt lat="49.78198" lon="5.25895">
        <ele>311.60000610352</ele>
        <time>2022-08-21T12:18:16.000Z</time>
      </trkpt>
      <trkpt lat="49.78195" lon="5.25914">
        <ele>309.60000610352</ele>
        <time>2022-08-21T12:18:20.000Z</time>
      </trkpt>
      <trkpt lat="49.78192" lon="5.25934">
        <ele>307.39999389648</ele>
        <time>2022-08-21T12:18:23.000Z</time>
      </trkpt>
      <trkpt lat="49.78189" lon="5.25957">
        <ele>304.20001220703</ele>
        <time>2022-08-21T12:18:26.000Z</time>
      </trkpt>
      <trkpt lat="49.78188" lon="5.25964">
        <ele>303.20001220703</ele>
        <time>2022-08-21T12:18:27.000Z</time>
      </trkpt>
      <trkpt lat="49.78185" lon="5.25986">
        <ele>300</ele>
        <time>2022-08-21T12:18:30.000Z</time>
      </trkpt>
      <trkpt lat="49.78182" lon="5.26006">
        <ele>298.20001220703</ele>
        <time>2022-08-21T12:18:33.000Z</time>
      </trkpt>
      <trkpt lat="49.78181" lon="5.26042">
        <ele>296.79998779297</ele>
        <time>2022-08-21T12:18:39.000Z</time>
      </trkpt>
      <trkpt lat="49.78182" lon="5.26052">
        <ele>297</ele>
        <time>2022-08-21T12:18:41.000Z</time>
      </trkpt>
      <trkpt lat="49.78184" lon="5.26069">
        <ele>299.20001220703</ele>
        <time>2022-08-21T12:18:45.000Z</time>
      </trkpt>
      <trkpt lat="49.78184" lon="5.26073">
        <ele>299.60000610352</ele>
        <time>2022-08-21T12:18:46.000Z</time>
      </trkpt>
      <trkpt lat="49.78184" lon="5.26087">
        <ele>301.79998779297</ele>
        <time>2022-08-21T12:18:50.000Z</time>
      </trkpt>
      <trkpt lat="49.78183" lon="5.2609">
        <ele>302.20001220703</ele>
        <time>2022-08-21T12:18:51.000Z</time>
      </trkpt>
      <trkpt lat="49.78182" lon="5.26104">
        <ele>304</ele>
        <time>2022-08-21T12:18:54.000Z</time>
      </trkpt>
      <trkpt lat="49.7818" lon="5.26123">
        <ele>307.20001220703</ele>
        <time>2022-08-21T12:18:58.000Z</time>
      </trkpt>
      <trkpt lat="49.78179" lon="5.26128">
        <ele>307.79998779297</ele>
        <time>2022-08-21T12:18:59.000Z</time>
      </trkpt>
      <trkpt lat="49.78175" lon="5.26156">
        <ele>309.79998779297</ele>
        <time>2022-08-21T12:19:05.000Z</time>
      </trkpt>
      <trkpt lat="49.78174" lon="5.26161">
        <ele>310</ele>
        <time>2022-08-21T12:19:06.000Z</time>
      </trkpt>
      <trkpt lat="49.78172" lon="5.26177">
        <ele>310.39999389648</ele>
        <time>2022-08-21T12:19:10.000Z</time>
      </trkpt>
      <trkpt lat="49.7817" lon="5.26191">
        <ele>311</ele>
        <time>2022-08-21T12:19:13.000Z</time>
      </trkpt>
      <trkpt lat="49.78169" lon="5.262">
        <ele>311.39999389648</ele>
        <time>2022-08-21T12:19:15.000Z</time>
      </trkpt>
      <trkpt lat="49.78167" lon="5.26215">
        <ele>311.79998779297</ele>
        <time>2022-08-21T12:19:18.000Z</time>
      </trkpt>
      <trkpt lat="49.78165" lon="5.2623">
        <ele>311.79998779297</ele>
        <time>2022-08-21T12:19:21.000Z</time>
      </trkpt>
      <trkpt lat="49.78165" lon="5.26235">
        <ele>312</ele>
        <time>2022-08-21T12:19:22.000Z</time>
      </trkpt>
      <trkpt lat="49.78161" lon="5.2626">
        <ele>313.39999389648</ele>
        <time>2022-08-21T12:19:27.000Z</time>
      </trkpt>
      <trkpt lat="49.78161" lon="5.26265">
        <ele>313.60000610352</ele>
        <time>2022-08-21T12:19:28.000Z</time>
      </trkpt>
      <trkpt lat="49.78159" lon="5.26284">
        <ele>315.60000610352</ele>
        <time>2022-08-21T12:19:32.000Z</time>
      </trkpt>
      <trkpt lat="49.78158" lon="5.26298">
        <ele>315.79998779297</ele>
        <time>2022-08-21T12:19:35.000Z</time>
      </trkpt>
      <trkpt lat="49.78159" lon="5.26313">
        <ele>317.39999389648</ele>
        <time>2022-08-21T12:19:38.000Z</time>
      </trkpt>
      <trkpt lat="49.78159" lon="5.26327">
        <ele>318.39999389648</ele>
        <time>2022-08-21T12:19:41.000Z</time>
      </trkpt>
      <trkpt lat="49.78158" lon="5.26337">
        <ele>319.20001220703</ele>
        <time>2022-08-21T12:19:43.000Z</time>
      </trkpt>
      <trkpt lat="49.78157" lon="5.26355">
        <ele>320.20001220703</ele>
        <time>2022-08-21T12:19:47.000Z</time>
      </trkpt>
      <trkpt lat="49.78157" lon="5.26366">
        <ele>320.79998779297</ele>
        <time>2022-08-21T12:19:49.000Z</time>
      </trkpt>
      <trkpt lat="49.78156" lon="5.26388">
        <ele>322.20001220703</ele>
        <time>2022-08-21T12:19:53.000Z</time>
      </trkpt>
      <trkpt lat="49.78156" lon="5.26393">
        <ele>322.60000610352</ele>
        <time>2022-08-21T12:19:54.000Z</time>
      </trkpt>
      <trkpt lat="49.78155" lon="5.26408">
        <ele>324.20001220703</ele>
        <time>2022-08-21T12:19:57.000Z</time>
      </trkpt>
      <trkpt lat="49.78154" lon="5.26423">
        <ele>325.20001220703</ele>
        <time>2022-08-21T12:20:00.000Z</time>
      </trkpt>
      <trkpt lat="49.78154" lon="5.26427">
        <ele>325.60000610352</ele>
        <time>2022-08-21T12:20:01.000Z</time>
      </trkpt>
      <trkpt lat="49.78154" lon="5.26435">
        <ele>326.39999389648</ele>
        <time>2022-08-21T12:20:03.000Z</time>
      </trkpt>
      <trkpt lat="49.78153" lon="5.26449">
        <ele>327.20001220703</ele>
        <time>2022-08-21T12:20:06.000Z</time>
      </trkpt>
      <trkpt lat="49.78152" lon="5.26454">
        <ele>327.39999389648</ele>
        <time>2022-08-21T12:20:07.000Z</time>
      </trkpt>
      <trkpt lat="49.78153" lon="5.26462">
        <ele>328.20001220703</ele>
        <time>2022-08-21T12:20:09.000Z</time>
      </trkpt>
      <trkpt lat="49.78153" lon="5.26476">
        <ele>329</ele>
        <time>2022-08-21T12:20:12.000Z</time>
      </trkpt>
      <trkpt lat="49.78152" lon="5.26487">
        <ele>329.20001220703</ele>
        <time>2022-08-21T12:20:14.000Z</time>
      </trkpt>
      <trkpt lat="49.78152" lon="5.26492">
        <ele>329.39999389648</ele>
        <time>2022-08-21T12:20:15.000Z</time>
      </trkpt>
      <trkpt lat="49.78152" lon="5.26506">
        <ele>330.39999389648</ele>
        <time>2022-08-21T12:20:18.000Z</time>
      </trkpt>
      <trkpt lat="49.78152" lon="5.2652">
        <ele>331.60000610352</ele>
        <time>2022-08-21T12:20:21.000Z</time>
      </trkpt>
      <trkpt lat="49.78151" lon="5.26524">
        <ele>331.79998779297</ele>
        <time>2022-08-21T12:20:22.000Z</time>
      </trkpt>
      <trkpt lat="49.78151" lon="5.26533">
        <ele>331.60000610352</ele>
        <time>2022-08-21T12:20:24.000Z</time>
      </trkpt>
      <trkpt lat="49.78151" lon="5.26544">
        <ele>331.60000610352</ele>
        <time>2022-08-21T12:20:27.000Z</time>
      </trkpt>
      <trkpt lat="49.78151" lon="5.26556">
        <ele>332</ele>
        <time>2022-08-21T12:20:30.000Z</time>
      </trkpt>
      <trkpt lat="49.78151" lon="5.2657">
        <ele>332.39999389648</ele>
        <time>2022-08-21T12:20:33.000Z</time>
      </trkpt>
      <trkpt lat="49.78151" lon="5.26584">
        <ele>333.39999389648</ele>
        <time>2022-08-21T12:20:36.000Z</time>
      </trkpt>
      <trkpt lat="49.78151" lon="5.26594">
        <ele>334.20001220703</ele>
        <time>2022-08-21T12:20:38.000Z</time>
      </trkpt>
      <trkpt lat="49.78151" lon="5.26598">
        <ele>334.60000610352</ele>
        <time>2022-08-21T12:20:39.000Z</time>
      </trkpt>
      <trkpt lat="49.7815" lon="5.26617">
        <ele>336</ele>
        <time>2022-08-21T12:20:43.000Z</time>
      </trkpt>
      <trkpt lat="49.78149" lon="5.26623">
        <ele>336.60000610352</ele>
        <time>2022-08-21T12:20:45.000Z</time>
      </trkpt>
      <trkpt lat="49.78148" lon="5.2663">
        <ele>337.20001220703</ele>
        <time>2022-08-21T12:20:58.000Z</time>
      </trkpt>
      <trkpt lat="49.78148" lon="5.26636">
        <ele>338</ele>
        <time>2022-08-21T12:21:00.000Z</time>
      </trkpt>
      <trkpt lat="49.78148" lon="5.26662">
        <ele>341.60000610352</ele>
        <time>2022-08-21T12:21:07.000Z</time>
      </trkpt>
      <trkpt lat="49.78148" lon="5.26666">
        <ele>341.60000610352</ele>
        <time>2022-08-21T12:21:08.000Z</time>
      </trkpt>
      <trkpt lat="49.78147" lon="5.26686">
        <ele>342</ele>
        <time>2022-08-21T12:21:13.000Z</time>
      </trkpt>
      <trkpt lat="49.78147" lon="5.26693">
        <ele>342.20001220703</ele>
        <time>2022-08-21T12:21:15.000Z</time>
      </trkpt>
      <trkpt lat="49.78147" lon="5.26704">
        <ele>342.79998779297</ele>
        <time>2022-08-21T12:21:18.000Z</time>
      </trkpt>
      <trkpt lat="49.78148" lon="5.26719">
        <ele>343.60000610352</ele>
        <time>2022-08-21T12:21:22.000Z</time>
      </trkpt>
      <trkpt lat="49.78148" lon="5.26728">
        <ele>344.39999389648</ele>
        <time>2022-08-21T12:21:24.000Z</time>
      </trkpt>
      <trkpt lat="49.78149" lon="5.26731">
        <ele>345</ele>
        <time>2022-08-21T12:21:25.000Z</time>
      </trkpt>
      <trkpt lat="49.78151" lon="5.26733">
        <ele>346</ele>
        <time>2022-08-21T12:21:26.000Z</time>
      </trkpt>
      <trkpt lat="49.78157" lon="5.26729">
        <ele>348</ele>
        <time>2022-08-21T12:21:29.000Z</time>
      </trkpt>
      <trkpt lat="49.78158" lon="5.26726">
        <ele>348.20001220703</ele>
        <time>2022-08-21T12:21:30.000Z</time>
      </trkpt>
      <trkpt lat="49.78162" lon="5.26711">
        <ele>348</ele>
        <time>2022-08-21T12:21:34.000Z</time>
      </trkpt>
      <trkpt lat="49.78164" lon="5.26708">
        <ele>348.20001220703</ele>
        <time>2022-08-21T12:21:35.000Z</time>
      </trkpt>
      <trkpt lat="49.78167" lon="5.26702">
        <ele>348.79998779297</ele>
        <time>2022-08-21T12:21:37.000Z</time>
      </trkpt>
      <trkpt lat="49.78168" lon="5.26699">
        <ele>349</ele>
        <time>2022-08-21T12:21:38.000Z</time>
      </trkpt>
      <trkpt lat="49.78175" lon="5.26687">
        <ele>350</ele>
        <time>2022-08-21T12:21:42.000Z</time>
      </trkpt>
      <trkpt lat="49.78182" lon="5.26673">
        <ele>352.79998779297</ele>
        <time>2022-08-21T12:21:46.000Z</time>
      </trkpt>
      <trkpt lat="49.78184" lon="5.26669">
        <ele>353.20001220703</ele>
        <time>2022-08-21T12:21:47.000Z</time>
      </trkpt>
      <trkpt lat="49.78187" lon="5.26662">
        <ele>354.20001220703</ele>
        <time>2022-08-21T12:21:49.000Z</time>
      </trkpt>
      <trkpt lat="49.78192" lon="5.26654">
        <ele>355</ele>
        <time>2022-08-21T12:21:52.000Z</time>
      </trkpt>
      <trkpt lat="49.78194" lon="5.26647">
        <ele>355.60000610352</ele>
        <time>2022-08-21T12:21:54.000Z</time>
      </trkpt>
      <trkpt lat="49.78197" lon="5.26639">
        <ele>356.39999389648</ele>
        <time>2022-08-21T12:21:56.000Z</time>
      </trkpt>
      <trkpt lat="49.78204" lon="5.26624">
        <ele>357.79998779297</ele>
        <time>2022-08-21T12:22:00.000Z</time>
      </trkpt>
      <trkpt lat="49.78205" lon="5.26621">
        <ele>358.20001220703</ele>
        <time>2022-08-21T12:22:01.000Z</time>
      </trkpt>
      <trkpt lat="49.7821" lon="5.26612">
        <ele>359</ele>
        <time>2022-08-21T12:22:04.000Z</time>
      </trkpt>
      <trkpt lat="49.78214" lon="5.26602">
        <ele>360.20001220703</ele>
        <time>2022-08-21T12:22:07.000Z</time>
      </trkpt>
      <trkpt lat="49.78216" lon="5.266">
        <ele>360.39999389648</ele>
        <time>2022-08-21T12:22:08.000Z</time>
      </trkpt>
      <trkpt lat="49.78221" lon="5.26592">
        <ele>361.79998779297</ele>
        <time>2022-08-21T12:22:11.000Z</time>
      </trkpt>
      <trkpt lat="49.78227" lon="5.26582">
        <ele>363.20001220703</ele>
        <time>2022-08-21T12:22:15.000Z</time>
      </trkpt>
      <trkpt lat="49.78234" lon="5.26568">
        <ele>365.20001220703</ele>
        <time>2022-08-21T12:22:19.000Z</time>
      </trkpt>
      <trkpt lat="49.78241" lon="5.26558">
        <ele>366.79998779297</ele>
        <time>2022-08-21T12:22:22.000Z</time>
      </trkpt>
      <trkpt lat="49.78243" lon="5.26555">
        <ele>367.60000610352</ele>
        <time>2022-08-21T12:22:23.000Z</time>
      </trkpt>
      <trkpt lat="49.7825" lon="5.26542">
        <ele>370.20001220703</ele>
        <time>2022-08-21T12:22:27.000Z</time>
      </trkpt>
      <trkpt lat="49.78255" lon="5.26533">
        <ele>371</ele>
        <time>2022-08-21T12:22:30.000Z</time>
      </trkpt>
      <trkpt lat="49.78256" lon="5.2653">
        <ele>371.39999389648</ele>
        <time>2022-08-21T12:22:31.000Z</time>
      </trkpt>
      <trkpt lat="49.78261" lon="5.26522">
        <ele>372</ele>
        <time>2022-08-21T12:22:34.000Z</time>
      </trkpt>
      <trkpt lat="49.78268" lon="5.2651">
        <ele>373</ele>
        <time>2022-08-21T12:22:38.000Z</time>
      </trkpt>
      <trkpt lat="49.78277" lon="5.26493">
        <ele>375.20001220703</ele>
        <time>2022-08-21T12:22:43.000Z</time>
      </trkpt>
      <trkpt lat="49.78278" lon="5.2649">
        <ele>375.39999389648</ele>
        <time>2022-08-21T12:22:44.000Z</time>
      </trkpt>
      <trkpt lat="49.78287" lon="5.26477">
        <ele>376.39999389648</ele>
        <time>2022-08-21T12:22:49.000Z</time>
      </trkpt>
      <trkpt lat="49.78289" lon="5.26475">
        <ele>376.39999389648</ele>
        <time>2022-08-21T12:22:50.000Z</time>
      </trkpt>
      <trkpt lat="49.78299" lon="5.26472">
        <ele>377</ele>
        <time>2022-08-21T12:23:19.000Z</time>
      </trkpt>
      <trkpt lat="49.78304" lon="5.26475">
        <ele>378</ele>
        <time>2022-08-21T12:23:23.000Z</time>
      </trkpt>
      <trkpt lat="49.78306" lon="5.26477">
        <ele>378.39999389648</ele>
        <time>2022-08-21T12:23:24.000Z</time>
      </trkpt>
      <trkpt lat="49.78308" lon="5.26479">
        <ele>379</ele>
        <time>2022-08-21T12:23:26.000Z</time>
      </trkpt>
      <trkpt lat="49.78309" lon="5.26481">
        <ele>379.20001220703</ele>
        <time>2022-08-21T12:23:27.000Z</time>
      </trkpt>
      <trkpt lat="49.78311" lon="5.26485">
        <ele>379.79998779297</ele>
        <time>2022-08-21T12:23:29.000Z</time>
      </trkpt>
      <trkpt lat="49.78311" lon="5.26486">
        <ele>380</ele>
        <time>2022-08-21T12:23:30.000Z</time>
      </trkpt>
      <trkpt lat="49.78312" lon="5.26488">
        <ele>380.39999389648</ele>
        <time>2022-08-21T12:23:32.000Z</time>
      </trkpt>
      <trkpt lat="49.78314" lon="5.26495">
        <ele>381.20001220703</ele>
        <time>2022-08-21T12:23:35.000Z</time>
      </trkpt>
      <trkpt lat="49.78316" lon="5.26501">
        <ele>381.60000610352</ele>
        <time>2022-08-21T12:23:37.000Z</time>
      </trkpt>
      <trkpt lat="49.78317" lon="5.26503">
        <ele>381.79998779297</ele>
        <time>2022-08-21T12:23:38.000Z</time>
      </trkpt>
      <trkpt lat="49.78319" lon="5.2651">
        <ele>382.39999389648</ele>
        <time>2022-08-21T12:23:41.000Z</time>
      </trkpt>
      <trkpt lat="49.7832" lon="5.26516">
        <ele>382.79998779297</ele>
        <time>2022-08-21T12:23:43.000Z</time>
      </trkpt>
      <trkpt lat="49.78322" lon="5.26523">
        <ele>383.39999389648</ele>
        <time>2022-08-21T12:23:46.000Z</time>
      </trkpt>
      <trkpt lat="49.78323" lon="5.2653">
        <ele>384.60000610352</ele>
        <time>2022-08-21T12:23:49.000Z</time>
      </trkpt>
      <trkpt lat="49.78324" lon="5.26532">
        <ele>385</ele>
        <time>2022-08-21T12:23:50.000Z</time>
      </trkpt>
      <trkpt lat="49.78325" lon="5.26539">
        <ele>385.60000610352</ele>
        <time>2022-08-21T12:23:53.000Z</time>
      </trkpt>
      <trkpt lat="49.78325" lon="5.26542">
        <ele>385.79998779297</ele>
        <time>2022-08-21T12:23:54.000Z</time>
      </trkpt>
      <trkpt lat="49.78325" lon="5.26547">
        <ele>386.20001220703</ele>
        <time>2022-08-21T12:23:56.000Z</time>
      </trkpt>
      <trkpt lat="49.78325" lon="5.2655">
        <ele>386.39999389648</ele>
        <time>2022-08-21T12:23:57.000Z</time>
      </trkpt>
      <trkpt lat="49.78326" lon="5.26555">
        <ele>387</ele>
        <time>2022-08-21T12:23:59.000Z</time>
      </trkpt>
      <trkpt lat="49.78335" lon="5.26605">
        <ele>394.39999389648</ele>
        <time>2022-08-21T12:24:21.000Z</time>
      </trkpt>
      <trkpt lat="49.78336" lon="5.26608">
        <ele>394.79998779297</ele>
        <time>2022-08-21T12:24:22.000Z</time>
      </trkpt>
      <trkpt lat="49.78342" lon="5.26632">
        <ele>400</ele>
        <time>2022-08-21T12:24:32.000Z</time>
      </trkpt>
      <trkpt lat="49.78344" lon="5.26644">
        <ele>401.39999389648</ele>
        <time>2022-08-21T12:24:36.000Z</time>
      </trkpt>
      <trkpt lat="49.78345" lon="5.26646">
        <ele>401.79998779297</ele>
        <time>2022-08-21T12:24:37.000Z</time>
      </trkpt>
      <trkpt lat="49.7835" lon="5.26685">
        <ele>404.79998779297</ele>
        <time>2022-08-21T12:24:51.000Z</time>
      </trkpt>
      <trkpt lat="49.78351" lon="5.26699">
        <ele>405.39999389648</ele>
        <time>2022-08-21T12:24:55.000Z</time>
      </trkpt>
      <trkpt lat="49.78353" lon="5.26713">
        <ele>406.20001220703</ele>
        <time>2022-08-21T12:24:59.000Z</time>
      </trkpt>
      <trkpt lat="49.78353" lon="5.26728">
        <ele>407.20001220703</ele>
        <time>2022-08-21T12:25:02.000Z</time>
      </trkpt>
      <trkpt lat="49.78352" lon="5.26731">
        <ele>407.39999389648</ele>
        <time>2022-08-21T12:25:03.000Z</time>
      </trkpt>
      <trkpt lat="49.78348" lon="5.26747">
        <ele>408.20001220703</ele>
        <time>2022-08-21T12:25:07.000Z</time>
      </trkpt>
      <trkpt lat="49.78347" lon="5.26751">
        <ele>408.39999389648</ele>
        <time>2022-08-21T12:25:08.000Z</time>
      </trkpt>
      <trkpt lat="49.78346" lon="5.26766">
        <ele>410</ele>
        <time>2022-08-21T12:25:12.000Z</time>
      </trkpt>
      <trkpt lat="49.78346" lon="5.26769">
        <ele>410.39999389648</ele>
        <time>2022-08-21T12:25:13.000Z</time>
      </trkpt>
      <trkpt lat="49.78349" lon="5.26783">
        <ele>412.39999389648</ele>
        <time>2022-08-21T12:25:17.000Z</time>
      </trkpt>
      <trkpt lat="49.78351" lon="5.2679">
        <ele>413.39999389648</ele>
        <time>2022-08-21T12:25:19.000Z</time>
      </trkpt>
      <trkpt lat="49.78353" lon="5.26797">
        <ele>414.39999389648</ele>
        <time>2022-08-21T12:25:21.000Z</time>
      </trkpt>
      <trkpt lat="49.78356" lon="5.26814">
        <ele>416.79998779297</ele>
        <time>2022-08-21T12:25:26.000Z</time>
      </trkpt>
      <trkpt lat="49.78357" lon="5.2683">
        <ele>419.20001220703</ele>
        <time>2022-08-21T12:25:31.000Z</time>
      </trkpt>
      <trkpt lat="49.78359" lon="5.26838">
        <ele>420</ele>
        <time>2022-08-21T12:25:33.000Z</time>
      </trkpt>
      <trkpt lat="49.78364" lon="5.26854">
        <ele>422.39999389648</ele>
        <time>2022-08-21T12:25:37.000Z</time>
      </trkpt>
      <trkpt lat="49.78369" lon="5.26869">
        <ele>425</ele>
        <time>2022-08-21T12:25:41.000Z</time>
      </trkpt>
      <trkpt lat="49.78371" lon="5.26877">
        <ele>426.20001220703</ele>
        <time>2022-08-21T12:25:43.000Z</time>
      </trkpt>
      <trkpt lat="49.78377" lon="5.26888">
        <ele>427.79998779297</ele>
        <time>2022-08-21T12:25:47.000Z</time>
      </trkpt>
      <trkpt lat="49.7838" lon="5.26889">
        <ele>428</ele>
        <time>2022-08-21T12:25:48.000Z</time>
      </trkpt>
      <trkpt lat="49.78384" lon="5.26892">
        <ele>428.39999389648</ele>
        <time>2022-08-21T12:25:50.000Z</time>
      </trkpt>
      <trkpt lat="49.78391" lon="5.26892">
        <ele>428.39999389648</ele>
        <time>2022-08-21T12:25:54.000Z</time>
      </trkpt>
      <trkpt lat="49.78402" lon="5.26885">
        <ele>426.60000610352</ele>
        <time>2022-08-21T12:25:59.000Z</time>
      </trkpt>
      <trkpt lat="49.78406" lon="5.26883">
        <ele>426</ele>
        <time>2022-08-21T12:26:01.000Z</time>
      </trkpt>
      <trkpt lat="49.78426" lon="5.26872">
        <ele>422.60000610352</ele>
        <time>2022-08-21T12:26:08.000Z</time>
      </trkpt>
      <trkpt lat="49.78448" lon="5.26859">
        <ele>417.79998779297</ele>
        <time>2022-08-21T12:26:15.000Z</time>
      </trkpt>
      <trkpt lat="49.78452" lon="5.26858">
        <ele>417.20001220703</ele>
        <time>2022-08-21T12:26:16.000Z</time>
      </trkpt>
      <trkpt lat="49.78476" lon="5.26846">
        <ele>414</ele>
        <time>2022-08-21T12:26:22.000Z</time>
      </trkpt>
      <trkpt lat="49.78494" lon="5.26837">
        <ele>412.39999389648</ele>
        <time>2022-08-21T12:26:26.000Z</time>
      </trkpt>
      <trkpt lat="49.78509" lon="5.2683">
        <ele>411</ele>
        <time>2022-08-21T12:26:29.000Z</time>
      </trkpt>
      <trkpt lat="49.78518" lon="5.26825">
        <ele>410</ele>
        <time>2022-08-21T12:26:31.000Z</time>
      </trkpt>
      <trkpt lat="49.78529" lon="5.26819">
        <ele>408.60000610352</ele>
        <time>2022-08-21T12:26:33.000Z</time>
      </trkpt>
      <trkpt lat="49.78535" lon="5.26816">
        <ele>408.20001220703</ele>
        <time>2022-08-21T12:26:34.000Z</time>
      </trkpt>
      <trkpt lat="49.78549" lon="5.26808">
        <ele>407.60000610352</ele>
        <time>2022-08-21T12:26:36.000Z</time>
      </trkpt>
      <trkpt lat="49.78563" lon="5.26796">
        <ele>406.79998779297</ele>
        <time>2022-08-21T12:26:38.000Z</time>
      </trkpt>
      <trkpt lat="49.78575" lon="5.26782">
        <ele>406</ele>
        <time>2022-08-21T12:26:40.000Z</time>
      </trkpt>
      <trkpt lat="49.78585" lon="5.26764">
        <ele>405.60000610352</ele>
        <time>2022-08-21T12:26:42.000Z</time>
      </trkpt>
      <trkpt lat="49.78591" lon="5.26745">
        <ele>405</ele>
        <time>2022-08-21T12:26:44.000Z</time>
      </trkpt>
      <trkpt lat="49.78594" lon="5.26735">
        <ele>404.39999389648</ele>
        <time>2022-08-21T12:26:45.000Z</time>
      </trkpt>
      <trkpt lat="49.78597" lon="5.26724">
        <ele>403.79998779297</ele>
        <time>2022-08-21T12:26:46.000Z</time>
      </trkpt>
      <trkpt lat="49.78602" lon="5.26703">
        <ele>401.79998779297</ele>
        <time>2022-08-21T12:26:48.000Z</time>
      </trkpt>
      <trkpt lat="49.78607" lon="5.26687">
        <ele>399.79998779297</ele>
        <time>2022-08-21T12:26:50.000Z</time>
      </trkpt>
      <trkpt lat="49.78611" lon="5.2668">
        <ele>398.60000610352</ele>
        <time>2022-08-21T12:26:52.000Z</time>
      </trkpt>
      <trkpt lat="49.78612" lon="5.26679">
        <ele>398.39999389648</ele>
        <time>2022-08-21T12:26:53.000Z</time>
      </trkpt>
      <trkpt lat="49.78615" lon="5.2668">
        <ele>398</ele>
        <time>2022-08-21T12:26:55.000Z</time>
      </trkpt>
      <trkpt lat="49.78616" lon="5.2668">
        <ele>397.79998779297</ele>
        <time>2022-08-21T12:26:56.000Z</time>
      </trkpt>
      <trkpt lat="49.78618" lon="5.26682">
        <ele>397.79998779297</ele>
        <time>2022-08-21T12:26:57.000Z</time>
      </trkpt>
      <trkpt lat="49.78627" lon="5.26699">
        <ele>397.39999389648</ele>
        <time>2022-08-21T12:27:03.000Z</time>
      </trkpt>
      <trkpt lat="49.78628" lon="5.26703">
        <ele>397.60000610352</ele>
        <time>2022-08-21T12:27:04.000Z</time>
      </trkpt>
      <trkpt lat="49.78634" lon="5.26725">
        <ele>398.39999389648</ele>
        <time>2022-08-21T12:27:08.000Z</time>
      </trkpt>
      <trkpt lat="49.78636" lon="5.26737">
        <ele>398.79998779297</ele>
        <time>2022-08-21T12:27:10.000Z</time>
      </trkpt>
      <trkpt lat="49.78638" lon="5.26745">
        <ele>399</ele>
        <time>2022-08-21T12:27:11.000Z</time>
      </trkpt>
      <trkpt lat="49.78645" lon="5.26785">
        <ele>398.20001220703</ele>
        <time>2022-08-21T12:27:17.000Z</time>
      </trkpt>
      <trkpt lat="49.78654" lon="5.26828">
        <ele>394.60000610352</ele>
        <time>2022-08-21T12:27:25.000Z</time>
      </trkpt>
      <trkpt lat="49.78651" lon="5.26863">
        <ele>395.60000610352</ele>
        <time>2022-08-21T12:27:30.000Z</time>
      </trkpt>
      <trkpt lat="49.78651" lon="5.26869">
        <ele>396.20001220703</ele>
        <time>2022-08-21T12:27:31.000Z</time>
      </trkpt>
      <trkpt lat="49.7865" lon="5.26892">
        <ele>398.39999389648</ele>
        <time>2022-08-21T12:27:34.000Z</time>
      </trkpt>
      <trkpt lat="49.78647" lon="5.26915">
        <ele>401.39999389648</ele>
        <time>2022-08-21T12:27:37.000Z</time>
      </trkpt>
      <trkpt lat="49.78646" lon="5.26923">
        <ele>402.20001220703</ele>
        <time>2022-08-21T12:27:38.000Z</time>
      </trkpt>
      <trkpt lat="49.78645" lon="5.26952">
        <ele>402.79998779297</ele>
        <time>2022-08-21T12:27:42.000Z</time>
      </trkpt>
      <trkpt lat="49.78644" lon="5.2696">
        <ele>402.79998779297</ele>
        <time>2022-08-21T12:27:43.000Z</time>
      </trkpt>
      <trkpt lat="49.78642" lon="5.26994">
        <ele>402.79998779297</ele>
        <time>2022-08-21T12:27:48.000Z</time>
      </trkpt>
      <trkpt lat="49.78643" lon="5.27">
        <ele>402.39999389648</ele>
        <time>2022-08-21T12:27:49.000Z</time>
      </trkpt>
      <trkpt lat="49.78645" lon="5.27039">
        <ele>399.20001220703</ele>
        <time>2022-08-21T12:27:56.000Z</time>
      </trkpt>
      <trkpt lat="49.78645" lon="5.27052">
        <ele>398.39999389648</ele>
        <time>2022-08-21T12:27:58.000Z</time>
      </trkpt>
      <trkpt lat="49.78643" lon="5.2709">
        <ele>398.39999389648</ele>
        <time>2022-08-21T12:28:03.000Z</time>
      </trkpt>
      <trkpt lat="49.78641" lon="5.27099">
        <ele>398.79998779297</ele>
        <time>2022-08-21T12:28:04.000Z</time>
      </trkpt>
      <trkpt lat="49.78636" lon="5.27125">
        <ele>399.39999389648</ele>
        <time>2022-08-21T12:28:07.000Z</time>
      </trkpt>
      <trkpt lat="49.78623" lon="5.27149">
        <ele>400</ele>
        <time>2022-08-21T12:28:11.000Z</time>
      </trkpt>
      <trkpt lat="49.78619" lon="5.27154">
        <ele>400</ele>
        <time>2022-08-21T12:28:12.000Z</time>
      </trkpt>
      <trkpt lat="49.78606" lon="5.27165">
        <ele>399.20001220703</ele>
        <time>2022-08-21T12:28:15.000Z</time>
      </trkpt>
      <trkpt lat="49.78595" lon="5.2717">
        <ele>399.20001220703</ele>
        <time>2022-08-21T12:28:17.000Z</time>
      </trkpt>
      <trkpt lat="49.7857" lon="5.27178">
        <ele>401</ele>
        <time>2022-08-21T12:28:22.000Z</time>
      </trkpt>
      <trkpt lat="49.78565" lon="5.2718">
        <ele>401.20001220703</ele>
        <time>2022-08-21T12:28:23.000Z</time>
      </trkpt>
      <trkpt lat="49.78547" lon="5.27185">
        <ele>402.79998779297</ele>
        <time>2022-08-21T12:28:27.000Z</time>
      </trkpt>
      <trkpt lat="49.78537" lon="5.27186">
        <ele>404.20001220703</ele>
        <time>2022-08-21T12:28:29.000Z</time>
      </trkpt>
      <trkpt lat="49.78501" lon="5.27195">
        <ele>404.39999389648</ele>
        <time>2022-08-21T12:28:35.000Z</time>
      </trkpt>
      <trkpt lat="49.78495" lon="5.27196">
        <ele>404.20001220703</ele>
        <time>2022-08-21T12:28:36.000Z</time>
      </trkpt>
      <trkpt lat="49.78474" lon="5.27204">
        <ele>403.60000610352</ele>
        <time>2022-08-21T12:28:39.000Z</time>
      </trkpt>
      <trkpt lat="49.78467" lon="5.27208">
        <ele>403.39999389648</ele>
        <time>2022-08-21T12:28:40.000Z</time>
      </trkpt>
      <trkpt lat="49.7846" lon="5.27213">
        <ele>403</ele>
        <time>2022-08-21T12:28:41.000Z</time>
      </trkpt>
      <trkpt lat="49.78454" lon="5.27217">
        <ele>402.60000610352</ele>
        <time>2022-08-21T12:28:42.000Z</time>
      </trkpt>
      <trkpt lat="49.78448" lon="5.27223">
        <ele>402.39999389648</ele>
        <time>2022-08-21T12:28:43.000Z</time>
      </trkpt>
      <trkpt lat="49.7844" lon="5.27238">
        <ele>402</ele>
        <time>2022-08-21T12:28:45.000Z</time>
      </trkpt>
      <trkpt lat="49.78437" lon="5.27246">
        <ele>402</ele>
        <time>2022-08-21T12:28:46.000Z</time>
      </trkpt>
      <trkpt lat="49.78434" lon="5.27267">
        <ele>401.39999389648</ele>
        <time>2022-08-21T12:28:48.000Z</time>
      </trkpt>
      <trkpt lat="49.78433" lon="5.27279">
        <ele>400.60000610352</ele>
        <time>2022-08-21T12:28:49.000Z</time>
      </trkpt>
      <trkpt lat="49.78433" lon="5.2729">
        <ele>399.79998779297</ele>
        <time>2022-08-21T12:28:50.000Z</time>
      </trkpt>
      <trkpt lat="49.78433" lon="5.27324">
        <ele>397.60000610352</ele>
        <time>2022-08-21T12:28:53.000Z</time>
      </trkpt>
      <trkpt lat="49.78435" lon="5.27352">
        <ele>396.20001220703</ele>
        <time>2022-08-21T12:28:56.000Z</time>
      </trkpt>
      <trkpt lat="49.78435" lon="5.27359">
        <ele>396</ele>
        <time>2022-08-21T12:28:57.000Z</time>
      </trkpt>
      <trkpt lat="49.78435" lon="5.27365">
        <ele>396.20001220703</ele>
        <time>2022-08-21T12:28:58.000Z</time>
      </trkpt>
      <trkpt lat="49.78437" lon="5.27373">
        <ele>395.79998779297</ele>
        <time>2022-08-21T12:29:00.000Z</time>
      </trkpt>
      <trkpt lat="49.7844" lon="5.27372">
        <ele>395.20001220703</ele>
        <time>2022-08-21T12:33:02.000Z</time>
      </trkpt>
      <trkpt lat="49.78442" lon="5.27369">
        <ele>394.79998779297</ele>
        <time>2022-08-21T12:33:03.000Z</time>
      </trkpt>
      <trkpt lat="49.78446" lon="5.27361">
        <ele>394</ele>
        <time>2022-08-21T12:33:05.000Z</time>
      </trkpt>
      <trkpt lat="49.78456" lon="5.27341">
        <ele>393</ele>
        <time>2022-08-21T12:33:09.000Z</time>
      </trkpt>
      <trkpt lat="49.78464" lon="5.27327">
        <ele>392</ele>
        <time>2022-08-21T12:33:12.000Z</time>
      </trkpt>
      <trkpt lat="49.7847" lon="5.27314">
        <ele>391.39999389648</ele>
        <time>2022-08-21T12:33:16.000Z</time>
      </trkpt>
      <trkpt lat="49.78471" lon="5.27314">
        <ele>391.20001220703</ele>
        <time>2022-08-21T12:33:17.000Z</time>
      </trkpt>
      <trkpt lat="49.78475" lon="5.27317">
        <ele>390.39999389648</ele>
        <time>2022-08-21T12:33:19.000Z</time>
      </trkpt>
      <trkpt lat="49.78477" lon="5.2732">
        <ele>390</ele>
        <time>2022-08-21T12:33:20.000Z</time>
      </trkpt>
      <trkpt lat="49.7848" lon="5.27323">
        <ele>389.39999389648</ele>
        <time>2022-08-21T12:33:21.000Z</time>
      </trkpt>
      <trkpt lat="49.78483" lon="5.27325">
        <ele>388.60000610352</ele>
        <time>2022-08-21T12:33:22.000Z</time>
      </trkpt>
      <trkpt lat="49.7849" lon="5.27329">
        <ele>387.20001220703</ele>
        <time>2022-08-21T12:33:24.000Z</time>
      </trkpt>
      <trkpt lat="49.78497" lon="5.27334">
        <ele>385.79998779297</ele>
        <time>2022-08-21T12:33:26.000Z</time>
      </trkpt>
      <trkpt lat="49.78502" lon="5.27337">
        <ele>385</ele>
        <time>2022-08-21T12:33:27.000Z</time>
      </trkpt>
      <trkpt lat="49.78507" lon="5.27339">
        <ele>384</ele>
        <time>2022-08-21T12:33:28.000Z</time>
      </trkpt>
      <trkpt lat="49.78513" lon="5.27341">
        <ele>383.20001220703</ele>
        <time>2022-08-21T12:33:29.000Z</time>
      </trkpt>
      <trkpt lat="49.78518" lon="5.27342">
        <ele>382.20001220703</ele>
        <time>2022-08-21T12:33:30.000Z</time>
      </trkpt>
      <trkpt lat="49.78523" lon="5.27343">
        <ele>381.39999389648</ele>
        <time>2022-08-21T12:33:31.000Z</time>
      </trkpt>
      <trkpt lat="49.78528" lon="5.27345">
        <ele>380.20001220703</ele>
        <time>2022-08-21T12:33:32.000Z</time>
      </trkpt>
      <trkpt lat="49.78534" lon="5.27346">
        <ele>379</ele>
        <time>2022-08-21T12:33:33.000Z</time>
      </trkpt>
      <trkpt lat="49.78539" lon="5.27347">
        <ele>377.79998779297</ele>
        <time>2022-08-21T12:33:34.000Z</time>
      </trkpt>
      <trkpt lat="49.78545" lon="5.27349">
        <ele>376.60000610352</ele>
        <time>2022-08-21T12:33:35.000Z</time>
      </trkpt>
      <trkpt lat="49.78555" lon="5.27351">
        <ele>373.79998779297</ele>
        <time>2022-08-21T12:33:37.000Z</time>
      </trkpt>
      <trkpt lat="49.78569" lon="5.27354">
        <ele>370.79998779297</ele>
        <time>2022-08-21T12:33:39.000Z</time>
      </trkpt>
      <trkpt lat="49.78576" lon="5.27354">
        <ele>369.39999389648</ele>
        <time>2022-08-21T12:33:40.000Z</time>
      </trkpt>
      <trkpt lat="49.78582" lon="5.27353">
        <ele>368.20001220703</ele>
        <time>2022-08-21T12:33:41.000Z</time>
      </trkpt>
      <trkpt lat="49.78588" lon="5.27351">
        <ele>367</ele>
        <time>2022-08-21T12:33:42.000Z</time>
      </trkpt>
      <trkpt lat="49.78602" lon="5.27345">
        <ele>365.79998779297</ele>
        <time>2022-08-21T12:33:44.000Z</time>
      </trkpt>
      <trkpt lat="49.78623" lon="5.27335">
        <ele>363.79998779297</ele>
        <time>2022-08-21T12:33:47.000Z</time>
      </trkpt>
      <trkpt lat="49.7863" lon="5.27331">
        <ele>363.60000610352</ele>
        <time>2022-08-21T12:33:48.000Z</time>
      </trkpt>
      <trkpt lat="49.78635" lon="5.27325">
        <ele>363.79998779297</ele>
        <time>2022-08-21T12:33:49.000Z</time>
      </trkpt>
      <trkpt lat="49.78654" lon="5.27307">
        <ele>365.79998779297</ele>
        <time>2022-08-21T12:33:53.000Z</time>
      </trkpt>
      <trkpt lat="49.78669" lon="5.27288">
        <ele>368.39999389648</ele>
        <time>2022-08-21T12:33:58.000Z</time>
      </trkpt>
      <trkpt lat="49.78672" lon="5.27285">
        <ele>369</ele>
        <time>2022-08-21T12:33:59.000Z</time>
      </trkpt>
      <trkpt lat="49.78674" lon="5.27281">
        <ele>369.60000610352</ele>
        <time>2022-08-21T12:34:00.000Z</time>
      </trkpt>
      <trkpt lat="49.7868" lon="5.2727">
        <ele>370.39999389648</ele>
        <time>2022-08-21T12:34:03.000Z</time>
      </trkpt>
      <trkpt lat="49.78684" lon="5.27257">
        <ele>372.20001220703</ele>
        <time>2022-08-21T12:34:06.000Z</time>
      </trkpt>
      <trkpt lat="49.78685" lon="5.27251">
        <ele>372.60000610352</ele>
        <time>2022-08-21T12:34:07.000Z</time>
      </trkpt>
      <trkpt lat="49.78697" lon="5.27209">
        <ele>369.39999389648</ele>
        <time>2022-08-21T12:34:14.000Z</time>
      </trkpt>
      <trkpt lat="49.78705" lon="5.27172">
        <ele>365</ele>
        <time>2022-08-21T12:34:19.000Z</time>
      </trkpt>
      <trkpt lat="49.78708" lon="5.27164">
        <ele>364</ele>
        <time>2022-08-21T12:34:20.000Z</time>
      </trkpt>
      <trkpt lat="49.78714" lon="5.27146">
        <ele>362.79998779297</ele>
        <time>2022-08-21T12:34:22.000Z</time>
      </trkpt>
      <trkpt lat="49.78721" lon="5.27125">
        <ele>360.20001220703</ele>
        <time>2022-08-21T12:34:24.000Z</time>
      </trkpt>
      <trkpt lat="49.78726" lon="5.27115">
        <ele>358.20001220703</ele>
        <time>2022-08-21T12:34:25.000Z</time>
      </trkpt>
      <trkpt lat="49.7873" lon="5.27104">
        <ele>356.20001220703</ele>
        <time>2022-08-21T12:34:26.000Z</time>
      </trkpt>
      <trkpt lat="49.78738" lon="5.27082">
        <ele>356.79998779297</ele>
        <time>2022-08-21T12:34:28.000Z</time>
      </trkpt>
      <trkpt lat="49.78742" lon="5.27073">
        <ele>356.39999389648</ele>
        <time>2022-08-21T12:34:29.000Z</time>
      </trkpt>
      <trkpt lat="49.78745" lon="5.27064">
        <ele>356.39999389648</ele>
        <time>2022-08-21T12:34:30.000Z</time>
      </trkpt>
      <trkpt lat="49.78746" lon="5.27044">
        <ele>357</ele>
        <time>2022-08-21T12:34:32.000Z</time>
      </trkpt>
      <trkpt lat="49.78747" lon="5.27033">
        <ele>357.39999389648</ele>
        <time>2022-08-21T12:34:33.000Z</time>
      </trkpt>
      <trkpt lat="49.7875" lon="5.27001">
        <ele>356</ele>
        <time>2022-08-21T12:34:36.000Z</time>
      </trkpt>
      <trkpt lat="49.78753" lon="5.26979">
        <ele>354.79998779297</ele>
        <time>2022-08-21T12:34:38.000Z</time>
      </trkpt>
      <trkpt lat="49.78754" lon="5.26968">
        <ele>353.79998779297</ele>
        <time>2022-08-21T12:34:39.000Z</time>
      </trkpt>
      <trkpt lat="49.78756" lon="5.26957">
        <ele>352.20001220703</ele>
        <time>2022-08-21T12:34:40.000Z</time>
      </trkpt>
      <trkpt lat="49.7876" lon="5.26934">
        <ele>349.39999389648</ele>
        <time>2022-08-21T12:34:42.000Z</time>
      </trkpt>
      <trkpt lat="49.78764" lon="5.26914">
        <ele>348.20001220703</ele>
        <time>2022-08-21T12:34:44.000Z</time>
      </trkpt>
      <trkpt lat="49.7877" lon="5.26899">
        <ele>346.60000610352</ele>
        <time>2022-08-21T12:34:46.000Z</time>
      </trkpt>
      <trkpt lat="49.78774" lon="5.26888">
        <ele>345.20001220703</ele>
        <time>2022-08-21T12:34:48.000Z</time>
      </trkpt>
      <trkpt lat="49.78782" lon="5.26874">
        <ele>344</ele>
        <time>2022-08-21T12:34:51.000Z</time>
      </trkpt>
      <trkpt lat="49.7879" lon="5.26859">
        <ele>343.79998779297</ele>
        <time>2022-08-21T12:34:55.000Z</time>
      </trkpt>
      <trkpt lat="49.78795" lon="5.26849">
        <ele>343.39999389648</ele>
        <time>2022-08-21T12:34:58.000Z</time>
      </trkpt>
      <trkpt lat="49.78798" lon="5.26844">
        <ele>343.20001220703</ele>
        <time>2022-08-21T12:35:00.000Z</time>
      </trkpt>
      <trkpt lat="49.78803" lon="5.2683">
        <ele>342</ele>
        <time>2022-08-21T12:35:05.000Z</time>
      </trkpt>
      <trkpt lat="49.78804" lon="5.26828">
        <ele>341.60000610352</ele>
        <time>2022-08-21T12:35:06.000Z</time>
      </trkpt>
      <trkpt lat="49.78811" lon="5.26813">
        <ele>340.39999389648</ele>
        <time>2022-08-21T12:35:13.000Z</time>
      </trkpt>
      <trkpt lat="49.78812" lon="5.26811">
        <ele>340.20001220703</ele>
        <time>2022-08-21T12:35:14.000Z</time>
      </trkpt>
      <trkpt lat="49.78821" lon="5.26789">
        <ele>337.60000610352</ele>
        <time>2022-08-21T12:35:20.000Z</time>
      </trkpt>
      <trkpt lat="49.78825" lon="5.26773">
        <ele>336</ele>
        <time>2022-08-21T12:35:25.000Z</time>
      </trkpt>
      <trkpt lat="49.78826" lon="5.2677">
        <ele>336</ele>
        <time>2022-08-21T12:35:26.000Z</time>
      </trkpt>
      <trkpt lat="49.78825" lon="5.26759">
        <ele>336</ele>
        <time>2022-08-21T12:35:30.000Z</time>
      </trkpt>
      <trkpt lat="49.78825" lon="5.26753">
        <ele>336</ele>
        <time>2022-08-21T12:35:32.000Z</time>
      </trkpt>
      <trkpt lat="49.78828" lon="5.26738">
        <ele>335.39999389648</ele>
        <time>2022-08-21T12:35:36.000Z</time>
      </trkpt>
      <trkpt lat="49.78829" lon="5.26733">
        <ele>335.39999389648</ele>
        <time>2022-08-21T12:35:37.000Z</time>
      </trkpt>
      <trkpt lat="49.78832" lon="5.2672">
        <ele>334.39999389648</ele>
        <time>2022-08-21T12:35:39.000Z</time>
      </trkpt>
      <trkpt lat="49.78835" lon="5.26696">
        <ele>331.60000610352</ele>
        <time>2022-08-21T12:35:42.000Z</time>
      </trkpt>
      <trkpt lat="49.78836" lon="5.26678">
        <ele>329.39999389648</ele>
        <time>2022-08-21T12:35:44.000Z</time>
      </trkpt>
      <trkpt lat="49.78836" lon="5.26668">
        <ele>328.60000610352</ele>
        <time>2022-08-21T12:35:45.000Z</time>
      </trkpt>
      <trkpt lat="49.78834" lon="5.26659">
        <ele>328</ele>
        <time>2022-08-21T12:35:46.000Z</time>
      </trkpt>
      <trkpt lat="49.78833" lon="5.26649">
        <ele>327.39999389648</ele>
        <time>2022-08-21T12:35:47.000Z</time>
      </trkpt>
      <trkpt lat="49.78832" lon="5.2664">
        <ele>327</ele>
        <time>2022-08-21T12:35:48.000Z</time>
      </trkpt>
      <trkpt lat="49.78829" lon="5.26621">
        <ele>325.79998779297</ele>
        <time>2022-08-21T12:35:50.000Z</time>
      </trkpt>
      <trkpt lat="49.78825" lon="5.26602">
        <ele>325.20001220703</ele>
        <time>2022-08-21T12:35:52.000Z</time>
      </trkpt>
      <trkpt lat="49.78823" lon="5.26594">
        <ele>324</ele>
        <time>2022-08-21T12:35:53.000Z</time>
      </trkpt>
      <trkpt lat="49.78821" lon="5.26587">
        <ele>322.79998779297</ele>
        <time>2022-08-21T12:35:55.000Z</time>
      </trkpt>
      <trkpt lat="49.78821" lon="5.26585">
        <ele>322.39999389648</ele>
        <time>2022-08-21T12:35:59.000Z</time>
      </trkpt>
      <trkpt lat="49.78821" lon="5.26586">
        <ele>322.79998779297</ele>
        <time>2022-08-21T12:36:01.000Z</time>
      </trkpt>
      <trkpt lat="49.78823" lon="5.266">
        <ele>325.60000610352</ele>
        <time>2022-08-21T12:36:07.000Z</time>
      </trkpt>
      <trkpt lat="49.78827" lon="5.26628">
        <ele>327.39999389648</ele>
        <time>2022-08-21T12:36:15.000Z</time>
      </trkpt>
      <trkpt lat="49.78832" lon="5.26644">
        <ele>327.39999389648</ele>
        <time>2022-08-21T12:36:21.000Z</time>
      </trkpt>
      <trkpt lat="49.78838" lon="5.26661">
        <ele>326.60000610352</ele>
        <time>2022-08-21T12:36:27.000Z</time>
      </trkpt>
      <trkpt lat="49.7884" lon="5.26665">
        <ele>326.20001220703</ele>
        <time>2022-08-21T12:36:28.000Z</time>
      </trkpt>
      <trkpt lat="49.78847" lon="5.26683">
        <ele>325.60000610352</ele>
        <time>2022-08-21T12:36:33.000Z</time>
      </trkpt>
      <trkpt lat="49.78855" lon="5.26698">
        <ele>325</ele>
        <time>2022-08-21T12:36:37.000Z</time>
      </trkpt>
      <trkpt lat="49.78857" lon="5.26702">
        <ele>325</ele>
        <time>2022-08-21T12:36:38.000Z</time>
      </trkpt>
      <trkpt lat="49.78863" lon="5.26728">
        <ele>326</ele>
        <time>2022-08-21T12:36:43.000Z</time>
      </trkpt>
      <trkpt lat="49.78866" lon="5.26756">
        <ele>327.20001220703</ele>
        <time>2022-08-21T12:36:48.000Z</time>
      </trkpt>
      <trkpt lat="49.7886" lon="5.26793">
        <ele>328.60000610352</ele>
        <time>2022-08-21T12:36:53.000Z</time>
      </trkpt>
      <trkpt lat="49.7885" lon="5.26825">
        <ele>331.39999389648</ele>
        <time>2022-08-21T12:36:57.000Z</time>
      </trkpt>
      <trkpt lat="49.78846" lon="5.26847">
        <ele>331.60000610352</ele>
        <time>2022-08-21T12:37:00.000Z</time>
      </trkpt>
      <trkpt lat="49.78838" lon="5.26887">
        <ele>331.79998779297</ele>
        <time>2022-08-21T12:37:05.000Z</time>
      </trkpt>
      <trkpt lat="49.78838" lon="5.26894">
        <ele>331.60000610352</ele>
        <time>2022-08-21T12:37:06.000Z</time>
      </trkpt>
      <trkpt lat="49.78844" lon="5.26924">
        <ele>328.79998779297</ele>
        <time>2022-08-21T12:37:10.000Z</time>
      </trkpt>
      <trkpt lat="49.78853" lon="5.26973">
        <ele>325.60000610352</ele>
        <time>2022-08-21T12:37:17.000Z</time>
      </trkpt>
      <trkpt lat="49.78855" lon="5.26981">
        <ele>325.20001220703</ele>
        <time>2022-08-21T12:37:18.000Z</time>
      </trkpt>
      <trkpt lat="49.7886" lon="5.27001">
        <ele>323</ele>
        <time>2022-08-21T12:37:20.000Z</time>
      </trkpt>
      <trkpt lat="49.78863" lon="5.27011">
        <ele>321.39999389648</ele>
        <time>2022-08-21T12:37:21.000Z</time>
      </trkpt>
      <trkpt lat="49.78866" lon="5.2702">
        <ele>320.20001220703</ele>
        <time>2022-08-21T12:37:22.000Z</time>
      </trkpt>
      <trkpt lat="49.78869" lon="5.27027">
        <ele>319.20001220703</ele>
        <time>2022-08-21T12:37:23.000Z</time>
      </trkpt>
      <trkpt lat="49.7887" lon="5.27036">
        <ele>318.79998779297</ele>
        <time>2022-08-21T12:37:24.000Z</time>
      </trkpt>
      <trkpt lat="49.78876" lon="5.27058">
        <ele>319</ele>
        <time>2022-08-21T12:37:27.000Z</time>
      </trkpt>
      <trkpt lat="49.78882" lon="5.27069">
        <ele>319.79998779297</ele>
        <time>2022-08-21T12:37:31.000Z</time>
      </trkpt>
      <trkpt lat="49.7889" lon="5.27085">
        <ele>321.20001220703</ele>
        <time>2022-08-21T12:37:36.000Z</time>
      </trkpt>
      <trkpt lat="49.78893" lon="5.27088">
        <ele>321.39999389648</ele>
        <time>2022-08-21T12:37:37.000Z</time>
      </trkpt>
      <trkpt lat="49.78911" lon="5.27118">
        <ele>322.79998779297</ele>
        <time>2022-08-21T12:37:44.000Z</time>
      </trkpt>
      <trkpt lat="49.78921" lon="5.27152">
        <ele>326.60000610352</ele>
        <time>2022-08-21T12:37:50.000Z</time>
      </trkpt>
      <trkpt lat="49.78927" lon="5.27181">
        <ele>329.60000610352</ele>
        <time>2022-08-21T12:37:56.000Z</time>
      </trkpt>
      <trkpt lat="49.78934" lon="5.27222">
        <ele>333.60000610352</ele>
        <time>2022-08-21T12:38:02.000Z</time>
      </trkpt>
      <trkpt lat="49.78942" lon="5.27274">
        <ele>336</ele>
        <time>2022-08-21T12:38:09.000Z</time>
      </trkpt>
      <trkpt lat="49.78952" lon="5.27315">
        <ele>336</ele>
        <time>2022-08-21T12:38:15.000Z</time>
      </trkpt>
      <trkpt lat="49.78955" lon="5.27329">
        <ele>336.39999389648</ele>
        <time>2022-08-21T12:38:17.000Z</time>
      </trkpt>
      <trkpt lat="49.78958" lon="5.27343">
        <ele>336.20001220703</ele>
        <time>2022-08-21T12:38:19.000Z</time>
      </trkpt>
      <trkpt lat="49.78961" lon="5.27371">
        <ele>336.20001220703</ele>
        <time>2022-08-21T12:38:23.000Z</time>
      </trkpt>
      <trkpt lat="49.78962" lon="5.27383">
        <ele>336</ele>
        <time>2022-08-21T12:38:25.000Z</time>
      </trkpt>
      <trkpt lat="49.78964" lon="5.27399">
        <ele>335.60000610352</ele>
        <time>2022-08-21T12:38:28.000Z</time>
      </trkpt>
      <trkpt lat="49.78965" lon="5.27413">
        <ele>335.20001220703</ele>
        <time>2022-08-21T12:38:31.000Z</time>
      </trkpt>
      <trkpt lat="49.78966" lon="5.27428">
        <ele>335.20001220703</ele>
        <time>2022-08-21T12:38:34.000Z</time>
      </trkpt>
      <trkpt lat="49.78964" lon="5.27464">
        <ele>337</ele>
        <time>2022-08-21T12:38:40.000Z</time>
      </trkpt>
      <trkpt lat="49.78959" lon="5.27502">
        <ele>339</ele>
        <time>2022-08-21T12:38:45.000Z</time>
      </trkpt>
      <trkpt lat="49.78953" lon="5.27527">
        <ele>339</ele>
        <time>2022-08-21T12:38:48.000Z</time>
      </trkpt>
      <trkpt lat="49.78949" lon="5.27557">
        <ele>340.39999389648</ele>
        <time>2022-08-21T12:38:52.000Z</time>
      </trkpt>
      <trkpt lat="49.78949" lon="5.27573">
        <ele>341.60000610352</ele>
        <time>2022-08-21T12:38:54.000Z</time>
      </trkpt>
      <trkpt lat="49.78953" lon="5.27592">
        <ele>341</ele>
        <time>2022-08-21T12:38:57.000Z</time>
      </trkpt>
      <trkpt lat="49.78957" lon="5.27612">
        <ele>340.60000610352</ele>
        <time>2022-08-21T12:39:00.000Z</time>
      </trkpt>
      <trkpt lat="49.78962" lon="5.27632">
        <ele>341.20001220703</ele>
        <time>2022-08-21T12:39:03.000Z</time>
      </trkpt>
      <trkpt lat="49.78964" lon="5.27644">
        <ele>341.39999389648</ele>
        <time>2022-08-21T12:39:05.000Z</time>
      </trkpt>
      <trkpt lat="49.78966" lon="5.27656">
        <ele>341.39999389648</ele>
        <time>2022-08-21T12:39:07.000Z</time>
      </trkpt>
      <trkpt lat="49.78974" lon="5.27682">
        <ele>340.79998779297</ele>
        <time>2022-08-21T12:39:11.000Z</time>
      </trkpt>
      <trkpt lat="49.78986" lon="5.27715">
        <ele>339.79998779297</ele>
        <time>2022-08-21T12:39:16.000Z</time>
      </trkpt>
      <trkpt lat="49.78992" lon="5.27734">
        <ele>339.79998779297</ele>
        <time>2022-08-21T12:39:19.000Z</time>
      </trkpt>
      <trkpt lat="49.79011" lon="5.27782">
        <ele>344</ele>
        <time>2022-08-21T12:39:27.000Z</time>
      </trkpt>
      <trkpt lat="49.79014" lon="5.27787">
        <ele>344.79998779297</ele>
        <time>2022-08-21T12:39:28.000Z</time>
      </trkpt>
      <trkpt lat="49.79021" lon="5.27803">
        <ele>346.20001220703</ele>
        <time>2022-08-21T12:39:31.000Z</time>
      </trkpt>
      <trkpt lat="49.7903" lon="5.27818">
        <ele>345.39999389648</ele>
        <time>2022-08-21T12:39:34.000Z</time>
      </trkpt>
      <trkpt lat="49.79045" lon="5.27839">
        <ele>345.20001220703</ele>
        <time>2022-08-21T12:39:39.000Z</time>
      </trkpt>
      <trkpt lat="49.79053" lon="5.27847">
        <ele>345.20001220703</ele>
        <time>2022-08-21T12:39:41.000Z</time>
      </trkpt>
      <trkpt lat="49.79059" lon="5.27855">
        <ele>345.20001220703</ele>
        <time>2022-08-21T12:39:43.000Z</time>
      </trkpt>
      <trkpt lat="49.79075" lon="5.27872">
        <ele>345</ele>
        <time>2022-08-21T12:39:47.000Z</time>
      </trkpt>
      <trkpt lat="49.79097" lon="5.27896">
        <ele>345.20001220703</ele>
        <time>2022-08-21T12:39:54.000Z</time>
      </trkpt>
      <trkpt lat="49.79103" lon="5.27904">
        <ele>345.79998779297</ele>
        <time>2022-08-21T12:39:56.000Z</time>
      </trkpt>
      <trkpt lat="49.79117" lon="5.27922">
        <ele>347.39999389648</ele>
        <time>2022-08-21T12:40:01.000Z</time>
      </trkpt>
      <trkpt lat="49.79127" lon="5.27933">
        <ele>348.20001220703</ele>
        <time>2022-08-21T12:40:04.000Z</time>
      </trkpt>
      <trkpt lat="49.79145" lon="5.27953">
        <ele>349.39999389648</ele>
        <time>2022-08-21T12:40:09.000Z</time>
      </trkpt>
      <trkpt lat="49.79162" lon="5.27972">
        <ele>348.39999389648</ele>
        <time>2022-08-21T12:40:13.000Z</time>
      </trkpt>
      <trkpt lat="49.79178" lon="5.2799">
        <ele>346.60000610352</ele>
        <time>2022-08-21T12:40:17.000Z</time>
      </trkpt>
      <trkpt lat="49.79196" lon="5.28012">
        <ele>344.39999389648</ele>
        <time>2022-08-21T12:40:22.000Z</time>
      </trkpt>
      <trkpt lat="49.79204" lon="5.28021">
        <ele>343.79998779297</ele>
        <time>2022-08-21T12:40:24.000Z</time>
      </trkpt>
      <trkpt lat="49.79225" lon="5.28058">
        <ele>341.20001220703</ele>
        <time>2022-08-21T12:40:30.000Z</time>
      </trkpt>
      <trkpt lat="49.79247" lon="5.28093">
        <ele>336.39999389648</ele>
        <time>2022-08-21T12:40:37.000Z</time>
      </trkpt>
      <trkpt lat="49.79267" lon="5.28126">
        <ele>334.39999389648</ele>
        <time>2022-08-21T12:40:43.000Z</time>
      </trkpt>
      <trkpt lat="49.7929" lon="5.2817">
        <ele>334.39999389648</ele>
        <time>2022-08-21T12:40:50.000Z</time>
      </trkpt>
      <trkpt lat="49.79305" lon="5.28202">
        <ele>336.20001220703</ele>
        <time>2022-08-21T12:40:55.000Z</time>
      </trkpt>
      <trkpt lat="49.79306" lon="5.28209">
        <ele>336.79998779297</ele>
        <time>2022-08-21T12:40:56.000Z</time>
      </trkpt>
      <trkpt lat="49.79306" lon="5.28244">
        <ele>340.39999389648</ele>
        <time>2022-08-21T12:41:01.000Z</time>
      </trkpt>
      <trkpt lat="49.79303" lon="5.28296">
        <ele>341.39999389648</ele>
        <time>2022-08-21T12:41:08.000Z</time>
      </trkpt>
      <trkpt lat="49.79306" lon="5.28321">
        <ele>340.60000610352</ele>
        <time>2022-08-21T12:41:11.000Z</time>
      </trkpt>
      <trkpt lat="49.79309" lon="5.2833">
        <ele>340</ele>
        <time>2022-08-21T12:41:12.000Z</time>
      </trkpt>
      <trkpt lat="49.79311" lon="5.28339">
        <ele>339.39999389648</ele>
        <time>2022-08-21T12:41:13.000Z</time>
      </trkpt>
      <trkpt lat="49.79318" lon="5.28359">
        <ele>338.79998779297</ele>
        <time>2022-08-21T12:41:15.000Z</time>
      </trkpt>
      <trkpt lat="49.79331" lon="5.28394">
        <ele>340.20001220703</ele>
        <time>2022-08-21T12:41:19.000Z</time>
      </trkpt>
      <trkpt lat="49.79335" lon="5.28401">
        <ele>340.20001220703</ele>
        <time>2022-08-21T12:41:20.000Z</time>
      </trkpt>
      <trkpt lat="49.79338" lon="5.28404">
        <ele>340</ele>
        <time>2022-08-21T12:41:21.000Z</time>
      </trkpt>
      <trkpt lat="49.79345" lon="5.28404">
        <ele>339.39999389648</ele>
        <time>2022-08-21T12:41:23.000Z</time>
      </trkpt>
      <trkpt lat="49.79352" lon="5.28388">
        <ele>338.20001220703</ele>
        <time>2022-08-21T12:41:26.000Z</time>
      </trkpt>
      <trkpt lat="49.79353" lon="5.28375">
        <ele>337.39999389648</ele>
        <time>2022-08-21T12:41:28.000Z</time>
      </trkpt>
      <trkpt lat="49.79354" lon="5.28357">
        <ele>336.60000610352</ele>
        <time>2022-08-21T12:41:31.000Z</time>
      </trkpt>
      <trkpt lat="49.79359" lon="5.28345">
        <ele>336.60000610352</ele>
        <time>2022-08-21T12:41:35.000Z</time>
      </trkpt>
      <trkpt lat="49.79375" lon="5.28339">
        <ele>337.39999389648</ele>
        <time>2022-08-21T12:41:41.000Z</time>
      </trkpt>
      <trkpt lat="49.79399" lon="5.28339">
        <ele>338.60000610352</ele>
        <time>2022-08-21T12:41:47.000Z</time>
      </trkpt>
      <trkpt lat="49.79425" lon="5.28346">
        <ele>342.20001220703</ele>
        <time>2022-08-21T12:41:54.000Z</time>
      </trkpt>
      <trkpt lat="49.79438" lon="5.28347">
        <ele>344.79998779297</ele>
        <time>2022-08-21T12:41:57.000Z</time>
      </trkpt>
      <trkpt lat="49.79455" lon="5.28345">
        <ele>348.39999389648</ele>
        <time>2022-08-21T12:42:01.000Z</time>
      </trkpt>
      <trkpt lat="49.79476" lon="5.28339">
        <ele>352</ele>
        <time>2022-08-21T12:42:06.000Z</time>
      </trkpt>
      <trkpt lat="49.7948" lon="5.28337">
        <ele>352</ele>
        <time>2022-08-21T12:42:07.000Z</time>
      </trkpt>
      <trkpt lat="49.79509" lon="5.28313">
        <ele>351.60000610352</ele>
        <time>2022-08-21T12:42:14.000Z</time>
      </trkpt>
      <trkpt lat="49.79514" lon="5.2831">
        <ele>351.79998779297</ele>
        <time>2022-08-21T12:42:15.000Z</time>
      </trkpt>
      <trkpt lat="49.79534" lon="5.28306">
        <ele>352.60000610352</ele>
        <time>2022-08-21T12:42:19.000Z</time>
      </trkpt>
      <trkpt lat="49.79553" lon="5.28308">
        <ele>354</ele>
        <time>2022-08-21T12:42:23.000Z</time>
      </trkpt>
      <trkpt lat="49.79557" lon="5.28309">
        <ele>354.60000610352</ele>
        <time>2022-08-21T12:42:24.000Z</time>
      </trkpt>
      <trkpt lat="49.79562" lon="5.28311">
        <ele>355.20001220703</ele>
        <time>2022-08-21T12:42:25.000Z</time>
      </trkpt>
      <trkpt lat="49.79582" lon="5.28316">
        <ele>358.39999389648</ele>
        <time>2022-08-21T12:42:30.000Z</time>
      </trkpt>
      <trkpt lat="49.79593" lon="5.28319">
        <ele>360</ele>
        <time>2022-08-21T12:42:32.000Z</time>
      </trkpt>
      <trkpt lat="49.79603" lon="5.28322">
        <ele>360.60000610352</ele>
        <time>2022-08-21T12:42:34.000Z</time>
      </trkpt>
      <trkpt lat="49.79623" lon="5.28325">
        <ele>361.20001220703</ele>
        <time>2022-08-21T12:42:39.000Z</time>
      </trkpt>
      <trkpt lat="49.79626" lon="5.28326">
        <ele>361</ele>
        <time>2022-08-21T12:42:40.000Z</time>
      </trkpt>
      <trkpt lat="49.79643" lon="5.2833">
        <ele>360.39999389648</ele>
        <time>2022-08-21T12:42:46.000Z</time>
      </trkpt>
      <trkpt lat="49.79647" lon="5.28331">
        <ele>360.39999389648</ele>
        <time>2022-08-21T12:42:47.000Z</time>
      </trkpt>
      <trkpt lat="49.79667" lon="5.28332">
        <ele>357.79998779297</ele>
        <time>2022-08-21T12:42:51.000Z</time>
      </trkpt>
      <trkpt lat="49.79682" lon="5.2833">
        <ele>356.60000610352</ele>
        <time>2022-08-21T12:42:54.000Z</time>
      </trkpt>
      <trkpt lat="49.79695" lon="5.28331">
        <ele>356.20001220703</ele>
        <time>2022-08-21T12:42:57.000Z</time>
      </trkpt>
      <trkpt lat="49.79703" lon="5.28332">
        <ele>356.39999389648</ele>
        <time>2022-08-21T12:42:59.000Z</time>
      </trkpt>
      <trkpt lat="49.79721" lon="5.28333">
        <ele>359</ele>
        <time>2022-08-21T12:43:04.000Z</time>
      </trkpt>
      <trkpt lat="49.79729" lon="5.28332">
        <ele>360</ele>
        <time>2022-08-21T12:43:06.000Z</time>
      </trkpt>
      <trkpt lat="49.7974" lon="5.28331">
        <ele>361.39999389648</ele>
        <time>2022-08-21T12:43:10.000Z</time>
      </trkpt>
      <trkpt lat="49.79749" lon="5.28328">
        <ele>361.79998779297</ele>
        <time>2022-08-21T12:43:14.000Z</time>
      </trkpt>
      <trkpt lat="49.79756" lon="5.28324">
        <ele>362.20001220703</ele>
        <time>2022-08-21T12:43:17.000Z</time>
      </trkpt>
      <trkpt lat="49.79763" lon="5.28322">
        <ele>362</ele>
        <time>2022-08-21T12:43:19.000Z</time>
      </trkpt>
      <trkpt lat="49.79781" lon="5.28312">
        <ele>361.39999389648</ele>
        <time>2022-08-21T12:43:24.000Z</time>
      </trkpt>
      <trkpt lat="49.79787" lon="5.28308">
        <ele>361.60000610352</ele>
        <time>2022-08-21T12:43:26.000Z</time>
      </trkpt>
      <trkpt lat="49.79797" lon="5.283">
        <ele>362.39999389648</ele>
        <time>2022-08-21T12:43:30.000Z</time>
      </trkpt>
      <trkpt lat="49.79806" lon="5.28294">
        <ele>364.39999389648</ele>
        <time>2022-08-21T12:43:33.000Z</time>
      </trkpt>
      <trkpt lat="49.79815" lon="5.2829">
        <ele>365.20001220703</ele>
        <time>2022-08-21T12:43:36.000Z</time>
      </trkpt>
      <trkpt lat="49.7983" lon="5.28288">
        <ele>366.39999389648</ele>
        <time>2022-08-21T12:43:40.000Z</time>
      </trkpt>
      <trkpt lat="49.79839" lon="5.28285">
        <ele>366.79998779297</ele>
        <time>2022-08-21T12:43:42.000Z</time>
      </trkpt>
      <trkpt lat="49.79855" lon="5.28285">
        <ele>368.39999389648</ele>
        <time>2022-08-21T12:43:46.000Z</time>
      </trkpt>
      <trkpt lat="49.79883" lon="5.28291">
        <ele>370</ele>
        <time>2022-08-21T12:43:52.000Z</time>
      </trkpt>
      <trkpt lat="49.79886" lon="5.28293">
        <ele>370.20001220703</ele>
        <time>2022-08-21T12:43:53.000Z</time>
      </trkpt>
      <trkpt lat="49.79904" lon="5.28304">
        <ele>370.79998779297</ele>
        <time>2022-08-21T12:43:59.000Z</time>
      </trkpt>
      <trkpt lat="49.79922" lon="5.28316">
        <ele>370.60000610352</ele>
        <time>2022-08-21T12:44:04.000Z</time>
      </trkpt>
      <trkpt lat="49.79935" lon="5.28327">
        <ele>371</ele>
        <time>2022-08-21T12:44:08.000Z</time>
      </trkpt>
      <trkpt lat="49.79944" lon="5.28336">
        <ele>372</ele>
        <time>2022-08-21T12:44:11.000Z</time>
      </trkpt>
      <trkpt lat="49.79955" lon="5.28349">
        <ele>373.20001220703</ele>
        <time>2022-08-21T12:44:15.000Z</time>
      </trkpt>
      <trkpt lat="49.7996" lon="5.28355">
        <ele>374.20001220703</ele>
        <time>2022-08-21T12:44:17.000Z</time>
      </trkpt>
      <trkpt lat="49.79968" lon="5.28364">
        <ele>375</ele>
        <time>2022-08-21T12:44:20.000Z</time>
      </trkpt>
      <trkpt lat="49.7998" lon="5.28377">
        <ele>376</ele>
        <time>2022-08-21T12:44:24.000Z</time>
      </trkpt>
      <trkpt lat="49.79982" lon="5.28379">
        <ele>376.20001220703</ele>
        <time>2022-08-21T12:44:25.000Z</time>
      </trkpt>
      <trkpt lat="49.80005" lon="5.28392">
        <ele>376</ele>
        <time>2022-08-21T12:44:31.000Z</time>
      </trkpt>
      <trkpt lat="49.80023" lon="5.28404">
        <ele>375.20001220703</ele>
        <time>2022-08-21T12:44:36.000Z</time>
      </trkpt>
      <trkpt lat="49.80028" lon="5.28407">
        <ele>374.79998779297</ele>
        <time>2022-08-21T12:44:37.000Z</time>
      </trkpt>
      <trkpt lat="49.80048" lon="5.28428">
        <ele>372.39999389648</ele>
        <time>2022-08-21T12:44:43.000Z</time>
      </trkpt>
      <trkpt lat="49.80053" lon="5.28436">
        <ele>371.79998779297</ele>
        <time>2022-08-21T12:44:45.000Z</time>
      </trkpt>
      <trkpt lat="49.80063" lon="5.28455">
        <ele>371.39999389648</ele>
        <time>2022-08-21T12:44:49.000Z</time>
      </trkpt>
      <trkpt lat="49.8007" lon="5.28482">
        <ele>372.79998779297</ele>
        <time>2022-08-21T12:44:55.000Z</time>
      </trkpt>
      <trkpt lat="49.80073" lon="5.28508">
        <ele>374.20001220703</ele>
        <time>2022-08-21T12:45:01.000Z</time>
      </trkpt>
      <trkpt lat="49.80074" lon="5.28511">
        <ele>374.20001220703</ele>
        <time>2022-08-21T12:45:02.000Z</time>
      </trkpt>
      <trkpt lat="49.80075" lon="5.28537">
        <ele>374.39999389648</ele>
        <time>2022-08-21T12:45:08.000Z</time>
      </trkpt>
      <trkpt lat="49.80077" lon="5.28573">
        <ele>375.20001220703</ele>
        <time>2022-08-21T12:45:15.000Z</time>
      </trkpt>
      <trkpt lat="49.80076" lon="5.28579">
        <ele>375.60000610352</ele>
        <time>2022-08-21T12:45:16.000Z</time>
      </trkpt>
      <trkpt lat="49.80075" lon="5.2861">
        <ele>378</ele>
        <time>2022-08-21T12:45:21.000Z</time>
      </trkpt>
      <trkpt lat="49.80074" lon="5.28616">
        <ele>378.79998779297</ele>
        <time>2022-08-21T12:45:22.000Z</time>
      </trkpt>
      <trkpt lat="49.80072" lon="5.2864">
        <ele>379.79998779297</ele>
        <time>2022-08-21T12:45:26.000Z</time>
      </trkpt>
      <trkpt lat="49.80072" lon="5.28651">
        <ele>379.79998779297</ele>
        <time>2022-08-21T12:45:28.000Z</time>
      </trkpt>
      <trkpt lat="49.80072" lon="5.28671">
        <ele>379.79998779297</ele>
        <time>2022-08-21T12:45:31.000Z</time>
      </trkpt>
      <trkpt lat="49.80072" lon="5.28698">
        <ele>380.20001220703</ele>
        <time>2022-08-21T12:45:35.000Z</time>
      </trkpt>
      <trkpt lat="49.80072" lon="5.28722">
        <ele>381</ele>
        <time>2022-08-21T12:45:39.000Z</time>
      </trkpt>
      <trkpt lat="49.80072" lon="5.28728">
        <ele>381.60000610352</ele>
        <time>2022-08-21T12:45:40.000Z</time>
      </trkpt>
      <trkpt lat="49.80073" lon="5.28742">
        <ele>382.79998779297</ele>
        <time>2022-08-21T12:45:43.000Z</time>
      </trkpt>
      <trkpt lat="49.80076" lon="5.28757">
        <ele>384.20001220703</ele>
        <time>2022-08-21T12:45:46.000Z</time>
      </trkpt>
      <trkpt lat="49.80084" lon="5.28788">
        <ele>386</ele>
        <time>2022-08-21T12:45:52.000Z</time>
      </trkpt>
      <trkpt lat="49.80086" lon="5.28794">
        <ele>386.39999389648</ele>
        <time>2022-08-21T12:45:53.000Z</time>
      </trkpt>
      <trkpt lat="49.80094" lon="5.28823">
        <ele>387.39999389648</ele>
        <time>2022-08-21T12:45:58.000Z</time>
      </trkpt>
      <trkpt lat="49.80096" lon="5.28829">
        <ele>387.39999389648</ele>
        <time>2022-08-21T12:45:59.000Z</time>
      </trkpt>
      <trkpt lat="49.80109" lon="5.28862">
        <ele>388</ele>
        <time>2022-08-21T12:46:05.000Z</time>
      </trkpt>
      <trkpt lat="49.80121" lon="5.28891">
        <ele>388.79998779297</ele>
        <time>2022-08-21T12:46:11.000Z</time>
      </trkpt>
      <trkpt lat="49.80127" lon="5.28904">
        <ele>389.39999389648</ele>
        <time>2022-08-21T12:46:14.000Z</time>
      </trkpt>
      <trkpt lat="49.80133" lon="5.28918">
        <ele>389.79998779297</ele>
        <time>2022-08-21T12:46:17.000Z</time>
      </trkpt>
      <trkpt lat="49.80145" lon="5.28944">
        <ele>390.39999389648</ele>
        <time>2022-08-21T12:46:23.000Z</time>
      </trkpt>
      <trkpt lat="49.80148" lon="5.28949">
        <ele>390.60000610352</ele>
        <time>2022-08-21T12:46:24.000Z</time>
      </trkpt>
      <trkpt lat="49.80156" lon="5.28966">
        <ele>392</ele>
        <time>2022-08-21T12:46:29.000Z</time>
      </trkpt>
      <trkpt lat="49.80157" lon="5.28969">
        <ele>392</ele>
        <time>2022-08-21T12:46:30.000Z</time>
      </trkpt>
      <trkpt lat="49.80164" lon="5.28992">
        <ele>393.39999389648</ele>
        <time>2022-08-21T12:46:35.000Z</time>
      </trkpt>
      <trkpt lat="49.80169" lon="5.29012">
        <ele>394.39999389648</ele>
        <time>2022-08-21T12:46:39.000Z</time>
      </trkpt>
      <trkpt lat="49.80173" lon="5.29028">
        <ele>395</ele>
        <time>2022-08-21T12:46:43.000Z</time>
      </trkpt>
      <trkpt lat="49.80176" lon="5.29047">
        <ele>395.39999389648</ele>
        <time>2022-08-21T12:46:47.000Z</time>
      </trkpt>
      <trkpt lat="49.80175" lon="5.29057">
        <ele>396.20001220703</ele>
        <time>2022-08-21T12:46:49.000Z</time>
      </trkpt>
      <trkpt lat="49.80174" lon="5.29072">
        <ele>397.20001220703</ele>
        <time>2022-08-21T12:46:52.000Z</time>
      </trkpt>
      <trkpt lat="49.80168" lon="5.29089">
        <ele>399.79998779297</ele>
        <time>2022-08-21T12:46:56.000Z</time>
      </trkpt>
      <trkpt lat="49.80164" lon="5.29105">
        <ele>401.79998779297</ele>
        <time>2022-08-21T12:46:59.000Z</time>
      </trkpt>
      <trkpt lat="49.80163" lon="5.29123">
        <ele>404</ele>
        <time>2022-08-21T12:47:02.000Z</time>
      </trkpt>
      <trkpt lat="49.80163" lon="5.29135">
        <ele>404.79998779297</ele>
        <time>2022-08-21T12:47:04.000Z</time>
      </trkpt>
      <trkpt lat="49.80165" lon="5.29166">
        <ele>407.20001220703</ele>
        <time>2022-08-21T12:47:09.000Z</time>
      </trkpt>
      <trkpt lat="49.80163" lon="5.29187">
        <ele>409.79998779297</ele>
        <time>2022-08-21T12:47:13.000Z</time>
      </trkpt>
      <trkpt lat="49.80162" lon="5.29202">
        <ele>410.60000610352</ele>
        <time>2022-08-21T12:47:16.000Z</time>
      </trkpt>
      <trkpt lat="49.80161" lon="5.29212">
        <ele>411.60000610352</ele>
        <time>2022-08-21T12:47:18.000Z</time>
      </trkpt>
      <trkpt lat="49.8016" lon="5.29233">
        <ele>413</ele>
        <time>2022-08-21T12:47:22.000Z</time>
      </trkpt>
      <trkpt lat="49.80159" lon="5.29248">
        <ele>414.20001220703</ele>
        <time>2022-08-21T12:47:25.000Z</time>
      </trkpt>
      <trkpt lat="49.80158" lon="5.29258">
        <ele>415</ele>
        <time>2022-08-21T12:47:27.000Z</time>
      </trkpt>
      <trkpt lat="49.80155" lon="5.29283">
        <ele>415.39999389648</ele>
        <time>2022-08-21T12:47:32.000Z</time>
      </trkpt>
      <trkpt lat="49.80155" lon="5.29291">
        <ele>415.39999389648</ele>
        <time>2022-08-21T12:47:34.000Z</time>
      </trkpt>
      <trkpt lat="49.80154" lon="5.29304">
        <ele>415.79998779297</ele>
        <time>2022-08-21T12:47:37.000Z</time>
      </trkpt>
      <trkpt lat="49.80152" lon="5.29322">
        <ele>416.60000610352</ele>
        <time>2022-08-21T12:47:41.000Z</time>
      </trkpt>
      <trkpt lat="49.80151" lon="5.29327">
        <ele>417</ele>
        <time>2022-08-21T12:47:42.000Z</time>
      </trkpt>
      <trkpt lat="49.80148" lon="5.29345">
        <ele>417.20001220703</ele>
        <time>2022-08-21T12:47:46.000Z</time>
      </trkpt>
      <trkpt lat="49.80147" lon="5.29349">
        <ele>417.20001220703</ele>
        <time>2022-08-21T12:47:47.000Z</time>
      </trkpt>
      <trkpt lat="49.80144" lon="5.29362">
        <ele>417.79998779297</ele>
        <time>2022-08-21T12:47:50.000Z</time>
      </trkpt>
      <trkpt lat="49.8014" lon="5.2938">
        <ele>418.79998779297</ele>
        <time>2022-08-21T12:47:54.000Z</time>
      </trkpt>
      <trkpt lat="49.80136" lon="5.29405">
        <ele>418.79998779297</ele>
        <time>2022-08-21T12:47:59.000Z</time>
      </trkpt>
      <trkpt lat="49.80137" lon="5.29416">
        <ele>418.20001220703</ele>
        <time>2022-08-21T12:48:01.000Z</time>
      </trkpt>
      <trkpt lat="49.8014" lon="5.2943">
        <ele>416.79998779297</ele>
        <time>2022-08-21T12:48:04.000Z</time>
      </trkpt>
      <trkpt lat="49.80143" lon="5.29448">
        <ele>416</ele>
        <time>2022-08-21T12:48:07.000Z</time>
      </trkpt>
      <trkpt lat="49.80148" lon="5.2948">
        <ele>414.79998779297</ele>
        <time>2022-08-21T12:48:13.000Z</time>
      </trkpt>
      <trkpt lat="49.80156" lon="5.29518">
        <ele>413.20001220703</ele>
        <time>2022-08-21T12:48:19.000Z</time>
      </trkpt>
      <trkpt lat="49.80158" lon="5.29531">
        <ele>413.39999389648</ele>
        <time>2022-08-21T12:48:21.000Z</time>
      </trkpt>
      <trkpt lat="49.80162" lon="5.29553">
        <ele>414.39999389648</ele>
        <time>2022-08-21T12:48:25.000Z</time>
      </trkpt>
      <trkpt lat="49.80173" lon="5.29591">
        <ele>420.39999389648</ele>
        <time>2022-08-21T12:48:32.000Z</time>
      </trkpt>
      <trkpt lat="49.8019" lon="5.29621">
        <ele>426.79998779297</ele>
        <time>2022-08-21T12:48:39.000Z</time>
      </trkpt>
      <trkpt lat="49.80207" lon="5.2964">
        <ele>429.79998779297</ele>
        <time>2022-08-21T12:48:45.000Z</time>
      </trkpt>
      <trkpt lat="49.80214" lon="5.29645">
        <ele>430</ele>
        <time>2022-08-21T12:48:47.000Z</time>
      </trkpt>
      <trkpt lat="49.80238" lon="5.29658">
        <ele>430.39999389648</ele>
        <time>2022-08-21T12:48:53.000Z</time>
      </trkpt>
      <trkpt lat="49.80252" lon="5.29666">
        <ele>431</ele>
        <time>2022-08-21T12:48:57.000Z</time>
      </trkpt>
      <trkpt lat="49.80263" lon="5.29673">
        <ele>431.79998779297</ele>
        <time>2022-08-21T12:49:00.000Z</time>
      </trkpt>
      <trkpt lat="49.80267" lon="5.29676">
        <ele>432.20001220703</ele>
        <time>2022-08-21T12:49:01.000Z</time>
      </trkpt>
      <trkpt lat="49.80281" lon="5.29687">
        <ele>433.79998779297</ele>
        <time>2022-08-21T12:49:05.000Z</time>
      </trkpt>
      <trkpt lat="49.80287" lon="5.29693">
        <ele>434.20001220703</ele>
        <time>2022-08-21T12:49:07.000Z</time>
      </trkpt>
      <trkpt lat="49.80294" lon="5.297">
        <ele>433.79998779297</ele>
        <time>2022-08-21T12:49:09.000Z</time>
      </trkpt>
      <trkpt lat="49.80305" lon="5.29717">
        <ele>433.20001220703</ele>
        <time>2022-08-21T12:49:13.000Z</time>
      </trkpt>
      <trkpt lat="49.80308" lon="5.29721">
        <ele>433.20001220703</ele>
        <time>2022-08-21T12:49:14.000Z</time>
      </trkpt>
      <trkpt lat="49.80319" lon="5.29739">
        <ele>432</ele>
        <time>2022-08-21T12:49:18.000Z</time>
      </trkpt>
      <trkpt lat="49.8033" lon="5.29758">
        <ele>430.20001220703</ele>
        <time>2022-08-21T12:49:22.000Z</time>
      </trkpt>
      <trkpt lat="49.80332" lon="5.29763">
        <ele>429.79998779297</ele>
        <time>2022-08-21T12:49:23.000Z</time>
      </trkpt>
      <trkpt lat="49.80343" lon="5.29796">
        <ele>425.79998779297</ele>
        <time>2022-08-21T12:49:29.000Z</time>
      </trkpt>
      <trkpt lat="49.80344" lon="5.29801">
        <ele>425.39999389648</ele>
        <time>2022-08-21T12:49:30.000Z</time>
      </trkpt>
      <trkpt lat="49.80349" lon="5.29828">
        <ele>424.20001220703</ele>
        <time>2022-08-21T12:49:35.000Z</time>
      </trkpt>
      <trkpt lat="49.8035" lon="5.29846">
        <ele>423.79998779297</ele>
        <time>2022-08-21T12:49:38.000Z</time>
      </trkpt>
      <trkpt lat="49.80352" lon="5.29857">
        <ele>423.39999389648</ele>
        <time>2022-08-21T12:49:40.000Z</time>
      </trkpt>
      <trkpt lat="49.80354" lon="5.29888">
        <ele>423.39999389648</ele>
        <time>2022-08-21T12:49:45.000Z</time>
      </trkpt>
      <trkpt lat="49.80354" lon="5.29894">
        <ele>423.60000610352</ele>
        <time>2022-08-21T12:49:46.000Z</time>
      </trkpt>
      <trkpt lat="49.80355" lon="5.29913">
        <ele>423.60000610352</ele>
        <time>2022-08-21T12:49:50.000Z</time>
      </trkpt>
      <trkpt lat="49.80355" lon="5.29918">
        <ele>424</ele>
        <time>2022-08-21T12:49:51.000Z</time>
      </trkpt>
      <trkpt lat="49.80358" lon="5.29951">
        <ele>425.39999389648</ele>
        <time>2022-08-21T12:49:58.000Z</time>
      </trkpt>
      <trkpt lat="49.80366" lon="5.2999">
        <ele>428.60000610352</ele>
        <time>2022-08-21T12:50:05.000Z</time>
      </trkpt>
      <trkpt lat="49.80372" lon="5.30045">
        <ele>436.39999389648</ele>
        <time>2022-08-21T12:50:12.000Z</time>
      </trkpt>
      <trkpt lat="49.80374" lon="5.30054">
        <ele>437.79998779297</ele>
        <time>2022-08-21T12:50:13.000Z</time>
      </trkpt>
      <trkpt lat="49.80387" lon="5.30114">
        <ele>441.20001220703</ele>
        <time>2022-08-21T12:50:22.000Z</time>
      </trkpt>
      <trkpt lat="49.80389" lon="5.3012">
        <ele>441.39999389648</ele>
        <time>2022-08-21T12:50:23.000Z</time>
      </trkpt>
      <trkpt lat="49.80401" lon="5.30154">
        <ele>440.79998779297</ele>
        <time>2022-08-21T12:50:29.000Z</time>
      </trkpt>
      <trkpt lat="49.80412" lon="5.30182">
        <ele>438.60000610352</ele>
        <time>2022-08-21T12:50:34.000Z</time>
      </trkpt>
      <trkpt lat="49.80421" lon="5.30204">
        <ele>437.39999389648</ele>
        <time>2022-08-21T12:50:38.000Z</time>
      </trkpt>
      <trkpt lat="49.80427" lon="5.30222">
        <ele>436.60000610352</ele>
        <time>2022-08-21T12:50:41.000Z</time>
      </trkpt>
      <trkpt lat="49.80438" lon="5.30252">
        <ele>435.39999389648</ele>
        <time>2022-08-21T12:50:46.000Z</time>
      </trkpt>
      <trkpt lat="49.80446" lon="5.30273">
        <ele>435</ele>
        <time>2022-08-21T12:50:50.000Z</time>
      </trkpt>
      <trkpt lat="49.80453" lon="5.30289">
        <ele>435.79998779297</ele>
        <time>2022-08-21T12:50:53.000Z</time>
      </trkpt>
      <trkpt lat="49.80473" lon="5.3033">
        <ele>437</ele>
        <time>2022-08-21T12:51:01.000Z</time>
      </trkpt>
      <trkpt lat="49.80475" lon="5.30335">
        <ele>437</ele>
        <time>2022-08-21T12:51:02.000Z</time>
      </trkpt>
      <trkpt lat="49.80487" lon="5.30358">
        <ele>436.60000610352</ele>
        <time>2022-08-21T12:51:07.000Z</time>
      </trkpt>
      <trkpt lat="49.805" lon="5.30384">
        <ele>436.20001220703</ele>
        <time>2022-08-21T12:51:12.000Z</time>
      </trkpt>
      <trkpt lat="49.80514" lon="5.3041">
        <ele>436.79998779297</ele>
        <time>2022-08-21T12:51:17.000Z</time>
      </trkpt>
      <trkpt lat="49.80533" lon="5.30444">
        <ele>437.60000610352</ele>
        <time>2022-08-21T12:51:24.000Z</time>
      </trkpt>
      <trkpt lat="49.80539" lon="5.30454">
        <ele>437.60000610352</ele>
        <time>2022-08-21T12:51:26.000Z</time>
      </trkpt>
      <trkpt lat="49.8056" lon="5.30491">
        <ele>438.79998779297</ele>
        <time>2022-08-21T12:51:33.000Z</time>
      </trkpt>
      <trkpt lat="49.8058" lon="5.3053">
        <ele>442.20001220703</ele>
        <time>2022-08-21T12:51:40.000Z</time>
      </trkpt>
      <trkpt lat="49.806" lon="5.30565">
        <ele>443.79998779297</ele>
        <time>2022-08-21T12:51:47.000Z</time>
      </trkpt>
      <trkpt lat="49.80614" lon="5.30591">
        <ele>443.20001220703</ele>
        <time>2022-08-21T12:51:52.000Z</time>
      </trkpt>
      <trkpt lat="49.80622" lon="5.30608">
        <ele>442.79998779297</ele>
        <time>2022-08-21T12:51:55.000Z</time>
      </trkpt>
      <trkpt lat="49.80638" lon="5.30641">
        <ele>443.20001220703</ele>
        <time>2022-08-21T12:52:01.000Z</time>
      </trkpt>
      <trkpt lat="49.80644" lon="5.3065">
        <ele>443.39999389648</ele>
        <time>2022-08-21T12:52:03.000Z</time>
      </trkpt>
      <trkpt lat="49.8066" lon="5.30677">
        <ele>444.39999389648</ele>
        <time>2022-08-21T12:52:09.000Z</time>
      </trkpt>
      <trkpt lat="49.80668" lon="5.30686">
        <ele>444.39999389648</ele>
        <time>2022-08-21T12:52:11.000Z</time>
      </trkpt>
      <trkpt lat="49.80693" lon="5.30711">
        <ele>442</ele>
        <time>2022-08-21T12:52:17.000Z</time>
      </trkpt>
      <trkpt lat="49.80701" lon="5.3072">
        <ele>440.79998779297</ele>
        <time>2022-08-21T12:52:19.000Z</time>
      </trkpt>
      <trkpt lat="49.80734" lon="5.30757">
        <ele>433</ele>
        <time>2022-08-21T12:52:27.000Z</time>
      </trkpt>
      <trkpt lat="49.80738" lon="5.3076">
        <ele>432.60000610352</ele>
        <time>2022-08-21T12:52:28.000Z</time>
      </trkpt>
      <trkpt lat="49.80764" lon="5.30786">
        <ele>430.79998779297</ele>
        <time>2022-08-21T12:52:34.000Z</time>
      </trkpt>
      <trkpt lat="49.80798" lon="5.30819">
        <ele>431.60000610352</ele>
        <time>2022-08-21T12:52:42.000Z</time>
      </trkpt>
      <trkpt lat="49.80834" lon="5.30855">
        <ele>433.39999389648</ele>
        <time>2022-08-21T12:52:51.000Z</time>
      </trkpt>
      <trkpt lat="49.80838" lon="5.30859">
        <ele>433.79998779297</ele>
        <time>2022-08-21T12:52:52.000Z</time>
      </trkpt>
      <trkpt lat="49.8086" lon="5.30886">
        <ele>436</ele>
        <time>2022-08-21T12:52:58.000Z</time>
      </trkpt>
      <trkpt lat="49.80863" lon="5.30891">
        <ele>436.39999389648</ele>
        <time>2022-08-21T12:52:59.000Z</time>
      </trkpt>
      <trkpt lat="49.80881" lon="5.30917">
        <ele>438</ele>
        <time>2022-08-21T12:53:04.000Z</time>
      </trkpt>
      <trkpt lat="49.80905" lon="5.30958">
        <ele>437.39999389648</ele>
        <time>2022-08-21T12:53:11.000Z</time>
      </trkpt>
      <trkpt lat="49.80943" lon="5.31016">
        <ele>435</ele>
        <time>2022-08-21T12:53:21.000Z</time>
      </trkpt>
      <trkpt lat="49.8095" lon="5.31024">
        <ele>435</ele>
        <time>2022-08-21T12:53:23.000Z</time>
      </trkpt>
      <trkpt lat="49.80964" lon="5.31037">
        <ele>436</ele>
        <time>2022-08-21T12:53:27.000Z</time>
      </trkpt>
      <trkpt lat="49.80988" lon="5.31058">
        <ele>438</ele>
        <time>2022-08-21T12:53:32.000Z</time>
      </trkpt>
      <trkpt lat="49.81034" lon="5.31099">
        <ele>445.20001220703</ele>
        <time>2022-08-21T12:53:42.000Z</time>
      </trkpt>
      <trkpt lat="49.81039" lon="5.31109">
        <ele>446.60000610352</ele>
        <time>2022-08-21T12:53:44.000Z</time>
      </trkpt>
      <trkpt lat="49.81038" lon="5.31114">
        <ele>447.20001220703</ele>
        <time>2022-08-21T12:53:45.000Z</time>
      </trkpt>
      <trkpt lat="49.81031" lon="5.31124">
        <ele>448</ele>
        <time>2022-08-21T12:53:48.000Z</time>
      </trkpt>
      <trkpt lat="49.81026" lon="5.31128">
        <ele>448</ele>
        <time>2022-08-21T12:53:50.000Z</time>
      </trkpt>
      <trkpt lat="49.81017" lon="5.31139">
        <ele>447.79998779297</ele>
        <time>2022-08-21T12:53:54.000Z</time>
      </trkpt>
      <trkpt lat="49.81007" lon="5.3115">
        <ele>448.79998779297</ele>
        <time>2022-08-21T12:53:58.000Z</time>
      </trkpt>
      <trkpt lat="49.81" lon="5.31159">
        <ele>449.60000610352</ele>
        <time>2022-08-21T12:54:01.000Z</time>
      </trkpt>
      <trkpt lat="49.80998" lon="5.31162">
        <ele>449.60000610352</ele>
        <time>2022-08-21T12:54:02.000Z</time>
      </trkpt>
      <trkpt lat="49.80982" lon="5.31187">
        <ele>450</ele>
        <time>2022-08-21T12:54:09.000Z</time>
      </trkpt>
      <trkpt lat="49.80978" lon="5.31194">
        <ele>449.60000610352</ele>
        <time>2022-08-21T12:54:11.000Z</time>
      </trkpt>
      <trkpt lat="49.80971" lon="5.31207">
        <ele>448.79998779297</ele>
        <time>2022-08-21T12:54:14.000Z</time>
      </trkpt>
      <trkpt lat="49.80963" lon="5.31225">
        <ele>447.79998779297</ele>
        <time>2022-08-21T12:54:18.000Z</time>
      </trkpt>
      <trkpt lat="49.80955" lon="5.31243">
        <ele>446.39999389648</ele>
        <time>2022-08-21T12:54:22.000Z</time>
      </trkpt>
      <trkpt lat="49.80944" lon="5.31271">
        <ele>445.20001220703</ele>
        <time>2022-08-21T12:54:28.000Z</time>
      </trkpt>
      <trkpt lat="49.80942" lon="5.31276">
        <ele>445.39999389648</ele>
        <time>2022-08-21T12:54:29.000Z</time>
      </trkpt>
      <trkpt lat="49.80928" lon="5.31315">
        <ele>447.20001220703</ele>
        <time>2022-08-21T12:54:36.000Z</time>
      </trkpt>
      <trkpt lat="49.80919" lon="5.31356">
        <ele>449.20001220703</ele>
        <time>2022-08-21T12:54:41.000Z</time>
      </trkpt>
      <trkpt lat="49.80913" lon="5.31383">
        <ele>449.20001220703</ele>
        <time>2022-08-21T12:54:44.000Z</time>
      </trkpt>
      <trkpt lat="49.80906" lon="5.31418">
        <ele>448.20001220703</ele>
        <time>2022-08-21T12:54:48.000Z</time>
      </trkpt>
      <trkpt lat="49.80892" lon="5.31474">
        <ele>446.79998779297</ele>
        <time>2022-08-21T12:54:54.000Z</time>
      </trkpt>
      <trkpt lat="49.80888" lon="5.31491">
        <ele>446.39999389648</ele>
        <time>2022-08-21T12:54:56.000Z</time>
      </trkpt>
      <trkpt lat="49.8088" lon="5.31517">
        <ele>447</ele>
        <time>2022-08-21T12:54:59.000Z</time>
      </trkpt>
      <trkpt lat="49.80868" lon="5.31549">
        <ele>446.79998779297</ele>
        <time>2022-08-21T12:55:03.000Z</time>
      </trkpt>
      <trkpt lat="49.80837" lon="5.31617">
        <ele>448.39999389648</ele>
        <time>2022-08-21T12:55:12.000Z</time>
      </trkpt>
      <trkpt lat="49.80826" lon="5.31644">
        <ele>449</ele>
        <time>2022-08-21T12:55:16.000Z</time>
      </trkpt>
      <trkpt lat="49.80822" lon="5.31658">
        <ele>448.39999389648</ele>
        <time>2022-08-21T12:55:18.000Z</time>
      </trkpt>
      <trkpt lat="49.80819" lon="5.31664">
        <ele>447.79998779297</ele>
        <time>2022-08-21T12:55:19.000Z</time>
      </trkpt>
      <trkpt lat="49.80808" lon="5.3168">
        <ele>446.60000610352</ele>
        <time>2022-08-21T12:55:22.000Z</time>
      </trkpt>
      <trkpt lat="49.80804" lon="5.31686">
        <ele>446.60000610352</ele>
        <time>2022-08-21T12:55:23.000Z</time>
      </trkpt>
      <trkpt lat="49.80789" lon="5.31708">
        <ele>446.20001220703</ele>
        <time>2022-08-21T12:55:27.000Z</time>
      </trkpt>
      <trkpt lat="49.80763" lon="5.31737">
        <ele>446.39999389648</ele>
        <time>2022-08-21T12:55:34.000Z</time>
      </trkpt>
      <trkpt lat="49.80741" lon="5.31756">
        <ele>447.79998779297</ele>
        <time>2022-08-21T12:55:39.000Z</time>
      </trkpt>
      <trkpt lat="49.80694" lon="5.31786">
        <ele>446.60000610352</ele>
        <time>2022-08-21T12:55:48.000Z</time>
      </trkpt>
      <trkpt lat="49.80674" lon="5.31801">
        <ele>446.79998779297</ele>
        <time>2022-08-21T12:55:52.000Z</time>
      </trkpt>
      <trkpt lat="49.80653" lon="5.31815">
        <ele>445.79998779297</ele>
        <time>2022-08-21T12:55:56.000Z</time>
      </trkpt>
      <trkpt lat="49.80622" lon="5.31837">
        <ele>446.60000610352</ele>
        <time>2022-08-21T12:56:02.000Z</time>
      </trkpt>
      <trkpt lat="49.80601" lon="5.31851">
        <ele>449.60000610352</ele>
        <time>2022-08-21T12:56:06.000Z</time>
      </trkpt>
      <trkpt lat="49.80596" lon="5.31855">
        <ele>450.60000610352</ele>
        <time>2022-08-21T12:56:07.000Z</time>
      </trkpt>
      <trkpt lat="49.80559" lon="5.31875">
        <ele>452.60000610352</ele>
        <time>2022-08-21T12:56:14.000Z</time>
      </trkpt>
      <trkpt lat="49.80542" lon="5.31881">
        <ele>449.79998779297</ele>
        <time>2022-08-21T12:56:17.000Z</time>
      </trkpt>
      <trkpt lat="49.80514" lon="5.31894">
        <ele>443.39999389648</ele>
        <time>2022-08-21T12:56:22.000Z</time>
      </trkpt>
      <trkpt lat="49.80508" lon="5.31898">
        <ele>442</ele>
        <time>2022-08-21T12:56:23.000Z</time>
      </trkpt>
      <trkpt lat="49.80504" lon="5.31902">
        <ele>441</ele>
        <time>2022-08-21T12:56:24.000Z</time>
      </trkpt>
      <trkpt lat="49.80498" lon="5.31922">
        <ele>439.79998779297</ele>
        <time>2022-08-21T12:56:27.000Z</time>
      </trkpt>
      <trkpt lat="49.80499" lon="5.31928">
        <ele>440</ele>
        <time>2022-08-21T12:56:28.000Z</time>
      </trkpt>
      <trkpt lat="49.80502" lon="5.31941">
        <ele>440.60000610352</ele>
        <time>2022-08-21T12:56:30.000Z</time>
      </trkpt>
      <trkpt lat="49.80503" lon="5.31948">
        <ele>440.60000610352</ele>
        <time>2022-08-21T12:56:31.000Z</time>
      </trkpt>
      <trkpt lat="49.80515" lon="5.3201">
        <ele>439.79998779297</ele>
        <time>2022-08-21T12:56:39.000Z</time>
      </trkpt>
      <trkpt lat="49.80516" lon="5.32018">
        <ele>439.79998779297</ele>
        <time>2022-08-21T12:56:40.000Z</time>
      </trkpt>
      <trkpt lat="49.80513" lon="5.32031">
        <ele>438.79998779297</ele>
        <time>2022-08-21T12:56:42.000Z</time>
      </trkpt>
      <trkpt lat="49.80509" lon="5.32034">
        <ele>438.20001220703</ele>
        <time>2022-08-21T12:56:43.000Z</time>
      </trkpt>
      <trkpt lat="49.80497" lon="5.32026">
        <ele>436.79998779297</ele>
        <time>2022-08-21T12:56:46.000Z</time>
      </trkpt>
      <trkpt lat="49.80488" lon="5.32021">
        <ele>435.79998779297</ele>
        <time>2022-08-21T12:56:48.000Z</time>
      </trkpt>
      <trkpt lat="49.80479" lon="5.32015">
        <ele>435</ele>
        <time>2022-08-21T12:56:50.000Z</time>
      </trkpt>
      <trkpt lat="49.8047" lon="5.32009">
        <ele>434.20001220703</ele>
        <time>2022-08-21T12:56:52.000Z</time>
      </trkpt>
      <trkpt lat="49.80466" lon="5.32007">
        <ele>434</ele>
        <time>2022-08-21T12:56:53.000Z</time>
      </trkpt>
      <trkpt lat="49.80438" lon="5.31997">
        <ele>432.60000610352</ele>
        <time>2022-08-21T12:56:59.000Z</time>
      </trkpt>
      <trkpt lat="49.8042" lon="5.31993">
        <ele>432.20001220703</ele>
        <time>2022-08-21T12:57:03.000Z</time>
      </trkpt>
      <trkpt lat="49.80408" lon="5.31992">
        <ele>432.60000610352</ele>
        <time>2022-08-21T12:57:06.000Z</time>
      </trkpt>
      <trkpt lat="49.80375" lon="5.31989">
        <ele>433.79998779297</ele>
        <time>2022-08-21T12:57:13.000Z</time>
      </trkpt>
      <trkpt lat="49.80325" lon="5.31987">
        <ele>431</ele>
        <time>2022-08-21T12:57:22.000Z</time>
      </trkpt>
      <trkpt lat="49.80314" lon="5.31988">
        <ele>430.20001220703</ele>
        <time>2022-08-21T12:57:24.000Z</time>
      </trkpt>
      <trkpt lat="49.80276" lon="5.31987">
        <ele>430.39999389648</ele>
        <time>2022-08-21T12:57:31.000Z</time>
      </trkpt>
      <trkpt lat="49.80248" lon="5.31987">
        <ele>431.39999389648</ele>
        <time>2022-08-21T12:57:36.000Z</time>
      </trkpt>
      <trkpt lat="49.80227" lon="5.31986">
        <ele>432.60000610352</ele>
        <time>2022-08-21T12:57:40.000Z</time>
      </trkpt>
      <trkpt lat="49.802" lon="5.31984">
        <ele>432</ele>
        <time>2022-08-21T12:57:45.000Z</time>
      </trkpt>
      <trkpt lat="49.80189" lon="5.31984">
        <ele>430.79998779297</ele>
        <time>2022-08-21T12:57:47.000Z</time>
      </trkpt>
      <trkpt lat="49.80173" lon="5.31982">
        <ele>429</ele>
        <time>2022-08-21T12:57:50.000Z</time>
      </trkpt>
      <trkpt lat="49.8015" lon="5.31973">
        <ele>427.39999389648</ele>
        <time>2022-08-21T12:57:54.000Z</time>
      </trkpt>
      <trkpt lat="49.80145" lon="5.3197">
        <ele>427</ele>
        <time>2022-08-21T12:57:55.000Z</time>
      </trkpt>
      <trkpt lat="49.80128" lon="5.31964">
        <ele>426.39999389648</ele>
        <time>2022-08-21T12:57:58.000Z</time>
      </trkpt>
      <trkpt lat="49.8011" lon="5.31956">
        <ele>425.79998779297</ele>
        <time>2022-08-21T12:58:01.000Z</time>
      </trkpt>
      <trkpt lat="49.80103" lon="5.31953">
        <ele>425.39999389648</ele>
        <time>2022-08-21T12:58:02.000Z</time>
      </trkpt>
      <trkpt lat="49.80082" lon="5.31942">
        <ele>425.39999389648</ele>
        <time>2022-08-21T12:58:05.000Z</time>
      </trkpt>
      <trkpt lat="49.80067" lon="5.31933">
        <ele>425.60000610352</ele>
        <time>2022-08-21T12:58:07.000Z</time>
      </trkpt>
      <trkpt lat="49.80058" lon="5.31927">
        <ele>425.79998779297</ele>
        <time>2022-08-21T12:58:08.000Z</time>
      </trkpt>
      <trkpt lat="49.80039" lon="5.31916">
        <ele>426</ele>
        <time>2022-08-21T12:58:10.000Z</time>
      </trkpt>
      <trkpt lat="49.80029" lon="5.31909">
        <ele>425.60000610352</ele>
        <time>2022-08-21T12:58:11.000Z</time>
      </trkpt>
      <trkpt lat="49.8002" lon="5.31902">
        <ele>425</ele>
        <time>2022-08-21T12:58:12.000Z</time>
      </trkpt>
      <trkpt lat="49.80011" lon="5.31895">
        <ele>424.39999389648</ele>
        <time>2022-08-21T12:58:13.000Z</time>
      </trkpt>
      <trkpt lat="49.80001" lon="5.31889">
        <ele>423.20001220703</ele>
        <time>2022-08-21T12:58:14.000Z</time>
      </trkpt>
      <trkpt lat="49.79991" lon="5.31884">
        <ele>421.60000610352</ele>
        <time>2022-08-21T12:58:15.000Z</time>
      </trkpt>
      <trkpt lat="49.7998" lon="5.31881">
        <ele>419.79998779297</ele>
        <time>2022-08-21T12:58:16.000Z</time>
      </trkpt>
      <trkpt lat="49.7997" lon="5.31879">
        <ele>419</ele>
        <time>2022-08-21T12:58:17.000Z</time>
      </trkpt>
      <trkpt lat="49.79939" lon="5.31876">
        <ele>417.60000610352</ele>
        <time>2022-08-21T12:58:20.000Z</time>
      </trkpt>
      <trkpt lat="49.7993" lon="5.31879">
        <ele>417</ele>
        <time>2022-08-21T12:58:21.000Z</time>
      </trkpt>
      <trkpt lat="49.79921" lon="5.31883">
        <ele>416.39999389648</ele>
        <time>2022-08-21T12:58:22.000Z</time>
      </trkpt>
      <trkpt lat="49.79913" lon="5.31887">
        <ele>416.60000610352</ele>
        <time>2022-08-21T12:58:23.000Z</time>
      </trkpt>
      <trkpt lat="49.79887" lon="5.31898">
        <ele>418</ele>
        <time>2022-08-21T12:58:26.000Z</time>
      </trkpt>
      <trkpt lat="49.79862" lon="5.31905">
        <ele>417.20001220703</ele>
        <time>2022-08-21T12:58:29.000Z</time>
      </trkpt>
      <trkpt lat="49.79845" lon="5.31909">
        <ele>416.39999389648</ele>
        <time>2022-08-21T12:58:31.000Z</time>
      </trkpt>
      <trkpt lat="49.79813" lon="5.31915">
        <ele>415.20001220703</ele>
        <time>2022-08-21T12:58:35.000Z</time>
      </trkpt>
      <trkpt lat="49.79805" lon="5.31916">
        <ele>414</ele>
        <time>2022-08-21T12:58:36.000Z</time>
      </trkpt>
      <trkpt lat="49.79798" lon="5.31915">
        <ele>413.20001220703</ele>
        <time>2022-08-21T12:58:37.000Z</time>
      </trkpt>
      <trkpt lat="49.79791" lon="5.31914">
        <ele>412.39999389648</ele>
        <time>2022-08-21T12:58:38.000Z</time>
      </trkpt>
      <trkpt lat="49.79778" lon="5.31911">
        <ele>410.60000610352</ele>
        <time>2022-08-21T12:58:40.000Z</time>
      </trkpt>
      <trkpt lat="49.79771" lon="5.31909">
        <ele>409.79998779297</ele>
        <time>2022-08-21T12:58:41.000Z</time>
      </trkpt>
      <trkpt lat="49.79763" lon="5.31907">
        <ele>408.60000610352</ele>
        <time>2022-08-21T12:58:42.000Z</time>
      </trkpt>
      <trkpt lat="49.79743" lon="5.31898">
        <ele>406.79998779297</ele>
        <time>2022-08-21T12:58:45.000Z</time>
      </trkpt>
      <trkpt lat="49.7973" lon="5.31892">
        <ele>405.79998779297</ele>
        <time>2022-08-21T12:58:47.000Z</time>
      </trkpt>
      <trkpt lat="49.79719" lon="5.31887">
        <ele>405.39999389648</ele>
        <time>2022-08-21T12:58:49.000Z</time>
      </trkpt>
      <trkpt lat="49.79715" lon="5.31885">
        <ele>405.20001220703</ele>
        <time>2022-08-21T12:58:50.000Z</time>
      </trkpt>
      <trkpt lat="49.79711" lon="5.31883">
        <ele>405</ele>
        <time>2022-08-21T12:58:51.000Z</time>
      </trkpt>
      <trkpt lat="49.79703" lon="5.3188">
        <ele>404.60000610352</ele>
        <time>2022-08-21T12:58:54.000Z</time>
      </trkpt>
      <trkpt lat="49.7969" lon="5.31876">
        <ele>403.79998779297</ele>
        <time>2022-08-21T12:59:00.000Z</time>
      </trkpt>
      <trkpt lat="49.79681" lon="5.3187">
        <ele>403.79998779297</ele>
        <time>2022-08-21T12:59:03.000Z</time>
      </trkpt>
      <trkpt lat="49.79674" lon="5.31865">
        <ele>403.60000610352</ele>
        <time>2022-08-21T12:59:05.000Z</time>
      </trkpt>
      <trkpt lat="49.79663" lon="5.31857">
        <ele>403.60000610352</ele>
        <time>2022-08-21T12:59:07.000Z</time>
      </trkpt>
      <trkpt lat="49.79652" lon="5.3185">
        <ele>403.20001220703</ele>
        <time>2022-08-21T12:59:09.000Z</time>
      </trkpt>
      <trkpt lat="49.79646" lon="5.31845">
        <ele>403.20001220703</ele>
        <time>2022-08-21T12:59:10.000Z</time>
      </trkpt>
      <trkpt lat="49.79634" lon="5.31836">
        <ele>402.39999389648</ele>
        <time>2022-08-21T12:59:12.000Z</time>
      </trkpt>
      <trkpt lat="49.79628" lon="5.31829">
        <ele>402.20001220703</ele>
        <time>2022-08-21T12:59:13.000Z</time>
      </trkpt>
      <trkpt lat="49.79622" lon="5.31824">
        <ele>401.79998779297</ele>
        <time>2022-08-21T12:59:14.000Z</time>
      </trkpt>
      <trkpt lat="49.7961" lon="5.31812">
        <ele>399.60000610352</ele>
        <time>2022-08-21T12:59:16.000Z</time>
      </trkpt>
      <trkpt lat="49.79599" lon="5.31799">
        <ele>397.39999389648</ele>
        <time>2022-08-21T12:59:18.000Z</time>
      </trkpt>
      <trkpt lat="49.79595" lon="5.31792">
        <ele>396.39999389648</ele>
        <time>2022-08-21T12:59:19.000Z</time>
      </trkpt>
      <trkpt lat="49.79588" lon="5.31773">
        <ele>395.79998779297</ele>
        <time>2022-08-21T12:59:21.000Z</time>
      </trkpt>
      <trkpt lat="49.79581" lon="5.31754">
        <ele>395</ele>
        <time>2022-08-21T12:59:23.000Z</time>
      </trkpt>
      <trkpt lat="49.79572" lon="5.31737">
        <ele>393.60000610352</ele>
        <time>2022-08-21T12:59:25.000Z</time>
      </trkpt>
      <trkpt lat="49.79561" lon="5.31726">
        <ele>391.60000610352</ele>
        <time>2022-08-21T12:59:27.000Z</time>
      </trkpt>
      <trkpt lat="49.79549" lon="5.3172">
        <ele>389</ele>
        <time>2022-08-21T12:59:29.000Z</time>
      </trkpt>
      <trkpt lat="49.79537" lon="5.31718">
        <ele>386.20001220703</ele>
        <time>2022-08-21T12:59:31.000Z</time>
      </trkpt>
      <trkpt lat="49.79526" lon="5.31723">
        <ele>382.60000610352</ele>
        <time>2022-08-21T12:59:33.000Z</time>
      </trkpt>
      <trkpt lat="49.79518" lon="5.31734">
        <ele>379.79998779297</ele>
        <time>2022-08-21T12:59:35.000Z</time>
      </trkpt>
      <trkpt lat="49.79512" lon="5.31746">
        <ele>378</ele>
        <time>2022-08-21T12:59:37.000Z</time>
      </trkpt>
      <trkpt lat="49.79506" lon="5.31762">
        <ele>376.60000610352</ele>
        <time>2022-08-21T12:59:39.000Z</time>
      </trkpt>
      <trkpt lat="49.79502" lon="5.3177">
        <ele>376</ele>
        <time>2022-08-21T12:59:40.000Z</time>
      </trkpt>
      <trkpt lat="49.79498" lon="5.31778">
        <ele>375.39999389648</ele>
        <time>2022-08-21T12:59:41.000Z</time>
      </trkpt>
      <trkpt lat="49.79494" lon="5.31787">
        <ele>374.79998779297</ele>
        <time>2022-08-21T12:59:42.000Z</time>
      </trkpt>
      <trkpt lat="49.79485" lon="5.31803">
        <ele>373.79998779297</ele>
        <time>2022-08-21T12:59:44.000Z</time>
      </trkpt>
      <trkpt lat="49.7948" lon="5.31809">
        <ele>373.60000610352</ele>
        <time>2022-08-21T12:59:45.000Z</time>
      </trkpt>
      <trkpt lat="49.79476" lon="5.31814">
        <ele>373.60000610352</ele>
        <time>2022-08-21T12:59:46.000Z</time>
      </trkpt>
      <trkpt lat="49.79471" lon="5.31818">
        <ele>373.60000610352</ele>
        <time>2022-08-21T12:59:47.000Z</time>
      </trkpt>
      <trkpt lat="49.79466" lon="5.3182">
        <ele>373.20001220703</ele>
        <time>2022-08-21T12:59:48.000Z</time>
      </trkpt>
      <trkpt lat="49.79456" lon="5.31818">
        <ele>372</ele>
        <time>2022-08-21T12:59:50.000Z</time>
      </trkpt>
      <trkpt lat="49.79451" lon="5.31816">
        <ele>371.60000610352</ele>
        <time>2022-08-21T12:59:51.000Z</time>
      </trkpt>
      <trkpt lat="49.79449" lon="5.31812">
        <ele>371.20001220703</ele>
        <time>2022-08-21T12:59:52.000Z</time>
      </trkpt>
      <trkpt lat="49.79448" lon="5.31802">
        <ele>370.79998779297</ele>
        <time>2022-08-21T12:59:54.000Z</time>
      </trkpt>
      <trkpt lat="49.79447" lon="5.31795">
        <ele>370.79998779297</ele>
        <time>2022-08-21T12:59:56.000Z</time>
      </trkpt>
      <trkpt lat="49.79447" lon="5.31787">
        <ele>370.60000610352</ele>
        <time>2022-08-21T12:59:59.000Z</time>
      </trkpt>
      <trkpt lat="49.79442" lon="5.31764">
        <ele>370.39999389648</ele>
        <time>2022-08-21T13:00:04.000Z</time>
      </trkpt>
      <trkpt lat="49.79434" lon="5.31748">
        <ele>370.60000610352</ele>
        <time>2022-08-21T13:00:08.000Z</time>
      </trkpt>
      <trkpt lat="49.79431" lon="5.31741">
        <ele>371</ele>
        <time>2022-08-21T13:00:10.000Z</time>
      </trkpt>
      <trkpt lat="49.79429" lon="5.31737">
        <ele>371.20001220703</ele>
        <time>2022-08-21T13:00:11.000Z</time>
      </trkpt>
      <trkpt lat="49.79423" lon="5.3173">
        <ele>371.79998779297</ele>
        <time>2022-08-21T13:00:14.000Z</time>
      </trkpt>
      <trkpt lat="49.7942" lon="5.31724">
        <ele>372.39999389648</ele>
        <time>2022-08-21T13:00:16.000Z</time>
      </trkpt>
      <trkpt lat="49.79417" lon="5.31722">
        <ele>372.79998779297</ele>
        <time>2022-08-21T13:00:17.000Z</time>
      </trkpt>
      <trkpt lat="49.79412" lon="5.31718">
        <ele>373.79998779297</ele>
        <time>2022-08-21T13:00:20.000Z</time>
      </trkpt>
      <trkpt lat="49.79405" lon="5.31713">
        <ele>375.20001220703</ele>
        <time>2022-08-21T13:00:23.000Z</time>
      </trkpt>
      <trkpt lat="49.794" lon="5.31709">
        <ele>376.20001220703</ele>
        <time>2022-08-21T13:00:25.000Z</time>
      </trkpt>
      <trkpt lat="49.79394" lon="5.31706">
        <ele>377.39999389648</ele>
        <time>2022-08-21T13:00:27.000Z</time>
      </trkpt>
      <trkpt lat="49.79388" lon="5.31701">
        <ele>378.39999389648</ele>
        <time>2022-08-21T13:00:29.000Z</time>
      </trkpt>
      <trkpt lat="49.79375" lon="5.31688">
        <ele>381.39999389648</ele>
        <time>2022-08-21T13:00:34.000Z</time>
      </trkpt>
      <trkpt lat="49.79368" lon="5.31682">
        <ele>382.79998779297</ele>
        <time>2022-08-21T13:00:36.000Z</time>
      </trkpt>
      <trkpt lat="49.79359" lon="5.31673">
        <ele>386.20001220703</ele>
        <time>2022-08-21T13:00:39.000Z</time>
      </trkpt>
      <trkpt lat="49.79353" lon="5.3167">
        <ele>388</ele>
        <time>2022-08-21T13:00:41.000Z</time>
      </trkpt>
      <trkpt lat="49.79349" lon="5.31672">
        <ele>388.79998779297</ele>
        <time>2022-08-21T13:00:43.000Z</time>
      </trkpt>
      <trkpt lat="49.79347" lon="5.31674">
        <ele>389.20001220703</ele>
        <time>2022-08-21T13:00:45.000Z</time>
      </trkpt>
      <trkpt lat="49.79345" lon="5.31673">
        <ele>389.60000610352</ele>
        <time>2022-08-21T13:01:15.000Z</time>
      </trkpt>
      <trkpt lat="49.7934" lon="5.31674">
        <ele>390.79998779297</ele>
        <time>2022-08-21T13:01:17.000Z</time>
      </trkpt>
      <trkpt lat="49.79332" lon="5.31668">
        <ele>394.39999389648</ele>
        <time>2022-08-21T13:01:20.000Z</time>
      </trkpt>
      <trkpt lat="49.79331" lon="5.31664">
        <ele>395.60000610352</ele>
        <time>2022-08-21T13:01:21.000Z</time>
      </trkpt>
      <trkpt lat="49.79325" lon="5.31639">
        <ele>400.60000610352</ele>
        <time>2022-08-21T13:01:26.000Z</time>
      </trkpt>
      <trkpt lat="49.79324" lon="5.31635">
        <ele>401.79998779297</ele>
        <time>2022-08-21T13:01:27.000Z</time>
      </trkpt>
      <trkpt lat="49.7932" lon="5.31618">
        <ele>404.79998779297</ele>
        <time>2022-08-21T13:01:31.000Z</time>
      </trkpt>
      <trkpt lat="49.79318" lon="5.3161">
        <ele>406.39999389648</ele>
        <time>2022-08-21T13:01:33.000Z</time>
      </trkpt>
      <trkpt lat="49.79316" lon="5.31602">
        <ele>408</ele>
        <time>2022-08-21T13:01:35.000Z</time>
      </trkpt>
      <trkpt lat="49.79311" lon="5.31589">
        <ele>409.60000610352</ele>
        <time>2022-08-21T13:01:39.000Z</time>
      </trkpt>
      <trkpt lat="49.79308" lon="5.31577">
        <ele>410.60000610352</ele>
        <time>2022-08-21T13:01:42.000Z</time>
      </trkpt>
      <trkpt lat="49.79305" lon="5.3157">
        <ele>411</ele>
        <time>2022-08-21T13:01:44.000Z</time>
      </trkpt>
      <trkpt lat="49.79298" lon="5.31553">
        <ele>411.39999389648</ele>
        <time>2022-08-21T13:01:49.000Z</time>
      </trkpt>
      <trkpt lat="49.79296" lon="5.3155">
        <ele>411.39999389648</ele>
        <time>2022-08-21T13:01:50.000Z</time>
      </trkpt>
      <trkpt lat="49.79276" lon="5.31516">
        <ele>413.60000610352</ele>
        <time>2022-08-21T13:02:00.000Z</time>
      </trkpt>
      <trkpt lat="49.79258" lon="5.31485">
        <ele>415</ele>
        <time>2022-08-21T13:02:08.000Z</time>
      </trkpt>
      <trkpt lat="49.79236" lon="5.31449">
        <ele>415.39999389648</ele>
        <time>2022-08-21T13:02:17.000Z</time>
      </trkpt>
      <trkpt lat="49.79221" lon="5.31427">
        <ele>416.79998779297</ele>
        <time>2022-08-21T13:02:23.000Z</time>
      </trkpt>
      <trkpt lat="49.79215" lon="5.31416">
        <ele>417.60000610352</ele>
        <time>2022-08-21T13:02:26.000Z</time>
      </trkpt>
      <trkpt lat="49.79201" lon="5.31396">
        <ele>419.20001220703</ele>
        <time>2022-08-21T13:02:32.000Z</time>
      </trkpt>
      <trkpt lat="49.79192" lon="5.31383">
        <ele>420</ele>
        <time>2022-08-21T13:02:36.000Z</time>
      </trkpt>
      <trkpt lat="49.7919" lon="5.31379">
        <ele>420.39999389648</ele>
        <time>2022-08-21T13:02:37.000Z</time>
      </trkpt>
      <trkpt lat="49.7918" lon="5.31365">
        <ele>421.39999389648</ele>
        <time>2022-08-21T13:02:42.000Z</time>
      </trkpt>
      <trkpt lat="49.79173" lon="5.31352">
        <ele>422.20001220703</ele>
        <time>2022-08-21T13:02:46.000Z</time>
      </trkpt>
      <trkpt lat="49.79171" lon="5.31348">
        <ele>422.39999389648</ele>
        <time>2022-08-21T13:02:47.000Z</time>
      </trkpt>
      <trkpt lat="49.79166" lon="5.31334">
        <ele>423</ele>
        <time>2022-08-21T13:02:51.000Z</time>
      </trkpt>
      <trkpt lat="49.79163" lon="5.31324">
        <ele>423.79998779297</ele>
        <time>2022-08-21T13:02:54.000Z</time>
      </trkpt>
      <trkpt lat="49.79162" lon="5.31318">
        <ele>424.20001220703</ele>
        <time>2022-08-21T13:02:56.000Z</time>
      </trkpt>
      <trkpt lat="49.79159" lon="5.31306">
        <ele>425.20001220703</ele>
        <time>2022-08-21T13:03:00.000Z</time>
      </trkpt>
      <trkpt lat="49.79158" lon="5.31302">
        <ele>425.39999389648</ele>
        <time>2022-08-21T13:03:01.000Z</time>
      </trkpt>
      <trkpt lat="49.79157" lon="5.31295">
        <ele>426</ele>
        <time>2022-08-21T13:03:03.000Z</time>
      </trkpt>
      <trkpt lat="49.79154" lon="5.31282">
        <ele>427</ele>
        <time>2022-08-21T13:03:07.000Z</time>
      </trkpt>
      <trkpt lat="49.79153" lon="5.31276">
        <ele>427.60000610352</ele>
        <time>2022-08-21T13:03:09.000Z</time>
      </trkpt>
      <trkpt lat="49.79152" lon="5.31269">
        <ele>428</ele>
        <time>2022-08-21T13:03:11.000Z</time>
      </trkpt>
      <trkpt lat="49.79148" lon="5.31259">
        <ele>428.39999389648</ele>
        <time>2022-08-21T13:03:15.000Z</time>
      </trkpt>
      <trkpt lat="49.79147" lon="5.31255">
        <ele>428.60000610352</ele>
        <time>2022-08-21T13:03:16.000Z</time>
      </trkpt>
      <trkpt lat="49.79146" lon="5.31248">
        <ele>429</ele>
        <time>2022-08-21T13:03:18.000Z</time>
      </trkpt>
      <trkpt lat="49.79145" lon="5.31236">
        <ele>429.39999389648</ele>
        <time>2022-08-21T13:03:21.000Z</time>
      </trkpt>
      <trkpt lat="49.79142" lon="5.31224">
        <ele>429.79998779297</ele>
        <time>2022-08-21T13:03:24.000Z</time>
      </trkpt>
      <trkpt lat="49.79138" lon="5.31211">
        <ele>430.20001220703</ele>
        <time>2022-08-21T13:03:28.000Z</time>
      </trkpt>
      <trkpt lat="49.79135" lon="5.31199">
        <ele>430.60000610352</ele>
        <time>2022-08-21T13:03:32.000Z</time>
      </trkpt>
      <trkpt lat="49.79134" lon="5.31195">
        <ele>430.79998779297</ele>
        <time>2022-08-21T13:03:33.000Z</time>
      </trkpt>
      <trkpt lat="49.79133" lon="5.31186">
        <ele>431.20001220703</ele>
        <time>2022-08-21T13:03:35.000Z</time>
      </trkpt>
      <trkpt lat="49.79129" lon="5.31167">
        <ele>432.39999389648</ele>
        <time>2022-08-21T13:03:39.000Z</time>
      </trkpt>
      <trkpt lat="49.79128" lon="5.31164">
        <ele>432.60000610352</ele>
        <time>2022-08-21T13:03:40.000Z</time>
      </trkpt>
      <trkpt lat="49.79125" lon="5.3115">
        <ele>433.60000610352</ele>
        <time>2022-08-21T13:03:43.000Z</time>
      </trkpt>
      <trkpt lat="49.79123" lon="5.31139">
        <ele>434.39999389648</ele>
        <time>2022-08-21T13:03:46.000Z</time>
      </trkpt>
      <trkpt lat="49.79122" lon="5.31135">
        <ele>434.79998779297</ele>
        <time>2022-08-21T13:03:47.000Z</time>
      </trkpt>
      <trkpt lat="49.79118" lon="5.31126">
        <ele>435.79998779297</ele>
        <time>2022-08-21T13:03:50.000Z</time>
      </trkpt>
      <trkpt lat="49.79115" lon="5.31119">
        <ele>436.39999389648</ele>
        <time>2022-08-21T13:03:52.000Z</time>
      </trkpt>
      <trkpt lat="49.79113" lon="5.31111">
        <ele>437.20001220703</ele>
        <time>2022-08-21T13:03:54.000Z</time>
      </trkpt>
      <trkpt lat="49.79109" lon="5.31096">
        <ele>438.79998779297</ele>
        <time>2022-08-21T13:03:58.000Z</time>
      </trkpt>
      <trkpt lat="49.79105" lon="5.31086">
        <ele>440</ele>
        <time>2022-08-21T13:04:01.000Z</time>
      </trkpt>
      <trkpt lat="49.79104" lon="5.31083">
        <ele>440.20001220703</ele>
        <time>2022-08-21T13:04:02.000Z</time>
      </trkpt>
      <trkpt lat="49.79096" lon="5.31064">
        <ele>442</ele>
        <time>2022-08-21T13:04:07.000Z</time>
      </trkpt>
      <trkpt lat="49.79086" lon="5.31049">
        <ele>443.79998779297</ele>
        <time>2022-08-21T13:04:12.000Z</time>
      </trkpt>
      <trkpt lat="49.79077" lon="5.31038">
        <ele>445.20001220703</ele>
        <time>2022-08-21T13:04:16.000Z</time>
      </trkpt>
      <trkpt lat="49.79072" lon="5.31032">
        <ele>445.79998779297</ele>
        <time>2022-08-21T13:04:18.000Z</time>
      </trkpt>
      <trkpt lat="49.79056" lon="5.31016">
        <ele>447.60000610352</ele>
        <time>2022-08-21T13:04:24.000Z</time>
      </trkpt>
      <trkpt lat="49.79053" lon="5.31014">
        <ele>447.79998779297</ele>
        <time>2022-08-21T13:04:25.000Z</time>
      </trkpt>
      <trkpt lat="49.79034" lon="5.31">
        <ele>449.20001220703</ele>
        <time>2022-08-21T13:04:32.000Z</time>
      </trkpt>
      <trkpt lat="49.79019" lon="5.30992">
        <ele>450.20001220703</ele>
        <time>2022-08-21T13:04:37.000Z</time>
      </trkpt>
      <trkpt lat="49.79013" lon="5.3099">
        <ele>450.39999389648</ele>
        <time>2022-08-21T13:04:39.000Z</time>
      </trkpt>
      <trkpt lat="49.78998" lon="5.30984">
        <ele>450.20001220703</ele>
        <time>2022-08-21T13:04:44.000Z</time>
      </trkpt>
      <trkpt lat="49.7899" lon="5.30982">
        <ele>450</ele>
        <time>2022-08-21T13:04:47.000Z</time>
      </trkpt>
      <trkpt lat="49.78979" lon="5.30975">
        <ele>449.20001220703</ele>
        <time>2022-08-21T13:04:51.000Z</time>
      </trkpt>
      <trkpt lat="49.78955" lon="5.30959">
        <ele>448.79998779297</ele>
        <time>2022-08-21T13:04:57.000Z</time>
      </trkpt>
      <trkpt lat="49.78942" lon="5.30953">
        <ele>448.20001220703</ele>
        <time>2022-08-21T13:05:00.000Z</time>
      </trkpt>
      <trkpt lat="49.78928" lon="5.30943">
        <ele>447.20001220703</ele>
        <time>2022-08-21T13:05:03.000Z</time>
      </trkpt>
      <trkpt lat="49.78903" lon="5.30929">
        <ele>444.39999389648</ele>
        <time>2022-08-21T13:05:07.000Z</time>
      </trkpt>
      <trkpt lat="49.78896" lon="5.30926">
        <ele>443.39999389648</ele>
        <time>2022-08-21T13:05:08.000Z</time>
      </trkpt>
      <trkpt lat="49.78888" lon="5.30922">
        <ele>442.39999389648</ele>
        <time>2022-08-21T13:05:09.000Z</time>
      </trkpt>
      <trkpt lat="49.78873" lon="5.30914">
        <ele>440.60000610352</ele>
        <time>2022-08-21T13:05:11.000Z</time>
      </trkpt>
      <trkpt lat="49.78866" lon="5.30911">
        <ele>439.60000610352</ele>
        <time>2022-08-21T13:05:12.000Z</time>
      </trkpt>
      <trkpt lat="49.78858" lon="5.30908">
        <ele>438.60000610352</ele>
        <time>2022-08-21T13:05:13.000Z</time>
      </trkpt>
      <trkpt lat="49.78844" lon="5.30902">
        <ele>437</ele>
        <time>2022-08-21T13:05:15.000Z</time>
      </trkpt>
      <trkpt lat="49.78824" lon="5.30893">
        <ele>435</ele>
        <time>2022-08-21T13:05:18.000Z</time>
      </trkpt>
      <trkpt lat="49.78818" lon="5.30889">
        <ele>434.60000610352</ele>
        <time>2022-08-21T13:05:19.000Z</time>
      </trkpt>
      <trkpt lat="49.78805" lon="5.30877">
        <ele>434</ele>
        <time>2022-08-21T13:05:22.000Z</time>
      </trkpt>
      <trkpt lat="49.78788" lon="5.30847">
        <ele>433.60000610352</ele>
        <time>2022-08-21T13:05:27.000Z</time>
      </trkpt>
      <trkpt lat="49.78771" lon="5.30805">
        <ele>433.20001220703</ele>
        <time>2022-08-21T13:05:33.000Z</time>
      </trkpt>
      <trkpt lat="49.78769" lon="5.30799">
        <ele>433.20001220703</ele>
        <time>2022-08-21T13:05:34.000Z</time>
      </trkpt>
      <trkpt lat="49.78762" lon="5.30787">
        <ele>434.20001220703</ele>
        <time>2022-08-21T13:05:36.000Z</time>
      </trkpt>
      <trkpt lat="49.78749" lon="5.30769">
        <ele>435.39999389648</ele>
        <time>2022-08-21T13:05:39.000Z</time>
      </trkpt>
      <trkpt lat="49.7874" lon="5.30757">
        <ele>435.60000610352</ele>
        <time>2022-08-21T13:05:41.000Z</time>
      </trkpt>
      <trkpt lat="49.78719" lon="5.30737">
        <ele>435.60000610352</ele>
        <time>2022-08-21T13:05:45.000Z</time>
      </trkpt>
      <trkpt lat="49.78677" lon="5.30699">
        <ele>434</ele>
        <time>2022-08-21T13:05:53.000Z</time>
      </trkpt>
      <trkpt lat="49.78644" lon="5.30676">
        <ele>433</ele>
        <time>2022-08-21T13:05:59.000Z</time>
      </trkpt>
      <trkpt lat="49.78612" lon="5.30657">
        <ele>432.79998779297</ele>
        <time>2022-08-21T13:06:05.000Z</time>
      </trkpt>
      <trkpt lat="49.78596" lon="5.30651">
        <ele>432.20001220703</ele>
        <time>2022-08-21T13:06:08.000Z</time>
      </trkpt>
      <trkpt lat="49.78587" lon="5.30654">
        <ele>431.60000610352</ele>
        <time>2022-08-21T13:06:10.000Z</time>
      </trkpt>
      <trkpt lat="49.78582" lon="5.30662">
        <ele>430.79998779297</ele>
        <time>2022-08-21T13:06:23.000Z</time>
      </trkpt>
      <trkpt lat="49.78578" lon="5.30671">
        <ele>430</ele>
        <time>2022-08-21T13:06:26.000Z</time>
      </trkpt>
      <trkpt lat="49.78568" lon="5.30692">
        <ele>429</ele>
        <time>2022-08-21T13:06:38.000Z</time>
      </trkpt>
      <trkpt lat="49.78564" lon="5.307">
        <ele>429</ele>
        <time>2022-08-21T13:06:41.000Z</time>
      </trkpt>
      <trkpt lat="49.78558" lon="5.30715">
        <ele>428.79998779297</ele>
        <time>2022-08-21T13:06:45.000Z</time>
      </trkpt>
      <trkpt lat="49.78555" lon="5.30717">
        <ele>428.60000610352</ele>
        <time>2022-08-21T13:06:46.000Z</time>
      </trkpt>
      <trkpt lat="49.78553" lon="5.30717">
        <ele>428.60000610352</ele>
        <time>2022-08-21T13:06:47.000Z</time>
      </trkpt>
      <trkpt lat="49.78547" lon="5.30726">
        <ele>428</ele>
        <time>2022-08-21T13:11:21.000Z</time>
      </trkpt>
      <trkpt lat="49.78542" lon="5.30717">
        <ele>428.20001220703</ele>
        <time>2022-08-21T13:11:25.000Z</time>
      </trkpt>
      <trkpt lat="49.78539" lon="5.3071">
        <ele>428.20001220703</ele>
        <time>2022-08-21T13:11:27.000Z</time>
      </trkpt>
      <trkpt lat="49.78525" lon="5.30679">
        <ele>428</ele>
        <time>2022-08-21T13:11:34.000Z</time>
      </trkpt>
      <trkpt lat="49.78518" lon="5.30665">
        <ele>428</ele>
        <time>2022-08-21T13:11:37.000Z</time>
      </trkpt>
      <trkpt lat="49.78505" lon="5.30644">
        <ele>428.60000610352</ele>
        <time>2022-08-21T13:11:42.000Z</time>
      </trkpt>
      <trkpt lat="49.7849" lon="5.30631">
        <ele>428.39999389648</ele>
        <time>2022-08-21T13:11:47.000Z</time>
      </trkpt>
      <trkpt lat="49.78472" lon="5.30613">
        <ele>427.39999389648</ele>
        <time>2022-08-21T13:11:54.000Z</time>
      </trkpt>
      <trkpt lat="49.78452" lon="5.30593">
        <ele>426</ele>
        <time>2022-08-21T13:12:00.000Z</time>
      </trkpt>
      <trkpt lat="49.78448" lon="5.30589">
        <ele>426</ele>
        <time>2022-08-21T13:12:01.000Z</time>
      </trkpt>
      <trkpt lat="49.78439" lon="5.30583">
        <ele>426</ele>
        <time>2022-08-21T13:12:03.000Z</time>
      </trkpt>
      <trkpt lat="49.78435" lon="5.30581">
        <ele>426</ele>
        <time>2022-08-21T13:12:04.000Z</time>
      </trkpt>
      <trkpt lat="49.78417" lon="5.30571">
        <ele>426.79998779297</ele>
        <time>2022-08-21T13:12:09.000Z</time>
      </trkpt>
      <trkpt lat="49.78404" lon="5.30563">
        <ele>428.20001220703</ele>
        <time>2022-08-21T13:12:12.000Z</time>
      </trkpt>
      <trkpt lat="49.78391" lon="5.30557">
        <ele>429.20001220703</ele>
        <time>2022-08-21T13:12:15.000Z</time>
      </trkpt>
      <trkpt lat="49.78387" lon="5.30555">
        <ele>429.39999389648</ele>
        <time>2022-08-21T13:12:16.000Z</time>
      </trkpt>
      <trkpt lat="49.78369" lon="5.30547">
        <ele>429.79998779297</ele>
        <time>2022-08-21T13:12:20.000Z</time>
      </trkpt>
      <trkpt lat="49.78365" lon="5.30546">
        <ele>429.79998779297</ele>
        <time>2022-08-21T13:12:21.000Z</time>
      </trkpt>
      <trkpt lat="49.78361" lon="5.30544">
        <ele>429.39999389648</ele>
        <time>2022-08-21T13:12:22.000Z</time>
      </trkpt>
      <trkpt lat="49.78353" lon="5.30541">
        <ele>429</ele>
        <time>2022-08-21T13:12:24.000Z</time>
      </trkpt>
      <trkpt lat="49.78349" lon="5.3054">
        <ele>429</ele>
        <time>2022-08-21T13:12:25.000Z</time>
      </trkpt>
      <trkpt lat="49.78344" lon="5.30539">
        <ele>428.79998779297</ele>
        <time>2022-08-21T13:12:26.000Z</time>
      </trkpt>
      <trkpt lat="49.78333" lon="5.30529">
        <ele>428</ele>
        <time>2022-08-21T13:12:29.000Z</time>
      </trkpt>
      <trkpt lat="49.78323" lon="5.3051">
        <ele>427.79998779297</ele>
        <time>2022-08-21T13:12:33.000Z</time>
      </trkpt>
      <trkpt lat="49.78318" lon="5.30498">
        <ele>428</ele>
        <time>2022-08-21T13:12:35.000Z</time>
      </trkpt>
      <trkpt lat="49.78311" lon="5.30478">
        <ele>428.60000610352</ele>
        <time>2022-08-21T13:12:38.000Z</time>
      </trkpt>
      <trkpt lat="49.783" lon="5.30459">
        <ele>429.20001220703</ele>
        <time>2022-08-21T13:12:42.000Z</time>
      </trkpt>
      <trkpt lat="49.78293" lon="5.30448">
        <ele>429.60000610352</ele>
        <time>2022-08-21T13:12:44.000Z</time>
      </trkpt>
      <trkpt lat="49.78286" lon="5.30438">
        <ele>430</ele>
        <time>2022-08-21T13:12:46.000Z</time>
      </trkpt>
      <trkpt lat="49.78259" lon="5.30402">
        <ele>430.39999389648</ele>
        <time>2022-08-21T13:12:53.000Z</time>
      </trkpt>
      <trkpt lat="49.78256" lon="5.30398">
        <ele>430.39999389648</ele>
        <time>2022-08-21T13:12:54.000Z</time>
      </trkpt>
      <trkpt lat="49.78242" lon="5.30386">
        <ele>429.79998779297</ele>
        <time>2022-08-21T13:12:57.000Z</time>
      </trkpt>
      <trkpt lat="49.7822" lon="5.30357">
        <ele>428.20001220703</ele>
        <time>2022-08-21T13:13:02.000Z</time>
      </trkpt>
      <trkpt lat="49.78206" lon="5.30326">
        <ele>427.20001220703</ele>
        <time>2022-08-21T13:13:07.000Z</time>
      </trkpt>
      <trkpt lat="49.78197" lon="5.30304">
        <ele>427.20001220703</ele>
        <time>2022-08-21T13:13:11.000Z</time>
      </trkpt>
      <trkpt lat="49.78196" lon="5.30298">
        <ele>427.20001220703</ele>
        <time>2022-08-21T13:13:12.000Z</time>
      </trkpt>
      <trkpt lat="49.78195" lon="5.30265">
        <ele>427.79998779297</ele>
        <time>2022-08-21T13:13:16.000Z</time>
      </trkpt>
      <trkpt lat="49.78193" lon="5.30214">
        <ele>427.20001220703</ele>
        <time>2022-08-21T13:13:21.000Z</time>
      </trkpt>
      <trkpt lat="49.78192" lon="5.30205">
        <ele>426.79998779297</ele>
        <time>2022-08-21T13:13:22.000Z</time>
      </trkpt>
      <trkpt lat="49.78189" lon="5.30177">
        <ele>425.20001220703</ele>
        <time>2022-08-21T13:13:25.000Z</time>
      </trkpt>
      <trkpt lat="49.78188" lon="5.30168">
        <ele>424.39999389648</ele>
        <time>2022-08-21T13:13:26.000Z</time>
      </trkpt>
      <trkpt lat="49.78188" lon="5.30157">
        <ele>423.60000610352</ele>
        <time>2022-08-21T13:13:27.000Z</time>
      </trkpt>
      <trkpt lat="49.78188" lon="5.30136">
        <ele>422.20001220703</ele>
        <time>2022-08-21T13:13:29.000Z</time>
      </trkpt>
      <trkpt lat="49.78186" lon="5.30101">
        <ele>421.39999389648</ele>
        <time>2022-08-21T13:13:32.000Z</time>
      </trkpt>
      <trkpt lat="49.78184" lon="5.3009">
        <ele>421.39999389648</ele>
        <time>2022-08-21T13:13:33.000Z</time>
      </trkpt>
      <trkpt lat="49.78181" lon="5.30067">
        <ele>421.60000610352</ele>
        <time>2022-08-21T13:13:35.000Z</time>
      </trkpt>
      <trkpt lat="49.78177" lon="5.30046">
        <ele>422.20001220703</ele>
        <time>2022-08-21T13:13:37.000Z</time>
      </trkpt>
      <trkpt lat="49.78173" lon="5.30039">
        <ele>422.39999389648</ele>
        <time>2022-08-21T13:13:38.000Z</time>
      </trkpt>
      <trkpt lat="49.78171" lon="5.30031">
        <ele>422.60000610352</ele>
        <time>2022-08-21T13:13:39.000Z</time>
      </trkpt>
      <trkpt lat="49.78169" lon="5.30016">
        <ele>423</ele>
        <time>2022-08-21T13:13:41.000Z</time>
      </trkpt>
      <trkpt lat="49.78168" lon="5.30008">
        <ele>423.20001220703</ele>
        <time>2022-08-21T13:13:42.000Z</time>
      </trkpt>
      <trkpt lat="49.78167" lon="5.30001">
        <ele>423.60000610352</ele>
        <time>2022-08-21T13:13:43.000Z</time>
      </trkpt>
      <trkpt lat="49.78161" lon="5.29981">
        <ele>423.60000610352</ele>
        <time>2022-08-21T13:13:46.000Z</time>
      </trkpt>
      <trkpt lat="49.78156" lon="5.29968">
        <ele>423.60000610352</ele>
        <time>2022-08-21T13:13:48.000Z</time>
      </trkpt>
      <trkpt lat="49.78148" lon="5.29953">
        <ele>422.60000610352</ele>
        <time>2022-08-21T13:13:51.000Z</time>
      </trkpt>
      <trkpt lat="49.78135" lon="5.29932">
        <ele>422.20001220703</ele>
        <time>2022-08-21T13:13:56.000Z</time>
      </trkpt>
      <trkpt lat="49.78116" lon="5.29896">
        <ele>422</ele>
        <time>2022-08-21T13:14:02.000Z</time>
      </trkpt>
      <trkpt lat="49.78109" lon="5.29884">
        <ele>422</ele>
        <time>2022-08-21T13:14:05.000Z</time>
      </trkpt>
      <trkpt lat="49.78108" lon="5.29881">
        <ele>422</ele>
        <time>2022-08-21T13:14:06.000Z</time>
      </trkpt>
      <trkpt lat="49.78106" lon="5.29877">
        <ele>422.20001220703</ele>
        <time>2022-08-21T13:14:19.000Z</time>
      </trkpt>
      <trkpt lat="49.78104" lon="5.29874">
        <ele>422.39999389648</ele>
        <time>2022-08-21T13:14:20.000Z</time>
      </trkpt>
      <trkpt lat="49.78097" lon="5.29858">
        <ele>423</ele>
        <time>2022-08-21T13:14:25.000Z</time>
      </trkpt>
      <trkpt lat="49.78089" lon="5.29837">
        <ele>424.39999389648</ele>
        <time>2022-08-21T13:14:29.000Z</time>
      </trkpt>
      <trkpt lat="49.78082" lon="5.29819">
        <ele>425.60000610352</ele>
        <time>2022-08-21T13:14:32.000Z</time>
      </trkpt>
      <trkpt lat="49.78077" lon="5.29801">
        <ele>427.39999389648</ele>
        <time>2022-08-21T13:14:35.000Z</time>
      </trkpt>
      <trkpt lat="49.78073" lon="5.2979">
        <ele>428</ele>
        <time>2022-08-21T13:14:37.000Z</time>
      </trkpt>
      <trkpt lat="49.78067" lon="5.29773">
        <ele>429</ele>
        <time>2022-08-21T13:14:40.000Z</time>
      </trkpt>
      <trkpt lat="49.78057" lon="5.2974">
        <ele>427.20001220703</ele>
        <time>2022-08-21T13:14:44.000Z</time>
      </trkpt>
      <trkpt lat="49.78054" lon="5.29731">
        <ele>426.60000610352</ele>
        <time>2022-08-21T13:14:45.000Z</time>
      </trkpt>
      <trkpt lat="49.78049" lon="5.29712">
        <ele>425.20001220703</ele>
        <time>2022-08-21T13:14:47.000Z</time>
      </trkpt>
      <trkpt lat="49.7804" lon="5.29681">
        <ele>423.79998779297</ele>
        <time>2022-08-21T13:14:50.000Z</time>
      </trkpt>
      <trkpt lat="49.78036" lon="5.29672">
        <ele>423.60000610352</ele>
        <time>2022-08-21T13:14:51.000Z</time>
      </trkpt>
      <trkpt lat="49.78026" lon="5.29659">
        <ele>423.39999389648</ele>
        <time>2022-08-21T13:14:53.000Z</time>
      </trkpt>
      <trkpt lat="49.78011" lon="5.29646">
        <ele>423.39999389648</ele>
        <time>2022-08-21T13:14:56.000Z</time>
      </trkpt>
      <trkpt lat="49.78006" lon="5.29642">
        <ele>423.39999389648</ele>
        <time>2022-08-21T13:14:57.000Z</time>
      </trkpt>
      <trkpt lat="49.77979" lon="5.29618">
        <ele>424.60000610352</ele>
        <time>2022-08-21T13:15:03.000Z</time>
      </trkpt>
      <trkpt lat="49.77974" lon="5.29615">
        <ele>424.60000610352</ele>
        <time>2022-08-21T13:15:04.000Z</time>
      </trkpt>
      <trkpt lat="49.77956" lon="5.29604">
        <ele>424.39999389648</ele>
        <time>2022-08-21T13:15:08.000Z</time>
      </trkpt>
      <trkpt lat="49.77952" lon="5.29602">
        <ele>424.20001220703</ele>
        <time>2022-08-21T13:15:09.000Z</time>
      </trkpt>
      <trkpt lat="49.77948" lon="5.296">
        <ele>424.39999389648</ele>
        <time>2022-08-21T13:15:10.000Z</time>
      </trkpt>
      <trkpt lat="49.77925" lon="5.29593">
        <ele>425</ele>
        <time>2022-08-21T13:15:15.000Z</time>
      </trkpt>
      <trkpt lat="49.7792" lon="5.29591">
        <ele>425.20001220703</ele>
        <time>2022-08-21T13:15:16.000Z</time>
      </trkpt>
      <trkpt lat="49.77901" lon="5.29585">
        <ele>426.39999389648</ele>
        <time>2022-08-21T13:15:20.000Z</time>
      </trkpt>
      <trkpt lat="49.77896" lon="5.29583">
        <ele>426.60000610352</ele>
        <time>2022-08-21T13:15:21.000Z</time>
      </trkpt>
      <trkpt lat="49.77889" lon="5.2958">
        <ele>427</ele>
        <time>2022-08-21T13:15:23.000Z</time>
      </trkpt>
      <trkpt lat="49.77883" lon="5.29578">
        <ele>427.39999389648</ele>
        <time>2022-08-21T13:15:25.000Z</time>
      </trkpt>
      <trkpt lat="49.7788" lon="5.29577">
        <ele>427.60000610352</ele>
        <time>2022-08-21T13:15:26.000Z</time>
      </trkpt>
      <trkpt lat="49.77872" lon="5.29575">
        <ele>428</ele>
        <time>2022-08-21T13:15:28.000Z</time>
      </trkpt>
      <trkpt lat="49.77861" lon="5.29572">
        <ele>428.39999389648</ele>
        <time>2022-08-21T13:15:31.000Z</time>
      </trkpt>
      <trkpt lat="49.77844" lon="5.29568">
        <ele>429.20001220703</ele>
        <time>2022-08-21T13:15:35.000Z</time>
      </trkpt>
      <trkpt lat="49.77835" lon="5.29564">
        <ele>429.60000610352</ele>
        <time>2022-08-21T13:15:37.000Z</time>
      </trkpt>
      <trkpt lat="49.77822" lon="5.29557">
        <ele>430.39999389648</ele>
        <time>2022-08-21T13:15:40.000Z</time>
      </trkpt>
      <trkpt lat="49.77812" lon="5.2955">
        <ele>431</ele>
        <time>2022-08-21T13:15:43.000Z</time>
      </trkpt>
      <trkpt lat="49.77808" lon="5.29546">
        <ele>431.39999389648</ele>
        <time>2022-08-21T13:15:45.000Z</time>
      </trkpt>
      <trkpt lat="49.778" lon="5.29539">
        <ele>431.79998779297</ele>
        <time>2022-08-21T13:15:49.000Z</time>
      </trkpt>
      <trkpt lat="49.77798" lon="5.2954">
        <ele>431.79998779297</ele>
        <time>2022-08-21T13:15:50.000Z</time>
      </trkpt>
      <trkpt lat="49.77795" lon="5.29542">
        <ele>431.60000610352</ele>
        <time>2022-08-21T13:15:52.000Z</time>
      </trkpt>
      <trkpt lat="49.77792" lon="5.29546">
        <ele>431.20001220703</ele>
        <time>2022-08-21T13:15:54.000Z</time>
      </trkpt>
      <trkpt lat="49.77779" lon="5.29555">
        <ele>430.39999389648</ele>
        <time>2022-08-21T13:15:58.000Z</time>
      </trkpt>
      <trkpt lat="49.77764" lon="5.29562">
        <ele>430</ele>
        <time>2022-08-21T13:16:01.000Z</time>
      </trkpt>
      <trkpt lat="49.77753" lon="5.29564">
        <ele>431</ele>
        <time>2022-08-21T13:16:03.000Z</time>
      </trkpt>
      <trkpt lat="49.77744" lon="5.29564">
        <ele>432</ele>
        <time>2022-08-21T13:16:05.000Z</time>
      </trkpt>
      <trkpt lat="49.77738" lon="5.29565">
        <ele>432.60000610352</ele>
        <time>2022-08-21T13:16:07.000Z</time>
      </trkpt>
      <trkpt lat="49.77732" lon="5.2957">
        <ele>433</ele>
        <time>2022-08-21T13:16:10.000Z</time>
      </trkpt>
      <trkpt lat="49.77732" lon="5.29574">
        <ele>432.79998779297</ele>
        <time>2022-08-21T13:16:11.000Z</time>
      </trkpt>
      <trkpt lat="49.77738" lon="5.29596">
        <ele>430.79998779297</ele>
        <time>2022-08-21T13:16:15.000Z</time>
      </trkpt>
      <trkpt lat="49.77744" lon="5.29613">
        <ele>429.39999389648</ele>
        <time>2022-08-21T13:16:19.000Z</time>
      </trkpt>
      <trkpt lat="49.77745" lon="5.29618">
        <ele>429.39999389648</ele>
        <time>2022-08-21T13:16:20.000Z</time>
      </trkpt>
      <trkpt lat="49.7775" lon="5.29637">
        <ele>428.39999389648</ele>
        <time>2022-08-21T13:16:23.000Z</time>
      </trkpt>
      <trkpt lat="49.77754" lon="5.2965">
        <ele>427.60000610352</ele>
        <time>2022-08-21T13:16:25.000Z</time>
      </trkpt>
      <trkpt lat="49.77759" lon="5.29663">
        <ele>427</ele>
        <time>2022-08-21T13:16:27.000Z</time>
      </trkpt>
      <trkpt lat="49.77773" lon="5.29697">
        <ele>426.20001220703</ele>
        <time>2022-08-21T13:16:32.000Z</time>
      </trkpt>
      <trkpt lat="49.77783" lon="5.29718">
        <ele>425.79998779297</ele>
        <time>2022-08-21T13:16:35.000Z</time>
      </trkpt>
      <trkpt lat="49.77788" lon="5.29735">
        <ele>425.60000610352</ele>
        <time>2022-08-21T13:16:37.000Z</time>
      </trkpt>
      <trkpt lat="49.77794" lon="5.29763">
        <ele>424</ele>
        <time>2022-08-21T13:16:40.000Z</time>
      </trkpt>
      <trkpt lat="49.77799" lon="5.29792">
        <ele>421.60000610352</ele>
        <time>2022-08-21T13:16:43.000Z</time>
      </trkpt>
      <trkpt lat="49.77804" lon="5.29822">
        <ele>418.79998779297</ele>
        <time>2022-08-21T13:16:46.000Z</time>
      </trkpt>
      <trkpt lat="49.77806" lon="5.29844">
        <ele>417.20001220703</ele>
        <time>2022-08-21T13:16:48.000Z</time>
      </trkpt>
      <trkpt lat="49.77808" lon="5.29856">
        <ele>416.20001220703</ele>
        <time>2022-08-21T13:16:49.000Z</time>
      </trkpt>
      <trkpt lat="49.77807" lon="5.29869">
        <ele>415.20001220703</ele>
        <time>2022-08-21T13:16:50.000Z</time>
      </trkpt>
      <trkpt lat="49.77806" lon="5.29895">
        <ele>413.39999389648</ele>
        <time>2022-08-21T13:16:52.000Z</time>
      </trkpt>
      <trkpt lat="49.77803" lon="5.29924">
        <ele>411.79998779297</ele>
        <time>2022-08-21T13:16:54.000Z</time>
      </trkpt>
      <trkpt lat="49.778" lon="5.29937">
        <ele>412</ele>
        <time>2022-08-21T13:16:55.000Z</time>
      </trkpt>
      <trkpt lat="49.77797" lon="5.29947">
        <ele>411.79998779297</ele>
        <time>2022-08-21T13:16:56.000Z</time>
      </trkpt>
      <trkpt lat="49.7779" lon="5.2996">
        <ele>412.60000610352</ele>
        <time>2022-08-21T13:16:58.000Z</time>
      </trkpt>
      <trkpt lat="49.77775" lon="5.29974">
        <ele>414.20001220703</ele>
        <time>2022-08-21T13:17:01.000Z</time>
      </trkpt>
      <trkpt lat="49.77763" lon="5.29985">
        <ele>416</ele>
        <time>2022-08-21T13:17:03.000Z</time>
      </trkpt>
      <trkpt lat="49.77746" lon="5.29998">
        <ele>418.39999389648</ele>
        <time>2022-08-21T13:17:06.000Z</time>
      </trkpt>
      <trkpt lat="49.77741" lon="5.30001">
        <ele>419</ele>
        <time>2022-08-21T13:17:07.000Z</time>
      </trkpt>
      <trkpt lat="49.7773" lon="5.30005">
        <ele>420</ele>
        <time>2022-08-21T13:17:09.000Z</time>
      </trkpt>
      <trkpt lat="49.77706" lon="5.30013">
        <ele>421.20001220703</ele>
        <time>2022-08-21T13:17:14.000Z</time>
      </trkpt>
      <trkpt lat="49.77702" lon="5.30015">
        <ele>421.20001220703</ele>
        <time>2022-08-21T13:17:15.000Z</time>
      </trkpt>
      <trkpt lat="49.77687" lon="5.30022">
        <ele>420.39999389648</ele>
        <time>2022-08-21T13:17:47.000Z</time>
      </trkpt>
      <trkpt lat="49.77682" lon="5.30025">
        <ele>420.20001220703</ele>
        <time>2022-08-21T13:17:50.000Z</time>
      </trkpt>
      <trkpt lat="49.77665" lon="5.30031">
        <ele>420</ele>
        <time>2022-08-21T13:17:55.000Z</time>
      </trkpt>
      <trkpt lat="49.77651" lon="5.30046">
        <ele>419.39999389648</ele>
        <time>2022-08-21T13:17:59.000Z</time>
      </trkpt>
      <trkpt lat="49.77634" lon="5.30071">
        <ele>417.20001220703</ele>
        <time>2022-08-21T13:18:04.000Z</time>
      </trkpt>
      <trkpt lat="49.77608" lon="5.30109">
        <ele>415.79998779297</ele>
        <time>2022-08-21T13:18:12.000Z</time>
      </trkpt>
      <trkpt lat="49.77595" lon="5.30129">
        <ele>416.60000610352</ele>
        <time>2022-08-21T13:18:16.000Z</time>
      </trkpt>
      <trkpt lat="49.77586" lon="5.30141">
        <ele>416.79998779297</ele>
        <time>2022-08-21T13:18:19.000Z</time>
      </trkpt>
      <trkpt lat="49.77566" lon="5.30167">
        <ele>415.60000610352</ele>
        <time>2022-08-21T13:18:26.000Z</time>
      </trkpt>
      <trkpt lat="49.7756" lon="5.30177">
        <ele>414.20001220703</ele>
        <time>2022-08-21T13:18:28.000Z</time>
      </trkpt>
      <trkpt lat="49.77539" lon="5.30208">
        <ele>409.20001220703</ele>
        <time>2022-08-21T13:18:34.000Z</time>
      </trkpt>
      <trkpt lat="49.77524" lon="5.30229">
        <ele>407</ele>
        <time>2022-08-21T13:18:38.000Z</time>
      </trkpt>
      <trkpt lat="49.77512" lon="5.30245">
        <ele>405</ele>
        <time>2022-08-21T13:18:41.000Z</time>
      </trkpt>
      <trkpt lat="49.77485" lon="5.30267">
        <ele>405.79998779297</ele>
        <time>2022-08-21T13:18:47.000Z</time>
      </trkpt>
      <trkpt lat="49.77462" lon="5.30275">
        <ele>407.20001220703</ele>
        <time>2022-08-21T13:18:52.000Z</time>
      </trkpt>
      <trkpt lat="49.77457" lon="5.30275">
        <ele>407.60000610352</ele>
        <time>2022-08-21T13:18:53.000Z</time>
      </trkpt>
      <trkpt lat="49.77441" lon="5.30269">
        <ele>408.20001220703</ele>
        <time>2022-08-21T13:18:56.000Z</time>
      </trkpt>
      <trkpt lat="49.77431" lon="5.30262">
        <ele>408.79998779297</ele>
        <time>2022-08-21T13:18:58.000Z</time>
      </trkpt>
      <trkpt lat="49.77396" lon="5.30231">
        <ele>408.79998779297</ele>
        <time>2022-08-21T13:19:05.000Z</time>
      </trkpt>
      <trkpt lat="49.77391" lon="5.30227">
        <ele>408.79998779297</ele>
        <time>2022-08-21T13:19:06.000Z</time>
      </trkpt>
      <trkpt lat="49.77348" lon="5.30187">
        <ele>407.60000610352</ele>
        <time>2022-08-21T13:19:14.000Z</time>
      </trkpt>
      <trkpt lat="49.77325" lon="5.3017">
        <ele>408</ele>
        <time>2022-08-21T13:19:18.000Z</time>
      </trkpt>
      <trkpt lat="49.77315" lon="5.30161">
        <ele>408.20001220703</ele>
        <time>2022-08-21T13:19:20.000Z</time>
      </trkpt>
      <trkpt lat="49.77277" lon="5.30127">
        <ele>409</ele>
        <time>2022-08-21T13:19:28.000Z</time>
      </trkpt>
      <trkpt lat="49.77235" lon="5.3009">
        <ele>408.79998779297</ele>
        <time>2022-08-21T13:19:37.000Z</time>
      </trkpt>
      <trkpt lat="49.77209" lon="5.30068">
        <ele>408.60000610352</ele>
        <time>2022-08-21T13:19:43.000Z</time>
      </trkpt>
      <trkpt lat="49.77201" lon="5.3006">
        <ele>408.60000610352</ele>
        <time>2022-08-21T13:19:45.000Z</time>
      </trkpt>
      <trkpt lat="49.77183" lon="5.30044">
        <ele>407.79998779297</ele>
        <time>2022-08-21T13:19:49.000Z</time>
      </trkpt>
      <trkpt lat="49.77159" lon="5.30023">
        <ele>406.79998779297</ele>
        <time>2022-08-21T13:19:54.000Z</time>
      </trkpt>
      <trkpt lat="49.77141" lon="5.30007">
        <ele>406.20001220703</ele>
        <time>2022-08-21T13:19:57.000Z</time>
      </trkpt>
      <trkpt lat="49.77128" lon="5.29995">
        <ele>405.60000610352</ele>
        <time>2022-08-21T13:19:59.000Z</time>
      </trkpt>
      <trkpt lat="49.77121" lon="5.29989">
        <ele>405.39999389648</ele>
        <time>2022-08-21T13:20:00.000Z</time>
      </trkpt>
      <trkpt lat="49.77115" lon="5.29984">
        <ele>405.39999389648</ele>
        <time>2022-08-21T13:20:01.000Z</time>
      </trkpt>
      <trkpt lat="49.77103" lon="5.29974">
        <ele>405.79998779297</ele>
        <time>2022-08-21T13:20:03.000Z</time>
      </trkpt>
      <trkpt lat="49.77087" lon="5.2996">
        <ele>406.39999389648</ele>
        <time>2022-08-21T13:20:06.000Z</time>
      </trkpt>
      <trkpt lat="49.77046" lon="5.29924">
        <ele>406.79998779297</ele>
        <time>2022-08-21T13:20:14.000Z</time>
      </trkpt>
      <trkpt lat="49.77003" lon="5.29887">
        <ele>407.20001220703</ele>
        <time>2022-08-21T13:20:23.000Z</time>
      </trkpt>
      <trkpt lat="49.76968" lon="5.29857">
        <ele>406.60000610352</ele>
        <time>2022-08-21T13:20:30.000Z</time>
      </trkpt>
      <trkpt lat="49.76933" lon="5.29828">
        <ele>403.60000610352</ele>
        <time>2022-08-21T13:20:37.000Z</time>
      </trkpt>
      <trkpt lat="49.76898" lon="5.29796">
        <ele>403.60000610352</ele>
        <time>2022-08-21T13:20:44.000Z</time>
      </trkpt>
      <trkpt lat="49.7687" lon="5.29762">
        <ele>404.20001220703</ele>
        <time>2022-08-21T13:20:50.000Z</time>
      </trkpt>
      <trkpt lat="49.76867" lon="5.29755">
        <ele>404.39999389648</ele>
        <time>2022-08-21T13:20:51.000Z</time>
      </trkpt>
      <trkpt lat="49.76844" lon="5.29702">
        <ele>404.20001220703</ele>
        <time>2022-08-21T13:20:58.000Z</time>
      </trkpt>
      <trkpt lat="49.76823" lon="5.2966">
        <ele>400.60000610352</ele>
        <time>2022-08-21T13:21:04.000Z</time>
      </trkpt>
      <trkpt lat="49.76818" lon="5.29653">
        <ele>399.79998779297</ele>
        <time>2022-08-21T13:21:05.000Z</time>
      </trkpt>
      <trkpt lat="49.76798" lon="5.29638">
        <ele>399.39999389648</ele>
        <time>2022-08-21T13:21:08.000Z</time>
      </trkpt>
      <trkpt lat="49.76791" lon="5.29634">
        <ele>399.60000610352</ele>
        <time>2022-08-21T13:21:09.000Z</time>
      </trkpt>
      <trkpt lat="49.76784" lon="5.2963">
        <ele>400.20001220703</ele>
        <time>2022-08-21T13:21:10.000Z</time>
      </trkpt>
      <trkpt lat="49.76772" lon="5.29621">
        <ele>400.79998779297</ele>
        <time>2022-08-21T13:21:12.000Z</time>
      </trkpt>
      <trkpt lat="49.76761" lon="5.29613">
        <ele>401.39999389648</ele>
        <time>2022-08-21T13:21:14.000Z</time>
      </trkpt>
      <trkpt lat="49.7673" lon="5.2959">
        <ele>399.79998779297</ele>
        <time>2022-08-21T13:21:20.000Z</time>
      </trkpt>
      <trkpt lat="49.76701" lon="5.29568">
        <ele>396.39999389648</ele>
        <time>2022-08-21T13:21:26.000Z</time>
      </trkpt>
      <trkpt lat="49.76691" lon="5.29559">
        <ele>397.20001220703</ele>
        <time>2022-08-21T13:21:28.000Z</time>
      </trkpt>
      <trkpt lat="49.76662" lon="5.29535">
        <ele>401.60000610352</ele>
        <time>2022-08-21T13:21:34.000Z</time>
      </trkpt>
      <trkpt lat="49.76657" lon="5.29531">
        <ele>402.60000610352</ele>
        <time>2022-08-21T13:21:35.000Z</time>
      </trkpt>
      <trkpt lat="49.7663" lon="5.29505">
        <ele>405</ele>
        <time>2022-08-21T13:21:41.000Z</time>
      </trkpt>
      <trkpt lat="49.76626" lon="5.295">
        <ele>405</ele>
        <time>2022-08-21T13:21:42.000Z</time>
      </trkpt>
      <trkpt lat="49.76619" lon="5.29492">
        <ele>405.20001220703</ele>
        <time>2022-08-21T13:21:44.000Z</time>
      </trkpt>
      <trkpt lat="49.76606" lon="5.29475">
        <ele>405.60000610352</ele>
        <time>2022-08-21T13:21:48.000Z</time>
      </trkpt>
      <trkpt lat="49.76599" lon="5.29466">
        <ele>406</ele>
        <time>2022-08-21T13:21:50.000Z</time>
      </trkpt>
      <trkpt lat="49.76583" lon="5.29444">
        <ele>408.39999389648</ele>
        <time>2022-08-21T13:21:54.000Z</time>
      </trkpt>
      <trkpt lat="49.7656" lon="5.29406">
        <ele>409.79998779297</ele>
        <time>2022-08-21T13:21:59.000Z</time>
      </trkpt>
      <trkpt lat="49.76556" lon="5.29401">
        <ele>409.60000610352</ele>
        <time>2022-08-21T13:22:00.000Z</time>
      </trkpt>
      <trkpt lat="49.76547" lon="5.29392">
        <ele>408.79998779297</ele>
        <time>2022-08-21T13:22:02.000Z</time>
      </trkpt>
      <trkpt lat="49.76543" lon="5.2939">
        <ele>408.60000610352</ele>
        <time>2022-08-21T13:22:03.000Z</time>
      </trkpt>
      <trkpt lat="49.76523" lon="5.29387">
        <ele>407.39999389648</ele>
        <time>2022-08-21T13:22:08.000Z</time>
      </trkpt>
      <trkpt lat="49.76519" lon="5.29388">
        <ele>407.20001220703</ele>
        <time>2022-08-21T13:22:09.000Z</time>
      </trkpt>
      <trkpt lat="49.76512" lon="5.29388">
        <ele>407</ele>
        <time>2022-08-21T13:22:11.000Z</time>
      </trkpt>
      <trkpt lat="49.76505" lon="5.29389">
        <ele>406.79998779297</ele>
        <time>2022-08-21T13:22:13.000Z</time>
      </trkpt>
      <trkpt lat="49.76501" lon="5.29389">
        <ele>407</ele>
        <time>2022-08-21T13:22:14.000Z</time>
      </trkpt>
      <trkpt lat="49.76494" lon="5.29389">
        <ele>407.20001220703</ele>
        <time>2022-08-21T13:22:16.000Z</time>
      </trkpt>
      <trkpt lat="49.7649" lon="5.29389">
        <ele>407.39999389648</ele>
        <time>2022-08-21T13:22:17.000Z</time>
      </trkpt>
      <trkpt lat="49.76483" lon="5.2939">
        <ele>407.60000610352</ele>
        <time>2022-08-21T13:22:19.000Z</time>
      </trkpt>
      <trkpt lat="49.76468" lon="5.29389">
        <ele>408.60000610352</ele>
        <time>2022-08-21T13:22:23.000Z</time>
      </trkpt>
      <trkpt lat="49.76465" lon="5.29389">
        <ele>408.79998779297</ele>
        <time>2022-08-21T13:22:24.000Z</time>
      </trkpt>
      <trkpt lat="49.76444" lon="5.29385">
        <ele>410.20001220703</ele>
        <time>2022-08-21T13:22:29.000Z</time>
      </trkpt>
      <trkpt lat="49.76414" lon="5.29378">
        <ele>411.79998779297</ele>
        <time>2022-08-21T13:22:36.000Z</time>
      </trkpt>
      <trkpt lat="49.76409" lon="5.29377">
        <ele>412</ele>
        <time>2022-08-21T13:22:37.000Z</time>
      </trkpt>
      <trkpt lat="49.76388" lon="5.29376">
        <ele>412.60000610352</ele>
        <time>2022-08-21T13:22:42.000Z</time>
      </trkpt>
      <trkpt lat="49.7638" lon="5.29376">
        <ele>412.79998779297</ele>
        <time>2022-08-21T13:22:44.000Z</time>
      </trkpt>
      <trkpt lat="49.76353" lon="5.29378">
        <ele>413.39999389648</ele>
        <time>2022-08-21T13:22:50.000Z</time>
      </trkpt>
      <trkpt lat="49.7634" lon="5.29378">
        <ele>413.39999389648</ele>
        <time>2022-08-21T13:22:53.000Z</time>
      </trkpt>
      <trkpt lat="49.76324" lon="5.29379">
        <ele>414</ele>
        <time>2022-08-21T13:22:57.000Z</time>
      </trkpt>
      <trkpt lat="49.76319" lon="5.29379">
        <ele>414.20001220703</ele>
        <time>2022-08-21T13:22:58.000Z</time>
      </trkpt>
      <trkpt lat="49.76287" lon="5.29382">
        <ele>414</ele>
        <time>2022-08-21T13:23:04.000Z</time>
      </trkpt>
      <trkpt lat="49.76282" lon="5.29382">
        <ele>414</ele>
        <time>2022-08-21T13:23:05.000Z</time>
      </trkpt>
      <trkpt lat="49.76252" lon="5.29384">
        <ele>414.79998779297</ele>
        <time>2022-08-21T13:23:11.000Z</time>
      </trkpt>
      <trkpt lat="49.76221" lon="5.29386">
        <ele>414</ele>
        <time>2022-08-21T13:23:17.000Z</time>
      </trkpt>
      <trkpt lat="49.76188" lon="5.29391">
        <ele>412.79998779297</ele>
        <time>2022-08-21T13:23:23.000Z</time>
      </trkpt>
      <trkpt lat="49.76169" lon="5.29393">
        <ele>412.39999389648</ele>
        <time>2022-08-21T13:23:26.000Z</time>
      </trkpt>
      <trkpt lat="49.76149" lon="5.29394">
        <ele>412</ele>
        <time>2022-08-21T13:23:29.000Z</time>
      </trkpt>
      <trkpt lat="49.76135" lon="5.29396">
        <ele>412</ele>
        <time>2022-08-21T13:23:31.000Z</time>
      </trkpt>
      <trkpt lat="49.76107" lon="5.29403">
        <ele>410.79998779297</ele>
        <time>2022-08-21T13:23:35.000Z</time>
      </trkpt>
      <trkpt lat="49.76082" lon="5.29415">
        <ele>408.79998779297</ele>
        <time>2022-08-21T13:23:39.000Z</time>
      </trkpt>
      <trkpt lat="49.76071" lon="5.2942">
        <ele>407.60000610352</ele>
        <time>2022-08-21T13:23:41.000Z</time>
      </trkpt>
      <trkpt lat="49.76044" lon="5.29434">
        <ele>406.20001220703</ele>
        <time>2022-08-21T13:23:46.000Z</time>
      </trkpt>
      <trkpt lat="49.76033" lon="5.29439">
        <ele>405.79998779297</ele>
        <time>2022-08-21T13:23:48.000Z</time>
      </trkpt>
      <trkpt lat="49.76022" lon="5.29444">
        <ele>404.60000610352</ele>
        <time>2022-08-21T13:23:50.000Z</time>
      </trkpt>
      <trkpt lat="49.75999" lon="5.29454">
        <ele>403</ele>
        <time>2022-08-21T13:23:54.000Z</time>
      </trkpt>
      <trkpt lat="49.75994" lon="5.29456">
        <ele>402.60000610352</ele>
        <time>2022-08-21T13:23:55.000Z</time>
      </trkpt>
      <trkpt lat="49.75963" lon="5.29473">
        <ele>400.20001220703</ele>
        <time>2022-08-21T13:24:00.000Z</time>
      </trkpt>
      <trkpt lat="49.75943" lon="5.29484">
        <ele>398.79998779297</ele>
        <time>2022-08-21T13:24:03.000Z</time>
      </trkpt>
      <trkpt lat="49.7593" lon="5.29491">
        <ele>398.20001220703</ele>
        <time>2022-08-21T13:24:05.000Z</time>
      </trkpt>
      <trkpt lat="49.75904" lon="5.29503">
        <ele>397.60000610352</ele>
        <time>2022-08-21T13:24:09.000Z</time>
      </trkpt>
      <trkpt lat="49.75895" lon="5.29509">
        <ele>397.39999389648</ele>
        <time>2022-08-21T13:24:10.000Z</time>
      </trkpt>
      <trkpt lat="49.75878" lon="5.29519">
        <ele>397</ele>
        <time>2022-08-21T13:24:12.000Z</time>
      </trkpt>
      <trkpt lat="49.75862" lon="5.2953">
        <ele>395.79998779297</ele>
        <time>2022-08-21T13:24:14.000Z</time>
      </trkpt>
      <trkpt lat="49.75845" lon="5.2954">
        <ele>394</ele>
        <time>2022-08-21T13:24:16.000Z</time>
      </trkpt>
      <trkpt lat="49.75825" lon="5.2955">
        <ele>391.20001220703</ele>
        <time>2022-08-21T13:24:18.000Z</time>
      </trkpt>
      <trkpt lat="49.75804" lon="5.29555">
        <ele>389</ele>
        <time>2022-08-21T13:24:20.000Z</time>
      </trkpt>
      <trkpt lat="49.75783" lon="5.29557">
        <ele>387.39999389648</ele>
        <time>2022-08-21T13:24:22.000Z</time>
      </trkpt>
      <trkpt lat="49.7576" lon="5.29557">
        <ele>385.20001220703</ele>
        <time>2022-08-21T13:24:24.000Z</time>
      </trkpt>
      <trkpt lat="49.75748" lon="5.29558">
        <ele>384.60000610352</ele>
        <time>2022-08-21T13:24:25.000Z</time>
      </trkpt>
      <trkpt lat="49.75737" lon="5.29558">
        <ele>384.20001220703</ele>
        <time>2022-08-21T13:24:26.000Z</time>
      </trkpt>
      <trkpt lat="49.75726" lon="5.29557">
        <ele>384.20001220703</ele>
        <time>2022-08-21T13:24:27.000Z</time>
      </trkpt>
      <trkpt lat="49.75716" lon="5.29557">
        <ele>385.39999389648</ele>
        <time>2022-08-21T13:24:28.000Z</time>
      </trkpt>
      <trkpt lat="49.75706" lon="5.29557">
        <ele>386.39999389648</ele>
        <time>2022-08-21T13:24:29.000Z</time>
      </trkpt>
      <trkpt lat="49.75688" lon="5.29556">
        <ele>387.39999389648</ele>
        <time>2022-08-21T13:24:31.000Z</time>
      </trkpt>
      <trkpt lat="49.75661" lon="5.29556">
        <ele>388.20001220703</ele>
        <time>2022-08-21T13:24:35.000Z</time>
      </trkpt>
      <trkpt lat="49.75651" lon="5.29556">
        <ele>388.20001220703</ele>
        <time>2022-08-21T13:24:37.000Z</time>
      </trkpt>
      <trkpt lat="49.75646" lon="5.29556">
        <ele>388.20001220703</ele>
        <time>2022-08-21T13:24:38.000Z</time>
      </trkpt>
      <trkpt lat="49.75637" lon="5.29557">
        <ele>388.60000610352</ele>
        <time>2022-08-21T13:24:40.000Z</time>
      </trkpt>
      <trkpt lat="49.75625" lon="5.29556">
        <ele>389.60000610352</ele>
        <time>2022-08-21T13:24:43.000Z</time>
      </trkpt>
      <trkpt lat="49.75614" lon="5.29555">
        <ele>389.79998779297</ele>
        <time>2022-08-21T13:24:46.000Z</time>
      </trkpt>
      <trkpt lat="49.75611" lon="5.29554">
        <ele>390</ele>
        <time>2022-08-21T13:24:47.000Z</time>
      </trkpt>
      <trkpt lat="49.75607" lon="5.29553">
        <ele>390</ele>
        <time>2022-08-21T13:24:49.000Z</time>
      </trkpt>
      <trkpt lat="49.75603" lon="5.29553">
        <ele>389.79998779297</ele>
        <time>2022-08-21T13:24:51.000Z</time>
      </trkpt>
      <trkpt lat="49.75598" lon="5.29554">
        <ele>389.60000610352</ele>
        <time>2022-08-21T13:24:53.000Z</time>
      </trkpt>
      <trkpt lat="49.75585" lon="5.29553">
        <ele>389.20001220703</ele>
        <time>2022-08-21T13:24:57.000Z</time>
      </trkpt>
      <trkpt lat="49.75562" lon="5.29557">
        <ele>387.20001220703</ele>
        <time>2022-08-21T13:25:04.000Z</time>
      </trkpt>
      <trkpt lat="49.75536" lon="5.29562">
        <ele>384.79998779297</ele>
        <time>2022-08-21T13:25:11.000Z</time>
      </trkpt>
      <trkpt lat="49.75518" lon="5.29572">
        <ele>383.39999389648</ele>
        <time>2022-08-21T13:25:16.000Z</time>
      </trkpt>
      <trkpt lat="49.75503" lon="5.29603">
        <ele>382</ele>
        <time>2022-08-21T13:25:22.000Z</time>
      </trkpt>
      <trkpt lat="49.7549" lon="5.29634">
        <ele>381.60000610352</ele>
        <time>2022-08-21T13:25:27.000Z</time>
      </trkpt>
      <trkpt lat="49.75477" lon="5.29652">
        <ele>381.39999389648</ele>
        <time>2022-08-21T13:25:30.000Z</time>
      </trkpt>
      <trkpt lat="49.75461" lon="5.2967">
        <ele>380.60000610352</ele>
        <time>2022-08-21T13:25:33.000Z</time>
      </trkpt>
      <trkpt lat="49.75449" lon="5.29683">
        <ele>380.20001220703</ele>
        <time>2022-08-21T13:25:35.000Z</time>
      </trkpt>
      <trkpt lat="49.75442" lon="5.2969">
        <ele>380</ele>
        <time>2022-08-21T13:25:36.000Z</time>
      </trkpt>
      <trkpt lat="49.75436" lon="5.29697">
        <ele>379.79998779297</ele>
        <time>2022-08-21T13:25:37.000Z</time>
      </trkpt>
      <trkpt lat="49.75421" lon="5.29713">
        <ele>379.20001220703</ele>
        <time>2022-08-21T13:25:39.000Z</time>
      </trkpt>
      <trkpt lat="49.75406" lon="5.29732">
        <ele>376.79998779297</ele>
        <time>2022-08-21T13:25:41.000Z</time>
      </trkpt>
      <trkpt lat="49.75393" lon="5.29753">
        <ele>375.60000610352</ele>
        <time>2022-08-21T13:25:43.000Z</time>
      </trkpt>
      <trkpt lat="49.75381" lon="5.29775">
        <ele>376.60000610352</ele>
        <time>2022-08-21T13:25:45.000Z</time>
      </trkpt>
      <trkpt lat="49.75376" lon="5.29785">
        <ele>378</ele>
        <time>2022-08-21T13:25:46.000Z</time>
      </trkpt>
      <trkpt lat="49.7536" lon="5.29819">
        <ele>387.79998779297</ele>
        <time>2022-08-21T13:25:50.000Z</time>
      </trkpt>
      <trkpt lat="49.75358" lon="5.29827">
        <ele>389.79998779297</ele>
        <time>2022-08-21T13:25:51.000Z</time>
      </trkpt>
      <trkpt lat="49.75361" lon="5.29845">
        <ele>391.60000610352</ele>
        <time>2022-08-21T13:25:54.000Z</time>
      </trkpt>
      <trkpt lat="49.75363" lon="5.29849">
        <ele>391.79998779297</ele>
        <time>2022-08-21T13:25:55.000Z</time>
      </trkpt>
      <trkpt lat="49.75365" lon="5.29851">
        <ele>392</ele>
        <time>2022-08-21T13:25:56.000Z</time>
      </trkpt>
      <trkpt lat="49.75369" lon="5.29858">
        <ele>391.60000610352</ele>
        <time>2022-08-21T13:25:59.000Z</time>
      </trkpt>
      <trkpt lat="49.75373" lon="5.29864">
        <ele>389.60000610352</ele>
        <time>2022-08-21T13:26:02.000Z</time>
      </trkpt>
      <trkpt lat="49.75379" lon="5.29872">
        <ele>386</ele>
        <time>2022-08-21T13:26:06.000Z</time>
      </trkpt>
      <trkpt lat="49.75383" lon="5.29874">
        <ele>383.39999389648</ele>
        <time>2022-08-21T13:26:08.000Z</time>
      </trkpt>
      <trkpt lat="49.75385" lon="5.29873">
        <ele>382</ele>
        <time>2022-08-21T13:26:10.000Z</time>
      </trkpt>
      <trkpt lat="49.75379" lon="5.29866">
        <ele>385.60000610352</ele>
        <time>2022-08-21T13:26:15.000Z</time>
      </trkpt>
      <trkpt lat="49.75369" lon="5.29856">
        <ele>391.60000610352</ele>
        <time>2022-08-21T13:26:21.000Z</time>
      </trkpt>
    </trkseg>
  </trk>
</gpx>